Wetterdaten: aktuell Samstag, 02.03.2024 01:08
Datum Zeit Temp T5cm T-10cm T-20cm T-50cm Feuchte Bf -10cm Bf -20cm Bf-50cm Luftdruck Regen Wind Richtung Richtung Sonnenschein ET UV Solar Taupunkt Windchill Windben Empfang
02.03.2024 01:08 6,3 C 5,6 C 6,7 C 6,7 C 6,1 C 93 % 146 cb 135 cb 137 cb 1008,9 hPa 0,0 l/m 0,0 km/h (0 Bft) N 0 0 min 0,000 mm 0,0 UV-I 0 W/m 5,3 C 6,3 C 0,0 km/h (0 Bft) 100,00 %
02.03.2024 01:07 6,3 C 5,6 C 6,7 C 6,7 C 6,1 C 93 % 126 cb 116 cb 113 cb 1009,0 hPa 0,0 l/m 0,0 km/h (0 Bft) N 0 0 min 0,000 mm 0,0 UV-I 0 W/m 5,3 C 6,3 C 0,0 km/h (0 Bft) 95,65 %
02.03.2024 01:06 6,3 C 5,6 C 6,7 C 6,7 C 6,1 C 93 % 126 cb 116 cb 113 cb 1009,1 hPa 0,0 l/m 0,0 km/h (0 Bft) N 0 0 min 0,000 mm 0,0 UV-I 0 W/m 5,3 C 6,3 C 0,0 km/h (0 Bft) 91,30 %
02.03.2024 01:05 6,3 C 5,6 C 6,7 C 6,7 C 6,1 C 93 % 144 cb 129 cb 122 cb 1009,1 hPa 0,0 l/m 0,0 km/h (0 Bft) N 0 0 min 0,000 mm 0,0 UV-I 0 W/m 5,3 C 6,3 C 0,0 km/h (0 Bft) 100,00 %
02.03.2024 01:04 6,3 C 5,6 C 6,7 C 6,7 C 6,1 C 93 % 133 cb 124 cb 124 cb 1009,1 hPa 0,0 l/m 0,0 km/h (0 Bft) N 0 0 min 0,000 mm 0,0 UV-I 0 W/m 5,3 C 6,3 C 0,0 km/h (0 Bft) 91,30 %
02.03.2024 01:03 6,3 C 5,6 C 6,7 C 6,7 C 6,1 C 93 % 136 cb 131 cb 132 cb 1009,0 hPa 0,0 l/m 0,0 km/h (0 Bft) N 0 0 min 0,000 mm 0,0 UV-I 0 W/m 5,3 C 6,3 C 0,0 km/h (0 Bft) 95,65 %
02.03.2024 01:02 6,3 C 5,6 C 6,7 C 6,7 C 6,1 C 93 % 155 cb 142 cb 130 cb 1009,1 hPa 0,0 l/m 0,0 km/h (0 Bft) N 0 0 min 0,000 mm 0,0 UV-I 0 W/m 5,3 C 6,3 C 0,0 km/h (0 Bft) 100,00 %
02.03.2024 01:01 6,3 C 5,6 C 6,7 C 6,7 C 6,1 C 93 % 145 cb 132 cb 135 cb 1009,1 hPa 0,0 l/m 0,0 km/h (0 Bft) N 0 0 min 0,000 mm 0,0 UV-I 0 W/m 5,3 C 6,3 C 0,0 km/h (0 Bft) 95,65 %
02.03.2024 01:00 6,3 C 5,6 C 6,7 C 6,7 C 6,1 C 93 % 143 cb 129 cb 162 cb 1009,1 hPa 0,0 l/m 0,0 km/h (0 Bft) N 0 0 min 0,000 mm 0,0 UV-I 0 W/m 5,3 C 6,3 C 0,0 km/h (0 Bft) 95,65 %
02.03.2024 00:59 6,3 C 5,6 C 6,7 C 6,7 C 6,1 C 93 % 187 cb 174 cb 162 cb 1009,1 hPa 0,0 l/m 0,0 km/h (0 Bft) N 0 0 min 0,000 mm 0,0 UV-I 0 W/m 5,3 C 6,3 C 0,0 km/h (0 Bft) 100,00 %
02.03.2024 00:58 6,3 C 5,6 C 6,7 C 6,7 C 6,1 C 93 % 162 cb 152 cb 138 cb 1009,1 hPa 0,0 l/m 0,0 km/h (0 Bft) N 0 0 min 0,000 mm 0,0 UV-I 0 W/m 5,3 C 6,3 C 0,0 km/h (0 Bft) 95,65 %
02.03.2024 00:57 6,3 C 5,6 C 6,7 C 6,7 C 6,1 C 93 % 166 cb 153 cb 139 cb 1009,1 hPa 0,0 l/m 0,0 km/h (0 Bft) N 0 0 min 0,000 mm 0,0 UV-I 0 W/m 5,3 C 6,3 C 0,0 km/h (0 Bft) 95,65 %
02.03.2024 00:56 6,3 C 5,6 C 6,7 C 6,7 C 6,1 C 93 % 167 cb 151 cb 142 cb 1009,1 hPa 0,0 l/m 0,0 km/h (0 Bft) N 0 0 min 0,000 mm 0,0 UV-I 0 W/m 5,3 C 6,3 C 0,0 km/h (0 Bft) 95,65 %
02.03.2024 00:55 6,3 C 5,6 C 6,7 C 6,7 C 6,1 C 93 % 129 cb 121 cb 119 cb 1009,2 hPa 0,0 l/m 0,0 km/h (0 Bft) N 0 0 min 0,000 mm 0,0 UV-I 0 W/m 5,3 C 6,3 C 0,0 km/h (0 Bft) 95,65 %
02.03.2024 00:54 6,3 C 5,6 C 6,7 C 6,7 C 6,1 C 93 % 134 cb 118 cb 114 cb 1009,1 hPa 0,0 l/m 0,0 km/h (0 Bft) N 0 0 min 0,000 mm 0,0 UV-I 0 W/m 5,3 C 6,3 C 0,0 km/h (0 Bft) 95,65 %
02.03.2024 00:53 6,3 C 5,6 C 6,7 C 6,7 C 6,1 C 93 % 133 cb 123 cb 117 cb 1009,1 hPa 0,0 l/m 0,0 km/h (0 Bft) N 0 0 min 0,000 mm 0,0 UV-I 0 W/m 5,3 C 6,3 C 0,0 km/h (0 Bft) 95,65 %
02.03.2024 00:52 6,3 C 5,6 C 6,7 C 6,7 C 6,1 C 93 % 136 cb 124 cb 119 cb 1009,1 hPa 0,0 l/m 0,0 km/h (0 Bft) N 0 0 min 0,000 mm 0,0 UV-I 0 W/m 5,3 C 6,3 C 0,0 km/h (0 Bft) 95,65 %
02.03.2024 00:51 6,3 C 5,6 C 6,7 C 6,7 C 6,1 C 93 % 136 cb 123 cb 117 cb 1009,1 hPa 0,0 l/m 0,0 km/h (0 Bft) N 0 0 min 0,000 mm 0,0 UV-I 0 W/m 5,3 C 6,3 C 0,0 km/h (0 Bft) 91,30 %
02.03.2024 00:50 6,3 C 5,6 C 6,7 C 6,7 C 6,1 C 93 % 132 cb 123 cb 119 cb 1009,1 hPa 0,0 l/m 0,0 km/h (0 Bft) N 0 0 min 0,000 mm 0,0 UV-I 0 W/m 5,3 C 6,3 C 0,0 km/h (0 Bft) 100,00 %
02.03.2024 00:49 6,3 C 5,6 C 6,7 C 6,7 C 6,1 C 93 % 133 cb 122 cb 119 cb 1009,1 hPa 0,0 l/m 0,0 km/h (0 Bft) N 0 0 min 0,000 mm 0,0 UV-I 0 W/m 5,3 C 6,3 C 0,0 km/h (0 Bft) 95,65 %
02.03.2024 00:48 6,3 C 5,6 C 6,7 C 6,7 C 6,1 C 93 % 137 cb 130 cb 117 cb 1009,1 hPa 0,0 l/m 0,0 km/h (0 Bft) N 0 0 min 0,000 mm 0,0 UV-I 0 W/m 5,3 C 6,3 C 0,0 km/h (0 Bft) 95,65 %
02.03.2024 00:47 6,3 C 5,6 C 6,7 C 6,7 C 6,1 C 93 % 187 cb 164 cb 153 cb 1009,1 hPa 0,0 l/m 0,0 km/h (0 Bft) N 0 0 min 0,000 mm 0,0 UV-I 0 W/m 5,3 C 6,3 C 0,0 km/h (0 Bft) 100,00 %
02.03.2024 00:46 6,3 C 5,6 C 6,7 C 6,7 C 6,1 C 93 % 187 cb 164 cb 153 cb 1009,1 hPa 0,0 l/m 0,0 km/h (0 Bft) N 0 0 min 0,000 mm 0,0 UV-I 0 W/m 5,3 C 6,3 C 0,0 km/h (0 Bft) 91,30 %
02.03.2024 00:45 6,3 C 5,6 C 6,7 C 6,7 C 6,1 C 93 % 186 cb 160 cb 167 cb 1009,1 hPa 0,0 l/m 0,0 km/h (0 Bft) N 0 0 min 0,000 mm 0,0 UV-I 0 W/m 5,3 C 6,3 C 0,0 km/h (0 Bft) 95,65 %
02.03.2024 00:44 6,3 C 5,6 C 6,7 C 6,7 C 6,1 C 93 % 150 cb 176 cb 167 cb 1009,1 hPa 0,0 l/m 0,0 km/h (0 Bft) N 0 0 min 0,000 mm 0,0 UV-I 0 W/m 5,3 C 6,3 C 0,0 km/h (0 Bft) 100,00 %
02.03.2024 00:43 6,3 C 5,6 C 6,7 C 6,7 C 6,1 C 93 % 131 cb 133 cb 126 cb 1009,2 hPa 0,0 l/m 0,0 km/h (0 Bft) N 0 0 min 0,000 mm 0,0 UV-I 0 W/m 5,3 C 6,3 C 0,0 km/h (0 Bft) 91,30 %
02.03.2024 00:42 6,3 C 5,6 C 6,7 C 6,7 C 6,1 C 93 % 159 cb 154 cb 113 cb 1009,1 hPa 0,0 l/m 0,0 km/h (0 Bft) N 0 0 min 0,000 mm 0,0 UV-I 0 W/m 5,3 C 6,3 C 0,0 km/h (0 Bft) 95,65 %
02.03.2024 00:41 6,3 C 5,6 C 6,7 C 6,7 C 6,1 C 93 % 163 cb 140 cb 119 cb 1009,1 hPa 0,0 l/m 0,0 km/h (0 Bft) N 0 0 min 0,000 mm 0,0 UV-I 0 W/m 5,3 C 6,3 C 0,0 km/h (0 Bft) 100,00 %
02.03.2024 00:40 6,3 C 5,6 C 6,7 C 6,7 C 6,1 C 93 % 137 cb 110 cb 119 cb 1009,1 hPa 0,0 l/m 0,0 km/h (0 Bft) N 0 0 min 0,000 mm 0,0 UV-I 0 W/m 5,3 C 6,3 C 0,0 km/h (0 Bft) 95,65 %
02.03.2024 00:39 6,3 C 5,6 C 6,7 C 6,7 C 6,1 C 93 % 119 cb 110 cb 104 cb 1009,2 hPa 0,0 l/m 0,0 km/h (0 Bft) N 0 0 min 0,000 mm 0,0 UV-I 0 W/m 5,3 C 6,3 C 0,0 km/h (0 Bft) 91,30 %
02.03.2024 00:38 6,3 C 5,6 C 6,7 C 6,7 C 6,1 C 93 % 148 cb 129 cb 124 cb 1009,2 hPa 0,0 l/m 0,0 km/h (0 Bft) N 0 0 min 0,000 mm 0,0 UV-I 0 W/m 5,3 C 6,3 C 0,0 km/h (0 Bft) 95,65 %
02.03.2024 00:37 6,3 C 5,6 C 6,7 C 6,7 C 6,1 C 93 % 191 cb 153 cb 160 cb 1009,2 hPa 0,0 l/m 0,0 km/h (0 Bft) N 0 0 min 0,000 mm 0,0 UV-I 0 W/m 5,3 C 6,3 C 0,0 km/h (0 Bft) 95,65 %
02.03.2024 00:36 6,3 C 5,6 C 6,7 C 6,7 C 6,1 C 93 % 166 cb 150 cb 143 cb 1009,2 hPa 0,0 l/m 0,0 km/h (0 Bft) N 0 0 min 0,000 mm 0,0 UV-I 0 W/m 5,3 C 6,3 C 0,0 km/h (0 Bft) 95,65 %
02.03.2024 00:35 6,3 C 5,6 C 6,7 C 6,7 C 6,1 C 93 % 154 cb 139 cb 137 cb 1009,1 hPa 0,0 l/m 0,0 km/h (0 Bft) NW 315 0 min 0,000 mm 0,0 UV-I 0 W/m 5,3 C 6,3 C 1,6 km/h (1 Bft) 95,65 %
02.03.2024 00:34 6,3 C 5,6 C 6,7 C 6,7 C 6,1 C 93 % 154 cb 137 cb 132 cb 1009,2 hPa 0,0 l/m 1,6 km/h (1 Bft) NW 315 0 min 0,000 mm 0,0 UV-I 0 W/m 5,3 C 6,3 C 1,6 km/h (1 Bft) 100,00 %
02.03.2024 00:33 6,3 C 5,6 C 6,7 C 6,7 C 6,1 C 93 % 183 cb 159 cb 152 cb 1009,2 hPa 0,0 l/m 1,6 km/h (1 Bft) NW 315 0 min 0,000 mm 0,0 UV-I 0 W/m 5,3 C 6,3 C 1,6 km/h (1 Bft) 95,65 %
02.03.2024 00:32 6,3 C 5,6 C 6,7 C 6,7 C 6,1 C 93 % 154 cb 165 cb 150 cb 1009,1 hPa 0,0 l/m 1,6 km/h (1 Bft) NW 315 0 min 0,000 mm 0,0 UV-I 0 W/m 5,3 C 6,3 C 3,2 km/h (1 Bft) 95,65 %
02.03.2024 00:31 6,4 C 5,6 C 6,7 C 6,7 C 6,1 C 93 % 160 cb 146 cb 137 cb 1009,2 hPa 0,0 l/m 1,6 km/h (1 Bft) NW 315 0 min 0,000 mm 0,0 UV-I 0 W/m 5,4 C 6,4 C 1,6 km/h (1 Bft) 100,00 %
02.03.2024 00:30 6,4 C 5,6 C 6,7 C 6,7 C 6,1 C 93 % 142 cb 128 cb 119 cb 1009,2 hPa 0,0 l/m 1,6 km/h (1 Bft) NW 315 0 min 0,000 mm 0,0 UV-I 0 W/m 5,4 C 6,4 C 3,2 km/h (1 Bft) 95,65 %
02.03.2024 00:29 6,3 C 5,6 C 6,7 C 6,7 C 6,1 C 93 % 142 cb 126 cb 123 cb 1009,2 hPa 0,0 l/m 0,0 km/h (0 Bft) NW 315 0 min 0,000 mm 0,0 UV-I 0 W/m 5,3 C 6,3 C 1,6 km/h (1 Bft) 95,65 %
02.03.2024 00:28 6,3 C 5,6 C 6,7 C 6,7 C 6,1 C 93 % 138 cb 126 cb 123 cb 1009,2 hPa 0,0 l/m 0,0 km/h (0 Bft) N 0 0 min 0,000 mm 0,0 UV-I 0 W/m 5,3 C 6,3 C 0,0 km/h (0 Bft) 100,00 %
02.03.2024 00:27 6,3 C 5,6 C 6,7 C 6,7 C 6,1 C 93 % 104 cb 100 cb 96 cb 1009,1 hPa 0,0 l/m 0,0 km/h (0 Bft) N 0 0 min 0,000 mm 0,0 UV-I 0 W/m 5,3 C 6,3 C 0,0 km/h (0 Bft) 95,65 %
02.03.2024 00:26 6,4 C 5,6 C 6,7 C 6,7 C 6,1 C 93 % 120 cb 100 cb 124 cb 1009,1 hPa 0,0 l/m 0,0 km/h (0 Bft) NW 315 0 min 0,000 mm 0,0 UV-I 0 W/m 5,4 C 6,4 C 1,6 km/h (1 Bft) 95,65 %
02.03.2024 00:25 6,3 C 5,6 C 6,7 C 6,7 C 6,1 C 93 % 135 cb 127 cb 124 cb 1009,2 hPa 0,0 l/m 1,6 km/h (1 Bft) NW 315 0 min 0,000 mm 0,0 UV-I 0 W/m 5,3 C 6,3 C 1,6 km/h (1 Bft) 95,65 %
02.03.2024 00:24 6,3 C 5,6 C 6,7 C 6,7 C 6,1 C 93 % 135 cb 127 cb 123 cb 1009,2 hPa 0,0 l/m 1,6 km/h (1 Bft) NW 315 0 min 0,000 mm 0,0 UV-I 0 W/m 5,3 C 6,3 C 1,6 km/h (1 Bft) 95,65 %
02.03.2024 00:23 6,4 C 5,6 C 6,7 C 6,7 C 6,1 C 93 % 170 cb 130 cb 117 cb 1009,3 hPa 0,0 l/m 1,6 km/h (1 Bft) NW 315 0 min 0,000 mm 0,0 UV-I 0 W/m 5,4 C 6,4 C 1,6 km/h (1 Bft) 95,65 %
02.03.2024 00:22 6,3 C 5,6 C 6,7 C 6,7 C 6,1 C 93 % 135 cb 126 cb 115 cb 1009,2 hPa 0,0 l/m 0,0 km/h (0 Bft) NW 315 0 min 0,000 mm 0,0 UV-I 0 W/m 5,3 C 6,3 C 1,6 km/h (1 Bft) 100,00 %
02.03.2024 00:21 6,4 C 6,1 C 6,7 C 6,7 C 6,1 C 93 % 136 cb 121 cb 115 cb 1009,2 hPa 0,0 l/m 0,0 km/h (0 Bft) NW 315 0 min 0,000 mm 0,0 UV-I 0 W/m 5,4 C 6,4 C 1,6 km/h (1 Bft) 95,65 %
02.03.2024 00:20 6,4 C 6,1 C 6,7 C 6,7 C 6,1 C 93 % 143 cb 138 cb 132 cb 1009,3 hPa 0,0 l/m 0,0 km/h (0 Bft) N 0 0 min 0,000 mm 0,0 UV-I 0 W/m 5,4 C 6,4 C 0,0 km/h (0 Bft) 95,65 %
02.03.2024 00:19 6,4 C 6,1 C 6,7 C 6,7 C 6,1 C 93 % 180 cb 151 cb 124 cb 1009,3 hPa 0,0 l/m 0,0 km/h (0 Bft) N 0 0 min 0,000 mm 0,0 UV-I 0 W/m 5,4 C 6,4 C 0,0 km/h (0 Bft) 100,00 %
02.03.2024 00:18 6,4 C 6,1 C 6,7 C 6,7 C 6,1 C 93 % 129 cb 118 cb 113 cb 1009,3 hPa 0,0 l/m 0,0 km/h (0 Bft) N 0 0 min 0,000 mm 0,0 UV-I 0 W/m 5,4 C 6,4 C 0,0 km/h (0 Bft) 95,65 %
02.03.2024 00:17 6,4 C 5,6 C 6,7 C 6,7 C 6,1 C 93 % 129 cb 120 cb 117 cb 1009,3 hPa 0,0 l/m 0,0 km/h (0 Bft) N 0 0 min 0,000 mm 0,0 UV-I 0 W/m 5,4 C 6,4 C 0,0 km/h (0 Bft) 95,65 %
02.03.2024 00:16 6,4 C 5,6 C 6,7 C 6,7 C 6,1 C 93 % 120 cb 111 cb 107 cb 1009,3 hPa 0,0 l/m 0,0 km/h (0 Bft) N 0 0 min 0,000 mm 0,0 UV-I 0 W/m 5,4 C 6,4 C 0,0 km/h (0 Bft) 95,65 %
02.03.2024 00:15 6,4 C 5,6 C 6,7 C 6,7 C 6,1 C 93 % 106 cb 98 cb 95 cb 1009,2 hPa 0,0 l/m 0,0 km/h (0 Bft) N 0 0 min 0,000 mm 0,0 UV-I 0 W/m 5,4 C 6,4 C 0,0 km/h (0 Bft) 95,65 %
02.03.2024 00:14 6,4 C 5,6 C 6,7 C 6,7 C 6,1 C 93 % 88 cb 81 cb 80 cb 1009,2 hPa 0,0 l/m 0,0 km/h (0 Bft) N 0 0 min 0,000 mm 0,0 UV-I 0 W/m 5,4 C 6,4 C 0,0 km/h (0 Bft) 95,65 %
02.03.2024 00:13 6,4 C 5,6 C 6,7 C 6,7 C 6,1 C 93 % 89 cb 83 cb 81 cb 1009,3 hPa 0,0 l/m 0,0 km/h (0 Bft) N 0 0 min 0,000 mm 0,0 UV-I 0 W/m 5,4 C 6,4 C 0,0 km/h (0 Bft) 95,65 %
02.03.2024 00:12 6,4 C 5,6 C 6,7 C 6,7 C 6,1 C 93 % 150 cb 133 cb 126 cb 1009,3 hPa 0,0 l/m 0,0 km/h (0 Bft) N 0 0 min 0,000 mm 0,0 UV-I 0 W/m 5,4 C 6,4 C 0,0 km/h (0 Bft) 95,65 %
02.03.2024 00:11 6,4 C 5,6 C 6,7 C 6,7 C 6,1 C 93 % 153 cb 143 cb 134 cb 1009,2 hPa 0,0 l/m 0,0 km/h (0 Bft) N 0 0 min 0,000 mm 0,0 UV-I 0 W/m 5,4 C 6,4 C 0,0 km/h (0 Bft) 95,65 %
02.03.2024 00:10 6,4 C 5,6 C 6,7 C 6,7 C 6,1 C 93 % 96 cb 89 cb 85 cb 1009,3 hPa 0,0 l/m 0,0 km/h (0 Bft) N 0 0 min 0,000 mm 0,0 UV-I 0 W/m 5,4 C 6,4 C 0,0 km/h (0 Bft) 100,00 %
02.03.2024 00:09 6,4 C 5,6 C 6,7 C 6,7 C 6,1 C 93 % 124 cb 109 cb 103 cb 1009,2 hPa 0,0 l/m 0,0 km/h (0 Bft) N 0 0 min 0,000 mm 0,0 UV-I 0 W/m 5,4 C 6,4 C 0,0 km/h (0 Bft) 91,30 %
02.03.2024 00:08 6,4 C 5,6 C 6,7 C 6,7 C 6,1 C 93 % 171 cb 147 cb 143 cb 1009,3 hPa 0,0 l/m 0,0 km/h (0 Bft) N 0 0 min 0,000 mm 0,0 UV-I 0 W/m 5,4 C 6,4 C 0,0 km/h (0 Bft) 95,65 %
02.03.2024 00:07 6,4 C 6,1 C 6,7 C 6,7 C 6,1 C 93 % 171 cb 147 cb 143 cb 1009,3 hPa 0,0 l/m 0,0 km/h (0 Bft) N 0 0 min 0,000 mm 0,0 UV-I 0 W/m 5,4 C 6,4 C 0,0 km/h (0 Bft) 100,00 %
02.03.2024 00:06 6,4 C 6,1 C 6,7 C 6,7 C 6,1 C 93 % 165 cb 146 cb 142 cb 1009,9 hPa 0,0 l/m 0,0 km/h (0 Bft) N 0 0 min 0,000 mm 0,0 UV-I 0 W/m 5,4 C 6,4 C 0,0 km/h (0 Bft) 95,65 %
02.03.2024 00:05 6,4 C 5,6 C 6,7 C 6,7 C 6,1 C 93 % 164 cb 144 cb 136 cb 1009,2 hPa 0,0 l/m 0,0 km/h (0 Bft) N 0 0 min 0,000 mm 0,0 UV-I 0 W/m 5,4 C 6,4 C 0,0 km/h (0 Bft) 91,30 %
02.03.2024 00:04 6,4 C 5,6 C 6,7 C 6,7 C 6,1 C 93 % 163 cb 145 cb 137 cb 1009,3 hPa 0,0 l/m 0,0 km/h (0 Bft) N 0 0 min 0,000 mm 0,0 UV-I 0 W/m 5,4 C 6,4 C 0,0 km/h (0 Bft) 100,00 %
02.03.2024 00:03 6,4 C 5,6 C 6,7 C 6,7 C 6,1 C 93 % 156 cb 141 cb 132 cb 1009,2 hPa 0,0 l/m 0,0 km/h (0 Bft) N 0 0 min 0,000 mm 0,0 UV-I 0 W/m 5,4 C 6,4 C 0,0 km/h (0 Bft) 95,65 %
02.03.2024 00:02 6,4 C 5,6 C 6,7 C 6,7 C 6,1 C 93 % 156 cb 141 cb 133 cb 1009,2 hPa 0,0 l/m 0,0 km/h (0 Bft) N 0 0 min 0,000 mm 0,0 UV-I 0 W/m 5,4 C 6,4 C 0,0 km/h (0 Bft) 95,65 %
02.03.2024 00:01 6,4 C 5,6 C 6,7 C 6,7 C 6,1 C 93 % 156 cb 141 cb 136 cb 1009,2 hPa 0,0 l/m 0,0 km/h (0 Bft) N 0 0 min 0,000 mm 0,0 UV-I 0 W/m 5,4 C 6,4 C 0,0 km/h (0 Bft) 91,30 %
02.03.2024 00:00 6,4 C 5,6 C 6,7 C 6,7 C 6,1 C 93 % 149 cb 133 cb 129 cb 1009,2 hPa 0,0 l/m 0,0 km/h (0 Bft) N 0 0 min 0,000 mm 0,0 UV-I 0 W/m 5,4 C 6,4 C 0,0 km/h (0 Bft) 95,65 %
01.03.2024 23:59 6,4 C 6,1 C 6,7 C 6,7 C 6,1 C 93 % 166 cb 145 cb 136 cb 1009,3 hPa 0,0 l/m 0,0 km/h (0 Bft) N 0 0 min 0,000 mm 0,0 UV-I 0 W/m 5,4 C 6,4 C 0,0 km/h (0 Bft) 95,65 %
01.03.2024 23:58 6,4 C 6,1 C 6,7 C 6,7 C 6,1 C 93 % 161 cb 145 cb 141 cb 1009,2 hPa 0,0 l/m 0,0 km/h (0 Bft) N 0 0 min 0,000 mm 0,0 UV-I 0 W/m 5,4 C 6,4 C 0,0 km/h (0 Bft) 95,65 %
01.03.2024 23:57 6,4 C 6,1 C 6,7 C 6,7 C 6,1 C 93 % 157 cb 142 cb 134 cb 1009,3 hPa 0,0 l/m 0,0 km/h (0 Bft) N 0 0 min 0,000 mm 0,0 UV-I 0 W/m 5,4 C 6,4 C 0,0 km/h (0 Bft) 91,30 %
01.03.2024 23:56 6,4 C 6,1 C 6,7 C 6,7 C 6,1 C 93 % 161 cb 143 cb 138 cb 1009,3 hPa 0,0 l/m 0,0 km/h (0 Bft) N 0 0 min 0,000 mm 0,0 UV-I 0 W/m 5,4 C 6,4 C 0,0 km/h (0 Bft) 95,65 %
01.03.2024 23:55 6,4 C 5,6 C 6,7 C 6,7 C 6,1 C 93 % 149 cb 137 cb 129 cb 1009,3 hPa 0,0 l/m 0,0 km/h (0 Bft) N 0 0 min 0,000 mm 0,0 UV-I 0 W/m 5,4 C 6,4 C 0,0 km/h (0 Bft) 100,00 %
01.03.2024 23:54 6,4 C 5,6 C 6,7 C 6,7 C 6,1 C 93 % 148 cb 132 cb 126 cb 1009,3 hPa 0,0 l/m 0,0 km/h (0 Bft) N 0 0 min 0,000 mm 0,0 UV-I 0 W/m 5,4 C 6,4 C 0,0 km/h (0 Bft) 95,65 %
01.03.2024 23:53 6,4 C 5,6 C 6,7 C 6,7 C 6,1 C 93 % 180 cb 160 cb 138 cb 1009,2 hPa 0,0 l/m 0,0 km/h (0 Bft) N 0 0 min 0,000 mm 0,0 UV-I 0 W/m 5,4 C 6,4 C 0,0 km/h (0 Bft) 91,30 %
01.03.2024 23:52 6,4 C 5,6 C 6,7 C 6,7 C 6,1 C 93 % 162 cb 143 cb 135 cb 1009,3 hPa 0,0 l/m 0,0 km/h (0 Bft) N 0 0 min 0,000 mm 0,0 UV-I 0 W/m 5,4 C 6,4 C 0,0 km/h (0 Bft) 100,00 %
01.03.2024 23:51 6,4 C 5,6 C 6,7 C 6,7 C 6,1 C 93 % 169 cb 152 cb 146 cb 1009,3 hPa 0,0 l/m 0,0 km/h (0 Bft) N 0 0 min 0,000 mm 0,0 UV-I 0 W/m 5,4 C 6,4 C 0,0 km/h (0 Bft) 95,65 %
01.03.2024 23:50 6,4 C 5,6 C 6,7 C 6,7 C 6,1 C 93 % 165 cb 148 cb 142 cb 1009,3 hPa 0,0 l/m 0,0 km/h (0 Bft) N 0 0 min 0,000 mm 0,0 UV-I 0 W/m 5,4 C 6,4 C 0,0 km/h (0 Bft) 95,65 %
01.03.2024 23:49 6,4 C 5,6 C 6,7 C 6,7 C 6,1 C 93 % 163 cb 145 cb 137 cb 1009,7 hPa 0,0 l/m 0,0 km/h (0 Bft) N 0 0 min 0,000 mm 0,0 UV-I 0 W/m 5,4 C 6,4 C 0,0 km/h (0 Bft) 100,00 %
01.03.2024 23:48 6,4 C 5,6 C 6,7 C 6,7 C 6,1 C 93 % 163 cb 142 cb 135 cb 1009,3 hPa 0,0 l/m 0,0 km/h (0 Bft) N 0 0 min 0,000 mm 0,0 UV-I 0 W/m 5,4 C 6,4 C 0,0 km/h (0 Bft) 95,65 %
01.03.2024 23:47 6,5 C 6,1 C 6,7 C 6,7 C 6,1 C 93 % 160 cb 142 cb 135 cb 1009,2 hPa 0,0 l/m 0,0 km/h (0 Bft) N 0 0 min 0,000 mm 0,0 UV-I 0 W/m 5,5 C 6,5 C 0,0 km/h (0 Bft) 95,65 %
01.03.2024 23:46 6,4 C 6,1 C 6,7 C 6,7 C 6,1 C 93 % 157 cb 141 cb 133 cb 1009,3 hPa 0,0 l/m 0,0 km/h (0 Bft) N 0 0 min 0,000 mm 0,0 UV-I 0 W/m 5,4 C 6,4 C 0,0 km/h (0 Bft) 100,00 %
01.03.2024 23:45 6,5 C 6,1 C 6,7 C 6,7 C 6,1 C 93 % 157 cb 141 cb 137 cb 1009,2 hPa 0,0 l/m 0,0 km/h (0 Bft) N 0 0 min 0,000 mm 0,0 UV-I 0 W/m 5,5 C 6,5 C 0,0 km/h (0 Bft) 95,65 %
01.03.2024 23:44 6,5 C 6,1 C 6,7 C 6,7 C 6,1 C 93 % 157 cb 142 cb 135 cb 1009,1 hPa 0,0 l/m 0,0 km/h (0 Bft) N 0 0 min 0,000 mm 0,0 UV-I 0 W/m 5,5 C 6,5 C 0,0 km/h (0 Bft) 91,30 %
01.03.2024 23:43 6,5 C 6,1 C 6,7 C 6,7 C 6,1 C 93 % 160 cb 142 cb 135 cb 1009,2 hPa 0,0 l/m 0,0 km/h (0 Bft) N 0 0 min 0,000 mm 0,0 UV-I 0 W/m 5,5 C 6,5 C 0,0 km/h (0 Bft) 100,00 %
01.03.2024 23:42 6,5 C 6,1 C 6,7 C 6,7 C 6,1 C 93 % 161 cb 143 cb 135 cb 1009,2 hPa 0,0 l/m 0,0 km/h (0 Bft) N 0 0 min 0,000 mm 0,0 UV-I 0 W/m 5,5 C 6,5 C 0,0 km/h (0 Bft) 95,65 %
01.03.2024 23:41 6,5 C 6,1 C 6,7 C 6,7 C 6,1 C 93 % 157 cb 142 cb 134 cb 1009,2 hPa 0,0 l/m 0,0 km/h (0 Bft) N 0 0 min 0,000 mm 0,0 UV-I 0 W/m 5,5 C 6,5 C 0,0 km/h (0 Bft) 95,65 %
01.03.2024 23:40 6,5 C 6,1 C 6,7 C 6,7 C 6,1 C 93 % 156 cb 141 cb 133 cb 1009,2 hPa 0,0 l/m 0,0 km/h (0 Bft) N 0 0 min 0,000 mm 0,0 UV-I 0 W/m 5,5 C 6,5 C 0,0 km/h (0 Bft) 100,00 %
01.03.2024 23:39 6,5 C 6,1 C 6,7 C 6,7 C 6,1 C 93 % 157 cb 142 cb 135 cb 1009,1 hPa 0,0 l/m 0,0 km/h (0 Bft) N 0 0 min 0,000 mm 0,0 UV-I 0 W/m 5,5 C 6,5 C 0,0 km/h (0 Bft) 95,65 %
01.03.2024 23:38 6,5 C 6,1 C 6,7 C 6,7 C 6,1 C 93 % 160 cb 142 cb 136 cb 1009,1 hPa 0,0 l/m 0,0 km/h (0 Bft) N 0 0 min 0,000 mm 0,0 UV-I 0 W/m 5,5 C 6,5 C 0,0 km/h (0 Bft) 95,65 %
01.03.2024 23:37 6,5 C 6,1 C 6,7 C 6,7 C 6,1 C 93 % 160 cb 142 cb 134 cb 1009,1 hPa 0,0 l/m 0,0 km/h (0 Bft) N 0 0 min 0,000 mm 0,0 UV-I 0 W/m 5,5 C 6,5 C 0,0 km/h (0 Bft) 95,65 %
01.03.2024 23:36 6,5 C 6,1 C 6,7 C 6,7 C 6,1 C 93 % 166 cb 146 cb 138 cb 1009,2 hPa 0,0 l/m 0,0 km/h (0 Bft) N 0 0 min 0,000 mm 0,0 UV-I 0 W/m 5,5 C 6,5 C 0,0 km/h (0 Bft) 95,65 %
01.03.2024 23:35 6,5 C 6,1 C 6,7 C 6,7 C 6,1 C 93 % 161 cb 144 cb 137 cb 1009,2 hPa 0,0 l/m 0,0 km/h (0 Bft) N 0 0 min 0,000 mm 0,0 UV-I 0 W/m 5,5 C 6,5 C 0,0 km/h (0 Bft) 95,65 %
01.03.2024 23:34 6,6 C 6,1 C 6,7 C 6,7 C 6,1 C 93 % 160 cb 142 cb 136 cb 1009,3 hPa 0,0 l/m 0,0 km/h (0 Bft) N 0 0 min 0,000 mm 0,0 UV-I 0 W/m 5,6 C 6,6 C 0,0 km/h (0 Bft) 100,00 %
01.03.2024 23:33 6,5 C 6,1 C 6,7 C 6,7 C 6,1 C 93 % 165 cb 147 cb 140 cb 1009,2 hPa 0,0 l/m 0,0 km/h (0 Bft) N 0 0 min 0,000 mm 0,0 UV-I 0 W/m 5,5 C 6,5 C 0,0 km/h (0 Bft) 95,65 %
01.03.2024 23:32 6,5 C 6,1 C 6,7 C 6,7 C 6,1 C 93 % 162 cb 145 cb 137 cb 1009,1 hPa 0,0 l/m 0,0 km/h (0 Bft) N 0 0 min 0,000 mm 0,0 UV-I 0 W/m 5,5 C 6,5 C 0,0 km/h (0 Bft) 95,65 %
01.03.2024 23:31 6,6 C 6,1 C 6,7 C 6,7 C 6,1 C 93 % 163 cb 144 cb 137 cb 1009,2 hPa 0,0 l/m 0,0 km/h (0 Bft) N 0 0 min 0,000 mm 0,0 UV-I 0 W/m 5,6 C 6,6 C 0,0 km/h (0 Bft) 100,00 %
01.03.2024 23:30 6,6 C 6,1 C 6,7 C 6,7 C 6,1 C 93 % 173 cb 149 cb 141 cb 1009,2 hPa 0,0 l/m 0,0 km/h (0 Bft) N 0 0 min 0,000 mm 0,0 UV-I 0 W/m 5,6 C 6,6 C 0,0 km/h (0 Bft) 91,30 %
01.03.2024 23:29 6,6 C 6,1 C 6,7 C 6,7 C 6,1 C 93 % 166 cb 147 cb 140 cb 1009,3 hPa 0,0 l/m 0,0 km/h (0 Bft) N 0 0 min 0,000 mm 0,0 UV-I 0 W/m 5,6 C 6,6 C 0,0 km/h (0 Bft) 95,65 %
01.03.2024 23:28 6,6 C 6,1 C 6,7 C 6,7 C 6,1 C 92 % 165 cb 145 cb 138 cb 1009,2 hPa 0,0 l/m 0,0 km/h (0 Bft) N 0 0 min 0,000 mm 0,0 UV-I 0 W/m 5,4 C 6,6 C 0,0 km/h (0 Bft) 100,00 %
01.03.2024 23:27 6,6 C 6,1 C 6,7 C 6,7 C 6,1 C 92 % 165 cb 143 cb 137 cb 1009,2 hPa 0,0 l/m 0,0 km/h (0 Bft) N 0 0 min 0,000 mm 0,0 UV-I 0 W/m 5,4 C 6,6 C 0,0 km/h (0 Bft) 91,30 %
01.03.2024 23:26 6,6 C 6,1 C 6,7 C 6,7 C 6,1 C 93 % 161 cb 143 cb 137 cb 1009,3 hPa 0,0 l/m 0,0 km/h (0 Bft) N 0 0 min 0,000 mm 0,0 UV-I 0 W/m 5,6 C 6,6 C 0,0 km/h (0 Bft) 95,65 %
01.03.2024 23:25 6,6 C 6,1 C 6,7 C 6,7 C 6,1 C 93 % 164 cb 145 cb 137 cb 1009,2 hPa 0,0 l/m 0,0 km/h (0 Bft) N 0 0 min 0,000 mm 0,0 UV-I 0 W/m 5,6 C 6,6 C 0,0 km/h (0 Bft) 86,96 %
01.03.2024 23:24 6,6 C 6,1 C 6,7 C 6,7 C 6,1 C 92 % 164 cb 148 cb 141 cb 1009,2 hPa 0,0 l/m 0,0 km/h (0 Bft) N 0 0 min 0,000 mm 0,0 UV-I 0 W/m 5,4 C 6,6 C 0,0 km/h (0 Bft) 95,65 %
01.03.2024 23:23 6,6 C 6,1 C 6,7 C 6,7 C 6,1 C 92 % 165 cb 146 cb 139 cb 1009,2 hPa 0,0 l/m 0,0 km/h (0 Bft) N 0 0 min 0,000 mm 0,0 UV-I 0 W/m 5,4 C 6,6 C 0,0 km/h (0 Bft) 91,30 %
01.03.2024 23:22 6,6 C 6,1 C 6,7 C 6,7 C 6,1 C 92 % 166 cb 147 cb 140 cb 1009,2 hPa 0,0 l/m 0,0 km/h (0 Bft) N 0 0 min 0,000 mm 0,0 UV-I 0 W/m 5,4 C 6,6 C 0,0 km/h (0 Bft) 100,00 %
01.03.2024 23:21 6,6 C 6,1 C 6,7 C 6,7 C 6,1 C 92 % 164 cb 146 cb 138 cb 1009,3 hPa 0,0 l/m 0,0 km/h (0 Bft) N 0 0 min 0,000 mm 0,0 UV-I 0 W/m 5,4 C 6,6 C 0,0 km/h (0 Bft) 86,96 %
01.03.2024 23:20 6,6 C 6,1 C 6,7 C 6,7 C 6,1 C 92 % 170 cb 147 cb 142 cb 1009,2 hPa 0,0 l/m 0,0 km/h (0 Bft) N 0 0 min 0,000 mm 0,0 UV-I 0 W/m 5,4 C 6,6 C 0,0 km/h (0 Bft) 91,30 %
01.03.2024 23:19 6,6 C 6,1 C 6,7 C 6,7 C 6,1 C 92 % 165 cb 144 cb 137 cb 1009,3 hPa 0,0 l/m 0,0 km/h (0 Bft) N 0 0 min 0,000 mm 0,0 UV-I 0 W/m 5,4 C 6,6 C 0,0 km/h (0 Bft) 100,00 %
01.03.2024 23:18 6,6 C 6,1 C 6,7 C 6,7 C 6,1 C 92 % 166 cb 148 cb 139 cb 1009,3 hPa 0,0 l/m 0,0 km/h (0 Bft) N 0 0 min 0,000 mm 0,0 UV-I 0 W/m 5,4 C 6,6 C 0,0 km/h (0 Bft) 91,30 %
01.03.2024 23:17 6,6 C 6,1 C 6,7 C 6,7 C 6,1 C 92 % 183 cb 159 cb 150 cb 1009,2 hPa 0,0 l/m 0,0 km/h (0 Bft) N 0 0 min 0,000 mm 0,0 UV-I 0 W/m 5,4 C 6,6 C 0,0 km/h (0 Bft) 95,65 %
01.03.2024 23:16 6,6 C 6,1 C 6,7 C 6,7 C 6,1 C 92 % 176 cb 154 cb 143 cb 1009,3 hPa 0,0 l/m 0,0 km/h (0 Bft) NW 315 0 min 0,000 mm 0,0 UV-I 0 W/m 5,4 C 6,6 C 1,6 km/h (1 Bft) 95,65 %
01.03.2024 23:15 6,6 C 6,1 C 6,7 C 6,7 C 6,1 C 92 % 167 cb 150 cb 139 cb 1009,3 hPa 0,0 l/m 1,6 km/h (1 Bft) NW 315 0 min 0,000 mm 0,0 UV-I 0 W/m 5,4 C 6,6 C 3,2 km/h (1 Bft) 100,00 %
01.03.2024 23:14 6,6 C 6,1 C 6,7 C 6,7 C 6,1 C 92 % 175 cb 153 cb 142 cb 1009,3 hPa 0,0 l/m 1,6 km/h (1 Bft) NW 315 0 min 0,000 mm 0,0 UV-I 0 W/m 5,4 C 6,6 C 3,2 km/h (1 Bft) 95,65 %
01.03.2024 23:13 6,6 C 6,1 C 6,7 C 6,7 C 6,1 C 92 % 168 cb 150 cb 143 cb 1009,3 hPa 0,0 l/m 0,0 km/h (0 Bft) NW 315 0 min 0,000 mm 0,0 UV-I 0 W/m 5,4 C 6,6 C 1,6 km/h (1 Bft) 95,65 %
01.03.2024 23:12 6,6 C 6,1 C 6,7 C 6,7 C 6,1 C 92 % 180 cb 159 cb 149 cb 1009,3 hPa 0,0 l/m 0,0 km/h (0 Bft) N 0 0 min 0,000 mm 0,0 UV-I 0 W/m 5,4 C 6,6 C 0,0 km/h (0 Bft) 100,00 %
01.03.2024 23:11 6,6 C 6,1 C 6,7 C 6,7 C 6,1 C 92 % 186 cb 164 cb 155 cb 1009,3 hPa 0,0 l/m 0,0 km/h (0 Bft) N 0 0 min 0,000 mm 0,0 UV-I 0 W/m 5,4 C 6,6 C 0,0 km/h (0 Bft) 91,30 %
01.03.2024 23:10 6,6 C 6,1 C 6,7 C 6,7 C 6,1 C 92 % 177 cb 157 cb 150 cb 1009,3 hPa 0,0 l/m 0,0 km/h (0 Bft) N 0 0 min 0,000 mm 0,0 UV-I 0 W/m 5,4 C 6,6 C 0,0 km/h (0 Bft) 95,65 %
01.03.2024 23:09 6,6 C 6,1 C 6,7 C 6,7 C 6,1 C 92 % 177 cb 160 cb 151 cb 1009,2 hPa 0,0 l/m 0,0 km/h (0 Bft) N 0 0 min 0,000 mm 0,0 UV-I 0 W/m 5,4 C 6,6 C 0,0 km/h (0 Bft) 100,00 %
01.03.2024 23:08 6,6 C 6,1 C 6,7 C 6,7 C 6,1 C 92 % 185 cb 163 cb 153 cb 1009,3 hPa 0,0 l/m 0,0 km/h (0 Bft) N 0 0 min 0,000 mm 0,0 UV-I 0 W/m 5,4 C 6,6 C 0,0 km/h (0 Bft) 95,65 %
01.03.2024 23:07 6,6 C 6,1 C 6,7 C 6,7 C 6,1 C 92 % 177 cb 154 cb 146 cb 1009,2 hPa 0,0 l/m 0,0 km/h (0 Bft) N 0 0 min 0,000 mm 0,0 UV-I 0 W/m 5,4 C 6,6 C 0,0 km/h (0 Bft) 91,30 %
01.03.2024 23:06 6,6 C 6,1 C 6,7 C 6,7 C 6,1 C 92 % 177 cb 157 cb 149 cb 1009,2 hPa 0,0 l/m 0,0 km/h (0 Bft) N 0 0 min 0,000 mm 0,0 UV-I 0 W/m 5,4 C 6,6 C 0,0 km/h (0 Bft) 100,00 %
01.03.2024 23:05 6,6 C 6,1 C 6,7 C 6,7 C 6,1 C 92 % 179 cb 157 cb 149 cb 1009,2 hPa 0,0 l/m 0,0 km/h (0 Bft) N 0 0 min 0,000 mm 0,0 UV-I 0 W/m 5,4 C 6,6 C 0,0 km/h (0 Bft) 95,65 %
01.03.2024 23:04 6,6 C 6,1 C 6,7 C 6,7 C 6,1 C 92 % 179 cb 156 cb 158 cb 1009,3 hPa 0,0 l/m 0,0 km/h (0 Bft) N 0 0 min 0,000 mm 0,0 UV-I 0 W/m 5,4 C 6,6 C 0,0 km/h (0 Bft) 95,65 %
01.03.2024 23:03 6,6 C 6,1 C 6,7 C 6,7 C 6,1 C 92 % 183 cb 162 cb 154 cb 1009,2 hPa 0,0 l/m 0,0 km/h (0 Bft) N 0 0 min 0,000 mm 0,0 UV-I 0 W/m 5,4 C 6,6 C 0,0 km/h (0 Bft) 95,65 %
01.03.2024 23:02 6,6 C 6,1 C 6,7 C 6,7 C 6,1 C 92 % 176 cb 167 cb 149 cb 1009,2 hPa 0,0 l/m 0,0 km/h (0 Bft) NW 315 0 min 0,000 mm 0,0 UV-I 0 W/m 5,4 C 6,6 C 1,6 km/h (1 Bft) 95,65 %
01.03.2024 23:01 6,6 C 5,6 C 6,7 C 6,7 C 6,1 C 92 % 183 cb 167 cb 152 cb 1009,2 hPa 0,0 l/m 0,0 km/h (0 Bft) NW 315 0 min 0,000 mm 0,0 UV-I 0 W/m 5,4 C 6,6 C 1,6 km/h (1 Bft) 95,65 %
01.03.2024 23:00 6,6 C 5,6 C 6,7 C 6,7 C 6,1 C 92 % 191 cb 168 cb 152 cb 1009,2 hPa 0,0 l/m 0,0 km/h (0 Bft) NW 315 0 min 0,000 mm 0,0 UV-I 0 W/m 5,4 C 6,6 C 1,6 km/h (1 Bft) 100,00 %
01.03.2024 22:59 6,6 C 5,6 C 6,7 C 6,7 C 6,1 C 92 % 200 cb 166 cb 152 cb 1009,2 hPa 0,0 l/m 0,0 km/h (0 Bft) NW 315 0 min 0,000 mm 0,0 UV-I 0 W/m 5,4 C 6,6 C 1,6 km/h (1 Bft) 95,65 %
01.03.2024 22:58 6,6 C 5,6 C 6,7 C 6,7 C 6,1 C 92 % 200 cb 176 cb 162 cb 1009,2 hPa 0,0 l/m 0,0 km/h (0 Bft) N 0 0 min 0,000 mm 0,0 UV-I 0 W/m 5,4 C 6,6 C 0,0 km/h (0 Bft) 91,30 %
01.03.2024 22:57 6,6 C 5,6 C 6,7 C 6,7 C 6,1 C 92 % 200 cb 181 cb 173 cb 1009,3 hPa 0,0 l/m 0,0 km/h (0 Bft) NW 315 0 min 0,000 mm 0,0 UV-I 0 W/m 5,4 C 6,6 C 1,6 km/h (1 Bft) 95,65 %
01.03.2024 22:56 6,7 C 5,6 C 6,7 C 6,7 C 6,1 C 92 % 195 cb 173 cb 160 cb 1009,2 hPa 0,0 l/m 0,0 km/h (0 Bft) NW 315 0 min 0,000 mm 0,0 UV-I 0 W/m 5,5 C 6,7 C 1,6 km/h (1 Bft) 95,65 %
01.03.2024 22:55 6,6 C 5,6 C 6,7 C 6,7 C 6,1 C 92 % 191 cb 162 cb 157 cb 1009,4 hPa 0,0 l/m 0,0 km/h (0 Bft) NW 315 0 min 0,000 mm 0,0 UV-I 0 W/m 5,4 C 6,6 C 1,6 km/h (1 Bft) 95,65 %
01.03.2024 22:54 6,6 C 5,6 C 6,7 C 6,7 C 6,1 C 92 % 200 cb 182 cb 175 cb 1009,3 hPa 0,0 l/m 0,0 km/h (0 Bft) N 0 0 min 0,000 mm 0,0 UV-I 0 W/m 5,4 C 6,6 C 0,0 km/h (0 Bft) 100,00 %
01.03.2024 22:53 6,6 C 5,6 C 6,7 C 6,7 C 6,1 C 92 % 200 cb 170 cb 164 cb 1009,3 hPa 0,0 l/m 0,0 km/h (0 Bft) N 0 0 min 0,000 mm 0,0 UV-I 0 W/m 5,4 C 6,6 C 0,0 km/h (0 Bft) 95,65 %
01.03.2024 22:52 6,7 C 5,6 C 6,7 C 6,7 C 6,1 C 92 % 200 cb 186 cb 177 cb 1009,3 hPa 0,0 l/m 0,0 km/h (0 Bft) N 0 0 min 0,000 mm 0,0 UV-I 0 W/m 5,5 C 6,7 C 0,0 km/h (0 Bft) 95,65 %
01.03.2024 22:51 6,6 C 5,6 C 6,7 C 6,7 C 6,1 C 92 % 200 cb 181 cb 165 cb 1009,3 hPa 0,0 l/m 0,0 km/h (0 Bft) N 0 0 min 0,000 mm 0,0 UV-I 0 W/m 5,4 C 6,6 C 0,0 km/h (0 Bft) 95,65 %
01.03.2024 22:50 6,6 C 5,6 C 6,7 C 6,7 C 6,1 C 92 % 200 cb 190 cb 178 cb 1009,3 hPa 0,0 l/m 0,0 km/h (0 Bft) N 0 0 min 0,000 mm 0,0 UV-I 0 W/m 5,4 C 6,6 C 0,0 km/h (0 Bft) 95,65 %
01.03.2024 22:49 6,6 C 5,6 C 6,7 C 6,7 C 6,1 C 92 % 198 cb 170 cb 161 cb 1009,3 hPa 0,0 l/m 0,0 km/h (0 Bft) N 0 0 min 0,000 mm 0,0 UV-I 0 W/m 5,4 C 6,6 C 0,0 km/h (0 Bft) 95,65 %
01.03.2024 22:48 6,6 C 5,6 C 6,7 C 6,7 C 6,1 C 92 % 180 cb 156 cb 148 cb 1009,3 hPa 0,0 l/m 0,0 km/h (0 Bft) N 0 0 min 0,000 mm 0,0 UV-I 0 W/m 5,4 C 6,6 C 0,0 km/h (0 Bft) 100,00 %
01.03.2024 22:47 6,7 C 5,6 C 6,7 C 6,7 C 6,1 C 92 % 171 cb 159 cb 143 cb 1009,3 hPa 0,0 l/m 0,0 km/h (0 Bft) N 0 0 min 0,000 mm 0,0 UV-I 0 W/m 5,5 C 6,7 C 0,0 km/h (0 Bft) 95,65 %
01.03.2024 22:46 6,7 C 5,6 C 6,7 C 6,7 C 6,1 C 92 % 162 cb 147 cb 143 cb 1009,3 hPa 0,0 l/m 0,0 km/h (0 Bft) N 0 0 min 0,000 mm 0,0 UV-I 0 W/m 5,5 C 6,7 C 0,0 km/h (0 Bft) 95,65 %
01.03.2024 22:45 6,7 C 5,6 C 6,7 C 6,7 C 6,1 C 92 % 162 cb 140 cb 133 cb 1009,4 hPa 0,0 l/m 0,0 km/h (0 Bft) N 0 0 min 0,000 mm 0,0 UV-I 0 W/m 5,5 C 6,7 C 0,0 km/h (0 Bft) 100,00 %
01.03.2024 22:44 6,7 C 5,6 C 6,7 C 6,7 C 6,1 C 92 % 155 cb 140 cb 133 cb 1009,3 hPa 0,0 l/m 0,0 km/h (0 Bft) N 0 0 min 0,000 mm 0,0 UV-I 0 W/m 5,5 C 6,7 C 0,0 km/h (0 Bft) 91,30 %
01.03.2024 22:43 6,7 C 5,6 C 6,7 C 6,7 C 6,1 C 92 % 157 cb 137 cb 134 cb 1009,4 hPa 0,0 l/m 0,0 km/h (0 Bft) N 0 0 min 0,000 mm 0,0 UV-I 0 W/m 5,5 C 6,7 C 0,0 km/h (0 Bft) 95,65 %
01.03.2024 22:42 6,7 C 5,6 C 6,7 C 6,7 C 6,1 C 92 % 154 cb 137 cb 131 cb 1009,3 hPa 0,0 l/m 0,0 km/h (0 Bft) N 0 0 min 0,000 mm 0,0 UV-I 0 W/m 5,5 C 6,7 C 0,0 km/h (0 Bft) 95,65 %
01.03.2024 22:41 6,7 C 5,6 C 6,7 C 6,7 C 6,1 C 92 % 153 cb 137 cb 130 cb 1009,4 hPa 0,0 l/m 0,0 km/h (0 Bft) N 0 0 min 0,000 mm 0,0 UV-I 0 W/m 5,5 C 6,7 C 0,0 km/h (0 Bft) 95,65 %
01.03.2024 22:40 6,7 C 5,6 C 6,7 C 6,7 C 6,1 C 92 % 153 cb 137 cb 130 cb 1009,3 hPa 0,0 l/m 0,0 km/h (0 Bft) N 0 0 min 0,000 mm 0,0 UV-I 0 W/m 5,5 C 6,7 C 0,0 km/h (0 Bft) 95,65 %
01.03.2024 22:39 6,7 C 5,6 C 6,7 C 6,7 C 6,1 C 92 % 155 cb 138 cb 130 cb 1009,3 hPa 0,0 l/m 0,0 km/h (0 Bft) N 0 0 min 0,000 mm 0,0 UV-I 0 W/m 5,5 C 6,7 C 0,0 km/h (0 Bft) 95,65 %
01.03.2024 22:38 6,7 C 5,6 C 6,7 C 6,7 C 6,1 C 92 % 149 cb 134 cb 128 cb 1009,3 hPa 0,0 l/m 0,0 km/h (0 Bft) N 0 0 min 0,000 mm 0,0 UV-I 0 W/m 5,5 C 6,7 C 0,0 km/h (0 Bft) 95,65 %
01.03.2024 22:37 6,7 C 5,6 C 6,7 C 6,7 C 6,1 C 92 % 154 cb 136 cb 129 cb 1009,3 hPa 0,0 l/m 0,0 km/h (0 Bft) N 0 0 min 0,000 mm 0,0 UV-I 0 W/m 5,5 C 6,7 C 0,0 km/h (0 Bft) 95,65 %
01.03.2024 22:36 6,7 C 5,6 C 6,7 C 6,7 C 6,1 C 92 % 150 cb 135 cb 129 cb 1009,4 hPa 0,0 l/m 0,0 km/h (0 Bft) N 0 0 min 0,000 mm 0,0 UV-I 0 W/m 5,5 C 6,7 C 0,0 km/h (0 Bft) 95,65 %
01.03.2024 22:35 6,7 C 5,6 C 6,7 C 6,7 C 6,1 C 92 % 153 cb 138 cb 133 cb 1009,2 hPa 0,0 l/m 0,0 km/h (0 Bft) N 0 0 min 0,000 mm 0,0 UV-I 0 W/m 5,5 C 6,7 C 0,0 km/h (0 Bft) 95,65 %
01.03.2024 22:34 6,7 C 6,1 C 6,7 C 6,7 C 6,1 C 92 % 152 cb 137 cb 130 cb 1009,3 hPa 0,0 l/m 0,0 km/h (0 Bft) N 0 0 min 0,000 mm 0,0 UV-I 0 W/m 5,5 C 6,7 C 0,0 km/h (0 Bft) 91,30 %
01.03.2024 22:33 6,7 C 6,1 C 6,7 C 6,7 C 6,1 C 92 % 153 cb 137 cb 130 cb 1009,4 hPa 0,0 l/m 0,0 km/h (0 Bft) N 0 0 min 0,000 mm 0,0 UV-I 0 W/m 5,5 C 6,7 C 0,0 km/h (0 Bft) 95,65 %
01.03.2024 22:32 6,7 C 6,1 C 6,7 C 6,7 C 6,1 C 92 % 154 cb 137 cb 130 cb 1009,2 hPa 0,0 l/m 0,0 km/h (0 Bft) N 0 0 min 0,000 mm 0,0 UV-I 0 W/m 5,5 C 6,7 C 0,0 km/h (0 Bft) 100,00 %
01.03.2024 22:31 6,7 C 6,1 C 6,7 C 6,7 C 6,1 C 92 % 155 cb 137 cb 132 cb 1009,3 hPa 0,0 l/m 0,0 km/h (0 Bft) N 0 0 min 0,000 mm 0,0 UV-I 0 W/m 5,5 C 6,7 C 0,0 km/h (0 Bft) 91,30 %
01.03.2024 22:30 6,7 C 6,1 C 6,7 C 6,7 C 6,1 C 92 % 152 cb 135 cb 129 cb 1009,2 hPa 0,0 l/m 0,0 km/h (0 Bft) N 0 0 min 0,000 mm 0,0 UV-I 0 W/m 5,5 C 6,7 C 0,0 km/h (0 Bft) 95,65 %
01.03.2024 22:29 6,7 C 6,1 C 6,7 C 6,7 C 6,1 C 92 % 155 cb 140 cb 130 cb 1009,3 hPa 0,0 l/m 0,0 km/h (0 Bft) N 0 0 min 0,000 mm 0,0 UV-I 0 W/m 5,5 C 6,7 C 0,0 km/h (0 Bft) 100,00 %
01.03.2024 22:28 6,7 C 6,1 C 6,7 C 6,7 C 6,1 C 92 % 154 cb 140 cb 132 cb 1009,3 hPa 0,0 l/m 0,0 km/h (0 Bft) N 0 0 min 0,000 mm 0,0 UV-I 0 W/m 5,5 C 6,7 C 0,0 km/h (0 Bft) 91,30 %
01.03.2024 22:27 6,7 C 6,1 C 6,7 C 6,7 C 6,1 C 92 % 157 cb 141 cb 133 cb 1009,3 hPa 0,0 l/m 0,0 km/h (0 Bft) N 0 0 min 0,000 mm 0,0 UV-I 0 W/m 5,5 C 6,7 C 0,0 km/h (0 Bft) 95,65 %
01.03.2024 22:26 6,7 C 6,1 C 6,7 C 6,7 C 6,1 C 92 % 160 cb 142 cb 132 cb 1009,2 hPa 0,0 l/m 0,0 km/h (0 Bft) N 0 0 min 0,000 mm 0,0 UV-I 0 W/m 5,5 C 6,7 C 0,0 km/h (0 Bft) 100,00 %
01.03.2024 22:25 6,7 C 6,1 C 6,7 C 6,7 C 6,1 C 92 % 155 cb 138 cb 132 cb 1009,3 hPa 0,0 l/m 0,0 km/h (0 Bft) N 0 0 min 0,000 mm 0,0 UV-I 0 W/m 5,5 C 6,7 C 0,0 km/h (0 Bft) 95,65 %
01.03.2024 22:24 6,7 C 6,1 C 6,7 C 6,7 C 6,1 C 92 % 155 cb 138 cb 133 cb 1009,2 hPa 0,0 l/m 0,0 km/h (0 Bft) N 0 0 min 0,000 mm 0,0 UV-I 0 W/m 5,5 C 6,7 C 0,0 km/h (0 Bft) 95,65 %
01.03.2024 22:23 6,7 C 6,1 C 6,7 C 6,7 C 6,1 C 92 % 155 cb 141 cb 133 cb 1009,2 hPa 0,0 l/m 0,0 km/h (0 Bft) N 0 0 min 0,000 mm 0,0 UV-I 0 W/m 5,5 C 6,7 C 0,0 km/h (0 Bft) 95,65 %
01.03.2024 22:22 6,7 C 6,1 C 6,7 C 6,7 C 6,1 C 92 % 155 cb 139 cb 133 cb 1009,3 hPa 0,0 l/m 0,0 km/h (0 Bft) N 0 0 min 0,000 mm 0,0 UV-I 0 W/m 5,5 C 6,7 C 0,0 km/h (0 Bft) 86,96 %
01.03.2024 22:21 6,7 C 6,1 C 6,7 C 6,7 C 6,1 C 92 % 154 cb 139 cb 131 cb 1009,3 hPa 0,0 l/m 0,0 km/h (0 Bft) N 0 0 min 0,000 mm 0,0 UV-I 0 W/m 5,5 C 6,7 C 0,0 km/h (0 Bft) 95,65 %
01.03.2024 22:20 6,7 C 6,1 C 6,7 C 6,7 C 6,1 C 92 % 154 cb 138 cb 130 cb 1009,3 hPa 0,0 l/m 0,0 km/h (0 Bft) N 0 0 min 0,000 mm 0,0 UV-I 0 W/m 5,5 C 6,7 C 0,0 km/h (0 Bft) 95,65 %
01.03.2024 22:19 6,7 C 6,1 C 6,7 C 6,7 C 6,1 C 92 % 152 cb 138 cb 129 cb 1009,2 hPa 0,0 l/m 0,0 km/h (0 Bft) N 0 0 min 0,000 mm 0,0 UV-I 0 W/m 5,5 C 6,7 C 0,0 km/h (0 Bft) 95,65 %
01.03.2024 22:18 6,7 C 6,1 C 6,7 C 6,7 C 6,1 C 92 % 151 cb 136 cb 129 cb 1009,4 hPa 0,0 l/m 0,0 km/h (0 Bft) N 0 0 min 0,000 mm 0,0 UV-I 0 W/m 5,5 C 6,7 C 0,0 km/h (0 Bft) 95,65 %
01.03.2024 22:17 6,7 C 6,1 C 6,7 C 6,7 C 6,1 C 92 % 156 cb 142 cb 133 cb 1009,4 hPa 0,0 l/m 0,0 km/h (0 Bft) N 0 0 min 0,000 mm 0,0 UV-I 0 W/m 5,5 C 6,7 C 0,0 km/h (0 Bft) 100,00 %
01.03.2024 22:16 6,7 C 6,1 C 6,7 C 6,7 C 6,1 C 92 % 156 cb 142 cb 136 cb 1009,4 hPa 0,0 l/m 0,0 km/h (0 Bft) N 0 0 min 0,000 mm 0,0 UV-I 0 W/m 5,5 C 6,7 C 0,0 km/h (0 Bft) 95,65 %
01.03.2024 22:15 6,7 C 6,1 C 6,7 C 6,7 C 6,1 C 92 % 155 cb 140 cb 132 cb 1009,4 hPa 0,0 l/m 0,0 km/h (0 Bft) N 0 0 min 0,000 mm 0,0 UV-I 0 W/m 5,5 C 6,7 C 0,0 km/h (0 Bft) 95,65 %
01.03.2024 22:14 6,7 C 6,1 C 6,7 C 6,7 C 6,1 C 92 % 160 cb 142 cb 133 cb 1009,4 hPa 0,0 l/m 0,0 km/h (0 Bft) N 0 0 min 0,000 mm 0,0 UV-I 0 W/m 5,5 C 6,7 C 0,0 km/h (0 Bft) 100,00 %
01.03.2024 22:13 6,7 C 6,1 C 6,7 C 6,7 C 6,1 C 92 % 156 cb 139 cb 132 cb 1009,4 hPa 0,0 l/m 0,0 km/h (0 Bft) N 0 0 min 0,000 mm 0,0 UV-I 0 W/m 5,5 C 6,7 C 0,0 km/h (0 Bft) 91,30 %
01.03.2024 22:12 6,7 C 6,1 C 6,7 C 6,7 C 6,1 C 92 % 159 cb 140 cb 134 cb 1009,4 hPa 0,0 l/m 0,0 km/h (0 Bft) N 0 0 min 0,000 mm 0,0 UV-I 0 W/m 5,5 C 6,7 C 0,0 km/h (0 Bft) 86,96 %
01.03.2024 22:11 6,7 C 6,1 C 6,7 C 6,7 C 6,1 C 92 % 155 cb 139 cb 132 cb 1009,4 hPa 0,0 l/m 0,0 km/h (0 Bft) N 0 0 min 0,000 mm 0,0 UV-I 0 W/m 5,5 C 6,7 C 0,0 km/h (0 Bft) 100,00 %
01.03.2024 22:10 6,7 C 6,1 C 6,7 C 6,7 C 6,1 C 92 % 156 cb 140 cb 133 cb 1009,5 hPa 0,0 l/m 0,0 km/h (0 Bft) N 0 0 min 0,000 mm 0,0 UV-I 0 W/m 5,5 C 6,7 C 0,0 km/h (0 Bft) 95,65 %
01.03.2024 22:09 6,7 C 6,1 C 6,7 C 6,7 C 6,1 C 92 % 156 cb 138 cb 131 cb 1009,4 hPa 0,0 l/m 0,0 km/h (0 Bft) NW 315 0 min 0,000 mm 0,0 UV-I 0 W/m 5,5 C 6,7 C 1,6 km/h (1 Bft) 95,65 %
01.03.2024 22:08 6,7 C 6,1 C 6,7 C 6,7 C 6,1 C 92 % 152 cb 138 cb 131 cb 1009,4 hPa 0,0 l/m 0,0 km/h (0 Bft) NW 315 0 min 0,000 mm 0,0 UV-I 0 W/m 5,5 C 6,7 C 1,6 km/h (1 Bft) 100,00 %
01.03.2024 22:07 6,7 C 6,1 C 6,7 C 6,7 C 6,1 C 92 % 157 cb 136 cb 129 cb 1009,4 hPa 0,0 l/m 0,0 km/h (0 Bft) N 0 0 min 0,000 mm 0,0 UV-I 0 W/m 5,5 C 6,7 C 0,0 km/h (0 Bft) 95,65 %
01.03.2024 22:06 6,7 C 6,1 C 6,7 C 6,7 C 6,1 C 92 % 151 cb 136 cb 129 cb 1009,4 hPa 0,0 l/m 0,0 km/h (0 Bft) N 0 0 min 0,000 mm 0,0 UV-I 0 W/m 5,5 C 6,7 C 0,0 km/h (0 Bft) 95,65 %
01.03.2024 22:05 6,7 C 6,1 C 6,7 C 6,7 C 6,1 C 92 % 152 cb 136 cb 129 cb 1009,4 hPa 0,0 l/m 0,0 km/h (0 Bft) N 0 0 min 0,000 mm 0,0 UV-I 0 W/m 5,5 C 6,7 C 0,0 km/h (0 Bft) 100,00 %
01.03.2024 22:04 6,7 C 6,1 C 6,7 C 6,7 C 6,1 C 92 % 152 cb 136 cb 128 cb 1009,4 hPa 0,0 l/m 0,0 km/h (0 Bft) N 0 0 min 0,000 mm 0,0 UV-I 0 W/m 5,5 C 6,7 C 0,0 km/h (0 Bft) 91,30 %
01.03.2024 22:03 6,7 C 6,1 C 6,7 C 6,7 C 6,1 C 92 % 152 cb 138 cb 131 cb 1009,4 hPa 0,0 l/m 0,0 km/h (0 Bft) N 0 0 min 0,000 mm 0,0 UV-I 0 W/m 5,5 C 6,7 C 0,0 km/h (0 Bft) 91,30 %
01.03.2024 22:02 6,7 C 6,1 C 6,7 C 6,7 C 6,1 C 92 % 155 cb 138 cb 131 cb 1009,5 hPa 0,0 l/m 0,0 km/h (0 Bft) N 0 0 min 0,000 mm 0,0 UV-I 0 W/m 5,5 C 6,7 C 0,0 km/h (0 Bft) 100,00 %
01.03.2024 22:01 6,8 C 6,1 C 6,7 C 6,7 C 6,1 C 92 % 154 cb 138 cb 131 cb 1009,4 hPa 0,0 l/m 0,0 km/h (0 Bft) N 0 0 min 0,000 mm 0,0 UV-I 0 W/m 5,6 C 6,8 C 0,0 km/h (0 Bft) 95,65 %
01.03.2024 22:00 6,8 C 6,1 C 6,7 C 6,7 C 6,1 C 92 % 155 cb 139 cb 132 cb 1009,4 hPa 0,0 l/m 0,0 km/h (0 Bft) N 0 0 min 0,000 mm 0,0 UV-I 0 W/m 5,6 C 6,8 C 0,0 km/h (0 Bft) 95,65 %
01.03.2024 21:59 6,7 C 6,1 C 6,7 C 6,7 C 6,1 C 92 % 157 cb 141 cb 131 cb 1009,5 hPa 0,0 l/m 0,0 km/h (0 Bft) N 0 0 min 0,000 mm 0,0 UV-I 0 W/m 5,5 C 6,7 C 0,0 km/h (0 Bft) 100,00 %
01.03.2024 21:58 6,8 C 6,1 C 6,7 C 6,7 C 6,1 C 92 % 155 cb 137 cb 132 cb 1009,5 hPa 0,0 l/m 0,0 km/h (0 Bft) N 0 0 min 0,000 mm 0,0 UV-I 0 W/m 5,6 C 6,8 C 0,0 km/h (0 Bft) 95,65 %
01.03.2024 21:57 6,8 C 6,1 C 6,7 C 6,7 C 6,1 C 92 % 154 cb 140 cb 133 cb 1009,5 hPa 0,0 l/m 0,0 km/h (0 Bft) N 0 0 min 0,000 mm 0,0 UV-I 0 W/m 5,6 C 6,8 C 0,0 km/h (0 Bft) 95,65 %
01.03.2024 21:56 6,8 C 6,1 C 6,7 C 6,7 C 6,1 C 92 % 159 cb 142 cb 133 cb 1009,4 hPa 0,0 l/m 0,0 km/h (0 Bft) N 0 0 min 0,000 mm 0,0 UV-I 0 W/m 5,6 C 6,8 C 0,0 km/h (0 Bft) 95,65 %
01.03.2024 21:55 6,8 C 6,1 C 7,2 C 6,7 C 6,1 C 92 % 160 cb 141 cb 133 cb 1009,4 hPa 0,0 l/m 0,0 km/h (0 Bft) N 0 0 min 0,000 mm 0,0 UV-I 0 W/m 5,6 C 6,8 C 0,0 km/h (0 Bft) 95,65 %
01.03.2024 21:54 6,8 C 6,1 C 7,2 C 6,7 C 6,1 C 92 % 170 cb 145 cb 140 cb 1009,4 hPa 0,0 l/m 0,0 km/h (0 Bft) N 0 0 min 0,000 mm 0,0 UV-I 0 W/m 5,6 C 6,8 C 0,0 km/h (0 Bft) 95,65 %
01.03.2024 21:53 6,8 C 6,1 C 7,2 C 6,7 C 6,1 C 92 % 168 cb 148 cb 140 cb 1009,4 hPa 0,0 l/m 0,0 km/h (0 Bft) N 0 0 min 0,000 mm 0,0 UV-I 0 W/m 5,6 C 6,8 C 0,0 km/h (0 Bft) 95,65 %
01.03.2024 21:52 6,8 C 6,1 C 7,2 C 6,7 C 6,1 C 92 % 168 cb 145 cb 138 cb 1009,4 hPa 0,0 l/m 0,0 km/h (0 Bft) NW 315 0 min 0,000 mm 0,0 UV-I 0 W/m 5,6 C 6,8 C 1,6 km/h (1 Bft) 95,65 %
01.03.2024 21:51 6,8 C 6,1 C 7,2 C 6,7 C 6,1 C 92 % 164 cb 146 cb 137 cb 1009,4 hPa 0,0 l/m 0,0 km/h (0 Bft) NW 315 0 min 0,000 mm 0,0 UV-I 0 W/m 5,6 C 6,8 C 1,6 km/h (1 Bft) 95,65 %
01.03.2024 21:50 6,8 C 6,1 C 7,2 C 6,7 C 6,1 C 92 % 162 cb 142 cb 134 cb 1009,4 hPa 0,0 l/m 0,0 km/h (0 Bft) NW 315 0 min 0,000 mm 0,0 UV-I 0 W/m 5,6 C 6,8 C 1,6 km/h (1 Bft) 100,00 %
01.03.2024 21:49 6,8 C 6,1 C 7,2 C 6,7 C 6,1 C 92 % 164 cb 142 cb 135 cb 1009,4 hPa 0,0 l/m 0,0 km/h (0 Bft) NW 315 0 min 0,000 mm 0,0 UV-I 0 W/m 5,6 C 6,8 C 1,6 km/h (1 Bft) 95,65 %
01.03.2024 21:48 6,8 C 6,1 C 7,2 C 6,7 C 6,1 C 92 % 183 cb 162 cb 151 cb 1009,3 hPa 0,0 l/m 0,0 km/h (0 Bft) NW 315 0 min 0,000 mm 0,0 UV-I 0 W/m 5,6 C 6,8 C 1,6 km/h (1 Bft) 95,65 %
01.03.2024 21:47 6,8 C 6,1 C 7,2 C 6,7 C 6,1 C 92 % 167 cb 142 cb 135 cb 1009,4 hPa 0,0 l/m 0,0 km/h (0 Bft) N 0 0 min 0,000 mm 0,0 UV-I 0 W/m 5,6 C 6,8 C 0,0 km/h (0 Bft) 95,65 %
01.03.2024 21:46 6,8 C 6,1 C 7,2 C 6,7 C 6,1 C 92 % 159 cb 141 cb 135 cb 1009,4 hPa 0,0 l/m 0,0 km/h (0 Bft) N 0 0 min 0,000 mm 0,0 UV-I 0 W/m 5,6 C 6,8 C 0,0 km/h (0 Bft) 91,30 %
01.03.2024 21:45 6,8 C 6,1 C 7,2 C 6,7 C 6,1 C 92 % 158 cb 139 cb 133 cb 1009,5 hPa 0,0 l/m 0,0 km/h (0 Bft) N 0 0 min 0,000 mm 0,0 UV-I 0 W/m 5,6 C 6,8 C 0,0 km/h (0 Bft) 95,65 %
01.03.2024 21:44 6,8 C 6,1 C 7,2 C 6,7 C 6,1 C 92 % 160 cb 141 cb 133 cb 1009,4 hPa 0,0 l/m 0,0 km/h (0 Bft) N 0 0 min 0,000 mm 0,0 UV-I 0 W/m 5,6 C 6,8 C 0,0 km/h (0 Bft) 91,30 %
01.03.2024 21:43 6,7 C 6,1 C 7,2 C 6,7 C 6,1 C 92 % 163 cb 142 cb 134 cb 1009,4 hPa 0,0 l/m 0,0 km/h (0 Bft) N 0 0 min 0,000 mm 0,0 UV-I 0 W/m 5,5 C 6,7 C 0,0 km/h (0 Bft) 100,00 %
01.03.2024 21:42 6,8 C 6,1 C 7,2 C 6,7 C 6,1 C 92 % 163 cb 139 cb 132 cb 1009,5 hPa 0,0 l/m 0,0 km/h (0 Bft) N 0 0 min 0,000 mm 0,0 UV-I 0 W/m 5,6 C 6,8 C 0,0 km/h (0 Bft) 91,30 %
01.03.2024 21:41 6,8 C 6,1 C 7,2 C 6,7 C 6,1 C 92 % 157 cb 139 cb 132 cb 1009,5 hPa 0,0 l/m 0,0 km/h (0 Bft) N 0 0 min 0,000 mm 0,0 UV-I 0 W/m 5,6 C 6,8 C 0,0 km/h (0 Bft) 86,96 %
01.03.2024 21:40 6,8 C 6,1 C 7,2 C 6,7 C 6,1 C 92 % 158 cb 138 cb 131 cb 1009,5 hPa 0,0 l/m 0,0 km/h (0 Bft) N 0 0 min 0,000 mm 0,0 UV-I 0 W/m 5,6 C 6,8 C 0,0 km/h (0 Bft) 91,30 %
01.03.2024 21:39 6,8 C 6,1 C 7,2 C 6,7 C 6,1 C 92 % 156 cb 137 cb 131 cb 1009,5 hPa 0,0 l/m 0,0 km/h (0 Bft) N 0 0 min 0,000 mm 0,0 UV-I 0 W/m 5,6 C 6,8 C 0,0 km/h (0 Bft) 95,65 %
01.03.2024 21:38 6,8 C 6,1 C 7,2 C 6,7 C 6,1 C 92 % 159 cb 140 cb 134 cb 1009,5 hPa 0,0 l/m 0,0 km/h (0 Bft) N 0 0 min 0,000 mm 0,0 UV-I 0 W/m 5,6 C 6,8 C 0,0 km/h (0 Bft) 82,61 %
01.03.2024 21:37 6,7 C 6,1 C 7,2 C 6,7 C 6,1 C 92 % 169 cb 144 cb 135 cb 1009,5 hPa 0,0 l/m 0,0 km/h (0 Bft) N 0 0 min 0,000 mm 0,0 UV-I 0 W/m 5,5 C 6,7 C 0,0 km/h (0 Bft) 100,00 %
01.03.2024 21:36 6,8 C 6,1 C 7,2 C 6,7 C 6,1 C 92 % 162 cb 142 cb 135 cb 1009,5 hPa 0,0 l/m 0,0 km/h (0 Bft) N 0 0 min 0,000 mm 0,0 UV-I 0 W/m 5,6 C 6,8 C 0,0 km/h (0 Bft) 86,96 %
01.03.2024 21:35 6,8 C 6,1 C 7,2 C 6,7 C 6,1 C 92 % 161 cb 142 cb 135 cb 1009,5 hPa 0,0 l/m 0,0 km/h (0 Bft) N 0 0 min 0,000 mm 0,0 UV-I 0 W/m 5,6 C 6,8 C 0,0 km/h (0 Bft) 95,65 %
01.03.2024 21:34 6,8 C 6,1 C 7,2 C 6,7 C 6,1 C 92 % 164 cb 145 cb 137 cb 1009,5 hPa 0,0 l/m 0,0 km/h (0 Bft) N 0 0 min 0,000 mm 0,0 UV-I 0 W/m 5,6 C 6,8 C 0,0 km/h (0 Bft) 91,30 %
01.03.2024 21:33 6,7 C 6,1 C 7,2 C 6,7 C 6,1 C 92 % 166 cb 147 cb 137 cb 1009,5 hPa 0,0 l/m 0,0 km/h (0 Bft) N 0 0 min 0,000 mm 0,0 UV-I 0 W/m 5,5 C 6,7 C 0,0 km/h (0 Bft) 86,96 %
01.03.2024 21:32 6,7 C 6,1 C 7,2 C 6,7 C 6,1 C 92 % 162 cb 142 cb 139 cb 1009,5 hPa 0,0 l/m 0,0 km/h (0 Bft) N 0 0 min 0,000 mm 0,0 UV-I 0 W/m 5,5 C 6,7 C 0,0 km/h (0 Bft) 86,96 %
01.03.2024 21:31 6,7 C 6,1 C 7,2 C 6,7 C 6,1 C 92 % 164 cb 143 cb 137 cb 1009,5 hPa 0,0 l/m 0,0 km/h (0 Bft) N 0 0 min 0,000 mm 0,0 UV-I 0 W/m 5,5 C 6,7 C 0,0 km/h (0 Bft) 91,30 %
01.03.2024 21:30 6,7 C 6,1 C 7,2 C 6,7 C 6,1 C 92 % 164 cb 144 cb 138 cb 1009,6 hPa 0,0 l/m 0,0 km/h (0 Bft) N 0 0 min 0,000 mm 0,0 UV-I 0 W/m 5,5 C 6,7 C 0,0 km/h (0 Bft) 91,30 %
01.03.2024 21:29 6,7 C 6,1 C 7,2 C 6,7 C 6,1 C 92 % 162 cb 143 cb 137 cb 1009,7 hPa 0,0 l/m 0,0 km/h (0 Bft) N 0 0 min 0,000 mm 0,0 UV-I 0 W/m 5,5 C 6,7 C 0,0 km/h (0 Bft) 86,96 %
01.03.2024 21:28 6,7 C 6,1 C 7,2 C 6,7 C 6,1 C 92 % 166 cb 144 cb 136 cb 1009,6 hPa 0,0 l/m 0,0 km/h (0 Bft) N 0 0 min 0,000 mm 0,0 UV-I 0 W/m 5,5 C 6,7 C 0,0 km/h (0 Bft) 100,00 %
01.03.2024 21:27 6,7 C 6,1 C 7,2 C 6,7 C 6,1 C 92 % 156 cb 138 cb 134 cb 1009,6 hPa 0,0 l/m 0,0 km/h (0 Bft) N 0 0 min 0,000 mm 0,0 UV-I 0 W/m 5,5 C 6,7 C 0,0 km/h (0 Bft) 86,96 %
01.03.2024 21:26 6,8 C 6,1 C 7,2 C 6,7 C 6,1 C 92 % 162 cb 140 cb 132 cb 1009,6 hPa 0,0 l/m 0,0 km/h (0 Bft) N 0 0 min 0,000 mm 0,0 UV-I 0 W/m 5,6 C 6,8 C 0,0 km/h (0 Bft) 95,65 %
01.03.2024 21:25 6,7 C 6,1 C 7,2 C 6,7 C 6,1 C 92 % 162 cb 143 cb 137 cb 1009,5 hPa 0,0 l/m 0,0 km/h (0 Bft) N 0 0 min 0,000 mm 0,0 UV-I 0 W/m 5,5 C 6,7 C 0,0 km/h (0 Bft) 86,96 %
01.03.2024 21:24 6,8 C 6,1 C 7,2 C 6,7 C 6,1 C 92 % 168 cb 147 cb 138 cb 1009,6 hPa 0,0 l/m 0,0 km/h (0 Bft) N 0 0 min 0,000 mm 0,0 UV-I 0 W/m 5,6 C 6,8 C 0,0 km/h (0 Bft) 91,30 %
01.03.2024 21:23 6,8 C 6,1 C 7,2 C 6,7 C 6,1 C 92 % 168 cb 146 cb 138 cb 1009,6 hPa 0,0 l/m 0,0 km/h (0 Bft) N 0 0 min 0,000 mm 0,0 UV-I 0 W/m 5,6 C 6,8 C 0,0 km/h (0 Bft) 86,96 %
01.03.2024 21:22 6,7 C 6,1 C 7,2 C 6,7 C 6,1 C 92 % 164 cb 146 cb 140 cb 1009,6 hPa 0,0 l/m 0,0 km/h (0 Bft) N 0 0 min 0,000 mm 0,0 UV-I 0 W/m 5,5 C 6,7 C 0,0 km/h (0 Bft) 95,65 %
01.03.2024 21:21 6,7 C 6,1 C 7,2 C 6,7 C 6,1 C 92 % 164 cb 142 cb 136 cb 1009,5 hPa 0,0 l/m 0,0 km/h (0 Bft) N 0 0 min 0,000 mm 0,0 UV-I 0 W/m 5,5 C 6,7 C 0,0 km/h (0 Bft) 86,96 %
01.03.2024 21:20 6,8 C 6,1 C 7,2 C 6,7 C 6,1 C 92 % 161 cb 142 cb 136 cb 1009,6 hPa 0,0 l/m 0,0 km/h (0 Bft) N 0 0 min 0,000 mm 0,0 UV-I 0 W/m 5,6 C 6,8 C 0,0 km/h (0 Bft) 95,65 %
01.03.2024 21:19 6,7 C 6,1 C 7,2 C 6,7 C 6,1 C 92 % 161 cb 142 cb 135 cb 1009,5 hPa 0,0 l/m 0,0 km/h (0 Bft) N 0 0 min 0,000 mm 0,0 UV-I 0 W/m 5,5 C 6,7 C 0,0 km/h (0 Bft) 86,96 %
01.03.2024 21:18 6,8 C 6,1 C 7,2 C 6,7 C 6,1 C 92 % 161 cb 141 cb 133 cb 1009,5 hPa 0,0 l/m 0,0 km/h (0 Bft) N 0 0 min 0,000 mm 0,0 UV-I 0 W/m 5,6 C 6,8 C 0,0 km/h (0 Bft) 91,30 %
01.03.2024 21:17 6,8 C 6,1 C 7,2 C 6,7 C 6,1 C 92 % 159 cb 141 cb 132 cb 1009,5 hPa 0,0 l/m 0,0 km/h (0 Bft) N 0 0 min 0,000 mm 0,0 UV-I 0 W/m 5,6 C 6,8 C 0,0 km/h (0 Bft) 95,65 %
01.03.2024 21:16 6,8 C 6,1 C 7,2 C 6,7 C 6,1 C 92 % 161 cb 143 cb 137 cb 1009,5 hPa 0,0 l/m 0,0 km/h (0 Bft) N 0 0 min 0,000 mm 0,0 UV-I 0 W/m 5,6 C 6,8 C 0,0 km/h (0 Bft) 91,30 %
01.03.2024 21:15 6,8 C 6,1 C 7,2 C 6,7 C 6,1 C 92 % 161 cb 140 cb 133 cb 1009,5 hPa 0,0 l/m 0,0 km/h (0 Bft) N 0 0 min 0,000 mm 0,0 UV-I 0 W/m 5,6 C 6,8 C 0,0 km/h (0 Bft) 95,65 %
01.03.2024 21:14 6,8 C 6,1 C 7,2 C 6,7 C 6,1 C 92 % 158 cb 139 cb 132 cb 1009,5 hPa 0,0 l/m 0,0 km/h (0 Bft) N 0 0 min 0,000 mm 0,0 UV-I 0 W/m 5,6 C 6,8 C 0,0 km/h (0 Bft) 86,96 %
01.03.2024 21:13 6,8 C 6,1 C 7,2 C 6,7 C 6,1 C 92 % 159 cb 141 cb 133 cb 1009,5 hPa 0,0 l/m 0,0 km/h (0 Bft) N 0 0 min 0,000 mm 0,0 UV-I 0 W/m 5,6 C 6,8 C 0,0 km/h (0 Bft) 100,00 %
01.03.2024 21:12 6,8 C 6,1 C 7,2 C 6,7 C 6,1 C 92 % 163 cb 142 cb 133 cb 1009,5 hPa 0,0 l/m 0,0 km/h (0 Bft) N 0 0 min 0,000 mm 0,0 UV-I 0 W/m 5,6 C 6,8 C 0,0 km/h (0 Bft) 86,96 %
01.03.2024 21:11 6,8 C 6,1 C 7,2 C 6,7 C 6,1 C 92 % 163 cb 143 cb 135 cb 1009,5 hPa 0,0 l/m 0,0 km/h (0 Bft) N 0 0 min 0,000 mm 0,0 UV-I 0 W/m 5,6 C 6,8 C 0,0 km/h (0 Bft) 95,65 %
01.03.2024 21:10 6,8 C 6,1 C 7,2 C 6,7 C 6,1 C 92 % 157 cb 137 cb 131 cb 1009,5 hPa 0,0 l/m 0,0 km/h (0 Bft) N 0 0 min 0,000 mm 0,0 UV-I 0 W/m 5,6 C 6,8 C 0,0 km/h (0 Bft) 86,96 %
01.03.2024 21:09 6,8 C 6,1 C 7,2 C 6,7 C 6,1 C 92 % 159 cb 137 cb 130 cb 1009,5 hPa 0,0 l/m 0,0 km/h (0 Bft) N 0 0 min 0,000 mm 0,0 UV-I 0 W/m 5,6 C 6,8 C 0,0 km/h (0 Bft) 95,65 %
01.03.2024 21:08 6,8 C 6,1 C 7,2 C 6,7 C 6,1 C 92 % 155 cb 136 cb 130 cb 1009,5 hPa 0,0 l/m 0,0 km/h (0 Bft) N 0 0 min 0,000 mm 0,0 UV-I 0 W/m 5,6 C 6,8 C 0,0 km/h (0 Bft) 86,96 %
01.03.2024 21:07 6,8 C 6,1 C 7,2 C 6,7 C 6,1 C 92 % 154 cb 136 cb 129 cb 1009,6 hPa 0,0 l/m 0,0 km/h (0 Bft) N 0 0 min 0,000 mm 0,0 UV-I 0 W/m 5,6 C 6,8 C 0,0 km/h (0 Bft) 95,65 %
01.03.2024 21:06 6,8 C 6,1 C 7,2 C 6,7 C 6,1 C 92 % 155 cb 136 cb 129 cb 1009,5 hPa 0,0 l/m 0,0 km/h (0 Bft) N 0 0 min 0,000 mm 0,0 UV-I 0 W/m 5,6 C 6,8 C 0,0 km/h (0 Bft) 91,30 %
01.03.2024 21:05 6,8 C 6,1 C 7,2 C 6,7 C 6,1 C 92 % 155 cb 136 cb 129 cb 1009,5 hPa 0,0 l/m 0,0 km/h (0 Bft) N 0 0 min 0,000 mm 0,0 UV-I 0 W/m 5,6 C 6,8 C 0,0 km/h (0 Bft) 91,30 %
01.03.2024 21:04 6,8 C 6,1 C 7,2 C 6,7 C 6,1 C 92 % 158 cb 141 cb 131 cb 1009,5 hPa 0,0 l/m 0,0 km/h (0 Bft) N 0 0 min 0,000 mm 0,0 UV-I 0 W/m 5,6 C 6,8 C 0,0 km/h (0 Bft) 91,30 %
01.03.2024 21:03 6,8 C 6,1 C 7,2 C 6,7 C 6,1 C 92 % 158 cb 138 cb 129 cb 1009,5 hPa 0,0 l/m 0,0 km/h (0 Bft) N 0 0 min 0,000 mm 0,0 UV-I 0 W/m 5,6 C 6,8 C 0,0 km/h (0 Bft) 86,96 %
01.03.2024 21:02 6,8 C 6,1 C 7,2 C 6,7 C 6,1 C 92 % 162 cb 137 cb 134 cb 1009,5 hPa 0,0 l/m 0,0 km/h (0 Bft) N 0 0 min 0,000 mm 0,0 UV-I 0 W/m 5,6 C 6,8 C 0,0 km/h (0 Bft) 95,65 %
01.03.2024 21:01 6,8 C 6,1 C 7,2 C 6,7 C 6,1 C 92 % 155 cb 139 cb 129 cb 1009,5 hPa 0,0 l/m 0,0 km/h (0 Bft) N 0 0 min 0,000 mm 0,0 UV-I 0 W/m 5,6 C 6,8 C 0,0 km/h (0 Bft) 86,96 %
01.03.2024 21:00 6,8 C 6,1 C 7,2 C 6,7 C 6,1 C 92 % 155 cb 137 cb 134 cb 1009,5 hPa 0,0 l/m 0,0 km/h (0 Bft) N 0 0 min 0,000 mm 0,0 UV-I 0 W/m 5,6 C 6,8 C 0,0 km/h (0 Bft) 100,00 %
01.03.2024 20:59 6,8 C 6,1 C 7,2 C 6,7 C 6,1 C 92 % 156 cb 137 cb 134 cb 1009,5 hPa 0,0 l/m 0,0 km/h (0 Bft) N 0 0 min 0,000 mm 0,0 UV-I 0 W/m 5,6 C 6,8 C 0,0 km/h (0 Bft) 86,96 %
01.03.2024 20:58 6,8 C 6,1 C 7,2 C 6,7 C 6,1 C 92 % 158 cb 140 cb 132 cb 1009,4 hPa 0,0 l/m 0,0 km/h (0 Bft) N 0 0 min 0,000 mm 0,0 UV-I 0 W/m 5,6 C 6,8 C 0,0 km/h (0 Bft) 95,65 %
01.03.2024 20:57 6,8 C 6,1 C 7,2 C 6,7 C 6,1 C 92 % 156 cb 137 cb 130 cb 1009,5 hPa 0,0 l/m 0,0 km/h (0 Bft) N 0 0 min 0,000 mm 0,0 UV-I 0 W/m 5,6 C 6,8 C 0,0 km/h (0 Bft) 91,30 %
01.03.2024 20:56 6,8 C 6,1 C 7,2 C 6,7 C 6,1 C 92 % 160 cb 138 cb 134 cb 1009,5 hPa 0,0 l/m 0,0 km/h (0 Bft) N 0 0 min 0,000 mm 0,0 UV-I 0 W/m 5,6 C 6,8 C 0,0 km/h (0 Bft) 91,30 %
01.03.2024 20:55 6,8 C 6,1 C 7,2 C 6,7 C 6,1 C 92 % 156 cb 137 cb 131 cb 1009,5 hPa 0,0 l/m 0,0 km/h (0 Bft) N 0 0 min 0,000 mm 0,0 UV-I 0 W/m 5,6 C 6,8 C 0,0 km/h (0 Bft) 91,30 %
01.03.2024 20:54 6,8 C 6,1 C 7,2 C 6,7 C 6,1 C 92 % 157 cb 138 cb 136 cb 1009,5 hPa 0,0 l/m 0,0 km/h (0 Bft) N 0 0 min 0,000 mm 0,0 UV-I 0 W/m 5,6 C 6,8 C 0,0 km/h (0 Bft) 95,65 %
01.03.2024 20:53 6,8 C 6,1 C 7,2 C 6,7 C 6,1 C 92 % 162 cb 142 cb 136 cb 1009,4 hPa 0,0 l/m 0,0 km/h (0 Bft) N 0 0 min 0,000 mm 0,0 UV-I 0 W/m 5,6 C 6,8 C 0,0 km/h (0 Bft) 82,61 %
01.03.2024 20:52 6,8 C 6,1 C 7,2 C 6,7 C 6,1 C 92 % 157 cb 139 cb 132 cb 1009,4 hPa 0,0 l/m 0,0 km/h (0 Bft) N 0 0 min 0,000 mm 0,0 UV-I 0 W/m 5,6 C 6,8 C 0,0 km/h (0 Bft) 91,30 %
01.03.2024 20:51 6,8 C 6,1 C 7,2 C 6,7 C 6,1 C 92 % 156 cb 137 cb 131 cb 1009,4 hPa 0,0 l/m 0,0 km/h (0 Bft) N 0 0 min 0,000 mm 0,0 UV-I 0 W/m 5,6 C 6,8 C 0,0 km/h (0 Bft) 91,30 %
01.03.2024 20:50 6,8 C 6,1 C 7,2 C 6,7 C 6,1 C 92 % 155 cb 138 cb 131 cb 1009,4 hPa 0,0 l/m 0,0 km/h (0 Bft) N 0 0 min 0,000 mm 0,0 UV-I 0 W/m 5,6 C 6,8 C 0,0 km/h (0 Bft) 91,30 %
01.03.2024 20:49 6,8 C 6,1 C 7,2 C 6,7 C 6,1 C 92 % 157 cb 141 cb 131 cb 1009,4 hPa 0,0 l/m 0,0 km/h (0 Bft) N 0 0 min 0,000 mm 0,0 UV-I 0 W/m 5,6 C 6,8 C 0,0 km/h (0 Bft) 91,30 %
01.03.2024 20:48 6,8 C 6,1 C 7,2 C 6,7 C 6,1 C 92 % 157 cb 141 cb 130 cb 1009,4 hPa 0,0 l/m 0,0 km/h (0 Bft) N 0 0 min 0,000 mm 0,0 UV-I 0 W/m 5,6 C 6,8 C 0,0 km/h (0 Bft) 95,65 %
01.03.2024 20:47 6,8 C 6,1 C 7,2 C 6,7 C 6,1 C 92 % 159 cb 139 cb 131 cb 1009,4 hPa 0,0 l/m 0,0 km/h (0 Bft) NW 315 0 min 0,000 mm 0,0 UV-I 0 W/m 5,6 C 6,8 C 1,6 km/h (1 Bft) 91,30 %
01.03.2024 20:46 6,9 C 6,1 C 7,2 C 6,7 C 6,1 C 92 % 159 cb 140 cb 133 cb 1009,4 hPa 0,0 l/m 0,0 km/h (0 Bft) NW 315 0 min 0,000 mm 0,0 UV-I 0 W/m 5,7 C 6,9 C 1,6 km/h (1 Bft) 78,26 %
01.03.2024 20:45 6,8 C 6,1 C 7,2 C 6,7 C 6,1 C 92 % 157 cb 139 cb 132 cb 1009,4 hPa 0,0 l/m 0,0 km/h (0 Bft) N 0 0 min 0,000 mm 0,0 UV-I 0 W/m 5,6 C 6,8 C 0,0 km/h (0 Bft) 95,65 %
01.03.2024 20:44 6,8 C 6,1 C 7,2 C 6,7 C 6,1 C 92 % 158 cb 142 cb 132 cb 1009,4 hPa 0,0 l/m 0,0 km/h (0 Bft) N 0 0 min 0,000 mm 0,0 UV-I 0 W/m 5,6 C 6,8 C 0,0 km/h (0 Bft) 86,96 %
01.03.2024 20:43 6,9 C 6,1 C 7,2 C 6,7 C 6,1 C 92 % 158 cb 141 cb 131 cb 1009,4 hPa 0,0 l/m 0,0 km/h (0 Bft) N 0 0 min 0,000 mm 0,0 UV-I 0 W/m 5,7 C 6,9 C 0,0 km/h (0 Bft) 91,30 %
01.03.2024 20:42 6,9 C 6,1 C 7,2 C 6,7 C 6,1 C 92 % 156 cb 138 cb 133 cb 1009,3 hPa 0,0 l/m 0,0 km/h (0 Bft) N 0 0 min 0,000 mm 0,0 UV-I 0 W/m 5,7 C 6,9 C 0,0 km/h (0 Bft) 95,65 %
01.03.2024 20:41 6,8 C 6,1 C 7,2 C 6,7 C 6,1 C 92 % 159 cb 140 cb 134 cb 1009,3 hPa 0,0 l/m 0,0 km/h (0 Bft) N 0 0 min 0,000 mm 0,0 UV-I 0 W/m 5,6 C 6,8 C 0,0 km/h (0 Bft) 91,30 %
01.03.2024 20:40 6,9 C 6,1 C 7,2 C 6,7 C 6,1 C 92 % 158 cb 138 cb 133 cb 1009,3 hPa 0,0 l/m 0,0 km/h (0 Bft) N 0 0 min 0,000 mm 0,0 UV-I 0 W/m 5,7 C 6,9 C 0,0 km/h (0 Bft) 91,30 %
01.03.2024 20:39 6,9 C 6,1 C 7,2 C 6,7 C 6,1 C 92 % 158 cb 138 cb 133 cb 1009,3 hPa 0,0 l/m 0,0 km/h (0 Bft) N 0 0 min 0,000 mm 0,0 UV-I 0 W/m 5,7 C 6,9 C 0,0 km/h (0 Bft) 91,30 %
01.03.2024 20:38 6,9 C 6,1 C 7,2 C 6,7 C 6,1 C 92 % 157 cb 138 cb 133 cb 1009,2 hPa 0,0 l/m 0,0 km/h (0 Bft) N 0 0 min 0,000 mm 0,0 UV-I 0 W/m 5,7 C 6,9 C 0,0 km/h (0 Bft) 86,96 %
01.03.2024 20:37 6,9 C 6,1 C 7,2 C 6,7 C 6,1 C 92 % 157 cb 138 cb 130 cb 1009,3 hPa 0,0 l/m 0,0 km/h (0 Bft) NW 315 0 min 0,000 mm 0,0 UV-I 0 W/m 5,7 C 6,9 C 1,6 km/h (1 Bft) 91,30 %
01.03.2024 20:36 6,9 C 6,1 C 7,2 C 6,7 C 6,1 C 92 % 158 cb 139 cb 132 cb 1009,3 hPa 0,0 l/m 0,0 km/h (0 Bft) N 0 0 min 0,000 mm 0,0 UV-I 0 W/m 5,7 C 6,9 C 0,0 km/h (0 Bft) 95,65 %
01.03.2024 20:35 6,9 C 6,1 C 7,2 C 6,7 C 6,1 C 92 % 164 cb 142 cb 133 cb 1009,3 hPa 0,0 l/m 0,0 km/h (0 Bft) N 0 0 min 0,000 mm 0,0 UV-I 0 W/m 5,7 C 6,9 C 0,0 km/h (0 Bft) 91,30 %
01.03.2024 20:34 6,9 C 6,1 C 7,2 C 6,7 C 6,1 C 92 % 171 cb 142 cb 137 cb 1009,3 hPa 0,0 l/m 0,0 km/h (0 Bft) N 0 0 min 0,000 mm 0,0 UV-I 0 W/m 5,7 C 6,9 C 0,0 km/h (0 Bft) 91,30 %
01.03.2024 20:33 6,9 C 6,1 C 7,2 C 6,7 C 6,1 C 92 % 160 cb 142 cb 134 cb 1009,2 hPa 0,0 l/m 0,0 km/h (0 Bft) N 0 0 min 0,000 mm 0,0 UV-I 0 W/m 5,7 C 6,9 C 0,0 km/h (0 Bft) 95,65 %
01.03.2024 20:32 6,9 C 6,1 C 7,2 C 6,7 C 6,1 C 92 % 160 cb 139 cb 135 cb 1009,3 hPa 0,0 l/m 0,0 km/h (0 Bft) NW 315 0 min 0,000 mm 0,0 UV-I 0 W/m 5,7 C 6,9 C 1,6 km/h (1 Bft) 86,96 %
01.03.2024 20:31 6,9 C 6,1 C 7,2 C 6,7 C 6,1 C 92 % 161 cb 142 cb 133 cb 1009,3 hPa 0,0 l/m 0,0 km/h (0 Bft) NW 315 0 min 0,000 mm 0,0 UV-I 0 W/m 5,7 C 6,9 C 1,6 km/h (1 Bft) 91,30 %
01.03.2024 20:30 6,9 C 6,1 C 7,2 C 6,7 C 6,1 C 92 % 160 cb 140 cb 135 cb 1009,2 hPa 0,0 l/m 0,0 km/h (0 Bft) NW 315 0 min 0,000 mm 0,0 UV-I 0 W/m 5,7 C 6,9 C 1,6 km/h (1 Bft) 91,30 %
01.03.2024 20:29 6,9 C 6,1 C 7,2 C 6,7 C 6,1 C 92 % 157 cb 139 cb 133 cb 1009,3 hPa 0,0 l/m 0,0 km/h (0 Bft) NW 315 0 min 0,000 mm 0,0 UV-I 0 W/m 5,7 C 6,9 C 1,6 km/h (1 Bft) 91,30 %
01.03.2024 20:28 6,9 C 6,1 C 7,2 C 6,7 C 6,1 C 92 % 159 cb 141 cb 133 cb 1009,2 hPa 0,0 l/m 0,0 km/h (0 Bft) NW 315 0 min 0,000 mm 0,0 UV-I 0 W/m 5,7 C 6,9 C 1,6 km/h (1 Bft) 91,30 %
01.03.2024 20:27 6,9 C 6,1 C 7,2 C 6,7 C 6,1 C 91 % 159 cb 140 cb 133 cb 1009,2 hPa 0,0 l/m 0,0 km/h (0 Bft) NW 315 0 min 0,000 mm 0,0 UV-I 0 W/m 5,5 C 6,9 C 1,6 km/h (1 Bft) 91,30 %
01.03.2024 20:26 6,9 C 6,1 C 7,2 C 6,7 C 6,1 C 92 % 160 cb 141 cb 135 cb 1009,2 hPa 0,0 l/m 0,0 km/h (0 Bft) NW 315 0 min 0,000 mm 0,0 UV-I 0 W/m 5,7 C 6,9 C 1,6 km/h (1 Bft) 91,30 %
01.03.2024 20:25 6,9 C 6,1 C 7,2 C 6,7 C 6,1 C 91 % 160 cb 140 cb 135 cb 1009,2 hPa 0,0 l/m 0,0 km/h (0 Bft) N 0 0 min 0,000 mm 0,0 UV-I 0 W/m 5,5 C 6,9 C 0,0 km/h (0 Bft) 91,30 %
01.03.2024 20:24 6,9 C 6,1 C 7,2 C 6,7 C 6,1 C 92 % 160 cb 142 cb 133 cb 1009,2 hPa 0,0 l/m 0,0 km/h (0 Bft) N 0 0 min 0,000 mm 0,0 UV-I 0 W/m 5,7 C 6,9 C 0,0 km/h (0 Bft) 91,30 %
01.03.2024 20:23 6,9 C 6,1 C 7,2 C 6,7 C 6,1 C 91 % 161 cb 142 cb 134 cb 1009,2 hPa 0,0 l/m 0,0 km/h (0 Bft) N 0 0 min 0,000 mm 0,0 UV-I 0 W/m 5,5 C 6,9 C 0,0 km/h (0 Bft) 91,30 %
01.03.2024 20:22 6,9 C 6,1 C 7,2 C 6,7 C 6,1 C 91 % 161 cb 142 cb 134 cb 1009,3 hPa 0,0 l/m 0,0 km/h (0 Bft) N 0 0 min 0,000 mm 0,0 UV-I 0 W/m 5,5 C 6,9 C 0,0 km/h (0 Bft) 91,30 %
01.03.2024 20:21 6,9 C 6,1 C 7,2 C 6,7 C 6,1 C 91 % 166 cb 144 cb 136 cb 1009,1 hPa 0,0 l/m 0,0 km/h (0 Bft) NW 315 0 min 0,000 mm 0,0 UV-I 0 W/m 5,5 C 6,9 C 1,6 km/h (1 Bft) 86,96 %
01.03.2024 20:20 6,9 C 6,1 C 7,2 C 6,7 C 6,1 C 91 % 159 cb 136 cb 130 cb 1009,2 hPa 0,0 l/m 0,0 km/h (0 Bft) N 0 0 min 0,000 mm 0,0 UV-I 0 W/m 5,5 C 6,9 C 0,0 km/h (0 Bft) 95,65 %
01.03.2024 20:19 6,9 C 6,1 C 7,2 C 6,7 C 6,1 C 91 % 159 cb 139 cb 133 cb 1009,3 hPa 0,0 l/m 0,0 km/h (0 Bft) N 0 0 min 0,000 mm 0,0 UV-I 0 W/m 5,5 C 6,9 C 0,0 km/h (0 Bft) 86,96 %
01.03.2024 20:18 7,0 C 6,1 C 7,2 C 6,7 C 6,1 C 91 % 159 cb 140 cb 132 cb 1009,2 hPa 0,0 l/m 0,0 km/h (0 Bft) N 0 0 min 0,000 mm 0,0 UV-I 0 W/m 5,6 C 7,0 C 0,0 km/h (0 Bft) 91,30 %
01.03.2024 20:17 6,9 C 6,1 C 7,2 C 6,7 C 6,1 C 91 % 159 cb 140 cb 132 cb 1009,2 hPa 0,0 l/m 0,0 km/h (0 Bft) N 0 0 min 0,000 mm 0,0 UV-I 0 W/m 5,5 C 6,9 C 0,0 km/h (0 Bft) 91,30 %
01.03.2024 20:16 6,9 C 6,1 C 7,2 C 6,7 C 6,1 C 91 % 163 cb 143 cb 134 cb 1009,2 hPa 0,0 l/m 0,0 km/h (0 Bft) N 0 0 min 0,000 mm 0,0 UV-I 0 W/m 5,5 C 6,9 C 0,0 km/h (0 Bft) 91,30 %
01.03.2024 20:15 6,9 C 6,1 C 7,2 C 6,7 C 6,1 C 91 % 162 cb 136 cb 132 cb 1009,2 hPa 0,0 l/m 0,0 km/h (0 Bft) N 0 0 min 0,000 mm 0,0 UV-I 0 W/m 5,5 C 6,9 C 0,0 km/h (0 Bft) 86,96 %
01.03.2024 20:14 6,9 C 6,1 C 7,2 C 6,7 C 6,1 C 91 % 151 cb 144 cb 136 cb 1009,2 hPa 0,0 l/m 0,0 km/h (0 Bft) N 0 0 min 0,000 mm 0,0 UV-I 0 W/m 5,5 C 6,9 C 0,0 km/h (0 Bft) 95,65 %
01.03.2024 20:13 6,9 C 6,1 C 7,2 C 6,7 C 6,1 C 91 % 151 cb 136 cb 127 cb 1009,2 hPa 0,0 l/m 0,0 km/h (0 Bft) N 0 0 min 0,000 mm 0,0 UV-I 0 W/m 5,5 C 6,9 C 0,0 km/h (0 Bft) 91,30 %
01.03.2024 20:12 7,0 C 6,1 C 7,2 C 6,7 C 6,1 C 91 % 156 cb 142 cb 136 cb 1009,2 hPa 0,0 l/m 0,0 km/h (0 Bft) N 0 0 min 0,000 mm 0,0 UV-I 0 W/m 5,6 C 7,0 C 0,0 km/h (0 Bft) 91,30 %
01.03.2024 20:11 7,0 C 6,1 C 7,2 C 6,7 C 6,1 C 91 % 161 cb 138 cb 133 cb 1009,2 hPa 0,0 l/m 0,0 km/h (0 Bft) N 0 0 min 0,000 mm 0,0 UV-I 0 W/m 5,6 C 7,0 C 0,0 km/h (0 Bft) 95,65 %
01.03.2024 20:10 6,9 C 6,1 C 7,2 C 6,7 C 6,1 C 91 % 155 cb 134 cb 129 cb 1009,2 hPa 0,0 l/m 0,0 km/h (0 Bft) N 0 0 min 0,000 mm 0,0 UV-I 0 W/m 5,5 C 6,9 C 0,0 km/h (0 Bft) 82,61 %
01.03.2024 20:09 7,0 C 6,1 C 7,2 C 6,7 C 6,1 C 91 % 164 cb 142 cb 135 cb 1009,1 hPa 0,0 l/m 0,0 km/h (0 Bft) N 0 0 min 0,000 mm 0,0 UV-I 0 W/m 5,6 C 7,0 C 0,0 km/h (0 Bft) 95,65 %
01.03.2024 20:08 7,0 C 6,1 C 7,2 C 6,7 C 6,1 C 91 % 158 cb 141 cb 133 cb 1009,2 hPa 0,0 l/m 0,0 km/h (0 Bft) N 0 0 min 0,000 mm 0,0 UV-I 0 W/m 5,6 C 7,0 C 0,0 km/h (0 Bft) 91,30 %
01.03.2024 20:07 7,0 C 6,1 C 7,2 C 6,7 C 6,1 C 91 % 164 cb 142 cb 137 cb 1009,0 hPa 0,0 l/m 0,0 km/h (0 Bft) N 0 0 min 0,000 mm 0,0 UV-I 0 W/m 5,6 C 7,0 C 0,0 km/h (0 Bft) 95,65 %
01.03.2024 20:06 7,0 C 6,1 C 7,2 C 6,7 C 6,1 C 91 % 167 cb 142 cb 144 cb 1009,1 hPa 0,0 l/m 0,0 km/h (0 Bft) NW 315 0 min 0,000 mm 0,0 UV-I 0 W/m 5,6 C 7,0 C 1,6 km/h (1 Bft) 86,96 %
01.03.2024 20:05 7,1 C 6,1 C 7,2 C 6,7 C 6,1 C 91 % 167 cb 151 cb 138 cb 1009,1 hPa 0,0 l/m 0,0 km/h (0 Bft) NW 315 0 min 0,000 mm 0,0 UV-I 0 W/m 5,7 C 7,1 C 1,6 km/h (1 Bft) 100,00 %
01.03.2024 20:04 7,1 C 6,1 C 7,2 C 6,7 C 6,1 C 91 % 153 cb 141 cb 126 cb 1009,1 hPa 0,0 l/m 0,0 km/h (0 Bft) NW 315 0 min 0,000 mm 0,0 UV-I 0 W/m 5,7 C 7,1 C 1,6 km/h (1 Bft) 82,61 %
01.03.2024 20:03 7,1 C 6,1 C 7,2 C 6,7 C 6,1 C 91 % 151 cb 143 cb 126 cb 1009,0 hPa 0,0 l/m 0,0 km/h (0 Bft) NW 315 0 min 0,000 mm 0,0 UV-I 0 W/m 5,7 C 7,1 C 1,6 km/h (1 Bft) 91,30 %
01.03.2024 20:02 7,1 C 6,1 C 7,2 C 6,7 C 6,1 C 91 % 154 cb 136 cb 128 cb 1009,1 hPa 0,0 l/m 0,0 km/h (0 Bft) NW 315 0 min 0,000 mm 0,0 UV-I 0 W/m 5,7 C 7,1 C 1,6 km/h (1 Bft) 91,30 %
01.03.2024 20:01 7,1 C 6,1 C 7,2 C 6,7 C 6,1 C 91 % 153 cb 133 cb 128 cb 1009,1 hPa 0,0 l/m 0,0 km/h (0 Bft) NW 315 0 min 0,000 mm 0,0 UV-I 0 W/m 5,7 C 7,1 C 1,6 km/h (1 Bft) 91,30 %
01.03.2024 20:00 7,1 C 6,1 C 7,2 C 6,7 C 6,1 C 91 % 161 cb 142 cb 140 cb 1009,1 hPa 0,0 l/m 0,0 km/h (0 Bft) NW 315 0 min 0,000 mm 0,0 UV-I 0 W/m 5,7 C 7,1 C 1,6 km/h (1 Bft) 86,96 %
01.03.2024 19:59 7,1 C 6,1 C 7,2 C 6,7 C 6,1 C 91 % 152 cb 139 cb 134 cb 1009,0 hPa 0,0 l/m 1,6 km/h (1 Bft) NW 315 0 min 0,000 mm 0,0 UV-I 0 W/m 5,7 C 7,1 C 3,2 km/h (1 Bft) 91,30 %
01.03.2024 19:58 7,1 C 6,1 C 7,2 C 6,7 C 6,1 C 91 % 163 cb 140 cb 142 cb 1009,1 hPa 0,0 l/m 1,6 km/h (1 Bft) NW 315 0 min 0,000 mm 0,0 UV-I 0 W/m 5,7 C 7,1 C 3,2 km/h (1 Bft) 91,30 %
01.03.2024 19:57 7,1 C 6,1 C 7,2 C 6,7 C 6,1 C 91 % 178 cb 166 cb 146 cb 1009,1 hPa 0,0 l/m 1,6 km/h (1 Bft) NW 315 0 min 0,000 mm 0,0 UV-I 0 W/m 5,7 C 7,1 C 1,6 km/h (1 Bft) 86,96 %
01.03.2024 19:56 7,1 C 6,1 C 7,2 C 6,7 C 6,1 C 91 % 157 cb 141 cb 146 cb 1009,1 hPa 0,0 l/m 1,6 km/h (1 Bft) NW 315 0 min 0,000 mm 0,0 UV-I 0 W/m 5,7 C 7,1 C 3,2 km/h (1 Bft) 100,00 %
01.03.2024 19:55 7,1 C 6,1 C 7,2 C 6,7 C 6,1 C 91 % 178 cb 141 cb 137 cb 1009,1 hPa 0,0 l/m 1,6 km/h (1 Bft) NW 315 0 min 0,000 mm 0,0 UV-I 0 W/m 5,7 C 7,1 C 1,6 km/h (1 Bft) 82,61 %
01.03.2024 19:54 7,1 C 6,1 C 7,2 C 6,7 C 6,1 C 91 % 178 cb 148 cb 140 cb 1009,1 hPa 0,0 l/m 0,0 km/h (0 Bft) N 0 0 min 0,000 mm 0,0 UV-I 0 W/m 5,7 C 7,1 C 0,0 km/h (0 Bft) 95,65 %
01.03.2024 19:53 7,1 C 6,1 C 7,2 C 6,7 C 6,1 C 91 % 172 cb 153 cb 140 cb 1009,2 hPa 0,0 l/m 0,0 km/h (0 Bft) N 0 0 min 0,000 mm 0,0 UV-I 0 W/m 5,7 C 7,1 C 0,0 km/h (0 Bft) 91,30 %
01.03.2024 19:52 7,1 C 6,1 C 7,2 C 6,7 C 6,1 C 91 % 175 cb 154 cb 145 cb 1009,1 hPa 0,0 l/m 0,0 km/h (0 Bft) N 0 0 min 0,000 mm 0,0 UV-I 0 W/m 5,7 C 7,1 C 0,0 km/h (0 Bft) 95,65 %
01.03.2024 19:51 7,1 C 6,1 C 7,2 C 6,7 C 6,1 C 91 % 176 cb 159 cb 141 cb 1009,2 hPa 0,0 l/m 0,0 km/h (0 Bft) N 0 0 min 0,000 mm 0,0 UV-I 0 W/m 5,7 C 7,1 C 0,0 km/h (0 Bft) 86,96 %
01.03.2024 19:50 7,1 C 6,1 C 7,2 C 6,7 C 6,1 C 91 % 163 cb 161 cb 133 cb 1009,1 hPa 0,0 l/m 0,0 km/h (0 Bft) N 0 0 min 0,000 mm 0,0 UV-I 0 W/m 5,7 C 7,1 C 0,0 km/h (0 Bft) 100,00 %
01.03.2024 19:49 7,1 C 6,1 C 7,2 C 6,7 C 6,1 C 91 % 200 cb 163 cb 174 cb 1009,1 hPa 0,0 l/m 0,0 km/h (0 Bft) N 0 0 min 0,000 mm 0,0 UV-I 0 W/m 5,7 C 7,1 C 0,0 km/h (0 Bft) 86,96 %
01.03.2024 19:48 7,1 C 6,1 C 7,2 C 6,7 C 6,1 C 91 % 184 cb 163 cb 146 cb 1009,2 hPa 0,0 l/m 0,0 km/h (0 Bft) NW 315 0 min 0,000 mm 0,0 UV-I 0 W/m 5,7 C 7,1 C 1,6 km/h (1 Bft) 91,30 %
01.03.2024 19:47 7,1 C 6,1 C 7,2 C 6,7 C 6,1 C 91 % 170 cb 145 cb 139 cb 1009,2 hPa 0,0 l/m 0,0 km/h (0 Bft) N 0 0 min 0,000 mm 0,0 UV-I 0 W/m 5,7 C 7,1 C 0,0 km/h (0 Bft) 95,65 %
01.03.2024 19:46 7,1 C 6,1 C 7,2 C 6,7 C 6,1 C 91 % 181 cb 153 cb 150 cb 1009,1 hPa 0,0 l/m 0,0 km/h (0 Bft) N 0 0 min 0,000 mm 0,0 UV-I 0 W/m 5,7 C 7,1 C 0,0 km/h (0 Bft) 91,30 %
01.03.2024 19:45 7,1 C 6,1 C 7,2 C 6,7 C 6,1 C 91 % 172 cb 149 cb 146 cb 1009,2 hPa 0,0 l/m 0,0 km/h (0 Bft) N 0 0 min 0,000 mm 0,0 UV-I 0 W/m 5,7 C 7,1 C 0,0 km/h (0 Bft) 91,30 %
01.03.2024 19:44 7,1 C 6,1 C 7,2 C 6,7 C 6,1 C 91 % 200 cb 176 cb 173 cb 1009,2 hPa 0,0 l/m 0,0 km/h (0 Bft) N 0 0 min 0,000 mm 0,0 UV-I 0 W/m 5,7 C 7,1 C 0,0 km/h (0 Bft) 91,30 %
01.03.2024 19:43 7,1 C 6,1 C 7,2 C 6,7 C 6,1 C 91 % 199 cb 171 cb 156 cb 1009,2 hPa 0,0 l/m 0,0 km/h (0 Bft) N 0 0 min 0,000 mm 0,0 UV-I 0 W/m 5,7 C 7,1 C 0,0 km/h (0 Bft) 86,96 %
01.03.2024 19:42 7,1 C 6,1 C 7,2 C 6,7 C 6,1 C 91 % 191 cb 171 cb 161 cb 1009,3 hPa 0,0 l/m 0,0 km/h (0 Bft) N 0 0 min 0,000 mm 0,0 UV-I 0 W/m 5,7 C 7,1 C 0,0 km/h (0 Bft) 86,96 %
01.03.2024 19:41 7,1 C 6,1 C 7,2 C 6,7 C 6,1 C 91 % 189 cb 163 cb 156 cb 1009,2 hPa 0,0 l/m 0,0 km/h (0 Bft) N 0 0 min 0,000 mm 0,0 UV-I 0 W/m 5,7 C 7,1 C 0,0 km/h (0 Bft) 100,00 %
01.03.2024 19:40 7,1 C 6,1 C 7,2 C 6,7 C 6,1 C 91 % 172 cb 146 cb 139 cb 1009,2 hPa 0,0 l/m 0,0 km/h (0 Bft) N 0 0 min 0,000 mm 0,0 UV-I 0 W/m 5,7 C 7,1 C 0,0 km/h (0 Bft) 86,96 %
01.03.2024 19:39 7,1 C 6,1 C 7,2 C 6,7 C 6,1 C 91 % 193 cb 170 cb 159 cb 1009,2 hPa 0,0 l/m 0,0 km/h (0 Bft) N 0 0 min 0,000 mm 0,0 UV-I 0 W/m 5,7 C 7,1 C 0,0 km/h (0 Bft) 95,65 %
01.03.2024 19:38 7,1 C 6,1 C 7,2 C 6,7 C 6,1 C 91 % 200 cb 164 cb 154 cb 1009,2 hPa 0,0 l/m 0,0 km/h (0 Bft) N 0 0 min 0,000 mm 0,0 UV-I 0 W/m 5,7 C 7,1 C 0,0 km/h (0 Bft) 91,30 %
01.03.2024 19:37 7,1 C 6,1 C 7,2 C 6,7 C 6,1 C 91 % 200 cb 189 cb 159 cb 1009,2 hPa 0,0 l/m 0,0 km/h (0 Bft) N 0 0 min 0,000 mm 0,0 UV-I 0 W/m 5,7 C 7,1 C 0,0 km/h (0 Bft) 91,30 %
01.03.2024 19:36 7,1 C 6,1 C 7,2 C 6,7 C 6,1 C 91 % 186 cb 161 cb 153 cb 1009,2 hPa 0,0 l/m 0,0 km/h (0 Bft) N 0 0 min 0,000 mm 0,0 UV-I 0 W/m 5,7 C 7,1 C 0,0 km/h (0 Bft) 95,65 %
01.03.2024 19:35 7,1 C 6,1 C 7,2 C 6,7 C 6,1 C 91 % 186 cb 161 cb 175 cb 1009,2 hPa 0,0 l/m 0,0 km/h (0 Bft) N 0 0 min 0,000 mm 0,0 UV-I 0 W/m 5,7 C 7,1 C 0,0 km/h (0 Bft) 91,30 %
01.03.2024 19:34 7,1 C 6,1 C 7,2 C 6,7 C 6,1 C 91 % 188 cb 164 cb 153 cb 1009,1 hPa 0,0 l/m 0,0 km/h (0 Bft) N 0 0 min 0,000 mm 0,0 UV-I 0 W/m 5,7 C 7,1 C 0,0 km/h (0 Bft) 100,00 %
01.03.2024 19:33 7,2 C 6,1 C 7,2 C 6,7 C 6,1 C 91 % 200 cb 169 cb 171 cb 1009,2 hPa 0,0 l/m 0,0 km/h (0 Bft) N 0 0 min 0,000 mm 0,0 UV-I 0 W/m 5,8 C 7,2 C 0,0 km/h (0 Bft) 95,65 %
01.03.2024 19:32 7,1 C 6,1 C 7,2 C 6,7 C 6,1 C 91 % 200 cb 183 cb 158 cb 1009,1 hPa 0,0 l/m 0,0 km/h (0 Bft) N 0 0 min 0,000 mm 0,0 UV-I 0 W/m 5,7 C 7,1 C 0,0 km/h (0 Bft) 95,65 %
01.03.2024 19:31 7,1 C 6,1 C 7,2 C 6,7 C 6,1 C 91 % 195 cb 159 cb 147 cb 1009,1 hPa 0,0 l/m 0,0 km/h (0 Bft) N 0 0 min 0,000 mm 0,0 UV-I 0 W/m 5,7 C 7,1 C 0,0 km/h (0 Bft) 100,00 %
01.03.2024 19:30 7,2 C 6,7 C 7,2 C 6,7 C 6,1 C 91 % 181 cb 159 cb 147 cb 1009,1 hPa 0,0 l/m 0,0 km/h (0 Bft) N 0 0 min 0,000 mm 0,0 UV-I 0 W/m 5,8 C 7,2 C 0,0 km/h (0 Bft) 91,30 %
01.03.2024 19:29 7,1 C 6,7 C 7,2 C 6,7 C 6,1 C 91 % 186 cb 162 cb 151 cb 1009,2 hPa 0,0 l/m 0,0 km/h (0 Bft) NW 315 0 min 0,000 mm 0,0 UV-I 0 W/m 5,7 C 7,1 C 1,6 km/h (1 Bft) 95,65 %
01.03.2024 19:28 7,2 C 6,7 C 7,2 C 6,7 C 6,1 C 91 % 200 cb 176 cb 161 cb 1009,2 hPa 0,0 l/m 0,0 km/h (0 Bft) NW 315 0 min 0,000 mm 0,0 UV-I 0 W/m 5,8 C 7,2 C 1,6 km/h (1 Bft) 100,00 %
01.03.2024 19:27 7,1 C 6,7 C 7,2 C 6,7 C 6,1 C 91 % 182 cb 156 cb 146 cb 1009,2 hPa 0,0 l/m 0,0 km/h (0 Bft) NW 315 0 min 0,000 mm 0,0 UV-I 0 W/m 5,7 C 7,1 C 1,6 km/h (1 Bft) 86,96 %
01.03.2024 19:26 7,1 C 6,7 C 7,2 C 6,7 C 6,1 C 91 % 179 cb 169 cb 154 cb 1009,3 hPa 0,0 l/m 0,0 km/h (0 Bft) NW 315 0 min 0,000 mm 0,0 UV-I 0 W/m 5,7 C 7,1 C 1,6 km/h (1 Bft) 95,65 %
01.03.2024 19:25 7,2 C 6,7 C 7,2 C 6,7 C 6,1 C 91 % 136 cb 120 cb 112 cb 1009,3 hPa 0,0 l/m 0,0 km/h (0 Bft) N 0 0 min 0,000 mm 0,0 UV-I 0 W/m 5,8 C 7,2 C 0,0 km/h (0 Bft) 91,30 %
01.03.2024 19:24 7,1 C 6,7 C 7,2 C 6,7 C 6,1 C 91 % 181 cb 164 cb 155 cb 1009,3 hPa 0,0 l/m 0,0 km/h (0 Bft) N 0 0 min 0,000 mm 0,0 UV-I 0 W/m 5,7 C 7,1 C 0,0 km/h (0 Bft) 95,65 %
01.03.2024 19:23 7,1 C 6,7 C 7,2 C 6,7 C 6,1 C 91 % 195 cb 164 cb 152 cb 1009,3 hPa 0,0 l/m 0,0 km/h (0 Bft) N 0 0 min 0,000 mm 0,0 UV-I 0 W/m 5,7 C 7,1 C 0,0 km/h (0 Bft) 95,65 %
01.03.2024 19:22 7,2 C 6,7 C 7,2 C 6,7 C 6,1 C 91 % 193 cb 168 cb 153 cb 1009,3 hPa 0,0 l/m 0,0 km/h (0 Bft) N 0 0 min 0,000 mm 0,0 UV-I 0 W/m 5,8 C 7,2 C 0,0 km/h (0 Bft) 100,00 %
01.03.2024 19:21 7,2 C 6,7 C 7,2 C 6,7 C 6,1 C 91 % 199 cb 174 cb 159 cb 1009,3 hPa 0,0 l/m 0,0 km/h (0 Bft) N 0 0 min 0,000 mm 0,0 UV-I 0 W/m 5,8 C 7,2 C 0,0 km/h (0 Bft) 95,65 %
01.03.2024 19:20 7,1 C 6,7 C 7,2 C 6,7 C 6,1 C 91 % 184 cb 160 cb 149 cb 1009,4 hPa 0,0 l/m 0,0 km/h (0 Bft) N 0 0 min 0,000 mm 0,0 UV-I 0 W/m 5,7 C 7,1 C 0,0 km/h (0 Bft) 91,30 %
01.03.2024 19:19 7,2 C 6,7 C 7,2 C 6,7 C 6,1 C 91 % 189 cb 169 cb 157 cb 1009,2 hPa 0,0 l/m 0,0 km/h (0 Bft) NW 315 0 min 0,000 mm 0,0 UV-I 0 W/m 5,8 C 7,2 C 1,6 km/h (1 Bft) 100,00 %
01.03.2024 19:18 7,1 C 6,7 C 7,2 C 6,7 C 6,1 C 91 % 200 cb 173 cb 157 cb 1009,3 hPa 0,0 l/m 0,0 km/h (0 Bft) NW 315 0 min 0,000 mm 0,0 UV-I 0 W/m 5,7 C 7,1 C 1,6 km/h (1 Bft) 91,30 %
01.03.2024 19:17 7,1 C 6,7 C 7,2 C 6,7 C 6,1 C 91 % 176 cb 170 cb 158 cb 1009,2 hPa 0,0 l/m 0,0 km/h (0 Bft) N 0 0 min 0,000 mm 0,0 UV-I 0 W/m 5,7 C 7,1 C 0,0 km/h (0 Bft) 95,65 %
01.03.2024 19:16 7,2 C 6,7 C 7,2 C 6,7 C 6,1 C 91 % 156 cb 148 cb 140 cb 1009,3 hPa 0,0 l/m 0,0 km/h (0 Bft) N 0 0 min 0,000 mm 0,0 UV-I 0 W/m 5,8 C 7,2 C 0,0 km/h (0 Bft) 100,00 %
01.03.2024 19:15 7,2 C 6,7 C 7,2 C 6,7 C 6,1 C 91 % 177 cb 156 cb 149 cb 1009,3 hPa 0,0 l/m 0,0 km/h (0 Bft) N 0 0 min 0,000 mm 0,0 UV-I 0 W/m 5,8 C 7,2 C 0,0 km/h (0 Bft) 95,65 %
01.03.2024 19:14 7,2 C 6,7 C 7,2 C 6,7 C 6,1 C 91 % 177 cb 156 cb 149 cb 1009,3 hPa 0,0 l/m 0,0 km/h (0 Bft) N 0 0 min 0,000 mm 0,0 UV-I 0 W/m 5,8 C 7,2 C 0,0 km/h (0 Bft) 95,65 %
01.03.2024 19:13 7,2 C 6,7 C 7,2 C 6,7 C 6,1 C 91 % 167 cb 149 cb 143 cb 1009,3 hPa 0,0 l/m 0,0 km/h (0 Bft) N 0 0 min 0,000 mm 0,0 UV-I 0 W/m 5,8 C 7,2 C 0,0 km/h (0 Bft) 95,65 %
01.03.2024 19:12 7,2 C 6,7 C 7,2 C 6,7 C 6,1 C 91 % 193 cb 147 cb 138 cb 1009,3 hPa 0,0 l/m 0,0 km/h (0 Bft) N 0 0 min 0,000 mm 0,0 UV-I 0 W/m 5,8 C 7,2 C 0,0 km/h (0 Bft) 95,65 %
01.03.2024 19:11 7,2 C 6,1 C 7,2 C 6,7 C 6,1 C 91 % 171 cb 149 cb 135 cb 1009,2 hPa 0,0 l/m 0,0 km/h (0 Bft) N 0 0 min 0,000 mm 0,0 UV-I 0 W/m 5,8 C 7,2 C 0,0 km/h (0 Bft) 95,65 %
01.03.2024 19:10 7,2 C 6,1 C 7,2 C 6,7 C 6,1 C 91 % 171 cb 151 cb 151 cb 1009,3 hPa 0,0 l/m 0,0 km/h (0 Bft) N 0 0 min 0,000 mm 0,0 UV-I 0 W/m 5,8 C 7,2 C 0,0 km/h (0 Bft) 91,30 %
01.03.2024 19:09 7,2 C 6,7 C 7,2 C 6,7 C 6,1 C 91 % 173 cb 161 cb 151 cb 1009,2 hPa 0,0 l/m 0,0 km/h (0 Bft) N 0 0 min 0,000 mm 0,0 UV-I 0 W/m 5,8 C 7,2 C 0,0 km/h (0 Bft) 91,30 %
01.03.2024 19:08 7,2 C 6,7 C 7,2 C 6,7 C 6,1 C 91 % 175 cb 153 cb 148 cb 1009,3 hPa 0,0 l/m 0,0 km/h (0 Bft) N 0 0 min 0,000 mm 0,0 UV-I 0 W/m 5,8 C 7,2 C 0,0 km/h (0 Bft) 95,65 %
01.03.2024 19:07 7,2 C 6,7 C 7,2 C 6,7 C 6,1 C 91 % 175 cb 150 cb 138 cb 1009,1 hPa 0,0 l/m 0,0 km/h (0 Bft) N 0 0 min 0,000 mm 0,0 UV-I 0 W/m 5,8 C 7,2 C 0,0 km/h (0 Bft) 100,00 %
01.03.2024 19:06 7,2 C 6,7 C 7,2 C 6,7 C 6,1 C 91 % 173 cb 151 cb 139 cb 1009,2 hPa 0,0 l/m 0,0 km/h (0 Bft) N 0 0 min 0,000 mm 0,0 UV-I 0 W/m 5,8 C 7,2 C 0,0 km/h (0 Bft) 91,30 %
01.03.2024 19:05 7,2 C 6,7 C 7,2 C 6,7 C 6,1 C 90 % 167 cb 151 cb 148 cb 1009,2 hPa 0,0 l/m 0,0 km/h (0 Bft) N 0 0 min 0,000 mm 0,0 UV-I 0 W/m 5,7 C 7,2 C 0,0 km/h (0 Bft) 95,65 %
01.03.2024 19:04 7,2 C 6,7 C 7,2 C 6,7 C 6,1 C 90 % 170 cb 147 cb 136 cb 1009,2 hPa 0,0 l/m 0,0 km/h (0 Bft) N 0 0 min 0,000 mm 0,0 UV-I 0 W/m 5,7 C 7,2 C 0,0 km/h (0 Bft) 100,00 %
01.03.2024 19:03 7,2 C 6,7 C 7,2 C 6,7 C 6,1 C 90 % 162 cb 146 cb 136 cb 1009,2 hPa 0,0 l/m 0,0 km/h (0 Bft) N 0 0 min 0,000 mm 0,0 UV-I 0 W/m 5,7 C 7,2 C 0,0 km/h (0 Bft) 91,30 %
01.03.2024 19:02 7,2 C 6,7 C 7,2 C 6,7 C 6,1 C 90 % 170 cb 144 cb 133 cb 1009,2 hPa 0,0 l/m 0,0 km/h (0 Bft) N 0 0 min 0,000 mm 0,0 UV-I 0 W/m 5,7 C 7,2 C 0,0 km/h (0 Bft) 95,65 %
01.03.2024 19:01 7,2 C 6,7 C 7,2 C 6,7 C 6,1 C 90 % 166 cb 148 cb 135 cb 1009,2 hPa 0,0 l/m 0,0 km/h (0 Bft) N 0 0 min 0,000 mm 0,0 UV-I 0 W/m 5,7 C 7,2 C 0,0 km/h (0 Bft) 100,00 %
01.03.2024 19:00 7,2 C 6,7 C 7,2 C 6,7 C 6,1 C 90 % 181 cb 157 cb 143 cb 1009,2 hPa 0,0 l/m 0,0 km/h (0 Bft) N 0 0 min 0,000 mm 0,0 UV-I 0 W/m 5,7 C 7,2 C 0,0 km/h (0 Bft) 91,30 %
01.03.2024 18:59 7,2 C 6,7 C 7,2 C 6,7 C 6,1 C 90 % 189 cb 163 cb 147 cb 1009,3 hPa 0,0 l/m 0,0 km/h (0 Bft) N 0 0 min 0,000 mm 0,0 UV-I 0 W/m 5,7 C 7,2 C 0,0 km/h (0 Bft) 95,65 %
01.03.2024 18:58 7,2 C 6,7 C 7,2 C 6,7 C 6,1 C 90 % 181 cb 159 cb 150 cb 1009,2 hPa 0,0 l/m 0,0 km/h (0 Bft) N 0 0 min 0,000 mm 0,0 UV-I 0 W/m 5,7 C 7,2 C 0,0 km/h (0 Bft) 100,00 %
01.03.2024 18:57 7,2 C 6,7 C 7,2 C 6,7 C 6,1 C 90 % 176 cb 152 cb 143 cb 1009,1 hPa 0,0 l/m 0,0 km/h (0 Bft) N 0 0 min 0,000 mm 0,0 UV-I 0 W/m 5,7 C 7,2 C 0,0 km/h (0 Bft) 95,65 %
01.03.2024 18:56 7,2 C 6,7 C 7,2 C 6,7 C 6,1 C 90 % 169 cb 147 cb 136 cb 1009,2 hPa 0,0 l/m 0,0 km/h (0 Bft) N 0 0 min 0,000 mm 0,0 UV-I 0 W/m 5,7 C 7,2 C 0,0 km/h (0 Bft) 95,65 %
01.03.2024 18:55 7,2 C 6,7 C 7,2 C 6,7 C 6,1 C 90 % 188 cb 162 cb 146 cb 1009,2 hPa 0,0 l/m 0,0 km/h (0 Bft) N 0 0 min 0,000 mm 0,0 UV-I 0 W/m 5,7 C 7,2 C 0,0 km/h (0 Bft) 100,00 %
01.03.2024 18:54 7,2 C 6,1 C 7,2 C 6,7 C 6,1 C 90 % 163 cb 142 cb 133 cb 1009,3 hPa 0,0 l/m 0,0 km/h (0 Bft) N 0 0 min 0,000 mm 0,0 UV-I 0 W/m 5,7 C 7,2 C 0,0 km/h (0 Bft) 95,65 %
01.03.2024 18:53 7,2 C 6,7 C 7,2 C 6,7 C 6,1 C 90 % 188 cb 154 cb 133 cb 1009,2 hPa 0,0 l/m 0,0 km/h (0 Bft) N 0 0 min 0,000 mm 0,0 UV-I 0 W/m 5,7 C 7,2 C 0,0 km/h (0 Bft) 95,65 %
01.03.2024 18:52 7,2 C 6,7 C 7,2 C 6,7 C 6,1 C 90 % 171 cb 154 cb 133 cb 1009,2 hPa 0,0 l/m 0,0 km/h (0 Bft) N 0 0 min 0,000 mm 0,0 UV-I 0 W/m 5,7 C 7,2 C 0,0 km/h (0 Bft) 100,00 %
01.03.2024 18:51 7,2 C 6,7 C 7,2 C 6,7 C 6,1 C 90 % 171 cb 149 cb 136 cb 1009,2 hPa 0,0 l/m 0,0 km/h (0 Bft) N 0 0 min 0,000 mm 0,0 UV-I 0 W/m 5,7 C 7,2 C 0,0 km/h (0 Bft) 95,65 %
01.03.2024 18:50 7,2 C 6,7 C 7,2 C 6,7 C 6,1 C 91 % 177 cb 154 cb 143 cb 1009,2 hPa 0,0 l/m 0,0 km/h (0 Bft) N 0 0 min 0,000 mm 0,0 UV-I 0 W/m 5,8 C 7,2 C 0,0 km/h (0 Bft) 95,65 %
01.03.2024 18:49 7,2 C 6,7 C 7,2 C 6,7 C 6,1 C 90 % 172 cb 154 cb 140 cb 1009,2 hPa 0,0 l/m 0,0 km/h (0 Bft) N 0 0 min 0,000 mm 0,0 UV-I 0 W/m 5,7 C 7,2 C 0,0 km/h (0 Bft) 91,30 %
01.03.2024 18:48 7,2 C 6,7 C 7,2 C 6,7 C 6,1 C 90 % 173 cb 154 cb 141 cb 1009,2 hPa 0,0 l/m 0,0 km/h (0 Bft) N 0 0 min 0,000 mm 0,0 UV-I 0 W/m 5,7 C 7,2 C 0,0 km/h (0 Bft) 100,00 %
01.03.2024 18:47 7,2 C 6,7 C 7,2 C 6,7 C 6,1 C 91 % 188 cb 161 cb 143 cb 1009,2 hPa 0,0 l/m 0,0 km/h (0 Bft) N 0 0 min 0,000 mm 0,0 UV-I 0 W/m 5,8 C 7,2 C 0,0 km/h (0 Bft) 95,65 %
01.03.2024 18:46 7,3 C 6,7 C 7,2 C 6,7 C 6,1 C 90 % 173 cb 154 cb 147 cb 1009,2 hPa 0,0 l/m 0,0 km/h (0 Bft) N 0 0 min 0,000 mm 0,0 UV-I 0 W/m 5,8 C 7,3 C 0,0 km/h (0 Bft) 95,65 %
01.03.2024 18:45 7,2 C 6,7 C 7,2 C 6,7 C 6,1 C 90 % 148 cb 134 cb 122 cb 1009,2 hPa 0,0 l/m 0,0 km/h (0 Bft) N 0 0 min 0,000 mm 0,0 UV-I 0 W/m 5,7 C 7,2 C 0,0 km/h (0 Bft) 95,65 %
01.03.2024 18:44 7,2 C 6,7 C 7,2 C 6,7 C 6,1 C 90 % 182 cb 164 cb 145 cb 1009,2 hPa 0,0 l/m 0,0 km/h (0 Bft) N 0 0 min 0,000 mm 0,0 UV-I 0 W/m 5,7 C 7,2 C 0,0 km/h (0 Bft) 95,65 %
01.03.2024 18:43 7,3 C 6,7 C 7,2 C 6,7 C 6,1 C 90 % 164 cb 144 cb 134 cb 1009,2 hPa 0,0 l/m 0,0 km/h (0 Bft) N 0 0 min 0,000 mm 0,0 UV-I 0 W/m 5,8 C 7,3 C 0,0 km/h (0 Bft) 95,65 %
01.03.2024 18:42 7,3 C 6,7 C 7,2 C 6,7 C 6,1 C 90 % 175 cb 151 cb 137 cb 1009,2 hPa 0,0 l/m 0,0 km/h (0 Bft) N 0 0 min 0,000 mm 0,0 UV-I 0 W/m 5,8 C 7,3 C 0,0 km/h (0 Bft) 95,65 %
01.03.2024 18:41 7,3 C 6,7 C 7,2 C 6,7 C 6,1 C 90 % 173 cb 148 cb 137 cb 1009,2 hPa 0,0 l/m 0,0 km/h (0 Bft) N 0 0 min 0,000 mm 0,0 UV-I 0 W/m 5,8 C 7,3 C 0,0 km/h (0 Bft) 95,65 %
01.03.2024 18:40 7,3 C 6,7 C 7,2 C 6,7 C 6,1 C 90 % 170 cb 150 cb 133 cb 1009,2 hPa 0,0 l/m 0,0 km/h (0 Bft) N 0 0 min 0,000 mm 0,0 UV-I 0 W/m 5,8 C 7,3 C 0,0 km/h (0 Bft) 91,30 %
01.03.2024 18:39 7,3 C 6,7 C 7,2 C 6,7 C 6,1 C 90 % 183 cb 156 cb 144 cb 1009,2 hPa 0,0 l/m 0,0 km/h (0 Bft) N 0 0 min 0,000 mm 0,0 UV-I 0 W/m 5,8 C 7,3 C 0,0 km/h (0 Bft) 100,00 %
01.03.2024 18:38 7,3 C 6,7 C 7,2 C 6,7 C 6,1 C 90 % 175 cb 160 cb 140 cb 1009,2 hPa 0,0 l/m 0,0 km/h (0 Bft) N 0 0 min 0,000 mm 0,0 UV-I 0 W/m 5,8 C 7,3 C 0,0 km/h (0 Bft) 95,65 %
01.03.2024 18:37 7,3 C 6,7 C 7,2 C 6,7 C 6,1 C 90 % 184 cb 156 cb 146 cb 1009,2 hPa 0,0 l/m 0,0 km/h (0 Bft) N 0 0 min 0,000 mm 0,0 UV-I 0 W/m 5,8 C 7,3 C 0,0 km/h (0 Bft) 95,65 %
01.03.2024 18:36 7,3 C 6,7 C 7,2 C 6,7 C 6,1 C 90 % 186 cb 150 cb 138 cb 1009,2 hPa 0,0 l/m 0,0 km/h (0 Bft) N 0 0 min 0,000 mm 0,0 UV-I 0 W/m 5,8 C 7,3 C 0,0 km/h (0 Bft) 100,00 %
01.03.2024 18:35 7,3 C 6,7 C 7,2 C 6,7 C 6,1 C 90 % 170 cb 151 cb 133 cb 1009,1 hPa 0,0 l/m 0,0 km/h (0 Bft) N 0 0 min 0,000 mm 0,0 UV-I 0 W/m 5,8 C 7,3 C 0,0 km/h (0 Bft) 95,65 %
01.03.2024 18:34 7,3 C 6,7 C 7,2 C 6,7 C 6,1 C 90 % 176 cb 153 cb 137 cb 1009,2 hPa 0,0 l/m 0,0 km/h (0 Bft) N 0 0 min 0,000 mm 0,0 UV-I 0 W/m 5,8 C 7,3 C 0,0 km/h (0 Bft) 95,65 %
01.03.2024 18:33 7,3 C 6,7 C 7,2 C 6,7 C 6,1 C 90 % 198 cb 168 cb 151 cb 1009,2 hPa 0,0 l/m 0,0 km/h (0 Bft) N 0 0 min 0,000 mm 0,0 UV-I 0 W/m 5,8 C 7,3 C 0,0 km/h (0 Bft) 95,65 %
01.03.2024 18:32 7,3 C 6,7 C 7,2 C 6,7 C 6,1 C 90 % 173 cb 152 cb 139 cb 1009,2 hPa 0,0 l/m 0,0 km/h (0 Bft) N 0 0 min 0,000 mm 0,0 UV-I 0 W/m 5,8 C 7,3 C 0,0 km/h (0 Bft) 95,65 %
01.03.2024 18:31 7,3 C 6,7 C 7,2 C 6,7 C 6,1 C 90 % 173 cb 152 cb 139 cb 1009,2 hPa 0,0 l/m 0,0 km/h (0 Bft) N 0 0 min 0,000 mm 0,0 UV-I 0 W/m 5,8 C 7,3 C 0,0 km/h (0 Bft) 95,65 %
01.03.2024 18:30 7,3 C 6,7 C 7,2 C 6,7 C 6,1 C 90 % 160 cb 142 cb 132 cb 1009,2 hPa 0,0 l/m 0,0 km/h (0 Bft) N 0 0 min 0,000 mm 0,0 UV-I 0 W/m 5,8 C 7,3 C 0,0 km/h (0 Bft) 91,30 %
01.03.2024 18:29 7,3 C 6,7 C 7,2 C 6,7 C 6,1 C 90 % 160 cb 142 cb 132 cb 1009,2 hPa 0,0 l/m 0,0 km/h (0 Bft) N 0 0 min 0,000 mm 0,0 UV-I 0 W/m 5,8 C 7,3 C 0,0 km/h (0 Bft) 95,65 %
01.03.2024 18:28 7,3 C 6,7 C 7,2 C 6,7 C 6,1 C 90 % 160 cb 142 cb 129 cb 1009,2 hPa 0,0 l/m 0,0 km/h (0 Bft) N 0 0 min 0,000 mm 0,0 UV-I 0 W/m 5,8 C 7,3 C 0,0 km/h (0 Bft) 91,30 %
01.03.2024 18:27 7,3 C 6,7 C 7,2 C 6,7 C 6,1 C 90 % 159 cb 140 cb 130 cb 1009,2 hPa 0,0 l/m 0,0 km/h (0 Bft) N 0 0 min 0,000 mm 0,0 UV-I 0 W/m 5,8 C 7,3 C 0,0 km/h (0 Bft) 100,00 %
01.03.2024 18:26 7,3 C 6,7 C 7,2 C 6,7 C 6,1 C 90 % 167 cb 141 cb 129 cb 1009,2 hPa 0,0 l/m 0,0 km/h (0 Bft) N 0 0 min 0,000 mm 0,0 UV-I 0 W/m 5,8 C 7,3 C 0,0 km/h (0 Bft) 95,65 %
01.03.2024 18:25 7,3 C 6,7 C 7,2 C 6,7 C 6,1 C 90 % 159 cb 139 cb 124 cb 1009,1 hPa 0,0 l/m 0,0 km/h (0 Bft) N 0 0 min 0,000 mm 0,0 UV-I 0 W/m 5,8 C 7,3 C 0,0 km/h (0 Bft) 95,65 %
01.03.2024 18:24 7,3 C 6,7 C 7,2 C 6,7 C 6,1 C 90 % 166 cb 141 cb 128 cb 1009,1 hPa 0,0 l/m 0,0 km/h (0 Bft) N 0 0 min 0,000 mm 0,0 UV-I 0 W/m 5,8 C 7,3 C 0,0 km/h (0 Bft) 100,00 %
01.03.2024 18:23 7,3 C 6,7 C 7,2 C 6,7 C 6,1 C 90 % 170 cb 149 cb 136 cb 1009,1 hPa 0,0 l/m 0,0 km/h (0 Bft) N 0 0 min 0,000 mm 0,0 UV-I 0 W/m 5,8 C 7,3 C 0,0 km/h (0 Bft) 95,65 %
01.03.2024 18:22 7,3 C 6,7 C 7,2 C 6,7 C 6,1 C 90 % 170 cb 147 cb 139 cb 1009,2 hPa 0,0 l/m 0,0 km/h (0 Bft) N 0 0 min 0,000 mm 0,0 UV-I 0 W/m 5,8 C 7,3 C 0,0 km/h (0 Bft) 95,65 %
01.03.2024 18:21 7,3 C 6,7 C 7,2 C 6,7 C 6,1 C 90 % 179 cb 154 cb 139 cb 1009,1 hPa 0,0 l/m 0,0 km/h (0 Bft) N 0 0 min 0,000 mm 0,0 UV-I 0 W/m 5,8 C 7,3 C 0,0 km/h (0 Bft) 95,65 %
01.03.2024 18:20 7,3 C 6,7 C 7,2 C 6,7 C 6,1 C 90 % 200 cb 175 cb 150 cb 1009,1 hPa 0,0 l/m 0,0 km/h (0 Bft) N 0 0 min 0,000 mm 0,0 UV-I 0 W/m 5,8 C 7,3 C 0,0 km/h (0 Bft) 95,65 %
01.03.2024 18:19 7,3 C 6,7 C 7,2 C 6,7 C 6,1 C 90 % 200 cb 171 cb 148 cb 1009,1 hPa 0,0 l/m 0,0 km/h (0 Bft) N 0 0 min 0,000 mm 0,0 UV-I 0 W/m 5,8 C 7,3 C 0,0 km/h (0 Bft) 95,65 %
01.03.2024 18:18 7,3 C 6,7 C 7,2 C 6,7 C 6,1 C 90 % 173 cb 160 cb 154 cb 1009,2 hPa 0,0 l/m 0,0 km/h (0 Bft) N 0 0 min 0,000 mm 0,0 UV-I 0 W/m 5,8 C 7,3 C 0,0 km/h (0 Bft) 100,00 %
01.03.2024 18:17 7,4 C 6,7 C 7,2 C 6,7 C 6,1 C 90 % 177 cb 150 cb 139 cb 1009,1 hPa 0,0 l/m 0,0 km/h (0 Bft) N 0 0 min 0,000 mm 0,0 UV-I 0 W/m 5,9 C 7,4 C 0,0 km/h (0 Bft) 95,65 %
01.03.2024 18:16 7,3 C 6,7 C 7,2 C 6,7 C 6,1 C 90 % 171 cb 150 cb 137 cb 1009,1 hPa 0,0 l/m 0,0 km/h (0 Bft) N 0 0 min 0,000 mm 0,0 UV-I 0 W/m 5,8 C 7,3 C 0,0 km/h (0 Bft) 95,65 %
01.03.2024 18:15 7,3 C 6,7 C 7,2 C 6,7 C 6,1 C 90 % 175 cb 154 cb 140 cb 1009,1 hPa 0,0 l/m 0,0 km/h (0 Bft) N 0 0 min 0,000 mm 0,0 UV-I 0 W/m 5,8 C 7,3 C 0,0 km/h (0 Bft) 100,00 %
01.03.2024 18:14 7,3 C 6,7 C 7,2 C 6,7 C 6,1 C 90 % 182 cb 155 cb 139 cb 1009,1 hPa 0,0 l/m 0,0 km/h (0 Bft) N 0 0 min 0,000 mm 0,0 UV-I 0 W/m 5,8 C 7,3 C 0,0 km/h (0 Bft) 95,65 %
01.03.2024 18:13 7,4 C 6,7 C 7,2 C 6,7 C 6,1 C 90 % 181 cb 164 cb 144 cb 1009,1 hPa 0,0 l/m 0,0 km/h (0 Bft) N 0 0 min 0,000 mm 0,0 UV-I 0 W/m 5,9 C 7,4 C 0,0 km/h (0 Bft) 95,65 %
01.03.2024 18:12 7,4 C 6,7 C 7,2 C 6,7 C 6,1 C 90 % 181 cb 157 cb 144 cb 1009,1 hPa 0,0 l/m 0,0 km/h (0 Bft) NW 315 0 min 0,000 mm 0,0 UV-I 0 W/m 5,9 C 7,4 C 1,6 km/h (1 Bft) 95,65 %
01.03.2024 18:11 7,4 C 6,7 C 7,2 C 6,7 C 6,1 C 90 % 183 cb 157 cb 144 cb 1009,1 hPa 0,0 l/m 0,0 km/h (0 Bft) NW 315 0 min 0,000 mm 0,0 UV-I 0 W/m 5,9 C 7,4 C 1,6 km/h (1 Bft) 95,65 %
01.03.2024 18:10 7,4 C 6,7 C 7,2 C 6,7 C 6,1 C 90 % 187 cb 166 cb 147 cb 1009,1 hPa 0,0 l/m 0,0 km/h (0 Bft) N 0 0 min 0,000 mm 0,0 UV-I 0 W/m 5,9 C 7,4 C 0,0 km/h (0 Bft) 95,65 %
01.03.2024 18:09 7,4 C 6,7 C 7,2 C 6,7 C 6,1 C 90 % 181 cb 174 cb 154 cb 1009,1 hPa 0,0 l/m 0,0 km/h (0 Bft) N 0 0 min 0,000 mm 0,0 UV-I 0 W/m 5,9 C 7,4 C 0,0 km/h (0 Bft) 95,65 %
01.03.2024 18:08 7,4 C 6,7 C 7,2 C 6,7 C 6,1 C 90 % 181 cb 168 cb 146 cb 1009,1 hPa 0,0 l/m 0,0 km/h (0 Bft) N 0 0 min 0,000 mm 0,0 UV-I 0 W/m 5,9 C 7,4 C 0,0 km/h (0 Bft) 95,65 %
01.03.2024 18:07 7,4 C 6,7 C 7,2 C 6,7 C 6,1 C 90 % 187 cb 160 cb 145 cb 1009,1 hPa 0,0 l/m 0,0 km/h (0 Bft) NW 315 0 min 0,000 mm 0,0 UV-I 0 W/m 5,9 C 7,4 C 1,6 km/h (1 Bft) 95,65 %
01.03.2024 18:06 7,4 C 6,7 C 7,2 C 6,7 C 6,1 C 90 % 189 cb 160 cb 157 cb 1009,0 hPa 0,0 l/m 0,0 km/h (0 Bft) NW 315 0 min 0,000 mm 0,0 UV-I 0 W/m 5,9 C 7,4 C 1,6 km/h (1 Bft) 95,65 %
01.03.2024 18:05 7,4 C 6,7 C 7,2 C 6,7 C 6,1 C 90 % 187 cb 166 cb 157 cb 1009,0 hPa 0,0 l/m 0,0 km/h (0 Bft) N 0 0 min 0,000 mm 0,0 UV-I 0 W/m 5,9 C 7,4 C 0,0 km/h (0 Bft) 100,00 %
01.03.2024 18:04 7,4 C 6,7 C 7,2 C 6,7 C 6,1 C 90 % 198 cb 169 cb 159 cb 1009,0 hPa 0,0 l/m 0,0 km/h (0 Bft) NW 315 0 min 0,000 mm 0,0 UV-I 0 W/m 5,9 C 7,4 C 1,6 km/h (1 Bft) 91,30 %
01.03.2024 18:03 7,4 C 6,7 C 7,2 C 6,7 C 6,1 C 90 % 188 cb 160 cb 153 cb 1009,0 hPa 0,0 l/m 0,0 km/h (0 Bft) NW 315 0 min 0,000 mm 0,0 UV-I 0 W/m 5,9 C 7,4 C 1,6 km/h (1 Bft) 95,65 %
01.03.2024 18:02 7,4 C 6,7 C 7,2 C 6,7 C 6,1 C 90 % 192 cb 167 cb 150 cb 1009,0 hPa 0,0 l/m 0,0 km/h (0 Bft) N 0 0 min 0,000 mm 0,0 UV-I 0 W/m 5,9 C 7,4 C 0,0 km/h (0 Bft) 100,00 %
01.03.2024 18:01 7,4 C 6,7 C 7,2 C 6,7 C 6,1 C 90 % 195 cb 167 cb 167 cb 1009,0 hPa 0,0 l/m 0,0 km/h (0 Bft) NW 315 0 min 0,000 mm 0,0 UV-I 0 W/m 5,9 C 7,4 C 1,6 km/h (1 Bft) 95,65 %
01.03.2024 18:00 7,4 C 6,7 C 7,2 C 6,7 C 6,1 C 90 % 189 cb 163 cb 163 cb 1009,0 hPa 0,0 l/m 0,0 km/h (0 Bft) NW 315 0 min 0,000 mm 0,0 UV-I 0 W/m 5,9 C 7,4 C 1,6 km/h (1 Bft) 95,65 %
01.03.2024 17:59 7,4 C 6,7 C 7,2 C 6,7 C 6,1 C 89 % 189 cb 164 cb 164 cb 1009,0 hPa 0,0 l/m 0,0 km/h (0 Bft) NW 315 0 min 0,000 mm 0,0 UV-I 0 W/m 5,7 C 7,4 C 1,6 km/h (1 Bft) 100,00 %
01.03.2024 17:58 7,4 C 6,7 C 7,2 C 6,7 C 6,1 C 90 % 177 cb 152 cb 153 cb 1008,9 hPa 0,0 l/m 0,0 km/h (0 Bft) NW 315 0 min 0,000 mm 0,0 UV-I 0 W/m 5,9 C 7,4 C 1,6 km/h (1 Bft) 95,65 %
01.03.2024 17:57 7,4 C 6,7 C 7,2 C 6,7 C 6,1 C 90 % 187 cb 159 cb 153 cb 1009,0 hPa 0,0 l/m 0,0 km/h (0 Bft) N 0 0 min 0,000 mm 0,0 UV-I 0 W/m 5,9 C 7,4 C 0,0 km/h (0 Bft) 95,65 %
01.03.2024 17:56 7,4 C 6,7 C 7,2 C 6,7 C 6,1 C 90 % 187 cb 157 cb 157 cb 1008,9 hPa 0,0 l/m 1,6 km/h (1 Bft) NW 315 0 min 0,000 mm 0,0 UV-I 0 W/m 5,9 C 7,4 C 3,2 km/h (1 Bft) 100,00 %
01.03.2024 17:55 7,4 C 6,7 C 7,2 C 6,7 C 6,1 C 90 % 182 cb 157 cb 153 cb 1009,0 hPa 0,0 l/m 1,6 km/h (1 Bft) NW 315 0 min 0,000 mm 0,0 UV-I 0 W/m 5,9 C 7,4 C 3,2 km/h (1 Bft) 95,65 %
01.03.2024 17:54 7,4 C 6,7 C 7,2 C 6,7 C 6,1 C 90 % 198 cb 170 cb 162 cb 1008,9 hPa 0,0 l/m 0,0 km/h (0 Bft) NW 315 0 min 0,000 mm 0,0 UV-I 0 W/m 5,9 C 7,4 C 1,6 km/h (1 Bft) 95,65 %
01.03.2024 17:53 7,5 C 6,7 C 7,2 C 6,7 C 6,1 C 90 % 188 cb 163 cb 159 cb 1008,9 hPa 0,0 l/m 0,0 km/h (0 Bft) NW 315 0 min 0,000 mm 0,0 UV-I 0 W/m 6,0 C 7,5 C 1,6 km/h (1 Bft) 100,00 %
01.03.2024 17:52 7,4 C 6,7 C 7,2 C 6,7 C 6,1 C 90 % 195 cb 168 cb 167 cb 1008,9 hPa 0,0 l/m 1,6 km/h (1 Bft) NW 315 0 min 0,000 mm 0,0 UV-I 0 W/m 5,9 C 7,4 C 3,2 km/h (1 Bft) 95,65 %
01.03.2024 17:51 7,5 C 6,7 C 7,2 C 6,7 C 6,1 C 89 % 195 cb 168 cb 168 cb 1008,9 hPa 0,0 l/m 0,0 km/h (0 Bft) NW 315 0 min 0,000 mm 0,0 UV-I 0 W/m 5,8 C 7,5 C 1,6 km/h (1 Bft) 95,65 %
01.03.2024 17:50 7,5 C 6,7 C 7,2 C 6,7 C 6,1 C 89 % 200 cb 168 cb 168 cb 1008,9 hPa 0,0 l/m 0,0 km/h (0 Bft) NW 315 0 min 0,000 mm 0,0 UV-I 0 W/m 5,8 C 7,5 C 1,6 km/h (1 Bft) 100,00 %
01.03.2024 17:49 7,5 C 6,7 C 7,2 C 6,7 C 6,1 C 89 % 169 cb 153 cb 154 cb 1008,8 hPa 0,0 l/m 1,6 km/h (1 Bft) NW 315 0 min 0,000 mm 0,0 UV-I 0 W/m 5,8 C 7,5 C 3,2 km/h (1 Bft) 95,65 %
01.03.2024 17:48 7,5 C 6,7 C 7,2 C 6,7 C 6,1 C 89 % 169 cb 153 cb 154 cb 1008,9 hPa 0,0 l/m 1,6 km/h (1 Bft) NW 315 0 min 0,000 mm 0,0 UV-I 0 W/m 5,8 C 7,5 C 3,2 km/h (1 Bft) 95,65 %
01.03.2024 17:47 7,5 C 6,7 C 7,2 C 6,7 C 6,1 C 89 % 176 cb 152 cb 156 cb 1008,9 hPa 0,0 l/m 3,2 km/h (1 Bft) NW 315 0 min 0,000 mm 0,0 UV-I 0 W/m 5,8 C 7,5 C 3,2 km/h (1 Bft) 100,00 %
01.03.2024 17:46 7,5 C 6,7 C 7,2 C 6,1 C 6,1 C 89 % 169 cb 145 cb 147 cb 1008,8 hPa 0,0 l/m 0,0 km/h (0 Bft) NW 315 0 min 0,000 mm 0,0 UV-I 0 W/m 5,8 C 7,5 C 3,2 km/h (1 Bft) 91,30 %
01.03.2024 17:45 7,6 C 6,7 C 7,2 C 6,1 C 6,1 C 89 % 175 cb 150 cb 148 cb 1008,9 hPa 0,0 l/m 1,6 km/h (1 Bft) NW 315 0 min 0,000 mm 0,0 UV-I 0 W/m 5,9 C 7,6 C 3,2 km/h (1 Bft) 91,30 %
01.03.2024 17:44 7,5 C 6,7 C 7,2 C 6,1 C 6,1 C 89 % 175 cb 146 cb 149 cb 1008,8 hPa 0,0 l/m 3,2 km/h (1 Bft) N-NW 337 0 min 0,000 mm 0,0 UV-I 0 W/m 5,8 C 7,5 C 4,8 km/h (1 Bft) 100,00 %
01.03.2024 17:43 7,6 C 6,7 C 7,2 C 6,1 C 6,1 C 89 % 184 cb 154 cb 155 cb 1008,8 hPa 0,0 l/m 4,8 km/h (1 Bft) NW 315 0 min 0,000 mm 0,0 UV-I 0 W/m 5,9 C 7,1 C 6,4 km/h (2 Bft) 95,65 %
01.03.2024 17:42 7,6 C 6,7 C 7,2 C 6,1 C 6,1 C 89 % 178 cb 149 cb 156 cb 1008,8 hPa 0,0 l/m 6,4 km/h (2 Bft) NW 315 0 min 0,000 mm 0,0 UV-I 0 W/m 5,9 C 6,6 C 9,7 km/h (2 Bft) 95,65 %
01.03.2024 17:41 7,6 C 6,7 C 7,2 C 6,1 C 6,1 C 89 % 181 cb 157 cb 158 cb 1008,8 hPa 0,0 l/m 4,8 km/h (1 Bft) N-NW 337 0 min 0,000 mm 0,0 UV-I 0 W/m 5,9 C 7,1 C 8,0 km/h (2 Bft) 100,00 %
01.03.2024 17:40 7,6 C 6,7 C 7,2 C 6,1 C 6,1 C 89 % 188 cb 161 cb 161 cb 1008,8 hPa 0,0 l/m 3,2 km/h (1 Bft) N-NW 337 0 min 0,000 mm 0,0 UV-I 0 W/m 5,9 C 7,6 C 4,8 km/h (1 Bft) 91,30 %
01.03.2024 17:39 7,6 C 6,7 C 7,2 C 6,1 C 6,1 C 89 % 192 cb 160 cb 170 cb 1008,8 hPa 0,0 l/m 4,8 km/h (1 Bft) NW 315 0 min 0,000 mm 0,0 UV-I 0 W/m 5,9 C 7,1 C 8,0 km/h (2 Bft) 95,65 %
01.03.2024 17:38 7,6 C 6,7 C 7,2 C 6,1 C 6,1 C 89 % 200 cb 171 cb 174 cb 1008,9 hPa 0,0 l/m 6,4 km/h (2 Bft) N-NW 337 0 min 0,000 mm 0,0 UV-I 0 W/m 5,9 C 6,6 C 9,7 km/h (2 Bft) 95,65 %
01.03.2024 17:37 7,6 C 6,7 C 7,2 C 6,1 C 6,1 C 89 % 200 cb 170 cb 175 cb 1008,8 hPa 0,0 l/m 4,8 km/h (1 Bft) NW 315 0 min 0,000 mm 0,0 UV-I 0 W/m 5,9 C 7,1 C 8,0 km/h (2 Bft) 91,30 %
01.03.2024 17:36 7,6 C 6,7 C 7,2 C 6,1 C 6,1 C 89 % 200 cb 174 cb 179 cb 1008,8 hPa 0,0 l/m 4,8 km/h (1 Bft) NW 315 0 min 0,000 mm 0,0 UV-I 0 W/m 5,9 C 7,1 C 6,4 km/h (2 Bft) 95,65 %
01.03.2024 17:35 7,6 C 6,7 C 7,2 C 6,1 C 6,1 C 89 % 195 cb 173 cb 178 cb 1008,8 hPa 0,0 l/m 3,2 km/h (1 Bft) NW 315 0 min 0,000 mm 0,0 UV-I 0 W/m 5,9 C 7,6 C 6,4 km/h (2 Bft) 100,00 %
01.03.2024 17:34 7,6 C 6,7 C 7,2 C 6,1 C 6,1 C 89 % 200 cb 174 cb 178 cb 1008,8 hPa 0,0 l/m 3,2 km/h (1 Bft) NW 315 0 min 0,000 mm 0,0 UV-I 0 W/m 5,9 C 7,6 C 4,8 km/h (1 Bft) 95,65 %
01.03.2024 17:33 7,6 C 6,7 C 7,2 C 6,1 C 6,1 C 89 % 200 cb 168 cb 173 cb 1008,8 hPa 0,0 l/m 3,2 km/h (1 Bft) NW 315 0 min 0,000 mm 0,0 UV-I 0 W/m 5,9 C 7,6 C 6,4 km/h (2 Bft) 95,65 %
01.03.2024 17:32 7,6 C 6,7 C 7,2 C 6,1 C 6,1 C 89 % 199 cb 164 cb 174 cb 1008,8 hPa 0,0 l/m 4,8 km/h (1 Bft) NW 315 0 min 0,000 mm 0,0 UV-I 0 W/m 5,9 C 7,1 C 8,0 km/h (2 Bft) 100,00 %
01.03.2024 17:31 7,7 C 6,7 C 7,2 C 6,1 C 6,1 C 89 % 196 cb 164 cb 177 cb 1008,8 hPa 0,0 l/m 4,8 km/h (1 Bft) NW 315 0 min 0,000 mm 0,0 UV-I 0 W/m 6,0 C 7,2 C 6,4 km/h (2 Bft) 95,65 %
01.03.2024 17:30 7,7 C 6,7 C 7,2 C 6,1 C 6,1 C 89 % 196 cb 168 cb 174 cb 1008,8 hPa 0,0 l/m 4,8 km/h (1 Bft) N-NW 337 0 min 0,000 mm 0,0 UV-I 5 W/m 6,0 C 7,2 C 8,0 km/h (2 Bft) 95,65 %
01.03.2024 17:29 7,7 C 6,7 C 7,2 C 6,1 C 6,1 C 89 % 200 cb 168 cb 174 cb 1008,8 hPa 0,0 l/m 3,2 km/h (1 Bft) NW 315 0 min 0,000 mm 0,0 UV-I 5 W/m 6,0 C 7,7 C 4,8 km/h (1 Bft) 100,00 %
01.03.2024 17:28 7,7 C 6,7 C 7,2 C 6,1 C 6,1 C 89 % 195 cb 168 cb 173 cb 1008,8 hPa 0,0 l/m 4,8 km/h (1 Bft) N-NW 337 0 min 0,000 mm 0,0 UV-I 5 W/m 6,0 C 7,2 C 8,0 km/h (2 Bft) 95,65 %
01.03.2024 17:27 7,7 C 6,7 C 7,2 C 6,1 C 6,1 C 89 % 200 cb 174 cb 177 cb 1008,8 hPa 0,0 l/m 6,4 km/h (2 Bft) N-NW 337 0 min 0,000 mm 0,0 UV-I 7 W/m 6,0 C 6,7 C 8,0 km/h (2 Bft) 95,65 %
01.03.2024 17:26 7,7 C 6,7 C 7,2 C 6,1 C 6,1 C 89 % 200 cb 178 cb 179 cb 1008,8 hPa 0,0 l/m 4,8 km/h (1 Bft) N-NW 337 0 min 0,000 mm 0,0 UV-I 7 W/m 6,0 C 7,2 C 8,0 km/h (2 Bft) 100,00 %
01.03.2024 17:25 7,7 C 6,7 C 7,2 C 6,1 C 6,1 C 89 % 200 cb 172 cb 172 cb 1008,7 hPa 0,0 l/m 3,2 km/h (1 Bft) N-NW 337 0 min 0,000 mm 0,0 UV-I 7 W/m 6,0 C 7,7 C 8,0 km/h (2 Bft) 91,30 %
01.03.2024 17:24 7,7 C 6,7 C 7,2 C 6,1 C 6,1 C 89 % 200 cb 177 cb 177 cb 1008,8 hPa 0,0 l/m 3,2 km/h (1 Bft) N-NW 337 0 min 0,000 mm 0,0 UV-I 9 W/m 6,0 C 7,7 C 8,0 km/h (2 Bft) 95,65 %
01.03.2024 17:23 7,7 C 6,7 C 7,2 C 6,1 C 6,1 C 89 % 200 cb 173 cb 177 cb 1008,7 hPa 0,0 l/m 4,8 km/h (1 Bft) N-NW 337 0 min 0,000 mm 0,0 UV-I 9 W/m 6,0 C 7,2 C 8,0 km/h (2 Bft) 100,00 %
01.03.2024 17:22 7,8 C 6,7 C 7,2 C 6,1 C 6,1 C 89 % 200 cb 171 cb 171 cb 1008,7 hPa 0,2 l/m 3,2 km/h (1 Bft) N 360 0 min 0,000 mm 0,0 UV-I 9 W/m 6,1 C 7,8 C 4,8 km/h (1 Bft) 95,65 %
01.03.2024 17:21 7,8 C 6,7 C 7,2 C 6,1 C 6,1 C 89 % 200 cb 168 cb 172 cb 1008,8 hPa 0,0 l/m 3,2 km/h (1 Bft) N-NW 337 0 min 0,000 mm 0,0 UV-I 9 W/m 6,1 C 7,8 C 4,8 km/h (1 Bft) 95,65 %
01.03.2024 17:20 7,8 C 6,7 C 7,2 C 6,1 C 6,1 C 88 % 200 cb 173 cb 172 cb 1008,7 hPa 0,0 l/m 4,8 km/h (1 Bft) N-NW 337 0 min 0,000 mm 0,0 UV-I 9 W/m 5,9 C 7,3 C 6,4 km/h (2 Bft) 91,30 %
01.03.2024 17:19 7,8 C 6,7 C 7,2 C 6,1 C 6,1 C 88 % 200 cb 177 cb 170 cb 1008,8 hPa 0,0 l/m 3,2 km/h (1 Bft) NW 315 0 min 0,000 mm 0,0 UV-I 9 W/m 5,9 C 7,8 C 6,4 km/h (2 Bft) 100,00 %
01.03.2024 17:18 7,8 C 6,7 C 7,2 C 6,1 C 6,1 C 88 % 200 cb 180 cb 178 cb 1008,8 hPa 0,0 l/m 4,8 km/h (1 Bft) N-NW 337 0 min 0,000 mm 0,0 UV-I 9 W/m 5,9 C 7,3 C 6,4 km/h (2 Bft) 95,65 %
01.03.2024 17:17 7,8 C 6,7 C 7,2 C 6,1 C 6,1 C 88 % 200 cb 175 cb 175 cb 1008,8 hPa 0,0 l/m 4,8 km/h (1 Bft) NW 315 0 min 0,000 mm 0,0 UV-I 9 W/m 5,9 C 7,3 C 8,0 km/h (2 Bft) 95,65 %
01.03.2024 17:16 7,8 C 6,7 C 7,2 C 6,1 C 6,1 C 88 % 200 cb 177 cb 181 cb 1008,8 hPa 0,0 l/m 3,2 km/h (1 Bft) N-NW 337 0 min 0,000 mm 0,0 UV-I 9 W/m 5,9 C 7,8 C 6,4 km/h (2 Bft) 95,65 %
01.03.2024 17:15 7,8 C 6,7 C 7,2 C 6,1 C 6,1 C 88 % 200 cb 177 cb 179 cb 1008,7 hPa 0,0 l/m 4,8 km/h (1 Bft) N-NW 337 0 min 0,000 mm 0,0 UV-I 9 W/m 5,9 C 7,3 C 6,4 km/h (2 Bft) 95,65 %
01.03.2024 17:14 7,8 C 6,7 C 7,2 C 6,1 C 6,1 C 88 % 200 cb 189 cb 193 cb 1008,8 hPa 0,0 l/m 4,8 km/h (1 Bft) N-NW 337 0 min 0,000 mm 0,0 UV-I 11 W/m 5,9 C 7,3 C 6,4 km/h (2 Bft) 91,30 %
01.03.2024 17:13 7,8 C 6,7 C 7,2 C 6,1 C 6,1 C 88 % 200 cb 171 cb 200 cb 1008,7 hPa 0,0 l/m 4,8 km/h (1 Bft) NW 315 0 min 0,000 mm 0,0 UV-I 11 W/m 5,9 C 7,3 C 8,0 km/h (2 Bft) 100,00 %
01.03.2024 17:12 7,8 C 6,7 C 7,2 C 6,1 C 6,1 C 88 % 200 cb 172 cb 175 cb 1008,8 hPa 0,0 l/m 3,2 km/h (1 Bft) N 360 0 min 0,000 mm 0,0 UV-I 11 W/m 5,9 C 7,8 C 6,4 km/h (2 Bft) 86,96 %
01.03.2024 17:11 7,8 C 6,7 C 7,2 C 6,1 C 6,1 C 88 % 199 cb 160 cb 166 cb 1008,7 hPa 0,0 l/m 6,4 km/h (2 Bft) N 360 0 min 0,000 mm 0,0 UV-I 11 W/m 5,9 C 6,8 C 9,7 km/h (2 Bft) 95,65 %
01.03.2024 17:10 7,9 C 6,7 C 7,2 C 6,1 C 6,1 C 88 % 200 cb 168 cb 168 cb 1008,8 hPa 0,0 l/m 4,8 km/h (1 Bft) NW 315 0 min 0,000 mm 0,0 UV-I 11 W/m 6,0 C 7,4 C 6,4 km/h (2 Bft) 95,65 %
01.03.2024 17:09 7,9 C 6,7 C 7,2 C 6,1 C 6,1 C 88 % 200 cb 173 cb 179 cb 1008,8 hPa 0,0 l/m 6,4 km/h (2 Bft) NW 315 0 min 0,000 mm 0,0 UV-I 11 W/m 6,0 C 6,9 C 8,0 km/h (2 Bft) 95,65 %
01.03.2024 17:08 7,9 C 6,7 C 7,2 C 6,1 C 6,1 C 88 % 200 cb 173 cb 179 cb 1008,7 hPa 0,0 l/m 4,8 km/h (1 Bft) NW 315 0 min 0,000 mm 0,0 UV-I 11 W/m 6,0 C 7,4 C 9,7 km/h (2 Bft) 91,30 %
01.03.2024 17:07 7,9 C 6,7 C 7,2 C 6,1 C 6,1 C 88 % 200 cb 187 cb 175 cb 1008,7 hPa 0,0 l/m 4,8 km/h (1 Bft) NW 315 0 min 0,000 mm 0,0 UV-I 11 W/m 6,0 C 7,4 C 9,7 km/h (2 Bft) 95,65 %
01.03.2024 17:06 7,9 C 6,7 C 7,2 C 6,1 C 6,1 C 88 % 200 cb 187 cb 180 cb 1008,7 hPa 0,0 l/m 6,4 km/h (2 Bft) NW 315 0 min 0,000 mm 0,0 UV-I 12 W/m 6,0 C 6,9 C 12,9 km/h (3 Bft) 91,30 %
01.03.2024 17:05 7,9 C 6,7 C 7,2 C 6,1 C 6,1 C 88 % 200 cb 179 cb 181 cb 1008,7 hPa 0,0 l/m 4,8 km/h (1 Bft) NW 315 0 min 0,000 mm 0,0 UV-I 12 W/m 6,0 C 7,4 C 8,0 km/h (2 Bft) 95,65 %
01.03.2024 17:04 7,9 C 6,7 C 7,2 C 6,1 C 6,1 C 88 % 200 cb 197 cb 197 cb 1008,8 hPa 0,0 l/m 1,6 km/h (1 Bft) NW 315 0 min 0,000 mm 0,0 UV-I 12 W/m 6,0 C 7,9 C 4,8 km/h (1 Bft) 100,00 %
01.03.2024 17:03 7,9 C 6,7 C 7,2 C 6,1 C 6,1 C 88 % 200 cb 197 cb 197 cb 1008,7 hPa 0,0 l/m 3,2 km/h (1 Bft) NW 315 0 min 0,000 mm 0,0 UV-I 14 W/m 6,0 C 7,9 C 8,0 km/h (2 Bft) 95,65 %
01.03.2024 17:02 7,9 C 6,7 C 7,2 C 6,1 C 6,1 C 88 % 200 cb 188 cb 195 cb 1008,7 hPa 0,0 l/m 4,8 km/h (1 Bft) N-NW 337 0 min 0,000 mm 0,0 UV-I 16 W/m 6,0 C 7,4 C 8,0 km/h (2 Bft) 95,65 %
01.03.2024 17:01 7,9 C 6,7 C 7,2 C 6,1 C 6,1 C 88 % 200 cb 179 cb 183 cb 1008,7 hPa 0,0 l/m 8,0 km/h (2 Bft) N 360 0 min 0,000 mm 0,0 UV-I 16 W/m 6,0 C 6,5 C 14,5 km/h (3 Bft) 100,00 %
01.03.2024 17:00 8,0 C 6,7 C 7,2 C 6,1 C 6,1 C 88 % 200 cb 185 cb 179 cb 1008,7 hPa 0,0 l/m 6,4 km/h (2 Bft) N-NW 337 0 min 0,025 mm 0,0 UV-I 16 W/m 6,1 C 7,1 C 9,7 km/h (2 Bft) 91,30 %
01.03.2024 16:59 8,0 C 7,2 C 7,2 C 6,1 C 6,1 C 88 % 200 cb 196 cb 195 cb 1008,7 hPa 0,0 l/m 6,4 km/h (2 Bft) NW 315 0 min 0,000 mm 0,0 UV-I 16 W/m 6,1 C 7,1 C 9,7 km/h (2 Bft) 91,30 %
01.03.2024 16:58 8,0 C 7,2 C 7,2 C 6,1 C 6,1 C 88 % 200 cb 200 cb 200 cb 1008,7 hPa 0,0 l/m 4,8 km/h (1 Bft) N-NW 337 0 min 0,000 mm 0,0 UV-I 16 W/m 6,1 C 7,6 C 9,7 km/h (2 Bft) 95,65 %
01.03.2024 16:57 8,0 C 7,2 C 7,2 C 6,1 C 6,1 C 88 % 200 cb 184 cb 184 cb 1008,7 hPa 0,0 l/m 4,8 km/h (1 Bft) N-NW 337 0 min 0,000 mm 0,0 UV-I 16 W/m 6,1 C 7,6 C 6,4 km/h (2 Bft) 95,65 %
01.03.2024 16:56 8,1 C 7,2 C 7,2 C 6,1 C 6,1 C 88 % 200 cb 183 cb 185 cb 1008,7 hPa 0,0 l/m 6,4 km/h (2 Bft) N-NW 337 0 min 0,000 mm 0,0 UV-I 18 W/m 6,2 C 7,2 C 9,7 km/h (2 Bft) 95,65 %
01.03.2024 16:55 8,1 C 7,2 C 7,2 C 6,1 C 6,1 C 88 % 200 cb 200 cb 193 cb 1008,7 hPa 0,0 l/m 4,8 km/h (1 Bft) N-NW 337 0 min 0,000 mm 0,0 UV-I 18 W/m 6,2 C 7,7 C 8,0 km/h (2 Bft) 100,00 %
01.03.2024 16:54 8,1 C 7,2 C 7,2 C 6,1 C 6,1 C 87 % 200 cb 181 cb 192 cb 1008,7 hPa 0,0 l/m 6,4 km/h (2 Bft) N-NW 337 0 min 0,000 mm 0,0 UV-I 18 W/m 6,1 C 7,2 C 8,0 km/h (2 Bft) 91,30 %
01.03.2024 16:53 8,1 C 7,2 C 7,2 C 6,1 C 6,1 C 88 % 200 cb 167 cb 166 cb 1008,7 hPa 0,0 l/m 4,8 km/h (1 Bft) N-NW 337 0 min 0,000 mm 0,0 UV-I 18 W/m 6,2 C 7,7 C 8,0 km/h (2 Bft) 95,65 %
01.03.2024 16:52 8,1 C 7,2 C 7,2 C 6,1 C 6,1 C 88 % 200 cb 193 cb 188 cb 1008,7 hPa 0,0 l/m 4,8 km/h (1 Bft) N-NW 337 0 min 0,000 mm 0,0 UV-I 18 W/m 6,2 C 7,7 C 6,4 km/h (2 Bft) 100,00 %
01.03.2024 16:51 8,1 C 7,2 C 7,2 C 6,1 C 6,1 C 88 % 200 cb 184 cb 191 cb 1008,7 hPa 0,0 l/m 4,8 km/h (1 Bft) N 360 0 min 0,000 mm 0,0 UV-I 19 W/m 6,2 C 7,7 C 8,0 km/h (2 Bft) 95,65 %
01.03.2024 16:50 8,1 C 7,2 C 7,2 C 6,1 C 6,1 C 87 % 200 cb 183 cb 185 cb 1008,7 hPa 0,0 l/m 4,8 km/h (1 Bft) NW 315 0 min 0,000 mm 0,0 UV-I 19 W/m 6,1 C 7,7 C 8,0 km/h (2 Bft) 91,30 %
01.03.2024 16:49 8,1 C 7,2 C 7,2 C 6,1 C 6,1 C 87 % 200 cb 196 cb 200 cb 1008,7 hPa 0,0 l/m 4,8 km/h (1 Bft) N-NW 337 0 min 0,000 mm 0,0 UV-I 21 W/m 6,1 C 7,7 C 6,4 km/h (2 Bft) 100,00 %
01.03.2024 16:48 8,1 C 7,2 C 7,2 C 6,1 C 6,1 C 87 % 200 cb 195 cb 192 cb 1008,7 hPa 0,0 l/m 6,4 km/h (2 Bft) NW 315 0 min 0,000 mm 0,0 UV-I 23 W/m 6,1 C 7,2 C 11,3 km/h (2 Bft) 95,65 %
01.03.2024 16:47 8,1 C 7,2 C 7,2 C 6,1 C 6,1 C 87 % 200 cb 195 cb 192 cb 1008,7 hPa 0,0 l/m 4,8 km/h (1 Bft) NW 315 0 min 0,000 mm 0,0 UV-I 25 W/m 6,1 C 7,7 C 6,4 km/h (2 Bft) 95,65 %
01.03.2024 16:46 8,1 C 7,2 C 7,2 C 6,1 C 6,1 C 87 % 200 cb 200 cb 196 cb 1008,6 hPa 0,0 l/m 4,8 km/h (1 Bft) N 360 0 min 0,000 mm 0,0 UV-I 25 W/m 6,1 C 7,7 C 6,4 km/h (2 Bft) 100,00 %
01.03.2024 16:45 8,1 C 7,2 C 7,2 C 6,1 C 6,1 C 87 % 200 cb 193 cb 200 cb 1008,6 hPa 0,0 l/m 6,4 km/h (2 Bft) N-NW 337 0 min 0,000 mm 0,0 UV-I 26 W/m 6,1 C 7,2 C 9,7 km/h (2 Bft) 95,65 %
01.03.2024 16:44 8,2 C 7,2 C 7,2 C 6,1 C 6,1 C 87 % 200 cb 191 cb 185 cb 1008,6 hPa 0,0 l/m 3,2 km/h (1 Bft) N-NW 337 0 min 0,000 mm 0,0 UV-I 26 W/m 6,2 C 8,2 C 6,4 km/h (2 Bft) 95,65 %
01.03.2024 16:43 8,1 C 7,2 C 7,2 C 6,1 C 6,1 C 87 % 200 cb 180 cb 185 cb 1008,6 hPa 0,0 l/m 4,8 km/h (1 Bft) NW 315 0 min 0,000 mm 0,0 UV-I 26 W/m 6,1 C 7,7 C 8,0 km/h (2 Bft) 100,00 %
01.03.2024 16:42 8,2 C 7,2 C 7,2 C 6,1 C 6,1 C 87 % 200 cb 180 cb 191 cb 1008,5 hPa 0,0 l/m 6,4 km/h (2 Bft) W-NW 292 0 min 0,000 mm 0,0 UV-I 26 W/m 6,2 C 7,3 C 11,3 km/h (2 Bft) 95,65 %
01.03.2024 16:41 8,2 C 7,2 C 7,2 C 6,1 C 6,1 C 87 % 200 cb 184 cb 200 cb 1008,6 hPa 0,0 l/m 6,4 km/h (2 Bft) NW 315 0 min 0,000 mm 0,0 UV-I 26 W/m 6,2 C 7,3 C 11,3 km/h (2 Bft) 91,30 %
01.03.2024 16:40 8,2 C 7,2 C 7,2 C 6,1 C 6,1 C 87 % 200 cb 184 cb 189 cb 1008,6 hPa 0,0 l/m 8,0 km/h (2 Bft) W-NW 292 0 min 0,000 mm 0,0 UV-I 26 W/m 6,2 C 6,9 C 11,3 km/h (2 Bft) 100,00 %
01.03.2024 16:39 8,2 C 7,2 C 7,2 C 6,1 C 6,1 C 87 % 200 cb 188 cb 188 cb 1008,7 hPa 0,0 l/m 6,4 km/h (2 Bft) NW 315 0 min 0,000 mm 0,0 UV-I 28 W/m 6,2 C 7,3 C 8,0 km/h (2 Bft) 95,65 %
01.03.2024 16:38 8,2 C 7,8 C 7,2 C 6,1 C 6,1 C 87 % 200 cb 191 cb 200 cb 1008,7 hPa 0,0 l/m 6,4 km/h (2 Bft) W-NW 292 0 min 0,000 mm 0,0 UV-I 28 W/m 6,2 C 7,3 C 11,3 km/h (2 Bft) 95,65 %
01.03.2024 16:37 8,2 C 7,8 C 7,2 C 6,1 C 6,1 C 87 % 200 cb 196 cb 187 cb 1008,7 hPa 0,0 l/m 6,4 km/h (2 Bft) N-NW 337 0 min 0,000 mm 0,0 UV-I 28 W/m 6,2 C 7,3 C 11,3 km/h (2 Bft) 91,30 %
01.03.2024 16:36 8,2 C 7,8 C 7,2 C 6,1 C 6,1 C 87 % 200 cb 200 cb 200 cb 1008,7 hPa 0,0 l/m 4,8 km/h (1 Bft) NW 315 0 min 0,000 mm 0,0 UV-I 28 W/m 6,2 C 7,8 C 8,0 km/h (2 Bft) 100,00 %
01.03.2024 16:35 8,2 C 7,8 C 7,2 C 6,1 C 6,1 C 87 % 200 cb 200 cb 200 cb 1008,8 hPa 0,0 l/m 4,8 km/h (1 Bft) N 360 0 min 0,000 mm 0,0 UV-I 28 W/m 6,2 C 7,8 C 8,0 km/h (2 Bft) 95,65 %
01.03.2024 16:34 8,2 C 7,8 C 7,2 C 6,1 C 6,1 C 87 % 200 cb 196 cb 195 cb 1008,8 hPa 0,0 l/m 4,8 km/h (1 Bft) N-NW 337 0 min 0,000 mm 0,0 UV-I 28 W/m 6,2 C 7,8 C 6,4 km/h (2 Bft) 95,65 %
01.03.2024 16:33 8,2 C 7,8 C 7,2 C 6,1 C 6,1 C 87 % 200 cb 187 cb 200 cb 1008,8 hPa 0,0 l/m 4,8 km/h (1 Bft) NW 315 0 min 0,000 mm 0,0 UV-I 30 W/m 6,2 C 7,8 C 6,4 km/h (2 Bft) 95,65 %
01.03.2024 16:32 8,2 C 7,8 C 7,2 C 6,1 C 6,1 C 87 % 200 cb 193 cb 196 cb 1008,7 hPa 0,0 l/m 3,2 km/h (1 Bft) NW 315 0 min 0,000 mm 0,0 UV-I 30 W/m 6,2 C 8,2 C 4,8 km/h (1 Bft) 91,30 %
01.03.2024 16:31 8,3 C 7,8 C 7,2 C 6,1 C 6,1 C 87 % 200 cb 200 cb 200 cb 1008,8 hPa 0,0 l/m 4,8 km/h (1 Bft) NW 315 0 min 0,000 mm 0,0 UV-I 30 W/m 6,3 C 7,9 C 11,3 km/h (2 Bft) 95,65 %
01.03.2024 16:30 8,3 C 7,8 C 7,2 C 6,1 C 6,1 C 87 % 200 cb 191 cb 192 cb 1008,7 hPa 0,0 l/m 3,2 km/h (1 Bft) N-NW 337 0 min 0,000 mm 0,0 UV-I 32 W/m 6,3 C 8,3 C 4,8 km/h (1 Bft) 100,00 %
01.03.2024 16:29 8,3 C 7,8 C 7,2 C 6,1 C 6,1 C 87 % 200 cb 200 cb 200 cb 1008,7 hPa 0,0 l/m 6,4 km/h (2 Bft) NW 315 0 min 0,000 mm 0,0 UV-I 32 W/m 6,3 C 7,4 C 11,3 km/h (2 Bft) 91,30 %
01.03.2024 16:28 8,3 C 7,8 C 7,2 C 6,1 C 6,1 C 87 % 200 cb 195 cb 197 cb 1008,7 hPa 0,0 l/m 6,4 km/h (2 Bft) NW 315 0 min 0,000 mm 0,0 UV-I 32 W/m 6,3 C 7,4 C 9,7 km/h (2 Bft) 95,65 %
01.03.2024 16:27 8,3 C 7,8 C 7,2 C 6,1 C 6,1 C 87 % 200 cb 197 cb 199 cb 1008,7 hPa 0,0 l/m 6,4 km/h (2 Bft) W-NW 292 0 min 0,000 mm 0,0 UV-I 30 W/m 6,3 C 7,4 C 8,0 km/h (2 Bft) 100,00 %
01.03.2024 16:26 8,3 C 7,8 C 7,2 C 6,1 C 6,1 C 87 % 200 cb 197 cb 199 cb 1008,7 hPa 0,0 l/m 4,8 km/h (1 Bft) W-NW 292 0 min 0,000 mm 0,0 UV-I 28 W/m 6,3 C 7,9 C 8,0 km/h (2 Bft) 95,65 %
01.03.2024 16:25 8,3 C 7,8 C 7,2 C 6,1 C 6,1 C 87 % 200 cb 196 cb 192 cb 1008,7 hPa 0,0 l/m 3,2 km/h (1 Bft) W-NW 292 0 min 0,000 mm 0,0 UV-I 26 W/m 6,3 C 8,3 C 4,8 km/h (1 Bft) 91,30 %
01.03.2024 16:24 8,3 C 7,8 C 7,2 C 6,1 C 6,1 C 87 % 200 cb 200 cb 188 cb 1008,7 hPa 0,0 l/m 4,8 km/h (1 Bft) W-NW 292 0 min 0,000 mm 0,0 UV-I 26 W/m 6,3 C 7,9 C 8,0 km/h (2 Bft) 100,00 %
01.03.2024 16:23 8,3 C 7,8 C 7,2 C 6,1 C 6,1 C 87 % 200 cb 200 cb 197 cb 1008,7 hPa 0,0 l/m 3,2 km/h (1 Bft) NW 315 0 min 0,000 mm 0,0 UV-I 26 W/m 6,3 C 8,3 C 3,2 km/h (1 Bft) 95,65 %
01.03.2024 16:22 8,3 C 8,3 C 7,2 C 6,1 C 6,1 C 87 % 200 cb 200 cb 200 cb 1008,7 hPa 0,0 l/m 4,8 km/h (1 Bft) NW 315 0 min 0,000 mm 0,0 UV-I 26 W/m 6,3 C 7,9 C 8,0 km/h (2 Bft) 95,65 %
01.03.2024 16:21 8,3 C 8,3 C 7,2 C 6,1 C 6,1 C 87 % 200 cb 200 cb 200 cb 1008,7 hPa 0,0 l/m 4,8 km/h (1 Bft) NW 315 0 min 0,000 mm 0,0 UV-I 28 W/m 6,3 C 7,9 C 8,0 km/h (2 Bft) 100,00 %
01.03.2024 16:20 8,3 C 8,3 C 7,2 C 6,1 C 6,1 C 87 % 200 cb 200 cb 200 cb 1008,7 hPa 0,0 l/m 8,0 km/h (2 Bft) NW 315 0 min 0,000 mm 0,0 UV-I 30 W/m 6,3 C 7,0 C 12,9 km/h (3 Bft) 95,65 %
01.03.2024 16:19 8,3 C 8,3 C 7,2 C 6,1 C 6,1 C 87 % 200 cb 200 cb 200 cb 1008,7 hPa 0,0 l/m 3,2 km/h (1 Bft) N-NW 337 0 min 0,000 mm 0,0 UV-I 32 W/m 6,3 C 8,3 C 8,0 km/h (2 Bft) 91,30 %
01.03.2024 16:18 8,3 C 8,3 C 7,2 C 6,1 C 6,1 C 87 % 200 cb 200 cb 200 cb 1008,7 hPa 0,0 l/m 3,2 km/h (1 Bft) N-NW 337 0 min 0,000 mm 0,0 UV-I 37 W/m 6,3 C 8,3 C 4,8 km/h (1 Bft) 95,65 %
01.03.2024 16:17 8,4 C 8,3 C 7,2 C 6,1 C 6,1 C 87 % 200 cb 200 cb 200 cb 1008,7 hPa 0,0 l/m 4,8 km/h (1 Bft) N-NW 337 0 min 0,000 mm 0,0 UV-I 37 W/m 6,4 C 8,0 C 4,8 km/h (1 Bft) 95,65 %
01.03.2024 16:16 8,4 C 8,3 C 7,2 C 6,1 C 6,1 C 87 % 200 cb 196 cb 200 cb 1008,6 hPa 0,0 l/m 8,0 km/h (2 Bft) N-NW 337 0 min 0,000 mm 0,0 UV-I 39 W/m 6,4 C 7,1 C 12,9 km/h (3 Bft) 91,30 %
01.03.2024 16:15 8,3 C 8,3 C 7,2 C 6,1 C 6,1 C 87 % 200 cb 200 cb 200 cb 1008,6 hPa 0,0 l/m 6,4 km/h (2 Bft) N-NW 337 0 min 0,000 mm 0,0 UV-I 39 W/m 6,3 C 7,4 C 12,9 km/h (3 Bft) 100,00 %
01.03.2024 16:14 8,3 C 8,3 C 7,2 C 6,1 C 6,1 C 87 % 200 cb 199 cb 200 cb 1008,6 hPa 0,0 l/m 4,8 km/h (1 Bft) N 360 0 min 0,000 mm 0,0 UV-I 40 W/m 6,3 C 7,9 C 8,0 km/h (2 Bft) 95,65 %
01.03.2024 16:13 8,4 C 8,3 C 7,2 C 6,1 C 6,1 C 87 % 200 cb 192 cb 200 cb 1008,7 hPa 0,0 l/m 6,4 km/h (2 Bft) N-NW 337 0 min 0,000 mm 0,0 UV-I 42 W/m 6,4 C 7,5 C 8,0 km/h (2 Bft) 95,65 %
01.03.2024 16:12 8,4 C 8,3 C 7,2 C 6,1 C 6,1 C 86 % 200 cb 200 cb 200 cb 1008,6 hPa 0,0 l/m 8,0 km/h (2 Bft) N-NW 337 0 min 0,000 mm 0,0 UV-I 44 W/m 6,2 C 7,1 C 12,9 km/h (3 Bft) 100,00 %
01.03.2024 16:11 8,4 C 8,3 C 7,2 C 6,1 C 6,1 C 86 % 200 cb 200 cb 200 cb 1008,6 hPa 0,0 l/m 4,8 km/h (1 Bft) NW 315 0 min 0,000 mm 0,0 UV-I 44 W/m 6,2 C 8,0 C 8,0 km/h (2 Bft) 95,65 %
01.03.2024 16:10 8,4 C 8,3 C 7,2 C 6,1 C 6,1 C 86 % 200 cb 174 cb 193 cb 1008,6 hPa 0,0 l/m 4,8 km/h (1 Bft) NW 315 0 min 0,000 mm 0,0 UV-I 44 W/m 6,2 C 8,0 C 8,0 km/h (2 Bft) 95,65 %
01.03.2024 16:09 8,4 C 8,3 C 7,2 C 6,1 C 6,1 C 86 % 200 cb 183 cb 181 cb 1008,7 hPa 0,0 l/m 4,8 km/h (1 Bft) N-NW 337 0 min 0,000 mm 0,0 UV-I 44 W/m 6,2 C 8,0 C 8,0 km/h (2 Bft) 95,65 %
01.03.2024 16:08 8,4 C 8,3 C 7,2 C 6,1 C 6,1 C 86 % 200 cb 188 cb 199 cb 1008,6 hPa 0,0 l/m 6,4 km/h (2 Bft) N 360 0 min 0,000 mm 0,0 UV-I 47 W/m 6,2 C 7,5 C 8,0 km/h (2 Bft) 95,65 %
01.03.2024 16:07 8,4 C 8,3 C 7,2 C 6,1 C 6,1 C 86 % 200 cb 200 cb 200 cb 1008,6 hPa 0,0 l/m 6,4 km/h (2 Bft) NW 315 0 min 0,000 mm 0,0 UV-I 49 W/m 6,2 C 7,5 C 9,7 km/h (2 Bft) 95,65 %
01.03.2024 16:06 8,4 C 8,3 C 7,2 C 6,1 C 6,1 C 86 % 200 cb 200 cb 200 cb 1008,5 hPa 0,0 l/m 4,8 km/h (1 Bft) N-NW 337 0 min 0,000 mm 0,0 UV-I 51 W/m 6,2 C 8,0 C 8,0 km/h (2 Bft) 100,00 %
01.03.2024 16:05 8,4 C 8,3 C 7,2 C 6,1 C 6,1 C 86 % 200 cb 200 cb 200 cb 1008,6 hPa 0,0 l/m 4,8 km/h (1 Bft) N-NW 337 0 min 0,000 mm 0,0 UV-I 51 W/m 6,2 C 8,0 C 8,0 km/h (2 Bft) 95,65 %
01.03.2024 16:04 8,4 C 8,3 C 7,2 C 6,1 C 6,1 C 86 % 200 cb 200 cb 200 cb 1008,6 hPa 0,0 l/m 4,8 km/h (1 Bft) N-NW 337 0 min 0,000 mm 0,0 UV-I 49 W/m 6,2 C 8,0 C 8,0 km/h (2 Bft) 95,65 %
01.03.2024 16:03 8,4 C 8,3 C 7,2 C 6,1 C 6,1 C 86 % 200 cb 200 cb 200 cb 1008,6 hPa 0,0 l/m 4,8 km/h (1 Bft) N-NW 337 0 min 0,000 mm 0,0 UV-I 44 W/m 6,2 C 8,0 C 6,4 km/h (2 Bft) 95,65 %
01.03.2024 16:02 8,4 C 8,3 C 7,2 C 6,1 C 6,1 C 86 % 200 cb 200 cb 200 cb 1008,6 hPa 0,0 l/m 4,8 km/h (1 Bft) N-NW 337 0 min 0,000 mm 0,0 UV-I 42 W/m 6,2 C 8,0 C 6,4 km/h (2 Bft) 95,65 %
01.03.2024 16:01 8,5 C 8,3 C 7,2 C 6,1 C 6,1 C 86 % 200 cb 200 cb 200 cb 1008,6 hPa 0,0 l/m 4,8 km/h (1 Bft) N-NW 337 0 min 0,000 mm 0,0 UV-I 42 W/m 6,3 C 8,1 C 8,0 km/h (2 Bft) 95,65 %
01.03.2024 16:00 8,4 C 8,3 C 7,2 C 6,1 C 6,1 C 86 % 200 cb 200 cb 200 cb 1008,6 hPa 0,0 l/m 4,8 km/h (1 Bft) NW 315 0 min 0,051 mm 0,0 UV-I 42 W/m 6,2 C 8,0 C 6,4 km/h (2 Bft) 100,00 %
01.03.2024 15:59 8,5 C 8,3 C 7,2 C 6,1 C 6,1 C 86 % 200 cb 195 cb 197 cb 1008,6 hPa 0,0 l/m 3,2 km/h (1 Bft) N 360 0 min 0,000 mm 0,0 UV-I 44 W/m 6,3 C 8,5 C 6,4 km/h (2 Bft) 95,65 %
01.03.2024 15:58 8,5 C 8,3 C 7,2 C 6,1 C 6,1 C 86 % 200 cb 195 cb 200 cb 1008,6 hPa 0,0 l/m 6,4 km/h (2 Bft) NW 315 0 min 0,000 mm 0,0 UV-I 46 W/m 6,3 C 7,6 C 9,7 km/h (2 Bft) 95,65 %
01.03.2024 15:57 8,5 C 8,3 C 7,2 C 6,1 C 6,1 C 86 % 200 cb 200 cb 200 cb 1008,6 hPa 0,0 l/m 8,0 km/h (2 Bft) NW 315 0 min 0,000 mm 0,0 UV-I 47 W/m 6,3 C 7,2 C 12,9 km/h (3 Bft) 100,00 %
01.03.2024 15:56 8,5 C 8,9 C 7,2 C 6,1 C 6,1 C 86 % 200 cb 193 cb 200 cb 1008,6 hPa 0,0 l/m 6,4 km/h (2 Bft) NW 315 0 min 0,000 mm 0,0 UV-I 47 W/m 6,3 C 7,6 C 11,3 km/h (2 Bft) 95,65 %
01.03.2024 15:55 8,6 C 8,9 C 7,2 C 6,1 C 6,1 C 86 % 200 cb 195 cb 197 cb 1008,6 hPa 0,0 l/m 6,4 km/h (2 Bft) N-NW 337 0 min 0,000 mm 0,0 UV-I 47 W/m 6,4 C 7,8 C 12,9 km/h (3 Bft) 95,65 %
01.03.2024 15:54 8,6 C 8,9 C 7,2 C 6,1 C 6,1 C 86 % 200 cb 179 cb 180 cb 1008,6 hPa 0,0 l/m 6,4 km/h (2 Bft) N-NW 337 0 min 0,000 mm 0,0 UV-I 46 W/m 6,4 C 7,8 C 12,9 km/h (3 Bft) 100,00 %
01.03.2024 15:53 8,6 C 8,9 C 7,2 C 6,1 C 6,1 C 86 % 200 cb 168 cb 172 cb 1008,6 hPa 0,0 l/m 4,8 km/h (1 Bft) N-NW 337 0 min 0,000 mm 0,0 UV-I 46 W/m 6,4 C 8,2 C 6,4 km/h (2 Bft) 95,65 %
01.03.2024 15:52 8,6 C 8,9 C 7,2 C 6,1 C 6,1 C 86 % 200 cb 175 cb 181 cb 1008,6 hPa 0,0 l/m 6,4 km/h (2 Bft) NW 315 0 min 0,000 mm 0,0 UV-I 47 W/m 6,4 C 7,8 C 8,0 km/h (2 Bft) 95,65 %
01.03.2024 15:51 8,6 C 8,9 C 7,2 C 6,1 C 6,1 C 86 % 200 cb 179 cb 178 cb 1008,6 hPa 0,0 l/m 3,2 km/h (1 Bft) N-NW 337 0 min 0,000 mm 0,0 UV-I 49 W/m 6,4 C 8,6 C 6,4 km/h (2 Bft) 91,30 %
01.03.2024 15:50 8,6 C 8,9 C 7,2 C 6,1 C 6,1 C 86 % 200 cb 183 cb 183 cb 1008,6 hPa 0,0 l/m 1,6 km/h (1 Bft) N-NW 337 0 min 0,000 mm 0,0 UV-I 53 W/m 6,4 C 8,6 C 3,2 km/h (1 Bft) 100,00 %
01.03.2024 15:49 8,6 C 8,9 C 7,2 C 6,1 C 6,1 C 86 % 200 cb 183 cb 181 cb 1008,6 hPa 0,0 l/m 1,6 km/h (1 Bft) N-NW 337 0 min 0,000 mm 0,0 UV-I 54 W/m 6,4 C 8,6 C 3,2 km/h (1 Bft) 95,65 %
01.03.2024 15:48 8,6 C 8,9 C 7,2 C 6,1 C 6,1 C 86 % 200 cb 171 cb 168 cb 1008,6 hPa 0,0 l/m 1,6 km/h (1 Bft) N-NW 337 0 min 0,000 mm 0,0 UV-I 58 W/m 6,4 C 8,6 C 3,2 km/h (1 Bft) 86,96 %
01.03.2024 15:47 8,6 C 8,9 C 7,2 C 6,1 C 6,1 C 86 % 198 cb 164 cb 164 cb 1008,6 hPa 0,0 l/m 1,6 km/h (1 Bft) N-NW 337 0 min 0,000 mm 0,0 UV-I 60 W/m 6,4 C 8,6 C 6,4 km/h (2 Bft) 100,00 %
01.03.2024 15:46 8,6 C 8,9 C 7,2 C 6,1 C 6,1 C 86 % 200 cb 166 cb 174 cb 1008,6 hPa 0,0 l/m 3,2 km/h (1 Bft) N-NW 337 0 min 0,000 mm 0,0 UV-I 62 W/m 6,4 C 8,6 C 6,4 km/h (2 Bft) 95,65 %
01.03.2024 15:45 8,6 C 8,9 C 7,2 C 6,1 C 6,1 C 86 % 200 cb 168 cb 168 cb 1008,6 hPa 0,0 l/m 3,2 km/h (1 Bft) W-NW 292 0 min 0,000 mm 0,0 UV-I 63 W/m 6,4 C 8,6 C 4,8 km/h (1 Bft) 95,65 %
01.03.2024 15:44 8,6 C 8,9 C 7,2 C 6,1 C 6,1 C 86 % 198 cb 168 cb 168 cb 1008,6 hPa 0,0 l/m 4,8 km/h (1 Bft) W-NW 292 0 min 0,000 mm 0,0 UV-I 65 W/m 6,4 C 8,2 C 6,4 km/h (2 Bft) 95,65 %
01.03.2024 15:43 8,6 C 8,9 C 7,2 C 6,1 C 6,1 C 86 % 184 cb 164 cb 165 cb 1008,6 hPa 0,0 l/m 4,8 km/h (1 Bft) NW 315 0 min 0,000 mm 0,0 UV-I 67 W/m 6,4 C 8,2 C 6,4 km/h (2 Bft) 91,30 %
01.03.2024 15:42 8,6 C 8,9 C 7,2 C 6,1 C 6,1 C 86 % 184 cb 162 cb 161 cb 1008,6 hPa 0,0 l/m 3,2 km/h (1 Bft) NW 315 0 min 0,000 mm 0,0 UV-I 69 W/m 6,4 C 8,6 C 8,0 km/h (2 Bft) 91,30 %
01.03.2024 15:41 8,6 C 8,9 C 7,2 C 6,1 C 6,1 C 86 % 175 cb 149 cb 150 cb 1008,6 hPa 0,0 l/m 4,8 km/h (1 Bft) NW 315 0 min 0,000 mm 0,0 UV-I 72 W/m 6,4 C 8,2 C 8,0 km/h (2 Bft) 95,65 %
01.03.2024 15:40 8,6 C 8,9 C 7,2 C 6,1 C 6,1 C 86 % 175 cb 164 cb 167 cb 1008,6 hPa 0,0 l/m 3,2 km/h (1 Bft) NW 315 0 min 0,000 mm 0,0 UV-I 81 W/m 6,4 C 8,6 C 6,4 km/h (2 Bft) 95,65 %
01.03.2024 15:39 8,6 C 8,9 C 7,2 C 6,1 C 6,1 C 86 % 198 cb 164 cb 192 cb 1008,5 hPa 0,0 l/m 1,6 km/h (1 Bft) NW 315 0 min 0,000 mm 0,0 UV-I 84 W/m 6,4 C 8,6 C 3,2 km/h (1 Bft) 95,65 %
01.03.2024 15:38 8,6 C 8,9 C 7,2 C 6,1 C 6,1 C 86 % 200 cb 185 cb 192 cb 1008,6 hPa 0,0 l/m 3,2 km/h (1 Bft) NW 315 0 min 0,000 mm 0,0 UV-I 86 W/m 6,4 C 8,6 C 6,4 km/h (2 Bft) 100,00 %
01.03.2024 15:37 8,5 C 8,9 C 7,2 C 6,1 C 6,1 C 86 % 200 cb 175 cb 187 cb 1008,6 hPa 0,0 l/m 1,6 km/h (1 Bft) NW 315 0 min 0,000 mm 0,0 UV-I 91 W/m 6,3 C 8,5 C 4,8 km/h (1 Bft) 95,65 %
01.03.2024 15:36 8,5 C 9,4 C 7,2 C 6,1 C 6,1 C 86 % 200 cb 193 cb 184 cb 1008,6 hPa 0,0 l/m 4,8 km/h (1 Bft) W-NW 292 0 min 0,000 mm 0,0 UV-I 95 W/m 6,3 C 8,1 C 6,4 km/h (2 Bft) 95,65 %
01.03.2024 15:35 8,5 C 8,9 C 7,2 C 6,1 C 6,1 C 86 % 195 cb 159 cb 173 cb 1008,6 hPa 0,0 l/m 3,2 km/h (1 Bft) W-NW 292 0 min 0,000 mm 0,0 UV-I 100 W/m 6,3 C 8,5 C 6,4 km/h (2 Bft) 100,00 %
01.03.2024 15:34 8,5 C 8,9 C 7,2 C 6,1 C 6,1 C 86 % 196 cb 167 cb 165 cb 1008,6 hPa 0,0 l/m 1,6 km/h (1 Bft) W-NW 292 0 min 0,000 mm 0,0 UV-I 107 W/m 6,3 C 8,5 C 3,2 km/h (1 Bft) 95,65 %
01.03.2024 15:33 8,5 C 8,9 C 7,2 C 6,1 C 6,1 C 86 % 182 cb 164 cb 156 cb 1008,6 hPa 0,0 l/m 3,2 km/h (1 Bft) W-NW 292 0 min 0,000 mm 0,0 UV-I 109 W/m 6,3 C 8,5 C 6,4 km/h (2 Bft) 95,65 %
01.03.2024 15:32 8,5 C 8,9 C 7,2 C 6,1 C 6,1 C 86 % 177 cb 153 cb 151 cb 1008,6 hPa 0,0 l/m 4,8 km/h (1 Bft) NW 315 0 min 0,000 mm 0,0 UV-I 109 W/m 6,3 C 8,1 C 6,4 km/h (2 Bft) 95,65 %
01.03.2024 15:31 8,5 C 8,9 C 7,2 C 6,1 C 6,1 C 86 % 179 cb 151 cb 155 cb 1008,5 hPa 0,0 l/m 4,8 km/h (1 Bft) W-NW 292 0 min 0,000 mm 0,0 UV-I 111 W/m 6,3 C 8,1 C 11,3 km/h (2 Bft) 95,65 %
01.03.2024 15:30 8,5 C 8,9 C 7,2 C 6,1 C 6,1 C 86 % 178 cb 151 cb 154 cb 1008,6 hPa 0,0 l/m 6,4 km/h (2 Bft) W-NW 292 0 min 0,000 mm 0,0 UV-I 107 W/m 6,3 C 7,6 C 11,3 km/h (2 Bft) 95,65 %
01.03.2024 15:29 8,5 C 8,9 C 7,2 C 6,1 C 6,1 C 86 % 177 cb 157 cb 160 cb 1008,6 hPa 0,0 l/m 4,8 km/h (1 Bft) NW 315 0 min 0,000 mm 0,0 UV-I 105 W/m 6,3 C 8,1 C 9,7 km/h (2 Bft) 100,00 %
01.03.2024 15:28 8,5 C 8,9 C 7,2 C 6,1 C 6,1 C 86 % 182 cb 151 cb 155 cb 1008,6 hPa 0,0 l/m 4,8 km/h (1 Bft) NW 315 0 min 0,000 mm 0,0 UV-I 100 W/m 6,3 C 8,1 C 8,0 km/h (2 Bft) 95,65 %
01.03.2024 15:27 8,5 C 8,9 C 7,2 C 6,1 C 6,1 C 86 % 189 cb 158 cb 160 cb 1008,5 hPa 0,0 l/m 4,8 km/h (1 Bft) W-NW 292 0 min 0,000 mm 0,0 UV-I 98 W/m 6,3 C 8,1 C 8,0 km/h (2 Bft) 95,65 %
01.03.2024 15:26 8,5 C 8,9 C 7,2 C 6,1 C 6,1 C 86 % 200 cb 185 cb 165 cb 1008,6 hPa 0,0 l/m 4,8 km/h (1 Bft) W-NW 292 0 min 0,000 mm 0,0 UV-I 98 W/m 6,3 C 8,1 C 4,8 km/h (1 Bft) 95,65 %
01.03.2024 15:25 8,4 C 8,9 C 7,2 C 6,1 C 6,1 C 86 % 200 cb 181 cb 167 cb 1008,6 hPa 0,0 l/m 3,2 km/h (1 Bft) W-NW 292 0 min 0,000 mm 0,0 UV-I 100 W/m 6,2 C 8,4 C 4,8 km/h (1 Bft) 95,65 %
01.03.2024 15:24 8,4 C 8,9 C 7,2 C 6,1 C 6,1 C 86 % 200 cb 173 cb 175 cb 1008,5 hPa 0,0 l/m 4,8 km/h (1 Bft) NW 315 0 min 0,000 mm 0,0 UV-I 102 W/m 6,2 C 8,0 C 6,4 km/h (2 Bft) 91,30 %
01.03.2024 15:23 8,4 C 8,9 C 7,2 C 6,1 C 6,1 C 86 % 183 cb 158 cb 160 cb 1008,6 hPa 0,0 l/m 6,4 km/h (2 Bft) NW 315 0 min 0,000 mm 0,0 UV-I 105 W/m 6,2 C 7,5 C 8,0 km/h (2 Bft) 100,00 %
01.03.2024 15:22 8,4 C 8,9 C 7,2 C 6,1 C 6,1 C 86 % 183 cb 158 cb 160 cb 1008,5 hPa 0,0 l/m 4,8 km/h (1 Bft) NW 315 0 min 0,000 mm 0,0 UV-I 107 W/m 6,2 C 8,0 C 6,4 km/h (2 Bft) 91,30 %
01.03.2024 15:21 8,4 C 8,9 C 7,2 C 6,1 C 6,1 C 86 % 191 cb 158 cb 157 cb 1008,5 hPa 0,0 l/m 6,4 km/h (2 Bft) W-NW 292 0 min 0,000 mm 0,0 UV-I 107 W/m 6,2 C 7,5 C 11,3 km/h (2 Bft) 95,65 %
01.03.2024 15:20 8,5 C 8,9 C 7,2 C 6,1 C 6,1 C 86 % 200 cb 178 cb 183 cb 1008,5 hPa 0,0 l/m 6,4 km/h (2 Bft) NW 315 0 min 0,000 mm 0,0 UV-I 107 W/m 6,3 C 7,6 C 11,3 km/h (2 Bft) 95,65 %
01.03.2024 15:19 8,5 C 8,9 C 7,2 C 6,1 C 6,1 C 86 % 200 cb 178 cb 172 cb 1008,5 hPa 0,0 l/m 4,8 km/h (1 Bft) W-NW 292 0 min 0,000 mm 0,0 UV-I 105 W/m 6,3 C 8,1 C 6,4 km/h (2 Bft) 91,30 %
01.03.2024 15:18 8,5 C 8,9 C 7,2 C 6,1 C 6,1 C 86 % 200 cb 170 cb 183 cb 1008,5 hPa 0,0 l/m 8,0 km/h (2 Bft) W-NW 292 0 min 0,000 mm 0,0 UV-I 98 W/m 6,3 C 7,2 C 12,9 km/h (3 Bft) 95,65 %
01.03.2024 15:17 8,5 C 8,9 C 7,2 C 6,1 C 6,1 C 86 % 200 cb 178 cb 183 cb 1008,5 hPa 0,0 l/m 6,4 km/h (2 Bft) W-NW 292 0 min 0,000 mm 0,0 UV-I 91 W/m 6,3 C 7,6 C 14,5 km/h (3 Bft) 91,30 %
01.03.2024 15:16 8,5 C 8,9 C 7,2 C 6,1 C 6,1 C 86 % 192 cb 165 cb 165 cb 1008,4 hPa 0,0 l/m 4,8 km/h (1 Bft) W-NW 292 0 min 0,000 mm 0,0 UV-I 83 W/m 6,3 C 8,1 C 9,7 km/h (2 Bft) 95,65 %
01.03.2024 15:15 8,5 C 8,9 C 7,2 C 6,1 C 6,1 C 86 % 200 cb 174 cb 164 cb 1008,4 hPa 0,0 l/m 6,4 km/h (2 Bft) W-NW 292 0 min 0,000 mm 0,0 UV-I 79 W/m 6,3 C 7,6 C 12,9 km/h (3 Bft) 91,30 %
01.03.2024 15:14 8,5 C 8,9 C 7,2 C 6,1 C 6,1 C 86 % 200 cb 183 cb 187 cb 1008,4 hPa 0,0 l/m 6,4 km/h (2 Bft) W-NW 292 0 min 0,000 mm 0,0 UV-I 76 W/m 6,3 C 7,6 C 11,3 km/h (2 Bft) 100,00 %
01.03.2024 15:13 8,5 C 8,9 C 7,2 C 6,1 C 6,1 C 86 % 200 cb 177 cb 177 cb 1008,4 hPa 0,0 l/m 9,7 km/h (2 Bft) W-NW 292 0 min 0,000 mm 0,0 UV-I 74 W/m 6,3 C 6,9 C 16,1 km/h (3 Bft) 91,30 %
01.03.2024 15:12 8,5 C 8,9 C 7,2 C 6,1 C 6,1 C 86 % 195 cb 168 cb 172 cb 1008,4 hPa 0,0 l/m 9,7 km/h (2 Bft) NW 315 0 min 0,000 mm 0,0 UV-I 70 W/m 6,3 C 6,9 C 14,5 km/h (3 Bft) 91,30 %
01.03.2024 15:11 8,6 C 8,9 C 7,2 C 6,1 C 6,1 C 86 % 199 cb 168 cb 171 cb 1008,4 hPa 0,0 l/m 6,4 km/h (2 Bft) N-NW 337 0 min 0,000 mm 0,0 UV-I 72 W/m 6,4 C 7,8 C 9,7 km/h (2 Bft) 82,61 %
01.03.2024 15:10 8,6 C 8,9 C 7,2 C 6,1 C 6,1 C 86 % 200 cb 178 cb 170 cb 1008,4 hPa 0,0 l/m 9,7 km/h (2 Bft) W-NW 292 0 min 0,000 mm 0,0 UV-I 76 W/m 6,4 C 7,0 C 14,5 km/h (3 Bft) 95,65 %
01.03.2024 15:09 8,6 C 8,9 C 7,2 C 6,1 C 6,1 C 85 % 200 cb 195 cb 197 cb 1008,4 hPa 0,0 l/m 6,4 km/h (2 Bft) NW 315 0 min 0,000 mm 0,0 UV-I 77 W/m 6,2 C 7,8 C 8,0 km/h (2 Bft) 86,96 %
01.03.2024 15:08 8,6 C 8,9 C 7,2 C 6,1 C 6,1 C 86 % 200 cb 165 cb 174 cb 1008,3 hPa 0,0 l/m 6,4 km/h (2 Bft) W-NW 292 0 min 0,000 mm 0,0 UV-I 81 W/m 6,4 C 7,8 C 11,3 km/h (2 Bft) 91,30 %
01.03.2024 15:07 8,6 C 8,9 C 7,2 C 6,1 C 6,1 C 85 % 166 cb 141 cb 142 cb 1008,5 hPa 0,0 l/m 8,0 km/h (2 Bft) W-NW 292 0 min 0,000 mm 0,0 UV-I 81 W/m 6,2 C 7,4 C 12,9 km/h (3 Bft) 100,00 %
01.03.2024 15:06 8,6 C 8,9 C 7,2 C 6,1 C 6,1 C 85 % 163 cb 139 cb 140 cb 1008,4 hPa 0,0 l/m 6,4 km/h (2 Bft) NW 315 0 min 0,000 mm 0,0 UV-I 81 W/m 6,2 C 7,8 C 9,7 km/h (2 Bft) 91,30 %
01.03.2024 15:05 8,6 C 8,9 C 7,2 C 6,1 C 6,1 C 85 % 162 cb 137 cb 139 cb 1008,4 hPa 0,0 l/m 6,4 km/h (2 Bft) W-NW 292 0 min 0,000 mm 0,0 UV-I 83 W/m 6,2 C 7,8 C 12,9 km/h (3 Bft) 91,30 %
01.03.2024 15:04 8,6 C 8,9 C 7,2 C 6,1 C 6,1 C 85 % 160 cb 137 cb 138 cb 1008,3 hPa 0,0 l/m 8,0 km/h (2 Bft) NW 315 0 min 0,000 mm 0,0 UV-I 84 W/m 6,2 C 7,4 C 12,9 km/h (3 Bft) 95,65 %
01.03.2024 15:03 8,6 C 8,9 C 7,2 C 6,1 C 6,1 C 85 % 160 cb 139 cb 138 cb 1008,4 hPa 0,0 l/m 8,0 km/h (2 Bft) NW 315 0 min 0,000 mm 0,0 UV-I 86 W/m 6,2 C 7,4 C 16,1 km/h (3 Bft) 95,65 %
01.03.2024 15:02 8,6 C 8,9 C 7,2 C 6,1 C 6,1 C 85 % 162 cb 139 cb 138 cb 1008,4 hPa 0,0 l/m 9,7 km/h (2 Bft) W-NW 292 0 min 0,000 mm 0,0 UV-I 91 W/m 6,2 C 7,0 C 12,9 km/h (3 Bft) 91,30 %
01.03.2024 15:01 8,6 C 8,9 C 7,2 C 6,1 C 6,1 C 85 % 168 cb 135 cb 136 cb 1008,4 hPa 0,0 l/m 11,3 km/h (2 Bft) W-NW 292 0 min 0,000 mm 0,0 UV-I 93 W/m 6,2 C 6,7 C 17,7 km/h (3 Bft) 95,65 %
01.03.2024 15:00 8,6 C 9,4 C 7,2 C 6,1 C 6,1 C 85 % 168 cb 145 cb 138 cb 1008,4 hPa 0,0 l/m 11,3 km/h (2 Bft) W-NW 292 0 min 0,051 mm 0,0 UV-I 98 W/m 6,2 C 6,7 C 16,1 km/h (3 Bft) 91,30 %
01.03.2024 14:59 8,6 C 9,4 C 7,2 C 6,1 C 6,1 C 85 % 164 cb 141 cb 143 cb 1008,4 hPa 0,0 l/m 8,0 km/h (2 Bft) W-NW 292 0 min 0,000 mm 0,0 UV-I 102 W/m 6,2 C 7,4 C 12,9 km/h (3 Bft) 91,30 %
01.03.2024 14:58 8,6 C 9,4 C 7,2 C 6,1 C 6,1 C 85 % 172 cb 146 cb 147 cb 1008,4 hPa 0,0 l/m 4,8 km/h (1 Bft) NW 315 0 min 0,000 mm 0,0 UV-I 100 W/m 6,2 C 8,2 C 8,0 km/h (2 Bft) 95,65 %
01.03.2024 14:57 8,6 C 8,9 C 7,2 C 6,1 C 6,1 C 85 % 171 cb 145 cb 147 cb 1008,4 hPa 0,0 l/m 6,4 km/h (2 Bft) NW 315 0 min 0,000 mm 0,0 UV-I 98 W/m 6,2 C 7,8 C 9,7 km/h (2 Bft) 91,30 %
01.03.2024 14:56 8,6 C 9,4 C 7,2 C 6,1 C 6,1 C 85 % 168 cb 142 cb 144 cb 1008,4 hPa 0,0 l/m 6,4 km/h (2 Bft) N-NW 337 0 min 0,000 mm 0,0 UV-I 98 W/m 6,2 C 7,8 C 8,0 km/h (2 Bft) 95,65 %
01.03.2024 14:55 8,6 C 8,9 C 7,2 C 6,1 C 6,1 C 85 % 172 cb 146 cb 149 cb 1008,4 hPa 0,0 l/m 6,4 km/h (2 Bft) NW 315 0 min 0,000 mm 0,0 UV-I 98 W/m 6,2 C 7,8 C 8,0 km/h (2 Bft) 95,65 %
01.03.2024 14:54 8,6 C 8,9 C 7,2 C 6,1 C 6,1 C 85 % 188 cb 154 cb 156 cb 1008,4 hPa 0,0 l/m 3,2 km/h (1 Bft) N-NW 337 0 min 0,000 mm 0,0 UV-I 97 W/m 6,2 C 8,6 C 6,4 km/h (2 Bft) 95,65 %
01.03.2024 14:53 8,6 C 8,9 C 7,2 C 6,1 C 6,1 C 85 % 159 cb 137 cb 138 cb 1008,3 hPa 0,0 l/m 4,8 km/h (1 Bft) N-NW 337 0 min 0,000 mm 0,0 UV-I 93 W/m 6,2 C 8,2 C 6,4 km/h (2 Bft) 91,30 %
01.03.2024 14:52 8,6 C 8,9 C 7,2 C 6,1 C 6,1 C 85 % 158 cb 135 cb 140 cb 1008,4 hPa 0,0 l/m 4,8 km/h (1 Bft) W-NW 292 0 min 0,000 mm 0,0 UV-I 91 W/m 6,2 C 8,2 C 8,0 km/h (2 Bft) 100,00 %
01.03.2024 14:51 8,6 C 8,9 C 7,2 C 6,1 C 6,1 C 85 % 164 cb 143 cb 143 cb 1008,4 hPa 0,0 l/m 4,8 km/h (1 Bft) NW 315 0 min 0,000 mm 0,0 UV-I 90 W/m 6,2 C 8,2 C 8,0 km/h (2 Bft) 86,96 %
01.03.2024 14:50 8,6 C 8,9 C 7,2 C 6,1 C 6,1 C 85 % 163 cb 141 cb 141 cb 1008,5 hPa 0,0 l/m 6,4 km/h (2 Bft) NW 315 0 min 0,000 mm 0,0 UV-I 90 W/m 6,2 C 7,8 C 12,9 km/h (3 Bft) 86,96 %
01.03.2024 14:49 8,6 C 8,9 C 7,2 C 6,1 C 6,1 C 85 % 164 cb 138 cb 141 cb 1008,4 hPa 0,0 l/m 6,4 km/h (2 Bft) NW 315 0 min 0,000 mm 0,0 UV-I 90 W/m 6,2 C 7,8 C 11,3 km/h (2 Bft) 95,65 %
01.03.2024 14:48 8,6 C 8,9 C 7,2 C 6,1 C 6,1 C 85 % 161 cb 137 cb 141 cb 1008,5 hPa 0,0 l/m 6,4 km/h (2 Bft) NW 315 0 min 0,000 mm 0,0 UV-I 90 W/m 6,2 C 7,8 C 9,7 km/h (2 Bft) 95,65 %
01.03.2024 14:47 8,6 C 8,9 C 7,2 C 6,1 C 6,1 C 85 % 164 cb 140 cb 140 cb 1008,5 hPa 0,0 l/m 6,4 km/h (2 Bft) W-NW 292 0 min 0,000 mm 0,0 UV-I 83 W/m 6,2 C 7,8 C 12,9 km/h (3 Bft) 91,30 %
01.03.2024 14:46 8,6 C 8,9 C 7,2 C 6,1 C 6,1 C 85 % 176 cb 147 cb 150 cb 1008,5 hPa 0,0 l/m 4,8 km/h (1 Bft) W 270 0 min 0,000 mm 0,0 UV-I 77 W/m 6,2 C 8,2 C 6,4 km/h (2 Bft) 95,65 %
01.03.2024 14:45 8,6 C 8,9 C 7,2 C 6,1 C 6,1 C 85 % 169 cb 143 cb 143 cb 1008,5 hPa 0,0 l/m 4,8 km/h (1 Bft) NW 315 0 min 0,000 mm 0,0 UV-I 77 W/m 6,2 C 8,2 C 6,4 km/h (2 Bft) 91,30 %
01.03.2024 14:44 8,6 C 8,9 C 7,2 C 6,1 C 6,1 C 85 % 168 cb 142 cb 143 cb 1008,4 hPa 0,0 l/m 6,4 km/h (2 Bft) NW 315 0 min 0,000 mm 0,0 UV-I 77 W/m 6,2 C 7,8 C 11,3 km/h (2 Bft) 91,30 %
01.03.2024 14:43 8,7 C 8,9 C 7,2 C 6,1 C 6,1 C 85 % 176 cb 150 cb 151 cb 1008,4 hPa 0,0 l/m 4,8 km/h (1 Bft) NW 315 0 min 0,000 mm 0,0 UV-I 77 W/m 6,3 C 8,3 C 8,0 km/h (2 Bft) 100,00 %
01.03.2024 14:42 8,7 C 8,9 C 7,2 C 6,1 C 6,1 C 85 % 168 cb 143 cb 143 cb 1008,4 hPa 0,0 l/m 4,8 km/h (1 Bft) NW 315 0 min 0,000 mm 0,0 UV-I 77 W/m 6,3 C 8,3 C 8,0 km/h (2 Bft) 86,96 %
01.03.2024 14:41 8,7 C 8,9 C 7,2 C 6,1 C 6,1 C 85 % 168 cb 143 cb 143 cb 1008,4 hPa 0,0 l/m 6,4 km/h (2 Bft) NW 315 0 min 0,000 mm 0,0 UV-I 81 W/m 6,3 C 7,9 C 12,9 km/h (3 Bft) 91,30 %
01.03.2024 14:40 8,7 C 8,9 C 7,2 C 6,1 C 6,1 C 85 % 169 cb 144 cb 145 cb 1008,4 hPa 0,0 l/m 6,4 km/h (2 Bft) N-NW 337 0 min 0,000 mm 0,0 UV-I 81 W/m 6,3 C 7,9 C 8,0 km/h (2 Bft) 95,65 %
01.03.2024 14:39 8,7 C 9,4 C 7,2 C 6,1 C 6,1 C 85 % 172 cb 145 cb 146 cb 1008,4 hPa 0,0 l/m 6,4 km/h (2 Bft) NW 315 0 min 0,000 mm 0,0 UV-I 83 W/m 6,3 C 7,9 C 8,0 km/h (2 Bft) 95,65 %
01.03.2024 14:38 8,7 C 9,4 C 7,2 C 6,1 C 6,1 C 85 % 170 cb 145 cb 146 cb 1008,4 hPa 0,0 l/m 4,8 km/h (1 Bft) N-NW 337 0 min 0,000 mm 0,0 UV-I 84 W/m 6,3 C 8,3 C 8,0 km/h (2 Bft) 91,30 %
01.03.2024 14:37 8,7 C 9,4 C 7,2 C 6,1 C 6,1 C 85 % 167 cb 142 cb 143 cb 1008,4 hPa 0,0 l/m 3,2 km/h (1 Bft) NW 315 0 min 0,000 mm 0,0 UV-I 86 W/m 6,3 C 8,7 C 4,8 km/h (1 Bft) 100,00 %
01.03.2024 14:36 8,7 C 9,4 C 7,2 C 6,1 C 6,1 C 85 % 169 cb 145 cb 146 cb 1008,3 hPa 0,0 l/m 6,4 km/h (2 Bft) W-NW 292 0 min 0,000 mm 0,0 UV-I 91 W/m 6,3 C 7,9 C 9,7 km/h (2 Bft) 91,30 %
01.03.2024 14:35 8,7 C 9,4 C 7,2 C 6,1 C 6,1 C 85 % 167 cb 142 cb 143 cb 1008,3 hPa 0,0 l/m 3,2 km/h (1 Bft) W-NW 292 0 min 0,000 mm 0,0 UV-I 91 W/m 6,3 C 8,7 C 4,8 km/h (1 Bft) 95,65 %
01.03.2024 14:34 8,7 C 9,4 C 7,2 C 6,1 C 6,1 C 85 % 164 cb 141 cb 141 cb 1008,3 hPa 0,0 l/m 8,0 km/h (2 Bft) W-NW 292 0 min 0,000 mm 0,0 UV-I 91 W/m 6,3 C 7,5 C 12,9 km/h (3 Bft) 95,65 %
01.03.2024 14:33 8,7 C 9,4 C 7,2 C 6,1 C 6,1 C 85 % 164 cb 140 cb 142 cb 1008,3 hPa 0,0 l/m 11,3 km/h (2 Bft) W-NW 292 0 min 0,000 mm 0,0 UV-I 93 W/m 6,3 C 6,9 C 17,7 km/h (3 Bft) 91,30 %
01.03.2024 14:32 8,7 C 9,4 C 7,2 C 6,1 C 6,1 C 85 % 158 cb 135 cb 137 cb 1008,2 hPa 0,0 l/m 8,0 km/h (2 Bft) W-NW 292 0 min 0,000 mm 0,0 UV-I 95 W/m 6,3 C 7,5 C 11,3 km/h (2 Bft) 91,30 %
01.03.2024 14:31 8,7 C 9,4 C 7,2 C 6,1 C 6,1 C 85 % 166 cb 139 cb 141 cb 1008,3 hPa 0,0 l/m 4,8 km/h (1 Bft) NW 315 0 min 0,000 mm 0,0 UV-I 95 W/m 6,3 C 8,3 C 8,0 km/h (2 Bft) 91,30 %
01.03.2024 14:30 8,7 C 9,4 C 7,2 C 6,1 C 6,1 C 85 % 158 cb 134 cb 136 cb 1008,3 hPa 0,0 l/m 6,4 km/h (2 Bft) NW 315 0 min 0,000 mm 0,0 UV-I 95 W/m 6,3 C 7,9 C 9,7 km/h (2 Bft) 95,65 %
01.03.2024 14:29 8,7 C 9,4 C 7,2 C 6,1 C 6,1 C 85 % 167 cb 143 cb 142 cb 1008,3 hPa 0,0 l/m 6,4 km/h (2 Bft) W-NW 292 0 min 0,000 mm 0,0 UV-I 97 W/m 6,3 C 7,9 C 11,3 km/h (2 Bft) 86,96 %
01.03.2024 14:28 8,7 C 9,4 C 7,2 C 6,1 C 6,1 C 85 % 159 cb 136 cb 137 cb 1008,2 hPa 0,0 l/m 4,8 km/h (1 Bft) W-NW 292 0 min 0,000 mm 0,0 UV-I 98 W/m 6,3 C 8,3 C 6,4 km/h (2 Bft) 100,00 %
01.03.2024 14:27 8,7 C 9,4 C 7,2 C 6,1 C 6,1 C 85 % 169 cb 143 cb 142 cb 1008,3 hPa 0,0 l/m 4,8 km/h (1 Bft) W-NW 292 0 min 0,000 mm 0,0 UV-I 98 W/m 6,3 C 8,3 C 11,3 km/h (2 Bft) 86,96 %
01.03.2024 14:26 8,7 C 9,4 C 7,2 C 6,1 C 6,1 C 85 % 161 cb 138 cb 139 cb 1008,2 hPa 0,0 l/m 6,4 km/h (2 Bft) NW 315 0 min 0,000 mm 0,0 UV-I 98 W/m 6,3 C 7,9 C 8,0 km/h (2 Bft) 95,65 %
01.03.2024 14:25 8,7 C 9,4 C 7,2 C 6,1 C 6,1 C 85 % 163 cb 139 cb 139 cb 1008,2 hPa 0,0 l/m 8,0 km/h (2 Bft) NW 315 0 min 0,000 mm 0,0 UV-I 98 W/m 6,3 C 7,5 C 11,3 km/h (2 Bft) 86,96 %
01.03.2024 14:24 8,7 C 9,4 C 7,2 C 6,1 C 6,1 C 85 % 164 cb 140 cb 142 cb 1008,2 hPa 0,0 l/m 8,0 km/h (2 Bft) W-NW 292 0 min 0,000 mm 0,0 UV-I 102 W/m 6,3 C 7,5 C 12,9 km/h (3 Bft) 95,65 %
01.03.2024 14:23 8,7 C 9,4 C 7,2 C 6,1 C 6,1 C 85 % 168 cb 144 cb 145 cb 1008,3 hPa 0,0 l/m 11,3 km/h (2 Bft) NW 315 0 min 0,000 mm 0,0 UV-I 104 W/m 6,3 C 6,9 C 16,1 km/h (3 Bft) 91,30 %
01.03.2024 14:22 8,7 C 9,4 C 7,2 C 6,1 C 6,1 C 85 % 191 cb 161 cb 154 cb 1008,3 hPa 0,0 l/m 8,0 km/h (2 Bft) NW 315 0 min 0,000 mm 0,0 UV-I 105 W/m 6,3 C 7,5 C 14,5 km/h (3 Bft) 86,96 %
01.03.2024 14:21 8,7 C 9,4 C 7,2 C 6,1 C 6,1 C 85 % 191 cb 167 cb 174 cb 1008,2 hPa 0,0 l/m 4,8 km/h (1 Bft) NW 315 0 min 0,000 mm 0,0 UV-I 109 W/m 6,3 C 8,3 C 9,7 km/h (2 Bft) 95,65 %
01.03.2024 14:20 8,7 C 9,4 C 7,2 C 6,1 C 6,1 C 85 % 189 cb 167 cb 161 cb 1008,2 hPa 0,0 l/m 4,8 km/h (1 Bft) NW 315 0 min 0,000 mm 0,0 UV-I 113 W/m 6,3 C 8,3 C 6,4 km/h (2 Bft) 86,96 %
01.03.2024 14:19 8,7 C 9,4 C 7,2 C 6,1 C 6,1 C 85 % 200 cb 173 cb 172 cb 1008,2 hPa 0,0 l/m 8,0 km/h (2 Bft) W-NW 292 0 min 0,000 mm 0,0 UV-I 118 W/m 6,3 C 7,5 C 11,3 km/h (2 Bft) 95,65 %
01.03.2024 14:18 8,7 C 9,4 C 7,2 C 6,1 C 6,1 C 85 % 150 cb 129 cb 140 cb 1008,3 hPa 0,0 l/m 9,7 km/h (2 Bft) NW 315 0 min 0,000 mm 0,0 UV-I 118 W/m 6,3 C 7,1 C 12,9 km/h (3 Bft) 91,30 %
01.03.2024 14:17 8,7 C 9,4 C 7,2 C 6,1 C 6,1 C 85 % 150 cb 141 cb 140 cb 1008,3 hPa 0,0 l/m 9,7 km/h (2 Bft) NW 315 0 min 0,000 mm 0,0 UV-I 120 W/m 6,3 C 7,1 C 14,5 km/h (3 Bft) 95,65 %
01.03.2024 14:16 8,7 C 9,4 C 7,2 C 6,1 C 6,1 C 85 % 149 cb 115 cb 115 cb 1008,3 hPa 0,0 l/m 6,4 km/h (2 Bft) NW 315 0 min 0,000 mm 0,0 UV-I 118 W/m 6,3 C 7,9 C 8,0 km/h (2 Bft) 91,30 %
01.03.2024 14:15 8,6 C 9,4 C 7,2 C 6,1 C 6,1 C 85 % 132 cb 115 cb 115 cb 1008,2 hPa 0,0 l/m 8,0 km/h (2 Bft) NW 315 0 min 0,000 mm 0,0 UV-I 116 W/m 6,2 C 7,4 C 14,5 km/h (3 Bft) 95,65 %
01.03.2024 14:14 8,7 C 9,4 C 7,2 C 6,1 C 6,1 C 85 % 132 cb 116 cb 116 cb 1008,3 hPa 0,0 l/m 9,7 km/h (2 Bft) W-NW 292 0 min 0,000 mm 0,0 UV-I 114 W/m 6,3 C 7,1 C 16,1 km/h (3 Bft) 86,96 %
01.03.2024 14:13 8,6 C 8,9 C 7,2 C 6,1 C 6,1 C 85 % 127 cb 114 cb 117 cb 1008,3 hPa 0,0 l/m 9,7 km/h (2 Bft) NW 315 0 min 0,000 mm 0,0 UV-I 113 W/m 6,2 C 7,0 C 16,1 km/h (3 Bft) 95,65 %
01.03.2024 14:12 8,7 C 8,9 C 7,2 C 6,1 C 6,1 C 85 % 119 cb 104 cb 105 cb 1008,3 hPa 0,0 l/m 11,3 km/h (2 Bft) NW 315 0 min 0,000 mm 0,0 UV-I 107 W/m 6,3 C 6,9 C 16,1 km/h (3 Bft) 91,30 %
01.03.2024 14:11 8,7 C 8,9 C 7,2 C 6,1 C 6,1 C 85 % 119 cb 104 cb 104 cb 1008,4 hPa 0,0 l/m 11,3 km/h (2 Bft) NW 315 0 min 0,000 mm 0,0 UV-I 105 W/m 6,3 C 6,9 C 17,7 km/h (3 Bft) 91,30 %
01.03.2024 14:10 8,7 C 8,9 C 7,2 C 6,1 C 6,1 C 85 % 119 cb 103 cb 103 cb 1008,4 hPa 0,0 l/m 11,3 km/h (2 Bft) NW 315 0 min 0,000 mm 0,0 UV-I 107 W/m 6,3 C 6,9 C 17,7 km/h (3 Bft) 86,96 %
01.03.2024 14:09 8,7 C 8,9 C 7,2 C 6,1 C 6,1 C 85 % 124 cb 107 cb 108 cb 1008,3 hPa 0,0 l/m 8,0 km/h (2 Bft) NW 315 0 min 0,000 mm 0,0 UV-I 107 W/m 6,3 C 7,5 C 12,9 km/h (3 Bft) 91,30 %
01.03.2024 14:08 8,7 C 9,4 C 7,2 C 6,1 C 6,1 C 85 % 125 cb 109 cb 110 cb 1008,4 hPa 0,0 l/m 12,9 km/h (3 Bft) NW 315 0 min 0,000 mm 0,0 UV-I 105 W/m 6,3 C 6,6 C 19,3 km/h (3 Bft) 95,65 %
01.03.2024 14:07 8,7 C 8,9 C 7,2 C 6,1 C 6,1 C 85 % 126 cb 110 cb 111 cb 1008,4 hPa 0,0 l/m 11,3 km/h (2 Bft) W-NW 292 0 min 0,000 mm 0,0 UV-I 104 W/m 6,3 C 6,9 C 17,7 km/h (3 Bft) 86,96 %
01.03.2024 14:06 8,7 C 9,4 C 7,2 C 6,1 C 6,1 C 85 % 128 cb 112 cb 112 cb 1008,4 hPa 0,0 l/m 9,7 km/h (2 Bft) NW 315 0 min 0,000 mm 0,0 UV-I 102 W/m 6,3 C 7,1 C 14,5 km/h (3 Bft) 100,00 %
01.03.2024 14:05 8,8 C 9,4 C 7,2 C 6,1 C 6,1 C 85 % 198 cb 161 cb 131 cb 1008,3 hPa 0,0 l/m 12,9 km/h (3 Bft) NW 315 0 min 0,000 mm 0,0 UV-I 102 W/m 6,4 C 6,7 C 17,7 km/h (3 Bft) 86,96 %
01.03.2024 14:04 8,7 C 9,4 C 7,2 C 6,1 C 6,1 C 85 % 183 cb 152 cb 153 cb 1008,4 hPa 0,0 l/m 8,0 km/h (2 Bft) NW 315 0 min 0,000 mm 0,0 UV-I 105 W/m 6,3 C 7,5 C 16,1 km/h (3 Bft) 95,65 %
01.03.2024 14:03 8,7 C 9,4 C 7,2 C 6,1 C 6,1 C 85 % 156 cb 133 cb 134 cb 1008,4 hPa 0,0 l/m 8,0 km/h (2 Bft) NW 315 0 min 0,000 mm 0,0 UV-I 109 W/m 6,3 C 7,5 C 12,9 km/h (3 Bft) 91,30 %
01.03.2024 14:02 8,8 C 9,4 C 7,2 C 6,1 C 6,1 C 85 % 167 cb 144 cb 154 cb 1008,4 hPa 0,0 l/m 6,4 km/h (2 Bft) NW 315 0 min 0,000 mm 0,0 UV-I 113 W/m 6,4 C 8,0 C 11,3 km/h (2 Bft) 95,65 %
01.03.2024 14:01 8,8 C 9,4 C 7,2 C 6,1 C 6,1 C 85 % 168 cb 143 cb 144 cb 1008,4 hPa 0,0 l/m 9,7 km/h (2 Bft) NW 315 0 min 0,000 mm 0,0 UV-I 120 W/m 6,4 C 7,3 C 12,9 km/h (3 Bft) 86,96 %
01.03.2024 14:00 8,8 C 9,4 C 7,2 C 6,1 C 6,1 C 85 % 168 cb 153 cb 154 cb 1008,4 hPa 0,0 l/m 9,7 km/h (2 Bft) N 360 0 min 0,102 mm 0,0 UV-I 118 W/m 6,4 C 7,3 C 16,1 km/h (3 Bft) 95,65 %
01.03.2024 13:59 8,8 C 9,4 C 7,2 C 6,1 C 6,1 C 85 % 177 cb 153 cb 154 cb 1008,4 hPa 0,0 l/m 6,4 km/h (2 Bft) N-NW 337 0 min 0,000 mm 0,0 UV-I 114 W/m 6,4 C 8,0 C 11,3 km/h (2 Bft) 91,30 %
01.03.2024 13:58 8,8 C 9,4 C 7,2 C 6,1 C 6,1 C 85 % 162 cb 144 cb 144 cb 1008,4 hPa 0,0 l/m 8,0 km/h (2 Bft) NW 315 0 min 0,000 mm 0,0 UV-I 111 W/m 6,4 C 7,6 C 14,5 km/h (3 Bft) 91,30 %
01.03.2024 13:57 8,8 C 9,4 C 7,2 C 6,1 C 6,1 C 85 % 162 cb 140 cb 140 cb 1008,4 hPa 0,0 l/m 8,0 km/h (2 Bft) W-NW 292 0 min 0,000 mm 0,0 UV-I 109 W/m 6,4 C 7,6 C 12,9 km/h (3 Bft) 95,65 %
01.03.2024 13:56 8,8 C 9,4 C 7,2 C 6,1 C 6,1 C 85 % 161 cb 137 cb 138 cb 1008,4 hPa 0,0 l/m 8,0 km/h (2 Bft) W-NW 292 0 min 0,000 mm 0,0 UV-I 109 W/m 6,4 C 7,6 C 14,5 km/h (3 Bft) 91,30 %
01.03.2024 13:55 8,8 C 9,4 C 7,2 C 6,1 C 6,1 C 85 % 166 cb 162 cb 161 cb 1008,4 hPa 0,0 l/m 6,4 km/h (2 Bft) NW 315 0 min 0,000 mm 0,0 UV-I 114 W/m 6,4 C 8,0 C 9,7 km/h (2 Bft) 86,96 %
01.03.2024 13:54 8,8 C 9,4 C 7,2 C 6,1 C 6,1 C 85 % 189 cb 162 cb 161 cb 1008,4 hPa 0,0 l/m 9,7 km/h (2 Bft) N-NW 337 0 min 0,000 mm 0,0 UV-I 118 W/m 6,4 C 7,3 C 14,5 km/h (3 Bft) 86,96 %
01.03.2024 13:53 8,8 C 9,4 C 7,2 C 6,1 C 6,1 C 85 % 178 cb 149 cb 152 cb 1008,4 hPa 0,0 l/m 12,9 km/h (3 Bft) W-NW 292 0 min 0,000 mm 0,0 UV-I 121 W/m 6,4 C 6,7 C 16,1 km/h (3 Bft) 95,65 %
01.03.2024 13:52 8,8 C 9,4 C 7,2 C 6,1 C 6,1 C 85 % 181 cb 153 cb 153 cb 1008,4 hPa 0,0 l/m 12,9 km/h (3 Bft) W-NW 292 0 min 0,000 mm 0,0 UV-I 127 W/m 6,4 C 6,7 C 16,1 km/h (3 Bft) 86,96 %
01.03.2024 13:51 8,8 C 9,4 C 7,2 C 6,1 C 6,1 C 85 % 168 cb 152 cb 156 cb 1008,5 hPa 0,0 l/m 9,7 km/h (2 Bft) W 270 0 min 0,000 mm 0,0 UV-I 134 W/m 6,4 C 7,3 C 19,3 km/h (3 Bft) 100,00 %
01.03.2024 13:50 8,8 C 10,0 C 7,2 C 6,1 C 6,1 C 85 % 168 cb 143 cb 144 cb 1008,4 hPa 0,0 l/m 9,7 km/h (2 Bft) NW 315 0 min 0,000 mm 0,0 UV-I 141 W/m 6,4 C 7,3 C 16,1 km/h (3 Bft) 86,96 %
01.03.2024 13:49 8,8 C 10,0 C 7,2 C 6,1 C 6,1 C 85 % 164 cb 142 cb 150 cb 1008,4 hPa 0,0 l/m 4,8 km/h (1 Bft) NW 315 0 min 0,000 mm 0,0 UV-I 148 W/m 6,4 C 8,5 C 11,3 km/h (2 Bft) 91,30 %
01.03.2024 13:48 8,8 C 10,0 C 7,2 C 6,1 C 6,1 C 85 % 162 cb 137 cb 139 cb 1008,5 hPa 0,0 l/m 11,3 km/h (2 Bft) NW 315 1 min 0,000 mm 0,0 UV-I 158 W/m 6,4 C 7,0 C 14,5 km/h (3 Bft) 95,65 %
01.03.2024 13:47 8,8 C 10,0 C 7,2 C 6,1 C 6,1 C 85 % 170 cb 139 cb 141 cb 1008,5 hPa 0,0 l/m 4,8 km/h (1 Bft) W-NW 292 1 min 0,000 mm 0,0 UV-I 158 W/m 6,4 C 8,5 C 8,0 km/h (2 Bft) 95,65 %
01.03.2024 13:46 8,8 C 10,0 C 7,2 C 6,1 C 6,1 C 85 % 168 cb 143 cb 141 cb 1008,5 hPa 0,0 l/m 12,9 km/h (3 Bft) NW 315 1 min 0,000 mm 0,0 UV-I 156 W/m 6,4 C 6,7 C 17,7 km/h (3 Bft) 91,30 %
01.03.2024 13:45 8,8 C 10,0 C 7,2 C 6,1 C 6,1 C 85 % 163 cb 140 cb 138 cb 1008,5 hPa 0,0 l/m 9,7 km/h (2 Bft) NW 315 1 min 0,000 mm 0,0 UV-I 158 W/m 6,4 C 7,3 C 14,5 km/h (3 Bft) 100,00 %
01.03.2024 13:44 8,8 C 10,0 C 7,2 C 6,1 C 6,1 C 85 % 150 cb 130 cb 131 cb 1008,5 hPa 0,0 l/m 9,7 km/h (2 Bft) N 360 1 min 0,000 mm 0,0 UV-I 165 W/m 6,4 C 7,3 C 14,5 km/h (3 Bft) 91,30 %
01.03.2024 13:43 8,8 C 10,0 C 7,2 C 6,1 C 6,1 C 85 % 153 cb 130 cb 137 cb 1008,5 hPa 0,0 l/m 6,4 km/h (2 Bft) NW 315 1 min 0,000 mm 0,0 UV-I 178 W/m 6,4 C 8,0 C 8,0 km/h (2 Bft) 91,30 %
01.03.2024 13:42 8,8 C 10,0 C 7,2 C 6,1 C 6,1 C 85 % 159 cb 135 cb 136 cb 1008,5 hPa 0,0 l/m 9,7 km/h (2 Bft) N-NW 337 1 min 0,000 mm 0,0 UV-I 179 W/m 6,4 C 7,3 C 12,9 km/h (3 Bft) 95,65 %
01.03.2024 13:41 8,8 C 9,4 C 7,2 C 6,1 C 6,1 C 85 % 156 cb 135 cb 134 cb 1008,5 hPa 0,0 l/m 11,3 km/h (2 Bft) NW 315 1 min 0,000 mm 0,0 UV-I 176 W/m 6,4 C 7,0 C 14,5 km/h (3 Bft) 95,65 %
01.03.2024 13:40 8,8 C 9,4 C 7,2 C 6,1 C 6,1 C 85 % 161 cb 138 cb 138 cb 1008,5 hPa 0,0 l/m 8,0 km/h (2 Bft) W-NW 292 1 min 0,000 mm 0,0 UV-I 171 W/m 6,4 C 7,6 C 14,5 km/h (3 Bft) 86,96 %
01.03.2024 13:39 8,8 C 10,0 C 7,2 C 6,1 C 6,1 C 85 % 161 cb 139 cb 140 cb 1008,6 hPa 0,0 l/m 9,7 km/h (2 Bft) NW 315 1 min 0,000 mm 0,0 UV-I 165 W/m 6,4 C 7,3 C 16,1 km/h (3 Bft) 95,65 %
01.03.2024 13:38 8,8 C 10,0 C 7,2 C 6,1 C 6,1 C 85 % 163 cb 139 cb 146 cb 1008,5 hPa 0,0 l/m 9,7 km/h (2 Bft) N 360 1 min 0,000 mm 0,0 UV-I 163 W/m 6,4 C 7,3 C 16,1 km/h (3 Bft) 95,65 %
01.03.2024 13:37 8,8 C 10,0 C 7,2 C 6,1 C 6,1 C 85 % 168 cb 142 cb 146 cb 1008,6 hPa 0,0 l/m 9,7 km/h (2 Bft) NW 315 1 min 0,000 mm 0,0 UV-I 171 W/m 6,4 C 7,3 C 16,1 km/h (3 Bft) 86,96 %
01.03.2024 13:36 8,8 C 10,0 C 7,2 C 6,1 C 6,1 C 85 % 167 cb 149 cb 148 cb 1008,5 hPa 0,0 l/m 11,3 km/h (2 Bft) N-NW 337 1 min 0,000 mm 0,0 UV-I 176 W/m 6,4 C 7,0 C 16,1 km/h (3 Bft) 91,30 %
01.03.2024 13:35 8,8 C 10,0 C 7,2 C 6,1 C 6,1 C 85 % 154 cb 133 cb 133 cb 1008,4 hPa 0,0 l/m 12,9 km/h (3 Bft) N-NW 337 1 min 0,000 mm 0,0 UV-I 181 W/m 6,4 C 6,7 C 17,7 km/h (3 Bft) 95,65 %
01.03.2024 13:34 8,8 C 10,0 C 7,2 C 6,1 C 6,1 C 85 % 154 cb 133 cb 133 cb 1008,5 hPa 0,0 l/m 12,9 km/h (3 Bft) NW 315 1 min 0,000 mm 0,0 UV-I 185 W/m 6,4 C 6,7 C 17,7 km/h (3 Bft) 86,96 %
01.03.2024 13:33 8,8 C 10,0 C 7,2 C 6,1 C 6,1 C 85 % 157 cb 133 cb 134 cb 1008,5 hPa 0,0 l/m 11,3 km/h (2 Bft) NW 315 1 min 0,000 mm 0,0 UV-I 183 W/m 6,4 C 7,0 C 17,7 km/h (3 Bft) 91,30 %
01.03.2024 13:32 8,8 C 10,0 C 7,2 C 6,1 C 6,1 C 85 % 154 cb 130 cb 132 cb 1008,4 hPa 0,0 l/m 8,0 km/h (2 Bft) N-NW 337 1 min 0,000 mm 0,0 UV-I 181 W/m 6,4 C 7,6 C 14,5 km/h (3 Bft) 100,00 %
01.03.2024 13:31 8,8 C 10,0 C 7,2 C 6,1 C 6,1 C 85 % 157 cb 134 cb 135 cb 1008,5 hPa 0,0 l/m 11,3 km/h (2 Bft) NW 315 1 min 0,000 mm 0,0 UV-I 179 W/m 6,4 C 7,0 C 16,1 km/h (3 Bft) 91,30 %
01.03.2024 13:30 8,9 C 10,0 C 7,2 C 6,1 C 6,1 C 85 % 157 cb 133 cb 136 cb 1008,4 hPa 0,0 l/m 11,3 km/h (2 Bft) NW 315 1 min 0,000 mm 0,0 UV-I 176 W/m 6,5 C 7,1 C 17,7 km/h (3 Bft) 91,30 %
01.03.2024 13:29 8,9 C 10,0 C 7,2 C 6,1 C 6,1 C 85 % 159 cb 137 cb 137 cb 1008,5 hPa 0,0 l/m 9,7 km/h (2 Bft) NW 315 1 min 0,000 mm 0,0 UV-I 174 W/m 6,5 C 7,4 C 16,1 km/h (3 Bft) 95,65 %
01.03.2024 13:28 8,9 C 10,0 C 7,2 C 6,1 C 6,1 C 85 % 158 cb 133 cb 137 cb 1008,5 hPa 0,0 l/m 8,0 km/h (2 Bft) N-NW 337 1 min 0,000 mm 0,0 UV-I 172 W/m 6,5 C 7,7 C 14,5 km/h (3 Bft) 95,65 %
01.03.2024 13:27 8,8 C 10,0 C 7,2 C 6,1 C 6,1 C 85 % 168 cb 137 cb 138 cb 1008,6 hPa 0,0 l/m 8,0 km/h (2 Bft) N-NW 337 1 min 0,000 mm 0,0 UV-I 172 W/m 6,4 C 7,6 C 12,9 km/h (3 Bft) 82,61 %
01.03.2024 13:26 8,9 C 10,0 C 7,2 C 6,1 C 6,1 C 85 % 160 cb 135 cb 136 cb 1008,6 hPa 0,0 l/m 4,8 km/h (1 Bft) NW 315 1 min 0,000 mm 0,0 UV-I 179 W/m 6,5 C 8,6 C 12,9 km/h (3 Bft) 100,00 %
01.03.2024 13:25 8,9 C 10,0 C 7,2 C 6,1 C 6,1 C 85 % 164 cb 139 cb 140 cb 1008,5 hPa 0,0 l/m 4,8 km/h (1 Bft) N 360 1 min 0,000 mm 0,0 UV-I 185 W/m 6,5 C 8,6 C 9,7 km/h (2 Bft) 86,96 %
01.03.2024 13:24 8,8 C 10,0 C 7,2 C 6,1 C 6,1 C 85 % 183 cb 153 cb 155 cb 1008,5 hPa 0,0 l/m 3,2 km/h (1 Bft) NW 315 1 min 0,000 mm 0,5 UV-I 188 W/m 6,4 C 8,8 C 6,4 km/h (2 Bft) 91,30 %
01.03.2024 13:23 8,8 C 10,0 C 7,2 C 6,1 C 6,1 C 85 % 183 cb 153 cb 153 cb 1008,6 hPa 0,0 l/m 6,4 km/h (2 Bft) NW 315 1 min 0,000 mm 0,5 UV-I 193 W/m 6,4 C 8,0 C 11,3 km/h (2 Bft) 91,30 %
01.03.2024 13:22 8,8 C 10,0 C 7,2 C 6,1 C 6,1 C 85 % 182 cb 151 cb 153 cb 1008,6 hPa 0,0 l/m 4,8 km/h (1 Bft) N-NW 337 1 min 0,000 mm 0,5 UV-I 197 W/m 6,4 C 8,5 C 6,4 km/h (2 Bft) 86,96 %
01.03.2024 13:21 8,8 C 10,0 C 7,2 C 6,1 C 6,1 C 85 % 200 cb 175 cb 172 cb 1008,5 hPa 0,0 l/m 8,0 km/h (2 Bft) W-NW 292 1 min 0,000 mm 0,5 UV-I 199 W/m 6,4 C 7,6 C 14,5 km/h (3 Bft) 95,65 %
01.03.2024 13:20 8,8 C 10,0 C 7,2 C 6,1 C 6,1 C 85 % 200 cb 179 cb 172 cb 1008,6 hPa 0,0 l/m 8,0 km/h (2 Bft) NW 315 1 min 0,000 mm 0,5 UV-I 202 W/m 6,4 C 7,6 C 14,5 km/h (3 Bft) 95,65 %
01.03.2024 13:19 8,8 C 10,0 C 7,2 C 6,1 C 6,1 C 85 % 168 cb 144 cb 145 cb 1008,5 hPa 0,0 l/m 12,9 km/h (3 Bft) NW 315 1 min 0,000 mm 0,5 UV-I 200 W/m 6,4 C 6,7 C 20,9 km/h (4 Bft) 95,65 %
01.03.2024 13:18 8,8 C 10,0 C 7,2 C 6,1 C 6,1 C 85 % 168 cb 139 cb 142 cb 1008,6 hPa 0,0 l/m 6,4 km/h (2 Bft) NW 315 1 min 0,000 mm 0,5 UV-I 199 W/m 6,4 C 8,0 C 9,7 km/h (2 Bft) 47,83 %
01.03.2024 13:17 8,8 C 10,0 C 7,2 C 6,1 C 6,1 C 85 % 153 cb 132 cb 142 cb 1008,5 hPa 0,0 l/m 8,0 km/h (2 Bft) N-NW 337 1 min 0,000 mm 0,5 UV-I 199 W/m 6,4 C 7,6 C 8,0 km/h (2 Bft) 4,35 %
01.03.2024 13:16 8,9 C 10,0 C 7,2 C 6,1 C 6,1 C 85 % 153 cb 132 cb 142 cb 1008,6 hPa 0,0 l/m 14,5 km/h (3 Bft) NW 315 1 min 0,000 mm 0,5 UV-I 199 W/m 6,5 C 6,6 C 20,9 km/h (4 Bft) 91,30 %
01.03.2024 13:15 8,8 C 10,0 C 7,2 C 6,1 C 6,1 C 85 % 153 cb 132 cb 137 cb 1008,6 hPa 0,0 l/m 11,3 km/h (2 Bft) NW 315 1 min 0,000 mm 0,5 UV-I 195 W/m 6,4 C 7,0 C 14,5 km/h (3 Bft) 86,96 %
01.03.2024 13:14 8,8 C 10,0 C 7,2 C 6,1 C 6,1 C 85 % 150 cb 129 cb 129 cb 1008,5 hPa 0,0 l/m 11,3 km/h (2 Bft) NW 315 1 min 0,000 mm 0,5 UV-I 192 W/m 6,4 C 7,0 C 19,3 km/h (3 Bft) 95,65 %
01.03.2024 13:13 8,9 C 10,6 C 7,2 C 6,1 C 6,1 C 85 % 152 cb 130 cb 132 cb 1008,6 hPa 0,0 l/m 9,7 km/h (2 Bft) N 360 1 min 0,000 mm 0,5 UV-I 195 W/m 6,5 C 7,4 C 20,9 km/h (4 Bft) 95,65 %
01.03.2024 13:12 8,8 C 10,6 C 7,2 C 6,1 C 6,1 C 85 % 153 cb 132 cb 129 cb 1008,6 hPa 0,0 l/m 11,3 km/h (2 Bft) NW 315 1 min 0,000 mm 0,5 UV-I 207 W/m 6,4 C 7,0 C 17,7 km/h (3 Bft) 91,30 %
01.03.2024 13:11 8,8 C 10,6 C 7,2 C 6,1 C 6,1 C 85 % 152 cb 125 cb 126 cb 1008,6 hPa 0,0 l/m 8,0 km/h (2 Bft) N-NW 337 1 min 0,000 mm 0,5 UV-I 207 W/m 6,4 C 7,6 C 9,7 km/h (2 Bft) 100,00 %
01.03.2024 13:10 8,8 C 10,6 C 7,2 C 6,1 C 6,1 C 85 % 142 cb 123 cb 124 cb 1008,5 hPa 0,0 l/m 8,0 km/h (2 Bft) N-NW 337 1 min 0,000 mm 0,5 UV-I 213 W/m 6,4 C 7,6 C 12,9 km/h (3 Bft) 86,96 %
01.03.2024 13:09 8,8 C 10,6 C 7,2 C 6,1 C 6,1 C 85 % 147 cb 126 cb 126 cb 1008,6 hPa 0,0 l/m 6,4 km/h (2 Bft) N-NW 337 1 min 0,000 mm 0,6 UV-I 221 W/m 6,4 C 8,0 C 8,0 km/h (2 Bft) 95,65 %
01.03.2024 13:08 8,8 C 10,6 C 7,2 C 6,1 C 6,1 C 85 % 148 cb 126 cb 128 cb 1008,5 hPa 0,0 l/m 6,4 km/h (2 Bft) NW 315 1 min 0,000 mm 0,6 UV-I 243 W/m 6,4 C 8,0 C 9,7 km/h (2 Bft) 95,65 %
01.03.2024 13:07 8,8 C 10,0 C 7,2 C 6,1 C 6,1 C 85 % 151 cb 129 cb 129 cb 1008,5 hPa 0,0 l/m 14,5 km/h (3 Bft) NW 315 1 min 0,000 mm 0,6 UV-I 246 W/m 6,4 C 6,5 C 19,3 km/h (3 Bft) 91,30 %
01.03.2024 13:06 8,8 C 10,0 C 7,2 C 6,1 C 6,1 C 85 % 153 cb 129 cb 129 cb 1008,6 hPa 0,0 l/m 9,7 km/h (2 Bft) NW 315 1 min 0,000 mm 0,6 UV-I 248 W/m 6,4 C 7,3 C 20,9 km/h (4 Bft) 95,65 %
01.03.2024 13:05 8,8 C 10,6 C 7,2 C 6,1 C 6,1 C 85 % 147 cb 125 cb 126 cb 1008,5 hPa 0,0 l/m 11,3 km/h (2 Bft) NW 315 1 min 0,000 mm 0,6 UV-I 250 W/m 6,4 C 7,0 C 16,1 km/h (3 Bft) 95,65 %
01.03.2024 13:04 8,8 C 10,6 C 7,2 C 6,1 C 6,1 C 85 % 147 cb 126 cb 127 cb 1008,5 hPa 0,0 l/m 11,3 km/h (2 Bft) NW 315 1 min 0,000 mm 0,6 UV-I 251 W/m 6,4 C 7,0 C 19,3 km/h (3 Bft) 95,65 %
01.03.2024 13:03 8,8 C 10,6 C 7,2 C 6,1 C 6,1 C 85 % 147 cb 125 cb 126 cb 1008,6 hPa 0,0 l/m 12,9 km/h (3 Bft) N-NW 337 1 min 0,000 mm 0,6 UV-I 251 W/m 6,4 C 6,7 C 19,3 km/h (3 Bft) 91,30 %
01.03.2024 13:02 8,8 C 10,6 C 7,2 C 6,1 C 6,1 C 85 % 147 cb 126 cb 125 cb 1008,6 hPa 0,0 l/m 12,9 km/h (3 Bft) N 360 1 min 0,000 mm 0,6 UV-I 255 W/m 6,4 C 6,7 C 17,7 km/h (3 Bft) 100,00 %
01.03.2024 13:01 8,8 C 10,6 C 7,2 C 6,1 C 6,1 C 85 % 145 cb 125 cb 125 cb 1008,6 hPa 0,0 l/m 8,0 km/h (2 Bft) NW 315 1 min 0,000 mm 0,6 UV-I 257 W/m 6,4 C 7,6 C 16,1 km/h (3 Bft) 91,30 %
01.03.2024 13:00 8,8 C 10,6 C 7,2 C 6,1 C 6,1 C 85 % 144 cb 123 cb 124 cb 1008,6 hPa 0,0 l/m 9,7 km/h (2 Bft) N-NW 337 1 min 0,152 mm 0,6 UV-I 257 W/m 6,4 C 7,3 C 14,5 km/h (3 Bft) 95,65 %
01.03.2024 12:59 8,8 C 10,6 C 7,2 C 6,1 C 6,1 C 85 % 144 cb 123 cb 124 cb 1008,6 hPa 0,0 l/m 14,5 km/h (3 Bft) NW 315 1 min 0,000 mm 0,6 UV-I 257 W/m 6,4 C 6,5 C 22,5 km/h (4 Bft) 95,65 %
01.03.2024 12:58 8,8 C 10,6 C 7,2 C 6,1 C 6,1 C 85 % 148 cb 125 cb 125 cb 1008,6 hPa 0,0 l/m 9,7 km/h (2 Bft) NW 315 1 min 0,000 mm 0,6 UV-I 255 W/m 6,4 C 7,3 C 16,1 km/h (3 Bft) 95,65 %
01.03.2024 12:57 8,8 C 10,6 C 7,2 C 6,1 C 6,1 C 85 % 148 cb 129 cb 129 cb 1008,5 hPa 0,0 l/m 9,7 km/h (2 Bft) NW 315 1 min 0,000 mm 0,6 UV-I 251 W/m 6,4 C 7,3 C 12,9 km/h (3 Bft) 91,30 %
01.03.2024 12:56 8,8 C 10,0 C 7,2 C 6,1 C 6,1 C 85 % 149 cb 129 cb 124 cb 1008,5 hPa 0,0 l/m 11,3 km/h (2 Bft) NW 315 1 min 0,000 mm 0,6 UV-I 250 W/m 6,4 C 7,0 C 14,5 km/h (3 Bft) 91,30 %
01.03.2024 12:55 8,8 C 10,0 C 7,2 C 6,1 C 6,1 C 84 % 144 cb 124 cb 124 cb 1008,6 hPa 0,0 l/m 12,9 km/h (3 Bft) NW 315 1 min 0,000 mm 0,6 UV-I 248 W/m 6,2 C 6,7 C 14,5 km/h (3 Bft) 91,30 %
01.03.2024 12:54 8,8 C 10,0 C 7,2 C 6,1 C 6,1 C 85 % 150 cb 128 cb 127 cb 1008,6 hPa 0,0 l/m 11,3 km/h (2 Bft) NW 315 1 min 0,000 mm 0,6 UV-I 246 W/m 6,4 C 7,0 C 17,7 km/h (3 Bft) 95,65 %
01.03.2024 12:53 8,8 C 10,6 C 7,2 C 6,1 C 6,1 C 85 % 141 cb 121 cb 121 cb 1008,6 hPa 0,0 l/m 9,7 km/h (2 Bft) N-NW 337 1 min 0,000 mm 0,6 UV-I 244 W/m 6,4 C 7,3 C 16,1 km/h (3 Bft) 91,30 %
01.03.2024 12:52 8,8 C 10,6 C 7,2 C 6,1 C 6,1 C 85 % 144 cb 123 cb 123 cb 1008,5 hPa 0,0 l/m 14,5 km/h (3 Bft) N-NW 337 1 min 0,000 mm 0,6 UV-I 246 W/m 6,4 C 6,5 C 22,5 km/h (4 Bft) 100,00 %
01.03.2024 12:51 8,8 C 10,6 C 7,2 C 6,1 C 6,1 C 85 % 135 cb 117 cb 117 cb 1008,6 hPa 0,0 l/m 9,7 km/h (2 Bft) N 360 1 min 0,000 mm 0,6 UV-I 246 W/m 6,4 C 7,3 C 16,1 km/h (3 Bft) 91,30 %
01.03.2024 12:50 8,8 C 10,6 C 7,2 C 6,1 C 6,1 C 85 % 135 cb 117 cb 117 cb 1008,6 hPa 0,0 l/m 12,9 km/h (3 Bft) N-NW 337 1 min 0,000 mm 0,6 UV-I 246 W/m 6,4 C 6,7 C 20,9 km/h (4 Bft) 86,96 %
01.03.2024 12:49 8,9 C 10,6 C 7,2 C 6,1 C 6,1 C 85 % 133 cb 115 cb 116 cb 1008,5 hPa 0,0 l/m 12,9 km/h (3 Bft) N-NW 337 1 min 0,000 mm 0,6 UV-I 248 W/m 6,5 C 6,8 C 17,7 km/h (3 Bft) 100,00 %
01.03.2024 12:48 8,9 C 10,6 C 7,2 C 6,1 C 6,1 C 85 % 135 cb 117 cb 116 cb 1008,5 hPa 0,0 l/m 12,9 km/h (3 Bft) N-NW 337 1 min 0,000 mm 0,6 UV-I 250 W/m 6,5 C 6,8 C 17,7 km/h (3 Bft) 86,96 %
01.03.2024 12:47 8,8 C 10,6 C 7,2 C 6,1 C 6,1 C 85 % 132 cb 115 cb 115 cb 1008,6 hPa 0,0 l/m 11,3 km/h (2 Bft) NW 315 1 min 0,000 mm 0,6 UV-I 251 W/m 6,4 C 7,0 C 17,7 km/h (3 Bft) 95,65 %
01.03.2024 12:46 8,9 C 10,6 C 7,2 C 6,1 C 6,1 C 85 % 132 cb 115 cb 114 cb 1008,5 hPa 0,0 l/m 11,3 km/h (2 Bft) NW 315 1 min 0,000 mm 0,6 UV-I 253 W/m 6,5 C 7,1 C 16,1 km/h (3 Bft) 86,96 %
01.03.2024 12:45 8,8 C 10,6 C 7,2 C 6,1 C 6,1 C 85 % 134 cb 116 cb 116 cb 1008,5 hPa 0,0 l/m 11,3 km/h (2 Bft) NW 315 1 min 0,000 mm 0,7 UV-I 258 W/m 6,4 C 7,0 C 19,3 km/h (3 Bft) 95,65 %
01.03.2024 12:44 8,8 C 10,6 C 7,2 C 6,1 C 6,1 C 85 % 135 cb 116 cb 117 cb 1008,6 hPa 0,0 l/m 11,3 km/h (2 Bft) NW 315 1 min 0,000 mm 0,7 UV-I 262 W/m 6,4 C 7,0 C 16,1 km/h (3 Bft) 86,96 %
01.03.2024 12:43 8,8 C 10,6 C 7,2 C 6,1 C 6,1 C 85 % 132 cb 115 cb 114 cb 1008,5 hPa 0,0 l/m 11,3 km/h (2 Bft) NW 315 1 min 0,000 mm 0,7 UV-I 267 W/m 6,4 C 7,0 C 20,9 km/h (4 Bft) 100,00 %
01.03.2024 12:42 8,8 C 10,6 C 7,2 C 6,1 C 6,1 C 85 % 131 cb 113 cb 115 cb 1008,5 hPa 0,0 l/m 12,9 km/h (3 Bft) N-NW 337 1 min 0,000 mm 0,7 UV-I 271 W/m 6,4 C 6,7 C 19,3 km/h (3 Bft) 91,30 %
01.03.2024 12:41 8,9 C 10,6 C 7,2 C 6,1 C 6,1 C 85 % 131 cb 113 cb 113 cb 1008,4 hPa 0,0 l/m 16,1 km/h (3 Bft) N-NW 337 1 min 0,000 mm 0,7 UV-I 274 W/m 6,5 C 6,4 C 22,5 km/h (4 Bft) 95,65 %
01.03.2024 12:40 8,9 C 10,6 C 7,2 C 6,1 C 6,1 C 85 % 132 cb 113 cb 113 cb 1008,6 hPa 0,0 l/m 12,9 km/h (3 Bft) N 360 1 min 0,000 mm 0,7 UV-I 278 W/m 6,5 C 6,8 C 17,7 km/h (3 Bft) 95,65 %
01.03.2024 12:39 8,9 C 10,6 C 7,2 C 6,1 C 6,1 C 85 % 128 cb 112 cb 113 cb 1008,6 hPa 0,0 l/m 16,1 km/h (3 Bft) N-NW 337 1 min 0,000 mm 0,7 UV-I 283 W/m 6,5 C 6,4 C 22,5 km/h (4 Bft) 95,65 %
01.03.2024 12:38 8,9 C 10,6 C 7,2 C 6,1 C 6,1 C 85 % 132 cb 115 cb 117 cb 1008,5 hPa 0,0 l/m 9,7 km/h (2 Bft) W-NW 292 1 min 0,000 mm 0,7 UV-I 283 W/m 6,5 C 7,4 C 19,3 km/h (3 Bft) 91,30 %
01.03.2024 12:37 8,9 C 10,6 C 7,2 C 6,1 C 6,1 C 85 % 137 cb 115 cb 116 cb 1008,5 hPa 0,0 l/m 8,0 km/h (2 Bft) N-NW 337 1 min 0,000 mm 0,7 UV-I 283 W/m 6,5 C 7,7 C 12,9 km/h (3 Bft) 100,00 %
01.03.2024 12:36 8,9 C 10,6 C 7,2 C 6,1 C 6,1 C 85 % 137 cb 117 cb 116 cb 1008,5 hPa 0,0 l/m 14,5 km/h (3 Bft) N-NW 337 1 min 0,000 mm 0,7 UV-I 283 W/m 6,5 C 6,6 C 19,3 km/h (3 Bft) 91,30 %
01.03.2024 12:35 8,9 C 10,6 C 7,2 C 6,1 C 6,1 C 85 % 136 cb 117 cb 118 cb 1008,6 hPa 0,0 l/m 12,9 km/h (3 Bft) N-NW 337 1 min 0,000 mm 0,7 UV-I 279 W/m 6,5 C 6,8 C 16,1 km/h (3 Bft) 91,30 %
01.03.2024 12:34 8,9 C 10,6 C 7,2 C 6,1 C 6,1 C 85 % 138 cb 118 cb 118 cb 1008,6 hPa 0,0 l/m 16,1 km/h (3 Bft) N-NW 337 1 min 0,000 mm 0,7 UV-I 279 W/m 6,5 C 6,4 C 20,9 km/h (4 Bft) 95,65 %
01.03.2024 12:33 8,8 C 10,6 C 7,2 C 6,1 C 6,1 C 85 % 135 cb 117 cb 117 cb 1008,6 hPa 0,0 l/m 9,7 km/h (2 Bft) N-NW 337 1 min 0,000 mm 0,7 UV-I 281 W/m 6,4 C 7,3 C 17,7 km/h (3 Bft) 91,30 %
01.03.2024 12:32 8,8 C 10,6 C 7,2 C 6,1 C 6,1 C 85 % 137 cb 117 cb 117 cb 1008,6 hPa 0,0 l/m 6,4 km/h (2 Bft) NW 315 1 min 0,000 mm 0,7 UV-I 281 W/m 6,4 C 8,0 C 14,5 km/h (3 Bft) 91,30 %
01.03.2024 12:31 8,8 C 10,6 C 7,2 C 6,1 C 6,1 C 85 % 135 cb 117 cb 119 cb 1008,5 hPa 0,0 l/m 12,9 km/h (3 Bft) NW 315 1 min 0,000 mm 0,7 UV-I 279 W/m 6,4 C 6,7 C 19,3 km/h (3 Bft) 95,65 %
01.03.2024 12:30 8,9 C 10,6 C 7,2 C 6,1 C 6,1 C 85 % 134 cb 117 cb 118 cb 1008,6 hPa 0,0 l/m 12,9 km/h (3 Bft) NW 315 1 min 0,000 mm 0,7 UV-I 278 W/m 6,5 C 6,8 C 17,7 km/h (3 Bft) 95,65 %
01.03.2024 12:29 8,9 C 10,6 C 7,2 C 6,1 C 6,1 C 85 % 139 cb 119 cb 118 cb 1008,6 hPa 0,0 l/m 12,9 km/h (3 Bft) NW 315 1 min 0,000 mm 0,7 UV-I 278 W/m 6,5 C 6,8 C 20,9 km/h (4 Bft) 91,30 %
01.03.2024 12:28 8,9 C 10,6 C 7,2 C 6,1 C 6,1 C 85 % 141 cb 120 cb 121 cb 1008,6 hPa 0,0 l/m 8,0 km/h (2 Bft) NW 315 1 min 0,000 mm 0,7 UV-I 276 W/m 6,5 C 7,7 C 12,9 km/h (3 Bft) 95,65 %
01.03.2024 12:27 8,8 C 10,6 C 7,2 C 6,1 C 6,1 C 85 % 138 cb 119 cb 119 cb 1008,6 hPa 0,0 l/m 9,7 km/h (2 Bft) N-NW 337 1 min 0,000 mm 0,7 UV-I 274 W/m 6,4 C 7,3 C 19,3 km/h (3 Bft) 91,30 %
01.03.2024 12:26 8,8 C 10,6 C 7,2 C 6,1 C 6,1 C 85 % 137 cb 118 cb 121 cb 1008,6 hPa 0,0 l/m 4,8 km/h (1 Bft) NW 315 1 min 0,000 mm 0,7 UV-I 271 W/m 6,4 C 8,5 C 6,4 km/h (2 Bft) 95,65 %
01.03.2024 12:25 8,8 C 10,6 C 7,2 C 6,1 C 6,1 C 85 % 137 cb 119 cb 119 cb 1008,6 hPa 0,0 l/m 8,0 km/h (2 Bft) NW 315 1 min 0,000 mm 0,7 UV-I 267 W/m 6,4 C 7,6 C 14,5 km/h (3 Bft) 95,65 %
01.03.2024 12:24 8,8 C 10,6 C 7,2 C 6,1 C 6,1 C 85 % 138 cb 119 cb 119 cb 1008,6 hPa 0,0 l/m 14,5 km/h (3 Bft) NW 315 1 min 0,000 mm 0,7 UV-I 267 W/m 6,4 C 6,5 C 22,5 km/h (4 Bft) 91,30 %
01.03.2024 12:23 8,8 C 10,6 C 7,2 C 6,1 C 6,1 C 85 % 138 cb 119 cb 119 cb 1008,6 hPa 0,0 l/m 8,0 km/h (2 Bft) NW 315 1 min 0,000 mm 0,7 UV-I 267 W/m 6,4 C 7,6 C 14,5 km/h (3 Bft) 91,30 %
01.03.2024 12:22 8,8 C 10,6 C 7,2 C 6,1 C 6,1 C 85 % 137 cb 119 cb 119 cb 1008,6 hPa 0,0 l/m 11,3 km/h (2 Bft) N-NW 337 1 min 0,000 mm 0,7 UV-I 264 W/m 6,4 C 7,0 C 17,7 km/h (3 Bft) 91,30 %
01.03.2024 12:21 8,8 C 10,6 C 7,2 C 6,1 C 6,1 C 85 % 137 cb 119 cb 121 cb 1008,6 hPa 0,0 l/m 12,9 km/h (3 Bft) N-NW 337 1 min 0,000 mm 0,7 UV-I 264 W/m 6,4 C 6,7 C 20,9 km/h (4 Bft) 86,96 %
01.03.2024 12:20 8,8 C 10,6 C 7,2 C 6,1 C 6,1 C 85 % 137 cb 118 cb 119 cb 1008,6 hPa 0,0 l/m 9,7 km/h (2 Bft) N-NW 337 1 min 0,000 mm 0,7 UV-I 265 W/m 6,4 C 7,3 C 17,7 km/h (3 Bft) 95,65 %
01.03.2024 12:19 8,8 C 10,6 C 7,2 C 6,1 C 6,1 C 85 % 136 cb 119 cb 120 cb 1008,6 hPa 0,0 l/m 9,7 km/h (2 Bft) N-NW 337 1 min 0,000 mm 0,7 UV-I 269 W/m 6,4 C 7,3 C 14,5 km/h (3 Bft) 95,65 %
01.03.2024 12:18 8,8 C 10,6 C 7,2 C 6,1 C 6,1 C 85 % 137 cb 119 cb 117 cb 1008,6 hPa 0,0 l/m 11,3 km/h (2 Bft) NW 315 1 min 0,000 mm 0,7 UV-I 272 W/m 6,4 C 7,0 C 17,7 km/h (3 Bft) 91,30 %
01.03.2024 12:17 8,7 C 10,6 C 7,2 C 6,1 C 6,1 C 85 % 139 cb 123 cb 121 cb 1008,6 hPa 0,0 l/m 12,9 km/h (3 Bft) NW 315 1 min 0,000 mm 0,7 UV-I 274 W/m 6,3 C 6,6 C 20,9 km/h (4 Bft) 95,65 %
01.03.2024 12:16 8,7 C 10,6 C 7,2 C 6,1 C 6,1 C 85 % 139 cb 120 cb 121 cb 1008,6 hPa 0,0 l/m 6,4 km/h (2 Bft) NW 315 1 min 0,000 mm 0,7 UV-I 278 W/m 6,3 C 7,9 C 8,0 km/h (2 Bft) 95,65 %
01.03.2024 12:15 8,7 C 10,0 C 7,2 C 6,1 C 6,1 C 85 % 139 cb 122 cb 122 cb 1008,6 hPa 0,0 l/m 9,7 km/h (2 Bft) NW 315 1 min 0,000 mm 0,7 UV-I 285 W/m 6,3 C 7,1 C 14,5 km/h (3 Bft) 95,65 %
01.03.2024 12:14 8,7 C 10,0 C 7,2 C 6,1 C 6,1 C 85 % 141 cb 122 cb 121 cb 1008,6 hPa 0,0 l/m 11,3 km/h (2 Bft) NW 315 1 min 0,000 mm 0,7 UV-I 285 W/m 6,3 C 6,9 C 19,3 km/h (3 Bft) 95,65 %
01.03.2024 12:13 8,7 C 10,0 C 7,2 C 6,1 C 6,1 C 85 % 200 cb 121 cb 121 cb 1008,6 hPa 0,0 l/m 9,7 km/h (2 Bft) NW 315 1 min 0,000 mm 0,7 UV-I 285 W/m 6,3 C 7,1 C 17,7 km/h (3 Bft) 100,00 %
01.03.2024 12:12 8,7 C 10,0 C 7,2 C 6,1 C 6,1 C 85 % 200 cb 122 cb 123 cb 1008,6 hPa 0,0 l/m 16,1 km/h (3 Bft) NW 315 1 min 0,000 mm 0,7 UV-I 281 W/m 6,3 C 6,2 C 24,1 km/h (4 Bft) 95,65 %
01.03.2024 12:11 8,7 C 10,0 C 7,2 C 6,1 C 6,1 C 85 % 200 cb 122 cb 122 cb 1008,6 hPa 0,0 l/m 12,9 km/h (3 Bft) N-NW 337 1 min 0,000 mm 0,7 UV-I 276 W/m 6,3 C 6,6 C 16,1 km/h (3 Bft) 95,65 %
01.03.2024 12:10 8,7 C 10,0 C 7,2 C 6,1 C 6,1 C 85 % 200 cb 120 cb 121 cb 1008,6 hPa 0,0 l/m 11,3 km/h (2 Bft) NW 315 1 min 0,000 mm 0,7 UV-I 271 W/m 6,3 C 6,9 C 17,7 km/h (3 Bft) 100,00 %
01.03.2024 12:09 8,7 C 10,0 C 7,2 C 6,1 C 6,1 C 85 % 200 cb 121 cb 122 cb 1008,6 hPa 0,0 l/m 12,9 km/h (3 Bft) N 360 1 min 0,000 mm 0,7 UV-I 264 W/m 6,3 C 6,6 C 20,9 km/h (4 Bft) 91,30 %
01.03.2024 12:08 8,8 C 9,4 C 7,2 C 6,1 C 6,1 C 85 % 200 cb 121 cb 121 cb 1008,6 hPa 0,0 l/m 14,5 km/h (3 Bft) N-NW 337 1 min 0,000 mm 0,7 UV-I 251 W/m 6,4 C 6,5 C 22,5 km/h (4 Bft) 95,65 %
01.03.2024 12:07 8,8 C 10,0 C 7,2 C 6,1 C 6,1 C 85 % 200 cb 119 cb 119 cb 1008,6 hPa 0,0 l/m 16,1 km/h (3 Bft) N-NW 337 1 min 0,000 mm 0,7 UV-I 248 W/m 6,4 C 6,3 C 24,1 km/h (4 Bft) 95,65 %
01.03.2024 12:06 8,8 C 10,0 C 7,2 C 6,1 C 6,1 C 85 % 200 cb 119 cb 120 cb 1008,7 hPa 0,0 l/m 11,3 km/h (2 Bft) N 360 1 min 0,000 mm 0,7 UV-I 246 W/m 6,4 C 7,0 C 16,1 km/h (3 Bft) 100,00 %
01.03.2024 12:05 8,8 C 10,0 C 7,2 C 6,1 C 6,1 C 85 % 200 cb 118 cb 121 cb 1008,6 hPa 0,0 l/m 12,9 km/h (3 Bft) N-NW 337 1 min 0,000 mm 0,7 UV-I 246 W/m 6,4 C 6,7 C 17,7 km/h (3 Bft) 95,65 %
01.03.2024 12:04 8,8 C 10,0 C 7,2 C 6,1 C 6,1 C 85 % 200 cb 119 cb 118 cb 1008,6 hPa 0,0 l/m 14,5 km/h (3 Bft) NW 315 1 min 0,000 mm 0,7 UV-I 246 W/m 6,4 C 6,5 C 17,7 km/h (3 Bft) 91,30 %
01.03.2024 12:03 8,8 C 10,0 C 7,2 C 5,6 C 6,1 C 85 % 200 cb 119 cb 123 cb 1008,7 hPa 0,0 l/m 11,3 km/h (2 Bft) N 360 1 min 0,000 mm 0,7 UV-I 250 W/m 6,4 C 7,0 C 19,3 km/h (3 Bft) 95,65 %
01.03.2024 12:02 8,8 C 10,0 C 7,2 C 5,6 C 6,1 C 85 % 200 cb 126 cb 131 cb 1008,7 hPa 0,0 l/m 12,9 km/h (3 Bft) N 360 1 min 0,000 mm 0,7 UV-I 253 W/m 6,4 C 6,7 C 17,7 km/h (3 Bft) 95,65 %
01.03.2024 12:01 8,8 C 10,6 C 7,2 C 5,6 C 6,1 C 85 % 200 cb 129 cb 130 cb 1008,8 hPa 0,0 l/m 14,5 km/h (3 Bft) NW 315 1 min 0,000 mm 0,7 UV-I 258 W/m 6,4 C 6,5 C 17,7 km/h (3 Bft) 95,65 %
01.03.2024 12:00 8,8 C 10,6 C 7,2 C 5,6 C 6,1 C 85 % 200 cb 129 cb 132 cb 1008,7 hPa 0,0 l/m 12,9 km/h (3 Bft) NW 315 1 min 0,203 mm 0,7 UV-I 264 W/m 6,4 C 6,7 C 19,3 km/h (3 Bft) 100,00 %
01.03.2024 11:59 8,8 C 10,6 C 7,2 C 5,6 C 6,1 C 85 % 200 cb 132 cb 136 cb 1008,7 hPa 0,0 l/m 9,7 km/h (2 Bft) NW 315 1 min 0,000 mm 0,7 UV-I 267 W/m 6,4 C 7,3 C 17,7 km/h (3 Bft) 95,65 %
01.03.2024 11:58 8,8 C 10,6 C 7,2 C 5,6 C 6,1 C 85 % 200 cb 137 cb 137 cb 1008,7 hPa 0,0 l/m 16,1 km/h (3 Bft) NW 315 1 min 0,000 mm 0,7 UV-I 272 W/m 6,4 C 6,3 C 19,3 km/h (3 Bft) 91,30 %
01.03.2024 11:57 8,8 C 10,6 C 7,2 C 5,6 C 6,1 C 85 % 200 cb 140 cb 145 cb 1008,7 hPa 0,0 l/m 11,3 km/h (2 Bft) NW 315 1 min 0,000 mm 0,7 UV-I 274 W/m 6,4 C 7,0 C 16,1 km/h (3 Bft) 100,00 %
01.03.2024 11:56 8,8 C 10,6 C 7,2 C 5,6 C 6,1 C 85 % 200 cb 139 cb 137 cb 1008,7 hPa 0,0 l/m 12,9 km/h (3 Bft) NW 315 1 min 0,000 mm 0,7 UV-I 276 W/m 6,4 C 6,7 C 20,9 km/h (4 Bft) 95,65 %
01.03.2024 11:55 8,8 C 10,6 C 7,2 C 5,6 C 6,1 C 85 % 200 cb 138 cb 139 cb 1008,7 hPa 0,0 l/m 12,9 km/h (3 Bft) NW 315 1 min 0,000 mm 0,8 UV-I 281 W/m 6,4 C 6,7 C 17,7 km/h (3 Bft) 95,65 %
01.03.2024 11:54 8,8 C 10,0 C 7,2 C 5,6 C 6,1 C 84 % 200 cb 138 cb 142 cb 1008,6 hPa 0,0 l/m 14,5 km/h (3 Bft) NW 315 1 min 0,000 mm 0,7 UV-I 281 W/m 6,2 C 6,5 C 19,3 km/h (3 Bft) 95,65 %
01.03.2024 11:53 8,8 C 10,6 C 7,2 C 5,6 C 6,1 C 84 % 200 cb 138 cb 137 cb 1008,7 hPa 0,0 l/m 11,3 km/h (2 Bft) NW 315 1 min 0,000 mm 0,7 UV-I 285 W/m 6,2 C 7,0 C 22,5 km/h (4 Bft) 91,30 %
01.03.2024 11:52 8,8 C 10,0 C 7,2 C 5,6 C 6,1 C 84 % 200 cb 126 cb 137 cb 1008,7 hPa 0,0 l/m 14,5 km/h (3 Bft) NW 315 1 min 0,000 mm 0,7 UV-I 276 W/m 6,2 C 6,5 C 19,3 km/h (3 Bft) 91,30 %
01.03.2024 11:51 8,8 C 10,0 C 7,2 C 5,6 C 6,1 C 84 % 200 cb 126 cb 128 cb 1008,7 hPa 0,0 l/m 11,3 km/h (2 Bft) NW 315 1 min 0,000 mm 0,7 UV-I 269 W/m 6,2 C 7,0 C 16,1 km/h (3 Bft) 100,00 %
01.03.2024 11:50 8,9 C 10,0 C 7,2 C 5,6 C 6,1 C 84 % 200 cb 128 cb 131 cb 1008,7 hPa 0,0 l/m 14,5 km/h (3 Bft) NW 315 1 min 0,000 mm 0,7 UV-I 264 W/m 6,3 C 6,6 C 19,3 km/h (3 Bft) 95,65 %
01.03.2024 11:49 8,9 C 10,0 C 7,2 C 5,6 C 6,1 C 84 % 200 cb 125 cb 128 cb 1008,8 hPa 0,0 l/m 14,5 km/h (3 Bft) N-NW 337 1 min 0,000 mm 0,7 UV-I 255 W/m 6,3 C 6,6 C 20,9 km/h (4 Bft) 95,65 %
01.03.2024 11:48 8,9 C 10,0 C 7,2 C 5,6 C 6,1 C 84 % 200 cb 126 cb 129 cb 1008,8 hPa 0,0 l/m 17,7 km/h (3 Bft) NW 315 1 min 0,000 mm 0,7 UV-I 250 W/m 6,3 C 6,2 C 24,1 km/h (4 Bft) 100,00 %
01.03.2024 11:47 8,9 C 10,0 C 7,2 C 5,6 C 6,1 C 85 % 200 cb 125 cb 128 cb 1008,7 hPa 0,0 l/m 9,7 km/h (2 Bft) NW 315 1 min 0,000 mm 0,7 UV-I 244 W/m 6,5 C 7,4 C 17,7 km/h (3 Bft) 95,65 %
01.03.2024 11:46 8,9 C 10,0 C 7,2 C 5,6 C 6,1 C 84 % 200 cb 126 cb 129 cb 1008,7 hPa 0,0 l/m 11,3 km/h (2 Bft) W-NW 292 1 min 0,000 mm 0,7 UV-I 251 W/m 6,3 C 7,1 C 19,3 km/h (3 Bft) 95,65 %
01.03.2024 11:45 8,9 C 10,0 C 7,2 C 5,6 C 6,1 C 84 % 200 cb 126 cb 128 cb 1008,7 hPa 0,0 l/m 11,3 km/h (2 Bft) NW 315 1 min 0,000 mm 0,7 UV-I 253 W/m 6,3 C 7,1 C 16,1 km/h (3 Bft) 100,00 %
01.03.2024 11:44 9,0 C 10,0 C 7,2 C 5,6 C 6,1 C 84 % 200 cb 128 cb 131 cb 1008,7 hPa 0,0 l/m 12,9 km/h (3 Bft) NW 315 1 min 0,000 mm 0,7 UV-I 271 W/m 6,4 C 7,0 C 22,5 km/h (4 Bft) 95,65 %
01.03.2024 11:43 9,0 C 10,0 C 7,2 C 5,6 C 6,1 C 84 % 200 cb 128 cb 130 cb 1008,7 hPa 0,0 l/m 16,1 km/h (3 Bft) NW 315 1 min 0,000 mm 0,7 UV-I 253 W/m 6,4 C 6,5 C 25,7 km/h (4 Bft) 95,65 %
01.03.2024 11:42 9,1 C 10,0 C 7,2 C 5,6 C 6,1 C 84 % 200 cb 127 cb 129 cb 1008,7 hPa 0,0 l/m 14,5 km/h (3 Bft) NW 315 1 min 0,000 mm 0,7 UV-I 239 W/m 6,5 C 6,9 C 25,7 km/h (4 Bft) 100,00 %
01.03.2024 11:41 9,1 C 10,6 C 7,2 C 5,6 C 6,1 C 84 % 200 cb 130 cb 133 cb 1008,7 hPa 0,0 l/m 14,5 km/h (3 Bft) NW 315 1 min 0,000 mm 0,7 UV-I 230 W/m 6,5 C 6,9 C 22,5 km/h (4 Bft) 95,65 %
01.03.2024 11:40 9,1 C 10,6 C 7,2 C 5,6 C 6,1 C 84 % 200 cb 138 cb 138 cb 1008,8 hPa 0,0 l/m 11,3 km/h (2 Bft) NW 315 1 min 0,000 mm 0,6 UV-I 225 W/m 6,5 C 7,3 C 19,3 km/h (3 Bft) 95,65 %
01.03.2024 11:39 9,1 C 10,6 C 7,2 C 5,6 C 6,1 C 84 % 200 cb 139 cb 142 cb 1008,8 hPa 0,0 l/m 8,0 km/h (2 Bft) W-NW 292 1 min 0,000 mm 0,6 UV-I 213 W/m 6,5 C 7,9 C 14,5 km/h (3 Bft) 100,00 %
01.03.2024 11:38 9,1 C 10,6 C 7,2 C 5,6 C 6,1 C 84 % 200 cb 134 cb 139 cb 1008,7 hPa 0,0 l/m 11,3 km/h (2 Bft) N-NW 337 1 min 0,000 mm 0,7 UV-I 216 W/m 6,5 C 7,3 C 19,3 km/h (3 Bft) 95,65 %
01.03.2024 11:37 9,1 C 10,6 C 7,2 C 5,6 C 6,1 C 84 % 158 cb 129 cb 133 cb 1008,7 hPa 0,0 l/m 14,5 km/h (3 Bft) N 360 1 min 0,000 mm 0,7 UV-I 225 W/m 6,5 C 6,9 C 19,3 km/h (3 Bft) 95,65 %
01.03.2024 11:36 9,1 C 10,6 C 7,2 C 5,6 C 6,1 C 84 % 163 cb 132 cb 200 cb 1008,8 hPa 0,0 l/m 12,9 km/h (3 Bft) N-NW 337 1 min 0,000 mm 0,7 UV-I 239 W/m 6,5 C 7,1 C 19,3 km/h (3 Bft) 100,00 %
01.03.2024 11:35 9,2 C 11,1 C 5,0 C 5,6 C 6,1 C 84 % 200 cb 200 cb 200 cb 1008,8 hPa 0,0 l/m 14,5 km/h (3 Bft) N-NW 337 1 min 0,000 mm 0,7 UV-I 253 W/m 6,6 C 7,0 C 22,5 km/h (4 Bft) 86,96 %
01.03.2024 11:34 9,2 C 11,1 C 5,0 C 5,6 C 6,1 C 84 % 200 cb 197 cb 191 cb 1008,8 hPa 0,0 l/m 12,9 km/h (3 Bft) N-NW 337 1 min 0,000 mm 0,7 UV-I 260 W/m 6,6 C 7,2 C 19,3 km/h (3 Bft) 95,65 %
01.03.2024 11:33 9,2 C 11,7 C 5,0 C 5,6 C 6,1 C 85 % 200 cb 193 cb 189 cb 1008,8 hPa 0,0 l/m 12,9 km/h (3 Bft) N 360 1 min 0,000 mm 0,8 UV-I 271 W/m 6,8 C 7,2 C 19,3 km/h (3 Bft) 95,65 %
01.03.2024 11:32 9,3 C 11,7 C 5,0 C 5,6 C 6,1 C 85 % 200 cb 193 cb 190 cb 1008,7 hPa 0,0 l/m 16,1 km/h (3 Bft) N 360 1 min 0,000 mm 0,8 UV-I 318 W/m 6,9 C 6,9 C 24,1 km/h (4 Bft) 91,30 %
01.03.2024 11:31 9,3 C 4,4 C 5,0 C 5,6 C 6,1 C 85 % 200 cb 194 cb 190 cb 1008,7 hPa 0,0 l/m 9,7 km/h (2 Bft) NW 315 1 min 0,000 mm 0,9 UV-I 360 W/m 6,9 C 7,8 C 16,1 km/h (3 Bft) 95,65 %
01.03.2024 11:30 9,3 C 4,4 C 5,0 C 5,6 C 6,1 C 85 % 200 cb 183 cb 177 cb 1008,7 hPa 0,0 l/m 14,5 km/h (3 Bft) NW 315 1 min 0,000 mm 0,9 UV-I 371 W/m 6,9 C 7,1 C 22,5 km/h (4 Bft) 100,00 %
01.03.2024 11:29 9,3 C 4,4 C 5,0 C 5,6 C 6,1 C 85 % 200 cb 200 cb 197 cb 1008,7 hPa 0,0 l/m 11,3 km/h (2 Bft) N-NW 337 1 min 0,000 mm 1,0 UV-I 424 W/m 6,9 C 7,6 C 16,1 km/h (3 Bft) 95,65 %
01.03.2024 11:28 9,3 C 4,4 C 5,0 C 5,6 C 6,1 C 85 % 200 cb 200 cb 197 cb 1008,6 hPa 0,0 l/m 9,7 km/h (2 Bft) NW 315 1 min 0,000 mm 1,0 UV-I 508 W/m 6,9 C 7,8 C 14,5 km/h (3 Bft) 95,65 %
01.03.2024 11:27 9,3 C 4,4 C 5,0 C 5,6 C 6,1 C 85 % 200 cb 200 cb 200 cb 1008,7 hPa 0,0 l/m 9,7 km/h (2 Bft) N-NW 337 1 min 0,000 mm 1,0 UV-I 504 W/m 6,9 C 7,8 C 17,7 km/h (3 Bft) 100,00 %
01.03.2024 11:26 9,3 C 4,4 C 5,0 C 5,6 C 6,1 C 85 % 200 cb 200 cb 200 cb 1008,7 hPa 0,0 l/m 11,3 km/h (2 Bft) N-NW 337 1 min 0,000 mm 1,0 UV-I 508 W/m 6,9 C 7,6 C 14,5 km/h (3 Bft) 95,65 %
01.03.2024 11:25 9,3 C 4,4 C 5,0 C 5,6 C 6,1 C 85 % 200 cb 200 cb 200 cb 1008,7 hPa 0,0 l/m 12,9 km/h (3 Bft) NW 315 1 min 0,000 mm 1,0 UV-I 538 W/m 6,9 C 7,3 C 19,3 km/h (3 Bft) 95,65 %
01.03.2024 11:24 9,3 C 4,4 C 5,0 C 5,6 C 6,1 C 86 % 200 cb 200 cb 200 cb 1008,7 hPa 0,0 l/m 4,8 km/h (1 Bft) N-NW 337 1 min 0,000 mm 1,1 UV-I 566 W/m 7,1 C 9,0 C 9,7 km/h (2 Bft) 95,65 %
01.03.2024 11:23 9,3 C 4,4 C 5,0 C 5,6 C 6,1 C 86 % 200 cb 200 cb 200 cb 1008,7 hPa 0,0 l/m 8,0 km/h (2 Bft) W-NW 292 1 min 0,000 mm 1,1 UV-I 554 W/m 7,1 C 8,2 C 11,3 km/h (2 Bft) 91,30 %
01.03.2024 11:22 9,3 C 4,4 C 5,0 C 5,6 C 6,1 C 86 % 200 cb 200 cb 200 cb 1008,7 hPa 0,0 l/m 12,9 km/h (3 Bft) NW 315 1 min 0,000 mm 1,0 UV-I 545 W/m 7,1 C 7,3 C 20,9 km/h (4 Bft) 95,65 %
01.03.2024 11:21 9,3 C 4,4 C 5,0 C 5,6 C 6,1 C 86 % 200 cb 200 cb 200 cb 1008,6 hPa 0,0 l/m 12,9 km/h (3 Bft) N-NW 337 1 min 0,000 mm 1,0 UV-I 527 W/m 7,1 C 7,3 C 20,9 km/h (4 Bft) 91,30 %
01.03.2024 11:20 9,2 C 4,4 C 5,0 C 5,6 C 6,1 C 86 % 200 cb 200 cb 200 cb 1008,6 hPa 0,0 l/m 8,0 km/h (2 Bft) NW 315 1 min 0,000 mm 1,0 UV-I 494 W/m 7,0 C 8,1 C 12,9 km/h (3 Bft) 95,65 %
01.03.2024 11:19 9,2 C 4,4 C 5,0 C 5,6 C 6,1 C 86 % 200 cb 200 cb 200 cb 1008,7 hPa 0,0 l/m 11,3 km/h (2 Bft) NW 315 1 min 0,000 mm 0,9 UV-I 475 W/m 7,0 C 7,5 C 16,1 km/h (3 Bft) 95,65 %
01.03.2024 11:18 9,2 C 4,4 C 5,0 C 5,6 C 6,1 C 86 % 200 cb 200 cb 200 cb 1008,6 hPa 0,0 l/m 11,3 km/h (2 Bft) NW 315 1 min 0,000 mm 0,9 UV-I 452 W/m 7,0 C 7,5 C 17,7 km/h (3 Bft) 95,65 %
01.03.2024 11:17 9,2 C 4,4 C 5,0 C 5,6 C 6,1 C 86 % 200 cb 200 cb 200 cb 1008,7 hPa 0,0 l/m 9,7 km/h (2 Bft) NW 315 1 min 0,000 mm 0,8 UV-I 404 W/m 7,0 C 7,7 C 12,9 km/h (3 Bft) 91,30 %
01.03.2024 11:16 9,2 C 4,4 C 5,0 C 5,6 C 6,1 C 86 % 200 cb 200 cb 200 cb 1008,7 hPa 0,0 l/m 9,7 km/h (2 Bft) N-NW 337 1 min 0,000 mm 0,8 UV-I 330 W/m 7,0 C 7,7 C 17,7 km/h (3 Bft) 95,65 %
01.03.2024 11:15 9,2 C 4,4 C 5,0 C 5,6 C 6,1 C 86 % 200 cb 200 cb 200 cb 1008,6 hPa 0,0 l/m 9,7 km/h (2 Bft) NW 315 1 min 0,000 mm 0,8 UV-I 313 W/m 7,0 C 7,7 C 14,5 km/h (3 Bft) 91,30 %
01.03.2024 11:14 9,2 C 4,4 C 5,0 C 5,6 C 6,1 C 86 % 200 cb 200 cb 200 cb 1008,7 hPa 0,0 l/m 12,9 km/h (3 Bft) W-NW 292 1 min 0,000 mm 0,8 UV-I 301 W/m 7,0 C 7,2 C 19,3 km/h (3 Bft) 91,30 %
01.03.2024 11:13 9,2 C 4,4 C 5,0 C 5,6 C 6,1 C 86 % 200 cb 200 cb 200 cb 1008,6 hPa 0,0 l/m 11,3 km/h (2 Bft) W-NW 292 1 min 0,000 mm 0,8 UV-I 318 W/m 7,0 C 7,5 C 17,7 km/h (3 Bft) 95,65 %
01.03.2024 11:12 9,2 C 4,4 C 5,0 C 5,6 C 6,1 C 86 % 200 cb 200 cb 200 cb 1008,7 hPa 0,0 l/m 14,5 km/h (3 Bft) W-NW 292 1 min 0,000 mm 0,9 UV-I 348 W/m 7,0 C 7,0 C 19,3 km/h (3 Bft) 95,65 %
01.03.2024 11:11 9,2 C 4,4 C 5,0 C 5,6 C 6,1 C 86 % 200 cb 200 cb 200 cb 1008,7 hPa 0,0 l/m 17,7 km/h (3 Bft) W-NW 292 1 min 0,000 mm 0,9 UV-I 424 W/m 7,0 C 6,6 C 24,1 km/h (4 Bft) 95,65 %
01.03.2024 11:10 9,3 C 4,4 C 5,0 C 5,6 C 6,1 C 86 % 200 cb 200 cb 200 cb 1008,7 hPa 0,0 l/m 14,5 km/h (3 Bft) W-NW 292 1 min 0,000 mm 0,9 UV-I 446 W/m 7,1 C 7,1 C 22,5 km/h (4 Bft) 95,65 %
01.03.2024 11:09 9,3 C 4,4 C 5,0 C 5,6 C 6,1 C 86 % 200 cb 200 cb 200 cb 1008,7 hPa 0,0 l/m 8,0 km/h (2 Bft) W-NW 292 1 min 0,000 mm 0,9 UV-I 450 W/m 7,1 C 8,2 C 20,9 km/h (4 Bft) 95,65 %
01.03.2024 11:08 9,3 C 4,4 C 5,0 C 5,6 C 6,1 C 87 % 200 cb 200 cb 200 cb 1008,7 hPa 0,0 l/m 14,5 km/h (3 Bft) W-NW 292 1 min 0,000 mm 0,9 UV-I 431 W/m 7,2 C 7,1 C 19,3 km/h (3 Bft) 100,00 %
01.03.2024 11:07 9,3 C 4,4 C 5,0 C 5,6 C 6,1 C 87 % 200 cb 200 cb 200 cb 1008,6 hPa 0,0 l/m 16,1 km/h (3 Bft) NW 315 1 min 0,000 mm 1,0 UV-I 529 W/m 7,2 C 6,9 C 24,1 km/h (4 Bft) 95,65 %
01.03.2024 11:06 9,3 C 4,4 C 5,0 C 5,6 C 6,1 C 87 % 200 cb 200 cb 200 cb 1008,5 hPa 0,0 l/m 9,7 km/h (2 Bft) NW 315 1 min 0,000 mm 1,0 UV-I 548 W/m 7,2 C 7,8 C 12,9 km/h (3 Bft) 95,65 %
01.03.2024 11:05 9,3 C 4,4 C 5,0 C 5,6 C 6,1 C 87 % 200 cb 200 cb 200 cb 1008,6 hPa 0,0 l/m 14,5 km/h (3 Bft) NW 315 1 min 0,000 mm 1,0 UV-I 547 W/m 7,2 C 7,1 C 24,1 km/h (4 Bft) 95,65 %
01.03.2024 11:04 9,3 C 4,4 C 5,0 C 5,6 C 6,1 C 88 % 200 cb 200 cb 200 cb 1008,6 hPa 0,0 l/m 14,5 km/h (3 Bft) NW 315 1 min 0,000 mm 1,0 UV-I 541 W/m 7,4 C 7,1 C 24,1 km/h (4 Bft) 91,30 %
01.03.2024 11:03 9,3 C 4,4 C 5,0 C 5,6 C 6,1 C 88 % 200 cb 200 cb 200 cb 1008,6 hPa 0,0 l/m 16,1 km/h (3 Bft) NW 315 1 min 0,000 mm 1,0 UV-I 526 W/m 7,4 C 6,9 C 22,5 km/h (4 Bft) 95,65 %
01.03.2024 11:02 9,3 C 4,4 C 5,0 C 5,6 C 6,1 C 88 % 200 cb 200 cb 200 cb 1008,5 hPa 0,0 l/m 12,9 km/h (3 Bft) NW 315 1 min 0,000 mm 1,0 UV-I 533 W/m 7,4 C 7,3 C 22,5 km/h (4 Bft) 95,65 %
01.03.2024 11:01 9,3 C 4,4 C 5,0 C 5,6 C 6,1 C 88 % 200 cb 200 cb 200 cb 1008,6 hPa 0,0 l/m 11,3 km/h (2 Bft) NW 315 1 min 0,000 mm 1,0 UV-I 512 W/m 7,4 C 7,6 C 22,5 km/h (4 Bft) 95,65 %
01.03.2024 11:00 9,3 C 4,4 C 5,0 C 5,6 C 6,1 C 88 % 200 cb 200 cb 199 cb 1008,5 hPa 0,0 l/m 8,0 km/h (2 Bft) NW 315 1 min 0,203 mm 1,0 UV-I 538 W/m 7,4 C 8,2 C 14,5 km/h (3 Bft) 95,65 %
01.03.2024 10:59 9,2 C 4,4 C 5,0 C 5,6 C 6,1 C 88 % 199 cb 200 cb 200 cb 1008,6 hPa 0,0 l/m 9,7 km/h (2 Bft) NW 315 1 min 0,000 mm 1,0 UV-I 577 W/m 7,3 C 7,7 C 20,9 km/h (4 Bft) 95,65 %
01.03.2024 10:58 9,2 C 4,4 C 5,0 C 5,6 C 6,1 C 89 % 200 cb 199 cb 200 cb 1008,6 hPa 0,0 l/m 12,9 km/h (3 Bft) N-NW 337 1 min 0,000 mm 1,0 UV-I 563 W/m 7,5 C 7,2 C 20,9 km/h (4 Bft) 95,65 %
01.03.2024 10:57 9,3 C 4,4 C 5,0 C 5,6 C 6,1 C 89 % 200 cb 200 cb 200 cb 1008,6 hPa 0,0 l/m 11,3 km/h (2 Bft) NW 315 1 min 0,000 mm 1,0 UV-I 573 W/m 7,6 C 7,6 C 19,3 km/h (3 Bft) 86,96 %
01.03.2024 10:56 9,3 C 4,4 C 5,0 C 5,6 C 6,1 C 90 % 200 cb 200 cb 200 cb 1008,5 hPa 0,0 l/m 9,7 km/h (2 Bft) NW 315 1 min 0,000 mm 1,0 UV-I 552 W/m 7,7 C 7,8 C 16,1 km/h (3 Bft) 100,00 %
01.03.2024 10:55 9,3 C 4,4 C 5,0 C 5,6 C 6,1 C 90 % 199 cb 200 cb 200 cb 1008,5 hPa 0,0 l/m 11,3 km/h (2 Bft) W-NW 292 1 min 0,000 mm 1,0 UV-I 564 W/m 7,7 C 7,6 C 16,1 km/h (3 Bft) 91,30 %
01.03.2024 10:54 9,2 C 4,4 C 5,0 C 5,6 C 6,1 C 90 % 200 cb 200 cb 200 cb 1008,5 hPa 0,0 l/m 9,7 km/h (2 Bft) NW 315 1 min 0,000 mm 1,0 UV-I 564 W/m 7,6 C 7,7 C 17,7 km/h (3 Bft) 95,65 %
01.03.2024 10:53 9,2 C 4,4 C 5,0 C 5,6 C 6,1 C 90 % 200 cb 200 cb 200 cb 1008,5 hPa 0,0 l/m 6,4 km/h (2 Bft) W-NW 292 1 min 0,000 mm 1,0 UV-I 531 W/m 7,6 C 8,4 C 11,3 km/h (2 Bft) 86,96 %
01.03.2024 10:52 9,2 C 4,4 C 5,0 C 5,6 C 6,1 C 91 % 200 cb 200 cb 200 cb 1008,4 hPa 0,0 l/m 6,4 km/h (2 Bft) N 360 1 min 0,000 mm 1,0 UV-I 533 W/m 7,8 C 8,4 C 14,5 km/h (3 Bft) 95,65 %
01.03.2024 10:51 9,1 C 4,4 C 5,0 C 5,6 C 6,1 C 91 % 200 cb 200 cb 200 cb 1008,4 hPa 0,0 l/m 12,9 km/h (3 Bft) N-NW 337 1 min 0,000 mm 1,0 UV-I 533 W/m 7,7 C 7,1 C 16,1 km/h (3 Bft) 91,30 %
01.03.2024 10:50 9,1 C 4,4 C 5,0 C 5,6 C 6,1 C 91 % 200 cb 200 cb 200 cb 1008,4 hPa 0,0 l/m 8,0 km/h (2 Bft) N-NW 337 1 min 0,000 mm 1,0 UV-I 378 W/m 7,7 C 7,9 C 14,5 km/h (3 Bft) 95,65 %
01.03.2024 10:49 9,1 C 4,4 C 5,0 C 5,6 C 6,1 C 92 % 200 cb 200 cb 200 cb 1008,4 hPa 0,0 l/m 6,4 km/h (2 Bft) N-NW 337 1 min 0,000 mm 0,9 UV-I 378 W/m 7,9 C 8,3 C 12,9 km/h (3 Bft) 91,30 %
01.03.2024 10:48 9,1 C 4,4 C 5,0 C 5,6 C 6,1 C 92 % 200 cb 200 cb 200 cb 1008,3 hPa 0,0 l/m 9,7 km/h (2 Bft) NW 315 1 min 0,000 mm 0,8 UV-I 378 W/m 7,9 C 7,6 C 16,1 km/h (3 Bft) 86,96 %
01.03.2024 10:47 8,9 C 4,4 C 5,0 C 5,6 C 6,1 C 92 % 200 cb 200 cb 200 cb 1008,3 hPa 0,0 l/m 8,0 km/h (2 Bft) NW 315 1 min 0,000 mm 0,8 UV-I 404 W/m 7,7 C 7,7 C 12,9 km/h (3 Bft) 100,00 %
01.03.2024 10:46 8,9 C 4,4 C 5,0 C 5,6 C 6,1 C 92 % 200 cb 200 cb 200 cb 1008,4 hPa 0,0 l/m 8,0 km/h (2 Bft) W-NW 292 1 min 0,000 mm 0,9 UV-I 473 W/m 7,7 C 7,7 C 12,9 km/h (3 Bft) 86,96 %
01.03.2024 10:45 8,9 C 4,4 C 5,0 C 5,6 C 6,1 C 92 % 200 cb 200 cb 200 cb 1008,3 hPa 0,0 l/m 9,7 km/h (2 Bft) W-NW 292 1 min 0,000 mm 1,0 UV-I 524 W/m 7,7 C 7,4 C 12,9 km/h (3 Bft) 95,65 %
01.03.2024 10:44 8,8 C 4,4 C 5,0 C 5,6 C 6,1 C 92 % 200 cb 200 cb 200 cb 1008,5 hPa 0,0 l/m 8,0 km/h (2 Bft) NW 315 1 min 0,000 mm 1,0 UV-I 536 W/m 7,6 C 7,6 C 11,3 km/h (2 Bft) 86,96 %
01.03.2024 10:43 8,8 C 4,4 C 5,0 C 5,6 C 6,1 C 93 % 200 cb 200 cb 200 cb 1008,4 hPa 0,0 l/m 9,7 km/h (2 Bft) NW 315 1 min 0,000 mm 1,0 UV-I 538 W/m 7,7 C 7,3 C 14,5 km/h (3 Bft) 95,65 %
01.03.2024 10:42 8,8 C 4,4 C 5,0 C 5,6 C 6,1 C 93 % 200 cb 200 cb 200 cb 1008,4 hPa 0,0 l/m 11,3 km/h (2 Bft) W-NW 292 1 min 0,000 mm 0,9 UV-I 531 W/m 7,7 C 7,0 C 14,5 km/h (3 Bft) 86,96 %
01.03.2024 10:41 8,8 C 4,4 C 5,0 C 5,6 C 6,1 C 93 % 200 cb 200 cb 200 cb 1008,4 hPa 0,0 l/m 8,0 km/h (2 Bft) W-NW 292 1 min 0,000 mm 0,9 UV-I 503 W/m 7,7 C 7,6 C 17,7 km/h (3 Bft) 100,00 %
01.03.2024 10:40 8,8 C 4,4 C 5,0 C 5,6 C 6,1 C 94 % 200 cb 200 cb 200 cb 1008,3 hPa 0,0 l/m 9,7 km/h (2 Bft) NW 315 1 min 0,000 mm 0,9 UV-I 483 W/m 7,9 C 7,3 C 17,7 km/h (3 Bft) 91,30 %
01.03.2024 10:39 8,8 C 4,4 C 5,0 C 5,6 C 6,1 C 94 % 200 cb 200 cb 200 cb 1008,3 hPa 0,0 l/m 6,4 km/h (2 Bft) N-NW 337 1 min 0,000 mm 0,8 UV-I 457 W/m 7,9 C 8,0 C 12,9 km/h (3 Bft) 91,30 %
01.03.2024 10:38 8,7 C 4,4 C 5,0 C 5,6 C 6,1 C 95 % 200 cb 200 cb 200 cb 1008,3 hPa 0,0 l/m 8,0 km/h (2 Bft) N-NW 337 1 min 0,000 mm 0,8 UV-I 445 W/m 7,9 C 7,5 C 12,9 km/h (3 Bft) 91,30 %
01.03.2024 10:37 8,6 C 4,4 C 5,0 C 5,6 C 6,1 C 94 % 200 cb 200 cb 200 cb 1008,2 hPa 0,0 l/m 6,4 km/h (2 Bft) N 360 1 min 0,000 mm 0,8 UV-I 450 W/m 7,7 C 7,8 C 8,0 km/h (2 Bft) 95,65 %
01.03.2024 10:36 8,4 C 4,4 C 5,0 C 5,6 C 6,1 C 95 % 200 cb 200 cb 200 cb 1008,2 hPa 0,0 l/m 4,8 km/h (1 Bft) W 270 1 min 0,000 mm 0,8 UV-I 443 W/m 7,6 C 8,0 C 11,3 km/h (2 Bft) 95,65 %
01.03.2024 10:35 8,3 C 4,4 C 5,0 C 5,6 C 6,1 C 95 % 200 cb 200 cb 200 cb 1008,3 hPa 0,0 l/m 3,2 km/h (1 Bft) W 270 1 min 0,000 mm 0,8 UV-I 443 W/m 7,5 C 8,3 C 3,2 km/h (1 Bft) 91,30 %
01.03.2024 10:34 8,2 C 4,4 C 5,0 C 5,6 C 6,1 C 95 % 200 cb 200 cb 200 cb 1008,3 hPa 0,0 l/m 3,2 km/h (1 Bft) W 270 1 min 0,000 mm 0,8 UV-I 443 W/m 7,4 C 8,2 C 4,8 km/h (1 Bft) 100,00 %
01.03.2024 10:33 8,1 C 4,4 C 5,0 C 5,6 C 6,1 C 95 % 200 cb 200 cb 200 cb 1008,2 hPa 0,0 l/m 3,2 km/h (1 Bft) W 270 1 min 0,000 mm 0,8 UV-I 450 W/m 7,3 C 8,1 C 6,4 km/h (2 Bft) 91,30 %
01.03.2024 10:32 8,1 C 4,4 C 5,0 C 5,6 C 6,1 C 95 % 200 cb 200 cb 200 cb 1008,2 hPa 0,0 l/m 4,8 km/h (1 Bft) W-NW 292 1 min 0,000 mm 0,8 UV-I 450 W/m 7,3 C 7,7 C 9,7 km/h (2 Bft) 91,30 %
01.03.2024 10:31 8,0 C 4,4 C 5,0 C 5,6 C 6,1 C 95 % 200 cb 200 cb 200 cb 1008,2 hPa 0,0 l/m 3,2 km/h (1 Bft) W-NW 292 1 min 0,000 mm 0,8 UV-I 445 W/m 7,2 C 8,0 C 3,2 km/h (1 Bft) 95,65 %
01.03.2024 10:30 7,9 C 4,4 C 5,0 C 5,6 C 6,1 C 95 % 200 cb 200 cb 200 cb 1008,2 hPa 0,0 l/m 4,8 km/h (1 Bft) W 270 1 min 0,000 mm 0,8 UV-I 446 W/m 7,1 C 7,4 C 6,4 km/h (2 Bft) 95,65 %
01.03.2024 10:29 7,8 C 4,4 C 5,0 C 5,6 C 6,1 C 95 % 200 cb 200 cb 200 cb 1008,3 hPa 0,0 l/m 4,8 km/h (1 Bft) W 270 1 min 0,000 mm 0,8 UV-I 415 W/m 7,0 C 7,3 C 9,7 km/h (2 Bft) 91,30 %
01.03.2024 10:28 7,7 C 4,4 C 5,0 C 5,6 C 6,1 C 95 % 200 cb 200 cb 200 cb 1008,2 hPa 0,0 l/m 4,8 km/h (1 Bft) W 270 1 min 0,000 mm 0,8 UV-I 446 W/m 7,0 C 7,2 C 6,4 km/h (2 Bft) 91,30 %
01.03.2024 10:27 7,6 C 4,4 C 5,0 C 5,6 C 6,1 C 95 % 200 cb 200 cb 200 cb 1008,2 hPa 0,0 l/m 4,8 km/h (1 Bft) W 270 1 min 0,000 mm 0,8 UV-I 432 W/m 6,9 C 7,1 C 6,4 km/h (2 Bft) 95,65 %
01.03.2024 10:26 7,5 C 4,4 C 5,0 C 5,6 C 6,1 C 95 % 200 cb 200 cb 200 cb 1008,3 hPa 0,0 l/m 4,8 km/h (1 Bft) W-SW 247 1 min 0,000 mm 0,7 UV-I 424 W/m 6,8 C 7,0 C 9,7 km/h (2 Bft) 91,30 %
01.03.2024 10:25 7,4 C 4,4 C 5,0 C 5,6 C 6,1 C 95 % 200 cb 200 cb 200 cb 1008,2 hPa 0,0 l/m 4,8 km/h (1 Bft) W-SW 247 1 min 0,000 mm 0,7 UV-I 417 W/m 6,7 C 6,9 C 4,8 km/h (1 Bft) 95,65 %
01.03.2024 10:24 7,3 C 4,4 C 5,0 C 5,6 C 6,1 C 95 % 200 cb 200 cb 167 cb 1008,3 hPa 0,0 l/m 3,2 km/h (1 Bft) W-SW 247 1 min 0,000 mm 0,7 UV-I 425 W/m 6,6 C 7,3 C 4,8 km/h (1 Bft) 91,30 %
01.03.2024 10:23 7,3 C 4,4 C 5,0 C 5,6 C 6,1 C 95 % 186 cb 169 cb 167 cb 1008,3 hPa 0,0 l/m 4,8 km/h (1 Bft) W-SW 247 1 min 0,000 mm 0,7 UV-I 422 W/m 6,6 C 6,8 C 4,8 km/h (1 Bft) 95,65 %
01.03.2024 10:22 7,3 C 4,4 C 5,0 C 5,6 C 6,1 C 95 % 183 cb 182 cb 183 cb 1008,3 hPa 0,0 l/m 4,8 km/h (1 Bft) W-SW 247 1 min 0,000 mm 0,7 UV-I 415 W/m 6,6 C 6,8 C 6,4 km/h (2 Bft) 95,65 %
01.03.2024 10:21 7,2 C 4,4 C 5,0 C 5,6 C 6,1 C 96 % 200 cb 200 cb 200 cb 1008,3 hPa 0,0 l/m 4,8 km/h (1 Bft) W-SW 247 1 min 0,000 mm 0,7 UV-I 422 W/m 6,6 C 6,7 C 8,0 km/h (2 Bft) 95,65 %
01.03.2024 10:20 7,1 C 4,4 C 5,0 C 5,6 C 6,1 C 96 % 200 cb 200 cb 200 cb 1008,3 hPa 0,0 l/m 4,8 km/h (1 Bft) W-SW 247 1 min 0,000 mm 0,7 UV-I 422 W/m 6,5 C 6,5 C 8,0 km/h (2 Bft) 91,30 %
01.03.2024 10:19 6,9 C 4,4 C 5,0 C 5,6 C 6,1 C 96 % 200 cb 200 cb 200 cb 1008,3 hPa 0,0 l/m 6,4 km/h (2 Bft) W-SW 247 1 min 0,000 mm 0,7 UV-I 425 W/m 6,3 C 5,8 C 8,0 km/h (2 Bft) 100,00 %
01.03.2024 10:18 6,8 C 4,4 C 5,0 C 5,6 C 6,1 C 96 % 200 cb 200 cb 200 cb 1008,2 hPa 0,0 l/m 4,8 km/h (1 Bft) W-SW 247 1 min 0,000 mm 0,7 UV-I 418 W/m 6,2 C 6,2 C 6,4 km/h (2 Bft) 91,30 %
01.03.2024 10:17 6,7 C 4,4 C 5,0 C 5,6 C 6,1 C 96 % 200 cb 200 cb 200 cb 1008,2 hPa 0,0 l/m 4,8 km/h (1 Bft) W-SW 247 1 min 0,000 mm 0,7 UV-I 404 W/m 6,1 C 6,1 C 4,8 km/h (1 Bft) 95,65 %
01.03.2024 10:16 6,5 C 4,4 C 5,0 C 5,6 C 6,1 C 96 % 200 cb 200 cb 200 cb 1008,2 hPa 0,0 l/m 3,2 km/h (1 Bft) W-SW 247 1 min 0,000 mm 0,6 UV-I 388 W/m 5,9 C 6,5 C 4,8 km/h (1 Bft) 91,30 %
01.03.2024 10:15 6,4 C 4,4 C 5,0 C 5,6 C 6,1 C 96 % 170 cb 171 cb 171 cb 1008,2 hPa 0,2 l/m 3,2 km/h (1 Bft) W-SW 247 1 min 0,000 mm 0,6 UV-I 371 W/m 5,8 C 6,4 C 4,8 km/h (1 Bft) 91,30 %
01.03.2024 10:14 6,3 C 4,4 C 5,0 C 5,6 C 6,1 C 96 % 166 cb 96 cb 108 cb 1008,2 hPa 0,0 l/m 3,2 km/h (1 Bft) W-SW 247 1 min 0,000 mm 0,6 UV-I 357 W/m 5,7 C 6,3 C 4,8 km/h (1 Bft) 95,65 %
01.03.2024 10:13 6,2 C 4,4 C 5,0 C 5,6 C 6,1 C 96 % 106 cb 100 cb 114 cb 1008,2 hPa 0,0 l/m 3,2 km/h (1 Bft) W-SW 247 1 min 0,000 mm 0,6 UV-I 360 W/m 5,6 C 6,2 C 4,8 km/h (1 Bft) 91,30 %
01.03.2024 10:12 6,1 C 4,4 C 5,0 C 5,6 C 6,1 C 96 % 103 cb 97 cb 111 cb 1008,2 hPa 0,0 l/m 3,2 km/h (1 Bft) W-SW 247 1 min 0,000 mm 0,6 UV-I 353 W/m 5,5 C 6,1 C 4,8 km/h (1 Bft) 95,65 %
01.03.2024 10:11 5,9 C 4,4 C 5,0 C 5,6 C 6,1 C 96 % 101 cb 95 cb 110 cb 1008,2 hPa 0,0 l/m 3,2 km/h (1 Bft) W-SW 247 1 min 0,000 mm 0,5 UV-I 318 W/m 5,3 C 5,9 C 4,8 km/h (1 Bft) 86,96 %
01.03.2024 10:10 5,7 C 4,4 C 5,0 C 5,6 C 6,1 C 95 % 108 cb 97 cb 111 cb 1008,2 hPa 0,0 l/m 3,2 km/h (1 Bft) W-SW 247 1 min 0,000 mm 0,5 UV-I 318 W/m 5,0 C 5,7 C 4,8 km/h (1 Bft) 100,00 %
01.03.2024 10:09 5,6 C 4,4 C 5,0 C 5,6 C 6,1 C 96 % 108 cb 102 cb 116 cb 1008,2 hPa 0,0 l/m 3,2 km/h (1 Bft) W-SW 247 1 min 0,000 mm 0,5 UV-I 297 W/m 5,0 C 5,6 C 4,8 km/h (1 Bft) 86,96 %
01.03.2024 10:08 5,5 C 4,4 C 5,0 C 5,6 C 6,1 C 96 % 110 cb 102 cb 119 cb 1008,2 hPa 0,0 l/m 3,2 km/h (1 Bft) W-SW 247 1 min 0,000 mm 0,5 UV-I 264 W/m 4,9 C 5,5 C 4,8 km/h (1 Bft) 95,65 %
01.03.2024 10:07 5,4 C 4,4 C 5,0 C 5,6 C 6,1 C 96 % 106 cb 102 cb 119 cb 1008,2 hPa 0,0 l/m 3,2 km/h (1 Bft) W-SW 247 1 min 0,000 mm 0,5 UV-I 264 W/m 4,8 C 5,4 C 4,8 km/h (1 Bft) 95,65 %
01.03.2024 10:06 5,4 C 4,4 C 5,0 C 5,6 C 6,1 C 96 % 106 cb 100 cb 113 cb 1008,3 hPa 0,0 l/m 0,0 km/h (0 Bft) W-SW 247 1 min 0,000 mm 0,5 UV-I 264 W/m 4,8 C 5,4 C 3,2 km/h (1 Bft) 95,65 %
01.03.2024 10:05 5,3 C 4,4 C 5,0 C 5,6 C 6,1 C 95 % 107 cb 99 cb 113 cb 1008,2 hPa 0,0 l/m 1,6 km/h (1 Bft) W-SW 247 1 min 0,000 mm 0,5 UV-I 264 W/m 4,6 C 5,3 C 3,2 km/h (1 Bft) 86,96 %
01.03.2024 10:04 5,3 C 4,4 C 5,0 C 5,6 C 6,1 C 95 % 109 cb 102 cb 115 cb 1008,2 hPa 0,0 l/m 1,6 km/h (1 Bft) W-SW 247 1 min 0,000 mm 0,5 UV-I 264 W/m 4,6 C 5,3 C 1,6 km/h (1 Bft) 91,30 %
01.03.2024 10:03 5,3 C 4,4 C 5,0 C 5,6 C 6,1 C 96 % 106 cb 100 cb 111 cb 1008,2 hPa 0,0 l/m 1,6 km/h (1 Bft) W-SW 247 1 min 0,000 mm 0,5 UV-I 262 W/m 4,7 C 5,3 C 3,2 km/h (1 Bft) 91,30 %
01.03.2024 10:02 5,2 C 4,4 C 5,0 C 5,6 C 6,1 C 96 % 108 cb 100 cb 115 cb 1008,1 hPa 0,0 l/m 0,0 km/h (0 Bft) N 0 1 min 0,000 mm 0,0 UV-I 262 W/m 4,6 C 5,2 C 0,0 km/h (0 Bft) 91,30 %
01.03.2024 10:01 5,2 C 4,4 C 5,0 C 5,6 C 6,1 C 95 % 110 cb 99 cb 111 cb 1008,1 hPa 0,0 l/m 0,0 km/h (0 Bft) N 0 1 min 0,000 mm 0,0 UV-I 262 W/m 4,5 C 5,2 C 0,0 km/h (0 Bft) 100,00 %
01.03.2024 10:00 5,1 C 4,4 C 5,0 C 5,6 C 6,1 C 95 % 106 cb 99 cb 113 cb 1008,2 hPa 0,0 l/m 0,0 km/h (0 Bft) N 0 1 min 0,051 mm 0,0 UV-I 262 W/m 4,4 C 5,1 C 0,0 km/h (0 Bft) 91,30 %
01.03.2024 09:59 5,0 C 4,4 C 5,0 C 5,6 C 6,1 C 95 % 108 cb 104 cb 115 cb 1008,1 hPa 0,0 l/m 0,0 km/h (0 Bft) N 0 1 min 0,000 mm 0,0 UV-I 265 W/m 4,3 C 5,0 C 0,0 km/h (0 Bft) 91,30 %
01.03.2024 09:58 4,9 C 4,4 C 5,0 C 5,6 C 6,1 C 95 % 108 cb 101 cb 113 cb 1008,1 hPa 0,0 l/m 0,0 km/h (0 Bft) N 0 1 min 0,000 mm 0,0 UV-I 265 W/m 4,2 C 4,9 C 0,0 km/h (0 Bft) 95,65 %
01.03.2024 09:57 4,8 C 4,4 C 5,0 C 5,6 C 6,1 C 95 % 106 cb 99 cb 115 cb 1008,1 hPa 0,0 l/m 0,0 km/h (0 Bft) N 0 1 min 0,000 mm 0,0 UV-I 265 W/m 4,1 C 4,8 C 0,0 km/h (0 Bft) 95,65 %
01.03.2024 09:56 4,8 C 4,4 C 5,0 C 5,6 C 6,1 C 95 % 106 cb 102 cb 113 cb 1008,1 hPa 0,0 l/m 0,0 km/h (0 Bft) W-SW 247 1 min 0,000 mm 0,0 UV-I 234 W/m 4,1 C 4,8 C 1,6 km/h (1 Bft) 91,30 %
01.03.2024 09:55 4,8 C 4,4 C 5,0 C 5,6 C 6,1 C 95 % 109 cb 101 cb 116 cb 1008,1 hPa 0,0 l/m 1,6 km/h (1 Bft) W-SW 247 1 min 0,000 mm 0,0 UV-I 234 W/m 4,1 C 4,8 C 3,2 km/h (1 Bft) 100,00 %
01.03.2024 09:54 4,8 C 4,4 C 5,0 C 5,6 C 6,1 C 95 % 117 cb 106 cb 120 cb 1008,1 hPa 0,0 l/m 3,2 km/h (1 Bft) W-SW 247 1 min 0,000 mm 0,0 UV-I 220 W/m 4,1 C 4,8 C 3,2 km/h (1 Bft) 91,30 %
01.03.2024 09:53 4,7 C 4,4 C 5,0 C 5,6 C 6,1 C 95 % 118 cb 104 cb 117 cb 1008,1 hPa 0,0 l/m 3,2 km/h (1 Bft) W-SW 247 1 min 0,000 mm 0,0 UV-I 220 W/m 4,0 C 4,7 C 4,8 km/h (1 Bft) 82,61 %
01.03.2024 09:52 4,7 C 4,4 C 5,0 C 5,6 C 6,1 C 95 % 111 cb 106 cb 119 cb 1008,1 hPa 0,0 l/m 3,2 km/h (1 Bft) W-SW 247 1 min 0,000 mm 0,0 UV-I 213 W/m 4,0 C 4,7 C 4,8 km/h (1 Bft) 95,65 %
01.03.2024 09:51 4,7 C 4,4 C 5,0 C 5,6 C 6,1 C 95 % 112 cb 101 cb 115 cb 1008,1 hPa 0,0 l/m 4,8 km/h (1 Bft) W-SW 247 1 min 0,000 mm 0,0 UV-I 190 W/m 4,0 C 3,8 C 4,8 km/h (1 Bft) 95,65 %
01.03.2024 09:50 4,6 C 4,4 C 5,0 C 5,6 C 6,1 C 95 % 106 cb 100 cb 116 cb 1008,1 hPa 0,0 l/m 4,8 km/h (1 Bft) W-SW 247 1 min 0,000 mm 0,0 UV-I 190 W/m 3,9 C 3,7 C 4,8 km/h (1 Bft) 91,30 %
01.03.2024 09:49 4,6 C 4,4 C 5,0 C 5,6 C 6,1 C 95 % 109 cb 102 cb 115 cb 1008,1 hPa 0,0 l/m 4,8 km/h (1 Bft) W-SW 247 1 min 0,000 mm 0,0 UV-I 190 W/m 3,9 C 3,7 C 6,4 km/h (2 Bft) 86,96 %
01.03.2024 09:48 4,6 C 4,4 C 5,0 C 5,6 C 6,1 C 95 % 109 cb 102 cb 117 cb 1008,1 hPa 0,0 l/m 4,8 km/h (1 Bft) W-SW 247 1 min 0,000 mm 0,0 UV-I 181 W/m 3,9 C 3,7 C 6,4 km/h (2 Bft) 95,65 %
01.03.2024 09:47 4,5 C 4,4 C 5,0 C 5,6 C 6,1 C 95 % 109 cb 102 cb 115 cb 1008,0 hPa 0,0 l/m 6,4 km/h (2 Bft) W-SW 247 1 min 0,000 mm 0,0 UV-I 181 W/m 3,8 C 3,0 C 8,0 km/h (2 Bft) 91,30 %
01.03.2024 09:46 4,4 C 4,4 C 5,0 C 5,6 C 6,1 C 95 % 109 cb 101 cb 115 cb 1008,1 hPa 0,0 l/m 4,8 km/h (1 Bft) W-SW 247 1 min 0,000 mm 0,0 UV-I 172 W/m 3,7 C 3,5 C 6,4 km/h (2 Bft) 91,30 %
01.03.2024 09:45 4,4 C 4,4 C 5,0 C 5,6 C 6,1 C 95 % 104 cb 99 cb 113 cb 1008,1 hPa 0,0 l/m 4,8 km/h (1 Bft) W-SW 247 1 min 0,000 mm 0,0 UV-I 172 W/m 3,7 C 3,5 C 6,4 km/h (2 Bft) 95,65 %
01.03.2024 09:44 4,3 C 4,4 C 5,0 C 5,6 C 6,1 C 95 % 109 cb 100 cb 113 cb 1008,1 hPa 0,0 l/m 3,2 km/h (1 Bft) W-SW 247 1 min 0,000 mm 0,0 UV-I 165 W/m 3,6 C 4,3 C 4,8 km/h (1 Bft) 95,65 %
01.03.2024 09:43 4,3 C 4,4 C 5,0 C 5,6 C 6,1 C 95 % 115 cb 106 cb 122 cb 1008,1 hPa 0,0 l/m 1,6 km/h (1 Bft) W-SW 247 1 min 0,000 mm 0,0 UV-I 165 W/m 3,6 C 4,3 C 3,2 km/h (1 Bft) 91,30 %
01.03.2024 09:42 4,3 C 3,9 C 5,0 C 5,6 C 6,1 C 95 % 109 cb 101 cb 115 cb 1008,1 hPa 0,0 l/m 1,6 km/h (1 Bft) W-SW 247 1 min 0,000 mm 0,0 UV-I 160 W/m 3,6 C 4,3 C 3,2 km/h (1 Bft) 95,65 %
01.03.2024 09:41 4,2 C 3,9 C 5,0 C 5,6 C 6,1 C 95 % 108 cb 102 cb 117 cb 1008,1 hPa 0,0 l/m 3,2 km/h (1 Bft) W-SW 247 1 min 0,000 mm 0,0 UV-I 156 W/m 3,5 C 4,2 C 3,2 km/h (1 Bft) 91,30 %
01.03.2024 09:40 4,2 C 3,9 C 5,0 C 5,6 C 6,1 C 95 % 109 cb 101 cb 115 cb 1008,1 hPa 0,0 l/m 4,8 km/h (1 Bft) W-SW 247 1 min 0,000 mm 0,0 UV-I 155 W/m 3,5 C 3,3 C 6,4 km/h (2 Bft) 91,30 %
01.03.2024 09:39 4,2 C 3,9 C 5,0 C 5,6 C 6,1 C 95 % 107 cb 101 cb 115 cb 1008,1 hPa 0,0 l/m 3,2 km/h (1 Bft) W-SW 247 0 min 0,000 mm 0,0 UV-I 151 W/m 3,5 C 4,2 C 4,8 km/h (1 Bft) 100,00 %
01.03.2024 09:38 4,1 C 3,9 C 5,0 C 5,6 C 6,1 C 95 % 106 cb 102 cb 113 cb 1008,0 hPa 0,0 l/m 4,8 km/h (1 Bft) W-SW 247 0 min 0,000 mm 0,0 UV-I 149 W/m 3,4 C 3,1 C 4,8 km/h (1 Bft) 91,30 %
01.03.2024 09:37 4,1 C 3,9 C 5,0 C 5,6 C 6,1 C 95 % 108 cb 101 cb 114 cb 1008,1 hPa 0,0 l/m 4,8 km/h (1 Bft) W-SW 247 0 min 0,000 mm 0,0 UV-I 146 W/m 3,4 C 3,1 C 4,8 km/h (1 Bft) 95,65 %
01.03.2024 09:36 4,1 C 3,9 C 5,0 C 5,6 C 6,1 C 95 % 103 cb 97 cb 110 cb 1008,0 hPa 0,0 l/m 4,8 km/h (1 Bft) W-SW 247 0 min 0,000 mm 0,0 UV-I 142 W/m 3,4 C 3,1 C 6,4 km/h (2 Bft) 95,65 %
01.03.2024 09:35 4,1 C 3,9 C 5,0 C 5,6 C 6,1 C 95 % 108 cb 101 cb 115 cb 1008,0 hPa 0,0 l/m 4,8 km/h (1 Bft) W-SW 247 0 min 0,000 mm 0,0 UV-I 139 W/m 3,4 C 3,1 C 6,4 km/h (2 Bft) 91,30 %
01.03.2024 09:34 4,0 C 3,9 C 5,0 C 5,6 C 6,1 C 95 % 106 cb 100 cb 116 cb 1008,1 hPa 0,0 l/m 4,8 km/h (1 Bft) W-SW 247 0 min 0,000 mm 0,0 UV-I 137 W/m 3,3 C 3,0 C 6,4 km/h (2 Bft) 91,30 %
01.03.2024 09:33 4,0 C 3,9 C 5,0 C 5,6 C 6,1 C 95 % 108 cb 103 cb 116 cb 1008,0 hPa 0,0 l/m 6,4 km/h (2 Bft) W-SW 247 0 min 0,000 mm 0,0 UV-I 134 W/m 3,3 C 2,4 C 11,3 km/h (2 Bft) 100,00 %
01.03.2024 09:32 3,9 C 3,9 C 5,0 C 5,6 C 6,1 C 95 % 109 cb 102 cb 117 cb 1008,0 hPa 0,0 l/m 4,8 km/h (1 Bft) W-SW 247 0 min 0,000 mm 0,0 UV-I 130 W/m 3,2 C 2,9 C 6,4 km/h (2 Bft) 91,30 %
01.03.2024 09:31 3,9 C 3,9 C 5,0 C 5,6 C 6,1 C 95 % 108 cb 103 cb 115 cb 1008,0 hPa 0,0 l/m 3,2 km/h (1 Bft) W-SW 247 0 min 0,000 mm 0,0 UV-I 127 W/m 3,2 C 3,9 C 4,8 km/h (1 Bft) 91,30 %
01.03.2024 09:30 3,9 C 3,9 C 5,0 C 5,6 C 6,1 C 95 % 106 cb 100 cb 114 cb 1008,1 hPa 0,0 l/m 3,2 km/h (1 Bft) W-SW 247 0 min 0,000 mm 0,0 UV-I 120 W/m 3,2 C 3,9 C 4,8 km/h (1 Bft) 100,00 %
01.03.2024 09:29 3,9 C 3,9 C 5,0 C 5,6 C 6,1 C 95 % 106 cb 100 cb 113 cb 1008,1 hPa 0,0 l/m 4,8 km/h (1 Bft) W-SW 247 0 min 0,000 mm 0,0 UV-I 118 W/m 3,2 C 2,9 C 6,4 km/h (2 Bft) 86,96 %
01.03.2024 09:28 3,8 C 3,9 C 5,0 C 5,6 C 6,1 C 95 % 107 cb 101 cb 115 cb 1008,1 hPa 0,0 l/m 4,8 km/h (1 Bft) W-SW 247 0 min 0,000 mm 0,0 UV-I 116 W/m 3,1 C 2,8 C 6,4 km/h (2 Bft) 95,65 %
01.03.2024 09:27 3,8 C 3,9 C 5,0 C 5,6 C 6,1 C 95 % 107 cb 100 cb 113 cb 1008,1 hPa 0,0 l/m 4,8 km/h (1 Bft) W-SW 247 0 min 0,000 mm 0,0 UV-I 114 W/m 3,1 C 2,8 C 8,0 km/h (2 Bft) 100,00 %
01.03.2024 09:26 3,8 C 3,9 C 5,0 C 5,6 C 6,1 C 95 % 106 cb 100 cb 113 cb 1008,1 hPa 0,0 l/m 4,8 km/h (1 Bft) W-SW 247 0 min 0,000 mm 0,0 UV-I 113 W/m 3,1 C 2,8 C 6,4 km/h (2 Bft) 91,30 %
01.03.2024 09:25 3,8 C 3,9 C 5,0 C 5,6 C 6,1 C 95 % 106 cb 101 cb 113 cb 1008,1 hPa 0,0 l/m 6,4 km/h (2 Bft) W-SW 247 0 min 0,000 mm 0,0 UV-I 113 W/m 3,1 C 2,2 C 12,9 km/h (3 Bft) 95,65 %
01.03.2024 09:24 3,7 C 3,9 C 5,0 C 5,6 C 6,1 C 95 % 102 cb 96 cb 110 cb 1008,0 hPa 0,0 l/m 6,4 km/h (2 Bft) W-SW 247 0 min 0,000 mm 0,0 UV-I 113 W/m 3,0 C 2,1 C 9,7 km/h (2 Bft) 91,30 %
01.03.2024 09:23 3,7 C 3,9 C 5,0 C 5,6 C 6,1 C 95 % 104 cb 100 cb 112 cb 1008,0 hPa 0,0 l/m 8,0 km/h (2 Bft) W-SW 247 0 min 0,000 mm 0,0 UV-I 113 W/m 3,0 C 1,6 C 12,9 km/h (3 Bft) 86,96 %
01.03.2024 09:22 3,7 C 3,9 C 5,0 C 5,6 C 6,1 C 95 % 105 cb 99 cb 111 cb 1008,1 hPa 0,0 l/m 9,7 km/h (2 Bft) W-SW 247 0 min 0,000 mm 0,0 UV-I 111 W/m 3,0 C 1,2 C 12,9 km/h (3 Bft) 95,65 %
01.03.2024 09:21 3,6 C 3,9 C 5,0 C 5,6 C 6,1 C 95 % 106 cb 99 cb 112 cb 1008,0 hPa 0,0 l/m 4,8 km/h (1 Bft) W-SW 247 0 min 0,000 mm 0,0 UV-I 111 W/m 2,9 C 2,6 C 6,4 km/h (2 Bft) 95,65 %
01.03.2024 09:20 3,6 C 3,9 C 5,0 C 5,6 C 6,1 C 95 % 105 cb 98 cb 111 cb 1008,0 hPa 0,0 l/m 4,8 km/h (1 Bft) W-SW 247 0 min 0,000 mm 0,0 UV-I 109 W/m 2,9 C 2,6 C 6,4 km/h (2 Bft) 95,65 %
01.03.2024 09:19 3,6 C 3,9 C 5,0 C 5,6 C 6,1 C 95 % 107 cb 100 cb 115 cb 1008,1 hPa 0,0 l/m 4,8 km/h (1 Bft) W-SW 247 0 min 0,000 mm 0,0 UV-I 107 W/m 2,9 C 2,6 C 6,4 km/h (2 Bft) 95,65 %
01.03.2024 09:18 3,6 C 3,9 C 5,0 C 5,6 C 6,1 C 95 % 132 cb 97 cb 113 cb 1008,0 hPa 0,0 l/m 4,8 km/h (1 Bft) W-SW 247 0 min 0,000 mm 0,0 UV-I 105 W/m 2,9 C 2,6 C 8,0 km/h (2 Bft) 100,00 %
01.03.2024 09:17 3,5 C 3,9 C 5,0 C 5,6 C 6,1 C 95 % 102 cb 96 cb 108 cb 1008,0 hPa 0,0 l/m 6,4 km/h (2 Bft) W-SW 247 0 min 0,000 mm 0,0 UV-I 105 W/m 2,8 C 1,9 C 11,3 km/h (2 Bft) 91,30 %
01.03.2024 09:16 3,5 C 3,9 C 5,0 C 5,6 C 6,1 C 95 % 103 cb 98 cb 110 cb 1008,0 hPa 0,0 l/m 4,8 km/h (1 Bft) W-SW 247 0 min 0,000 mm 0,0 UV-I 105 W/m 2,8 C 2,5 C 6,4 km/h (2 Bft) 91,30 %
01.03.2024 09:15 3,4 C 3,9 C 5,0 C 5,6 C 6,1 C 95 % 102 cb 97 cb 109 cb 1008,0 hPa 0,0 l/m 4,8 km/h (1 Bft) W-SW 247 0 min 0,000 mm 0,0 UV-I 104 W/m 2,7 C 2,4 C 11,3 km/h (2 Bft) 100,00 %
01.03.2024 09:14 3,4 C 3,9 C 5,0 C 5,6 C 6,1 C 95 % 105 cb 99 cb 111 cb 1008,0 hPa 0,0 l/m 4,8 km/h (1 Bft) W-SW 247 0 min 0,000 mm 0,0 UV-I 104 W/m 2,7 C 2,4 C 6,4 km/h (2 Bft) 95,65 %
01.03.2024 09:13 3,4 C 3,9 C 5,0 C 5,6 C 6,1 C 95 % 105 cb 98 cb 111 cb 1008,0 hPa 0,0 l/m 6,4 km/h (2 Bft) W 270 0 min 0,000 mm 0,0 UV-I 105 W/m 2,7 C 1,7 C 9,7 km/h (2 Bft) 95,65 %
01.03.2024 09:12 3,4 C 3,9 C 5,0 C 5,6 C 6,1 C 95 % 108 cb 101 cb 113 cb 1008,0 hPa 0,0 l/m 4,8 km/h (1 Bft) W 270 0 min 0,000 mm 0,0 UV-I 105 W/m 2,7 C 2,4 C 6,4 km/h (2 Bft) 100,00 %
01.03.2024 09:11 3,3 C 3,9 C 5,0 C 5,6 C 6,1 C 95 % 106 cb 100 cb 115 cb 1007,9 hPa 0,0 l/m 4,8 km/h (1 Bft) W 270 0 min 0,000 mm 0,0 UV-I 107 W/m 2,6 C 2,2 C 6,4 km/h (2 Bft) 95,65 %
01.03.2024 09:10 3,3 C 3,9 C 5,0 C 5,6 C 6,1 C 95 % 102 cb 96 cb 108 cb 1007,9 hPa 0,0 l/m 4,8 km/h (1 Bft) W 270 0 min 0,000 mm 0,0 UV-I 107 W/m 2,6 C 2,2 C 6,4 km/h (2 Bft) 95,65 %
01.03.2024 09:09 3,3 C 3,9 C 5,0 C 5,6 C 6,1 C 95 % 103 cb 97 cb 108 cb 1007,9 hPa 0,0 l/m 6,4 km/h (2 Bft) W-SW 247 0 min 0,000 mm 0,0 UV-I 107 W/m 2,6 C 1,6 C 8,0 km/h (2 Bft) 95,65 %
01.03.2024 09:08 3,3 C 3,9 C 5,0 C 5,6 C 6,1 C 95 % 102 cb 97 cb 109 cb 1007,8 hPa 0,0 l/m 6,4 km/h (2 Bft) W-SW 247 0 min 0,000 mm 0,0 UV-I 109 W/m 2,6 C 1,6 C 11,3 km/h (2 Bft) 100,00 %
01.03.2024 09:07 3,3 C 3,9 C 5,0 C 5,6 C 6,1 C 95 % 101 cb 96 cb 108 cb 1007,8 hPa 0,0 l/m 6,4 km/h (2 Bft) W-SW 247 0 min 0,000 mm 0,0 UV-I 109 W/m 2,6 C 1,6 C 11,3 km/h (2 Bft) 95,65 %
01.03.2024 09:06 3,2 C 3,9 C 5,0 C 5,6 C 6,1 C 95 % 101 cb 105 cb 111 cb 1007,7 hPa 0,0 l/m 8,0 km/h (2 Bft) SW 225 0 min 0,000 mm 0,0 UV-I 109 W/m 2,5 C 1,0 C 9,7 km/h (2 Bft) 95,65 %
01.03.2024 09:05 3,2 C 3,9 C 5,0 C 5,6 C 6,1 C 95 % 109 cb 105 cb 116 cb 1007,8 hPa 0,0 l/m 6,4 km/h (2 Bft) W-SW 247 0 min 0,000 mm 0,0 UV-I 109 W/m 2,5 C 1,5 C 9,7 km/h (2 Bft) 95,65 %
01.03.2024 09:04 3,2 C 3,9 C 5,0 C 5,6 C 6,1 C 95 % 114 cb 108 cb 116 cb 1007,7 hPa 0,0 l/m 4,8 km/h (1 Bft) W-SW 247 0 min 0,000 mm 0,0 UV-I 109 W/m 2,5 C 2,1 C 6,4 km/h (2 Bft) 95,65 %
01.03.2024 09:03 3,2 C 3,9 C 5,0 C 5,6 C 6,1 C 95 % 105 cb 100 cb 111 cb 1007,8 hPa 0,0 l/m 4,8 km/h (1 Bft) W-SW 247 0 min 0,000 mm 0,0 UV-I 107 W/m 2,5 C 2,1 C 6,4 km/h (2 Bft) 95,65 %
01.03.2024 09:02 3,1 C 3,9 C 5,0 C 5,6 C 6,1 C 95 % 102 cb 95 cb 109 cb 1007,7 hPa 0,0 l/m 4,8 km/h (1 Bft) W-SW 247 0 min 0,000 mm 0,0 UV-I 105 W/m 2,4 C 2,0 C 8,0 km/h (2 Bft) 91,30 %
01.03.2024 09:01 3,1 C 3,9 C 5,0 C 6,1 C 6,1 C 95 % 102 cb 98 cb 116 cb 1007,6 hPa 0,0 l/m 4,8 km/h (1 Bft) W-SW 247 0 min 0,000 mm 0,0 UV-I 104 W/m 2,4 C 2,0 C 8,0 km/h (2 Bft) 91,30 %
01.03.2024 09:00 3,1 C 3,9 C 5,0 C 6,1 C 6,1 C 95 % 102 cb 100 cb 115 cb 1007,6 hPa 0,0 l/m 6,4 km/h (2 Bft) W-SW 247 0 min 0,025 mm 0,0 UV-I 104 W/m 2,4 C 1,4 C 8,0 km/h (2 Bft) 95,65 %
01.03.2024 08:59 3,1 C 3,9 C 5,0 C 6,1 C 6,1 C 95 % 102 cb 98 cb 109 cb 1007,7 hPa 0,0 l/m 4,8 km/h (1 Bft) W-SW 247 0 min 0,000 mm 0,0 UV-I 102 W/m 2,4 C 2,0 C 8,0 km/h (2 Bft) 100,00 %
01.03.2024 08:58 3,0 C 3,9 C 5,0 C 6,1 C 6,1 C 95 % 103 cb 99 cb 109 cb 1007,6 hPa 0,0 l/m 4,8 km/h (1 Bft) W-SW 247 0 min 0,000 mm 0,0 UV-I 100 W/m 2,3 C 1,9 C 6,4 km/h (2 Bft) 91,30 %
01.03.2024 08:57 3,0 C 3,9 C 5,0 C 6,1 C 6,1 C 95 % 105 cb 98 cb 111 cb 1007,6 hPa 0,0 l/m 3,2 km/h (1 Bft) W-SW 247 0 min 0,000 mm 0,0 UV-I 100 W/m 2,3 C 3,0 C 4,8 km/h (1 Bft) 95,65 %
01.03.2024 08:56 2,9 C 3,9 C 5,0 C 6,1 C 6,1 C 95 % 102 cb 99 cb 110 cb 1007,5 hPa 0,0 l/m 3,2 km/h (1 Bft) W-SW 247 0 min 0,000 mm 0,0 UV-I 100 W/m 2,2 C 2,9 C 4,8 km/h (1 Bft) 100,00 %
01.03.2024 08:55 2,9 C 3,9 C 5,0 C 6,1 C 6,1 C 95 % 104 cb 100 cb 111 cb 1007,6 hPa 0,0 l/m 1,6 km/h (1 Bft) W-SW 247 0 min 0,000 mm 0,0 UV-I 98 W/m 2,2 C 2,9 C 3,2 km/h (1 Bft) 95,65 %
01.03.2024 08:54 2,9 C 3,9 C 5,0 C 6,1 C 6,1 C 95 % 104 cb 98 cb 110 cb 1007,6 hPa 0,0 l/m 3,2 km/h (1 Bft) W-SW 247 0 min 0,000 mm 0,0 UV-I 97 W/m 2,2 C 2,9 C 3,2 km/h (1 Bft) 95,65 %
01.03.2024 08:53 2,9 C 3,9 C 5,0 C 6,1 C 6,1 C 95 % 105 cb 100 cb 111 cb 1007,5 hPa 0,0 l/m 3,2 km/h (1 Bft) W-SW 247 0 min 0,000 mm 0,0 UV-I 97 W/m 2,2 C 2,9 C 4,8 km/h (1 Bft) 95,65 %
01.03.2024 08:52 2,9 C 3,9 C 5,0 C 6,1 C 6,1 C 95 % 104 cb 100 cb 111 cb 1007,5 hPa 0,0 l/m 4,8 km/h (1 Bft) W 270 0 min 0,000 mm 0,0 UV-I 95 W/m 2,2 C 1,8 C 6,4 km/h (2 Bft) 95,65 %
01.03.2024 08:51 2,9 C 3,9 C 5,0 C 6,1 C 6,1 C 95 % 105 cb 100 cb 111 cb 1007,6 hPa 0,0 l/m 4,8 km/h (1 Bft) W 270 0 min 0,000 mm 0,0 UV-I 95 W/m 2,2 C 1,8 C 6,4 km/h (2 Bft) 95,65 %
01.03.2024 08:50 2,9 C 3,9 C 5,0 C 6,1 C 6,1 C 95 % 103 cb 99 cb 110 cb 1007,5 hPa 0,0 l/m 6,4 km/h (2 Bft) W-SW 247 0 min 0,000 mm 0,0 UV-I 93 W/m 2,2 C 1,2 C 8,0 km/h (2 Bft) 100,00 %
01.03.2024 08:49 2,9 C 3,9 C 5,0 C 6,1 C 6,1 C 95 % 104 cb 99 cb 112 cb 1007,5 hPa 0,0 l/m 3,2 km/h (1 Bft) W-SW 247 0 min 0,000 mm 0,0 UV-I 91 W/m 2,2 C 2,9 C 3,2 km/h (1 Bft) 95,65 %
01.03.2024 08:48 2,8 C 3,9 C 5,0 C 6,1 C 6,1 C 94 % 105 cb 101 cb 113 cb 1007,5 hPa 0,0 l/m 3,2 km/h (1 Bft) W-SW 247 0 min 0,000 mm 0,0 UV-I 91 W/m 1,9 C 2,8 C 4,8 km/h (1 Bft) 95,65 %
01.03.2024 08:47 2,8 C 3,9 C 5,0 C 6,1 C 6,1 C 94 % 106 cb 101 cb 113 cb 1007,5 hPa 0,0 l/m 4,8 km/h (1 Bft) W-SW 247 0 min 0,000 mm 0,0 UV-I 90 W/m 1,9 C 1,7 C 6,4 km/h (2 Bft) 100,00 %
01.03.2024 08:46 2,8 C 3,9 C 5,0 C 6,1 C 6,1 C 94 % 108 cb 103 cb 115 cb 1007,5 hPa 0,0 l/m 4,8 km/h (1 Bft) W 270 0 min 0,000 mm 0,0 UV-I 90 W/m 1,9 C 1,7 C 6,4 km/h (2 Bft) 95,65 %
01.03.2024 08:45 2,8 C 3,9 C 5,0 C 6,1 C 6,1 C 95 % 108 cb 103 cb 115 cb 1007,5 hPa 0,0 l/m 4,8 km/h (1 Bft) W-SW 247 0 min 0,000 mm 0,0 UV-I 88 W/m 2,1 C 1,7 C 6,4 km/h (2 Bft) 91,30 %
01.03.2024 08:44 2,8 C 3,9 C 5,0 C 6,1 C 6,1 C 94 % 109 cb 103 cb 119 cb 1007,5 hPa 0,0 l/m 4,8 km/h (1 Bft) W-SW 247 0 min 0,000 mm 0,0 UV-I 86 W/m 1,9 C 1,7 C 6,4 km/h (2 Bft) 95,65 %
01.03.2024 08:43 2,7 C 3,9 C 5,0 C 6,1 C 6,1 C 94 % 110 cb 105 cb 119 cb 1007,6 hPa 0,0 l/m 3,2 km/h (1 Bft) W-SW 247 0 min 0,000 mm 0,0 UV-I 84 W/m 1,8 C 2,7 C 4,8 km/h (1 Bft) 95,65 %
01.03.2024 08:42 2,7 C 3,9 C 5,0 C 6,1 C 6,1 C 95 % 111 cb 105 cb 119 cb 1007,5 hPa 0,0 l/m 0,0 km/h (0 Bft) W-SW 247 0 min 0,000 mm 0,0 UV-I 84 W/m 2,0 C 2,7 C 3,2 km/h (1 Bft) 95,65 %
01.03.2024 08:41 2,7 C 3,9 C 5,0 C 6,1 C 6,1 C 95 % 111 cb 105 cb 118 cb 1007,5 hPa 0,0 l/m 3,2 km/h (1 Bft) W-SW 247 0 min 0,000 mm 0,0 UV-I 84 W/m 2,0 C 2,7 C 6,4 km/h (2 Bft) 100,00 %
01.03.2024 08:40 2,7 C 3,9 C 5,0 C 6,1 C 6,1 C 95 % 111 cb 106 cb 117 cb 1007,6 hPa 0,0 l/m 4,8 km/h (1 Bft) W-SW 247 0 min 0,000 mm 0,0 UV-I 83 W/m 2,0 C 1,6 C 6,4 km/h (2 Bft) 95,65 %
01.03.2024 08:39 2,7 C 3,9 C 5,0 C 6,1 C 6,1 C 95 % 111 cb 106 cb 119 cb 1007,5 hPa 0,0 l/m 4,8 km/h (1 Bft) W-SW 247 0 min 0,000 mm 0,0 UV-I 83 W/m 2,0 C 1,6 C 6,4 km/h (2 Bft) 95,65 %
01.03.2024 08:38 2,7 C 3,9 C 5,0 C 6,1 C 6,1 C 95 % 108 cb 102 cb 116 cb 1007,6 hPa 0,0 l/m 4,8 km/h (1 Bft) W-SW 247 0 min 0,000 mm 0,0 UV-I 81 W/m 2,0 C 1,6 C 4,8 km/h (1 Bft) 91,30 %
01.03.2024 08:37 2,7 C 3,9 C 5,0 C 6,1 C 6,1 C 95 % 107 cb 103 cb 115 cb 1007,5 hPa 0,0 l/m 4,8 km/h (1 Bft) W-SW 247 0 min 0,000 mm 0,0 UV-I 79 W/m 2,0 C 1,6 C 6,4 km/h (2 Bft) 91,30 %
01.03.2024 08:36 2,7 C 3,9 C 5,0 C 6,1 C 6,1 C 95 % 108 cb 103 cb 115 cb 1007,5 hPa 0,0 l/m 4,8 km/h (1 Bft) W-SW 247 0 min 0,000 mm 0,0 UV-I 79 W/m 2,0 C 1,6 C 6,4 km/h (2 Bft) 91,30 %
01.03.2024 08:35 2,6 C 3,9 C 5,0 C 6,1 C 6,1 C 95 % 113 cb 109 cb 117 cb 1007,5 hPa 0,0 l/m 3,2 km/h (1 Bft) W-SW 247 0 min 0,000 mm 0,0 UV-I 77 W/m 1,9 C 2,6 C 4,8 km/h (1 Bft) 100,00 %
01.03.2024 08:34 2,6 C 3,9 C 5,0 C 6,1 C 6,1 C 95 % 111 cb 107 cb 119 cb 1007,5 hPa 0,0 l/m 3,2 km/h (1 Bft) W-SW 247 0 min 0,000 mm 0,0 UV-I 77 W/m 1,9 C 2,6 C 4,8 km/h (1 Bft) 95,65 %
01.03.2024 08:33 2,6 C 3,9 C 5,0 C 6,1 C 6,1 C 95 % 111 cb 106 cb 119 cb 1007,5 hPa 0,0 l/m 1,6 km/h (1 Bft) W-SW 247 0 min 0,000 mm 0,0 UV-I 77 W/m 1,9 C 2,6 C 3,2 km/h (1 Bft) 95,65 %
01.03.2024 08:32 2,6 C 3,9 C 5,0 C 6,1 C 6,1 C 95 % 108 cb 104 cb 115 cb 1007,5 hPa 0,0 l/m 3,2 km/h (1 Bft) W-SW 247 0 min 0,000 mm 0,0 UV-I 76 W/m 1,9 C 2,6 C 4,8 km/h (1 Bft) 95,65 %
01.03.2024 08:31 2,6 C 3,9 C 5,0 C 6,1 C 6,1 C 95 % 108 cb 103 cb 115 cb 1007,4 hPa 0,0 l/m 3,2 km/h (1 Bft) W-SW 247 0 min 0,000 mm 0,0 UV-I 76 W/m 1,9 C 2,6 C 4,8 km/h (1 Bft) 95,65 %
01.03.2024 08:30 2,6 C 3,9 C 5,0 C 6,1 C 6,1 C 95 % 108 cb 103 cb 115 cb 1007,5 hPa 0,0 l/m 1,6 km/h (1 Bft) W-SW 247 0 min 0,000 mm 0,0 UV-I 74 W/m 1,9 C 2,6 C 3,2 km/h (1 Bft) 95,65 %
01.03.2024 08:29 2,6 C 3,9 C 5,0 C 6,1 C 6,1 C 95 % 109 cb 105 cb 118 cb 1007,5 hPa 0,0 l/m 1,6 km/h (1 Bft) W-SW 247 0 min 0,000 mm 0,0 UV-I 74 W/m 1,9 C 2,6 C 3,2 km/h (1 Bft) 100,00 %
01.03.2024 08:28 2,6 C 3,9 C 5,0 C 6,1 C 6,1 C 95 % 109 cb 105 cb 117 cb 1007,5 hPa 0,0 l/m 3,2 km/h (1 Bft) W-SW 247 0 min 0,000 mm 0,0 UV-I 74 W/m 1,9 C 2,6 C 4,8 km/h (1 Bft) 95,65 %
01.03.2024 08:27 2,6 C 3,9 C 5,0 C 6,1 C 6,1 C 94 % 108 cb 103 cb 115 cb 1007,6 hPa 0,0 l/m 3,2 km/h (1 Bft) W-SW 247 0 min 0,000 mm 0,0 UV-I 72 W/m 1,7 C 2,6 C 4,8 km/h (1 Bft) 95,65 %
01.03.2024 08:26 2,5 C 3,9 C 5,0 C 6,1 C 6,1 C 94 % 109 cb 105 cb 113 cb 1007,5 hPa 0,0 l/m 3,2 km/h (1 Bft) W-SW 247 0 min 0,000 mm 0,0 UV-I 72 W/m 1,6 C 2,5 C 4,8 km/h (1 Bft) 95,65 %
01.03.2024 08:25 2,5 C 3,9 C 5,0 C 6,1 C 6,1 C 94 % 108 cb 103 cb 115 cb 1007,5 hPa 0,0 l/m 3,2 km/h (1 Bft) W-SW 247 0 min 0,000 mm 0,0 UV-I 70 W/m 1,6 C 2,5 C 4,8 km/h (1 Bft) 100,00 %
01.03.2024 08:24 2,4 C 3,9 C 5,0 C 6,1 C 6,1 C 94 % 108 cb 104 cb 116 cb 1007,5 hPa 0,0 l/m 3,2 km/h (1 Bft) W-SW 247 0 min 0,000 mm 0,0 UV-I 70 W/m 1,5 C 2,4 C 4,8 km/h (1 Bft) 95,65 %
01.03.2024 08:23 2,4 C 3,9 C 5,0 C 6,1 C 6,1 C 94 % 109 cb 104 cb 111 cb 1007,5 hPa 0,0 l/m 3,2 km/h (1 Bft) W-SW 247 0 min 0,000 mm 0,0 UV-I 69 W/m 1,5 C 2,4 C 4,8 km/h (1 Bft) 95,65 %
01.03.2024 08:22 2,4 C 3,9 C 5,0 C 6,1 C 6,1 C 94 % 106 cb 101 cb 111 cb 1007,5 hPa 0,0 l/m 4,8 km/h (1 Bft) W-SW 247 0 min 0,000 mm 0,0 UV-I 69 W/m 1,5 C 1,2 C 8,0 km/h (2 Bft) 95,65 %
01.03.2024 08:21 2,4 C 3,9 C 5,0 C 6,1 C 6,1 C 94 % 107 cb 103 cb 115 cb 1007,4 hPa 0,0 l/m 6,4 km/h (2 Bft) W-SW 247 0 min 0,000 mm 0,0 UV-I 67 W/m 1,5 C 0,6 C 9,7 km/h (2 Bft) 95,65 %
01.03.2024 08:20 2,4 C 3,9 C 5,0 C 6,1 C 6,1 C 94 % 108 cb 105 cb 114 cb 1007,5 hPa 0,0 l/m 6,4 km/h (2 Bft) W-SW 247 0 min 0,000 mm 0,0 UV-I 65 W/m 1,5 C 0,6 C 8,0 km/h (2 Bft) 95,65 %
01.03.2024 08:19 2,4 C 3,9 C 5,0 C 6,1 C 6,1 C 94 % 105 cb 100 cb 111 cb 1007,5 hPa 0,0 l/m 6,4 km/h (2 Bft) W-SW 247 0 min 0,000 mm 0,0 UV-I 65 W/m 1,5 C 0,6 C 9,7 km/h (2 Bft) 100,00 %
01.03.2024 08:18 2,4 C 3,9 C 5,0 C 6,1 C 6,1 C 94 % 105 cb 100 cb 113 cb 1007,5 hPa 0,0 l/m 6,4 km/h (2 Bft) W-SW 247 0 min 0,000 mm 0,0 UV-I 63 W/m 1,5 C 0,6 C 9,7 km/h (2 Bft) 95,65 %
01.03.2024 08:17 2,4 C 3,9 C 5,0 C 6,1 C 6,1 C 94 % 106 cb 101 cb 113 cb 1007,6 hPa 0,0 l/m 6,4 km/h (2 Bft) W-SW 247 0 min 0,000 mm 0,0 UV-I 63 W/m 1,5 C 0,6 C 8,0 km/h (2 Bft) 95,65 %
01.03.2024 08:16 2,4 C 3,9 C 5,0 C 6,1 C 6,1 C 94 % 105 cb 101 cb 115 cb 1007,5 hPa 0,0 l/m 6,4 km/h (2 Bft) W-SW 247 0 min 0,000 mm 0,0 UV-I 63 W/m 1,5 C 0,6 C 11,3 km/h (2 Bft) 100,00 %
01.03.2024 08:15 2,4 C 3,9 C 5,0 C 6,1 C 6,1 C 94 % 106 cb 101 cb 113 cb 1007,6 hPa 0,0 l/m 8,0 km/h (2 Bft) W-SW 247 0 min 0,000 mm 0,0 UV-I 62 W/m 1,5 C 0,1 C 9,7 km/h (2 Bft) 91,30 %
01.03.2024 08:14 2,3 C 3,9 C 5,0 C 6,1 C 6,1 C 94 % 113 cb 104 cb 115 cb 1007,6 hPa 0,0 l/m 4,8 km/h (1 Bft) W-SW 247 0 min 0,000 mm 0,0 UV-I 62 W/m 1,4 C 1,1 C 6,4 km/h (2 Bft) 95,65 %
01.03.2024 08:13 2,3 C 3,9 C 5,0 C 6,1 C 6,1 C 94 % 113 cb 109 cb 123 cb 1007,6 hPa 0,0 l/m 6,4 km/h (2 Bft) W-SW 247 0 min 0,000 mm 0,0 UV-I 60 W/m 1,4 C 0,5 C 8,0 km/h (2 Bft) 100,00 %
01.03.2024 08:12 2,3 C 3,9 C 5,0 C 6,1 C 6,1 C 94 % 108 cb 104 cb 118 cb 1007,5 hPa 0,0 l/m 6,4 km/h (2 Bft) W-SW 247 0 min 0,000 mm 0,0 UV-I 60 W/m 1,4 C 0,5 C 8,0 km/h (2 Bft) 95,65 %
01.03.2024 08:11 2,3 C 3,9 C 5,0 C 6,1 C 6,1 C 94 % 110 cb 104 cb 116 cb 1007,6 hPa 0,0 l/m 6,4 km/h (2 Bft) W-SW 247 0 min 0,000 mm 0,0 UV-I 58 W/m 1,4 C 0,5 C 6,4 km/h (2 Bft) 95,65 %
01.03.2024 08:10 2,3 C 3,9 C 5,0 C 6,1 C 6,1 C 94 % 109 cb 105 cb 117 cb 1007,5 hPa 0,0 l/m 6,4 km/h (2 Bft) W-SW 247 0 min 0,000 mm 0,0 UV-I 58 W/m 1,4 C 0,5 C 8,0 km/h (2 Bft) 100,00 %
01.03.2024 08:09 2,3 C 3,9 C 5,0 C 6,1 C 6,1 C 94 % 107 cb 103 cb 115 cb 1007,5 hPa 0,0 l/m 6,4 km/h (2 Bft) W-SW 247 0 min 0,000 mm 0,0 UV-I 58 W/m 1,4 C 0,5 C 8,0 km/h (2 Bft) 95,65 %
01.03.2024 08:08 2,3 C 3,9 C 5,0 C 6,1 C 6,1 C 94 % 107 cb 103 cb 114 cb 1007,5 hPa 0,0 l/m 4,8 km/h (1 Bft) W-SW 247 0 min 0,000 mm 0,0 UV-I 56 W/m 1,4 C 1,1 C 6,4 km/h (2 Bft) 91,30 %
01.03.2024 08:07 2,3 C 3,9 C 5,0 C 6,1 C 6,1 C 94 % 107 cb 102 cb 115 cb 1007,5 hPa 0,0 l/m 4,8 km/h (1 Bft) W-SW 247 0 min 0,000 mm 0,0 UV-I 56 W/m 1,4 C 1,1 C 6,4 km/h (2 Bft) 100,00 %
01.03.2024 08:06 2,2 C 3,9 C 5,0 C 6,1 C 6,1 C 94 % 106 cb 101 cb 113 cb 1007,5 hPa 0,0 l/m 4,8 km/h (1 Bft) W-SW 247 0 min 0,000 mm 0,0 UV-I 54 W/m 1,3 C 1,0 C 6,4 km/h (2 Bft) 95,65 %
01.03.2024 08:05 2,3 C 3,9 C 5,0 C 6,1 C 6,1 C 94 % 108 cb 103 cb 114 cb 1007,5 hPa 0,0 l/m 4,8 km/h (1 Bft) W-SW 247 0 min 0,000 mm 0,0 UV-I 54 W/m 1,4 C 1,1 C 6,4 km/h (2 Bft) 95,65 %
01.03.2024 08:04 2,2 C 3,9 C 5,0 C 6,1 C 6,1 C 94 % 108 cb 103 cb 115 cb 1007,5 hPa 0,0 l/m 4,8 km/h (1 Bft) W-SW 247 0 min 0,000 mm 0,0 UV-I 53 W/m 1,3 C 1,0 C 6,4 km/h (2 Bft) 100,00 %
01.03.2024 08:03 2,2 C 3,9 C 5,0 C 6,1 C 6,1 C 94 % 108 cb 104 cb 117 cb 1007,5 hPa 0,0 l/m 4,8 km/h (1 Bft) W-SW 247 0 min 0,000 mm 0,0 UV-I 53 W/m 1,3 C 1,0 C 6,4 km/h (2 Bft) 91,30 %
01.03.2024 08:02 2,2 C 3,9 C 5,0 C 6,1 C 6,1 C 94 % 109 cb 104 cb 118 cb 1007,5 hPa 0,0 l/m 4,8 km/h (1 Bft) W-SW 247 0 min 0,000 mm 0,0 UV-I 51 W/m 1,3 C 1,0 C 6,4 km/h (2 Bft) 91,30 %
01.03.2024 08:01 2,2 C 3,9 C 5,0 C 6,1 C 6,1 C 94 % 113 cb 107 cb 118 cb 1007,5 hPa 0,0 l/m 3,2 km/h (1 Bft) W-SW 247 0 min 0,000 mm 0,0 UV-I 51 W/m 1,3 C 2,2 C 4,8 km/h (1 Bft) 95,65 %
01.03.2024 08:00 2,2 C 3,9 C 5,0 C 6,1 C 6,1 C 94 % 109 cb 105 cb 117 cb 1007,4 hPa 0,0 l/m 3,2 km/h (1 Bft) W-SW 247 0 min 0,000 mm 0,0 UV-I 49 W/m 1,3 C 2,2 C 4,8 km/h (1 Bft) 95,65 %
01.03.2024 07:59 2,2 C 3,9 C 5,0 C 6,1 C 6,1 C 94 % 112 cb 107 cb 119 cb 1007,5 hPa 0,0 l/m 4,8 km/h (1 Bft) W-SW 247 0 min 0,000 mm 0,0 UV-I 49 W/m 1,3 C 1,0 C 6,4 km/h (2 Bft) 95,65 %
01.03.2024 07:58 2,2 C 3,9 C 5,0 C 6,1 C 6,1 C 94 % 106 cb 101 cb 113 cb 1007,5 hPa 0,0 l/m 6,4 km/h (2 Bft) W-SW 247 0 min 0,000 mm 0,0 UV-I 49 W/m 1,3 C 0,4 C 6,4 km/h (2 Bft) 100,00 %
01.03.2024 07:57 2,2 C 3,9 C 5,0 C 6,1 C 6,1 C 94 % 106 cb 101 cb 113 cb 1007,3 hPa 0,0 l/m 6,4 km/h (2 Bft) W-SW 247 0 min 0,000 mm 0,0 UV-I 47 W/m 1,3 C 0,4 C 8,0 km/h (2 Bft) 95,65 %
01.03.2024 07:56 2,2 C 3,9 C 5,0 C 6,1 C 6,1 C 94 % 106 cb 103 cb 114 cb 1007,3 hPa 0,0 l/m 6,4 km/h (2 Bft) W-SW 247 0 min 0,000 mm 0,0 UV-I 47 W/m 1,3 C 0,4 C 8,0 km/h (2 Bft) 95,65 %
01.03.2024 07:55 2,2 C 3,9 C 5,0 C 6,1 C 6,1 C 94 % 108 cb 102 cb 115 cb 1007,4 hPa 0,0 l/m 3,2 km/h (1 Bft) W-SW 247 0 min 0,000 mm 0,0 UV-I 46 W/m 1,3 C 2,2 C 4,8 km/h (1 Bft) 95,65 %
01.03.2024 07:54 2,2 C 3,9 C 5,0 C 6,1 C 6,1 C 94 % 109 cb 104 cb 117 cb 1007,3 hPa 0,0 l/m 4,8 km/h (1 Bft) W-SW 247 0 min 0,000 mm 0,0 UV-I 46 W/m 1,3 C 1,0 C 4,8 km/h (1 Bft) 95,65 %
01.03.2024 07:53 2,1 C 3,9 C 5,0 C 6,1 C 6,1 C 94 % 108 cb 105 cb 118 cb 1007,4 hPa 0,0 l/m 4,8 km/h (1 Bft) W-SW 247 0 min 0,000 mm 0,0 UV-I 44 W/m 1,2 C 0,9 C 6,4 km/h (2 Bft) 95,65 %
01.03.2024 07:52 2,2 C 3,9 C 5,0 C 6,1 C 6,1 C 94 % 109 cb 104 cb 115 cb 1007,4 hPa 0,0 l/m 6,4 km/h (2 Bft) W-SW 247 0 min 0,000 mm 0,0 UV-I 44 W/m 1,3 C 0,4 C 8,0 km/h (2 Bft) 95,65 %
01.03.2024 07:51 2,1 C 3,9 C 5,0 C 6,1 C 6,1 C 94 % 104 cb 101 cb 117 cb 1007,4 hPa 0,0 l/m 4,8 km/h (1 Bft) W-SW 247 0 min 0,000 mm 0,0 UV-I 42 W/m 1,2 C 0,9 C 8,0 km/h (2 Bft) 95,65 %
01.03.2024 07:50 2,1 C 3,9 C 5,0 C 6,1 C 6,1 C 94 % 108 cb 102 cb 113 cb 1007,4 hPa 0,0 l/m 4,8 km/h (1 Bft) W-SW 247 0 min 0,000 mm 0,0 UV-I 42 W/m 1,2 C 0,9 C 6,4 km/h (2 Bft) 91,30 %
01.03.2024 07:49 2,1 C 3,9 C 5,0 C 6,1 C 6,1 C 94 % 108 cb 103 cb 115 cb 1007,5 hPa 0,0 l/m 3,2 km/h (1 Bft) W-SW 247 0 min 0,000 mm 0,0 UV-I 42 W/m 1,2 C 2,1 C 4,8 km/h (1 Bft) 91,30 %
01.03.2024 07:48 2,1 C 3,9 C 5,0 C 6,1 C 6,1 C 94 % 110 cb 107 cb 121 cb 1007,5 hPa 0,0 l/m 3,2 km/h (1 Bft) W-SW 247 0 min 0,000 mm 0,0 UV-I 40 W/m 1,2 C 2,1 C 4,8 km/h (1 Bft) 95,65 %
01.03.2024 07:47 2,1 C 3,9 C 5,0 C 6,1 C 6,1 C 94 % 115 cb 108 cb 115 cb 1007,5 hPa 0,0 l/m 1,6 km/h (1 Bft) W-SW 247 0 min 0,000 mm 0,0 UV-I 40 W/m 1,2 C 2,1 C 3,2 km/h (1 Bft) 95,65 %
01.03.2024 07:46 2,1 C 3,9 C 5,0 C 6,1 C 6,1 C 94 % 108 cb 100 cb 112 cb 1007,4 hPa 0,0 l/m 1,6 km/h (1 Bft) W-SW 247 0 min 0,000 mm 0,0 UV-I 39 W/m 1,2 C 2,1 C 3,2 km/h (1 Bft) 100,00 %
01.03.2024 07:45 2,1 C 3,9 C 5,0 C 6,1 C 6,1 C 94 % 104 cb 99 cb 111 cb 1007,3 hPa 0,0 l/m 1,6 km/h (1 Bft) W-SW 247 0 min 0,000 mm 0,0 UV-I 37 W/m 1,2 C 2,1 C 3,2 km/h (1 Bft) 95,65 %
01.03.2024 07:44 2,1 C 3,9 C 5,0 C 6,1 C 6,1 C 94 % 109 cb 107 cb 115 cb 1007,4 hPa 0,0 l/m 1,6 km/h (1 Bft) W-SW 247 0 min 0,000 mm 0,0 UV-I 37 W/m 1,2 C 2,1 C 3,2 km/h (1 Bft) 95,65 %
01.03.2024 07:43 2,1 C 3,9 C 5,0 C 6,1 C 6,1 C 94 % 109 cb 104 cb 115 cb 1007,3 hPa 0,0 l/m 1,6 km/h (1 Bft) W-SW 247 0 min 0,000 mm 0,0 UV-I 35 W/m 1,2 C 2,1 C 3,2 km/h (1 Bft) 91,30 %
01.03.2024 07:42 2,1 C 3,9 C 5,0 C 6,1 C 6,1 C 94 % 109 cb 103 cb 124 cb 1007,4 hPa 0,0 l/m 1,6 km/h (1 Bft) W-SW 247 0 min 0,000 mm 0,0 UV-I 35 W/m 1,2 C 2,1 C 4,8 km/h (1 Bft) 100,00 %
01.03.2024 07:41 2,1 C 3,9 C 5,0 C 6,1 C 6,1 C 94 % 106 cb 103 cb 114 cb 1007,3 hPa 0,0 l/m 1,6 km/h (1 Bft) W-SW 247 0 min 0,000 mm 0,0 UV-I 35 W/m 1,2 C 2,1 C 3,2 km/h (1 Bft) 91,30 %
01.03.2024 07:40 2,1 C 3,9 C 5,0 C 6,1 C 6,1 C 94 % 106 cb 102 cb 114 cb 1007,3 hPa 0,0 l/m 3,2 km/h (1 Bft) W-SW 247 0 min 0,000 mm 0,0 UV-I 33 W/m 1,2 C 2,1 C 4,8 km/h (1 Bft) 95,65 %
01.03.2024 07:39 2,0 C 3,9 C 5,0 C 6,1 C 6,1 C 94 % 110 cb 105 cb 115 cb 1007,4 hPa 0,0 l/m 3,2 km/h (1 Bft) W-SW 247 0 min 0,000 mm 0,0 UV-I 32 W/m 1,1 C 2,0 C 4,8 km/h (1 Bft) 100,00 %
01.03.2024 07:38 2,0 C 3,9 C 5,0 C 6,1 C 6,1 C 94 % 106 cb 104 cb 116 cb 1007,4 hPa 0,0 l/m 3,2 km/h (1 Bft) W-SW 247 0 min 0,000 mm 0,0 UV-I 32 W/m 1,1 C 2,0 C 4,8 km/h (1 Bft) 95,65 %
01.03.2024 07:37 2,0 C 3,9 C 5,0 C 6,1 C 6,1 C 94 % 113 cb 105 cb 117 cb 1007,3 hPa 0,0 l/m 3,2 km/h (1 Bft) W-SW 247 0 min 0,000 mm 0,0 UV-I 30 W/m 1,1 C 2,0 C 4,8 km/h (1 Bft) 95,65 %
01.03.2024 07:36 1,9 C 3,9 C 5,0 C 6,1 C 6,1 C 94 % 111 cb 105 cb 117 cb 1007,4 hPa 0,0 l/m 4,8 km/h (1 Bft) W-SW 247 0 min 0,000 mm 0,0 UV-I 30 W/m 1,0 C 0,7 C 6,4 km/h (2 Bft) 100,00 %
01.03.2024 07:35 1,9 C 3,9 C 5,0 C 6,1 C 6,1 C 94 % 107 cb 102 cb 113 cb 1007,3 hPa 0,0 l/m 4,8 km/h (1 Bft) W-SW 247 0 min 0,000 mm 0,0 UV-I 30 W/m 1,0 C 0,7 C 6,4 km/h (2 Bft) 95,65 %
01.03.2024 07:34 1,9 C 3,9 C 5,0 C 6,1 C 6,1 C 94 % 105 cb 100 cb 113 cb 1007,5 hPa 0,0 l/m 4,8 km/h (1 Bft) W-SW 247 0 min 0,000 mm 0,0 UV-I 28 W/m 1,0 C 0,7 C 6,4 km/h (2 Bft) 95,65 %
01.03.2024 07:33 1,9 C 3,9 C 5,0 C 6,1 C 6,1 C 94 % 105 cb 100 cb 112 cb 1007,4 hPa 0,0 l/m 3,2 km/h (1 Bft) W-SW 247 0 min 0,000 mm 0,0 UV-I 26 W/m 1,0 C 1,9 C 4,8 km/h (1 Bft) 100,00 %
01.03.2024 07:32 2,0 C 3,9 C 5,0 C 6,1 C 6,1 C 94 % 105 cb 101 cb 112 cb 1007,5 hPa 0,0 l/m 3,2 km/h (1 Bft) W-SW 247 0 min 0,000 mm 0,0 UV-I 26 W/m 1,1 C 2,0 C 4,8 km/h (1 Bft) 95,65 %
01.03.2024 07:31 1,9 C 3,9 C 5,0 C 6,1 C 6,1 C 94 % 104 cb 99 cb 109 cb 1007,5 hPa 0,0 l/m 4,8 km/h (1 Bft) W-SW 247 0 min 0,000 mm 0,0 UV-I 26 W/m 1,0 C 0,7 C 6,4 km/h (2 Bft) 95,65 %
01.03.2024 07:30 1,9 C 3,9 C 5,0 C 6,1 C 6,1 C 94 % 102 cb 98 cb 110 cb 1007,4 hPa 0,0 l/m 4,8 km/h (1 Bft) W-SW 247 0 min 0,000 mm 0,0 UV-I 25 W/m 1,0 C 0,7 C 6,4 km/h (2 Bft) 100,00 %
01.03.2024 07:29 1,9 C 3,9 C 5,0 C 6,1 C 6,1 C 94 % 108 cb 103 cb 117 cb 1007,4 hPa 0,0 l/m 3,2 km/h (1 Bft) W-SW 247 0 min 0,000 mm 0,0 UV-I 25 W/m 1,0 C 1,9 C 4,8 km/h (1 Bft) 95,65 %
01.03.2024 07:28 1,9 C 3,9 C 5,0 C 6,1 C 6,1 C 94 % 111 cb 105 cb 117 cb 1007,3 hPa 0,0 l/m 4,8 km/h (1 Bft) W-SW 247 0 min 0,000 mm 0,0 UV-I 25 W/m 1,0 C 0,7 C 6,4 km/h (2 Bft) 95,65 %
01.03.2024 07:27 2,0 C 3,9 C 5,0 C 6,1 C 6,1 C 94 % 112 cb 107 cb 118 cb 1007,3 hPa 0,0 l/m 4,8 km/h (1 Bft) W-SW 247 0 min 0,000 mm 0,0 UV-I 23 W/m 1,1 C 0,8 C 6,4 km/h (2 Bft) 100,00 %
01.03.2024 07:26 2,0 C 3,9 C 5,0 C 6,1 C 6,1 C 94 % 111 cb 105 cb 119 cb 1007,3 hPa 0,0 l/m 3,2 km/h (1 Bft) W-SW 247 0 min 0,000 mm 0,0 UV-I 21 W/m 1,1 C 2,0 C 4,8 km/h (1 Bft) 95,65 %
01.03.2024 07:25 2,0 C 3,9 C 5,0 C 6,1 C 6,1 C 94 % 112 cb 107 cb 120 cb 1007,3 hPa 0,0 l/m 3,2 km/h (1 Bft) SW 225 0 min 0,000 mm 0,0 UV-I 21 W/m 1,1 C 2,0 C 6,4 km/h (2 Bft) 91,30 %
01.03.2024 07:24 1,9 C 3,9 C 5,0 C 6,1 C 6,1 C 94 % 114 cb 109 cb 121 cb 1007,3 hPa 0,0 l/m 3,2 km/h (1 Bft) SW 225 0 min 0,000 mm 0,0 UV-I 21 W/m 1,0 C 1,9 C 3,2 km/h (1 Bft) 100,00 %
01.03.2024 07:23 1,9 C 3,9 C 5,0 C 6,1 C 6,1 C 94 % 113 cb 108 cb 121 cb 1007,3 hPa 0,0 l/m 3,2 km/h (1 Bft) SW 225 0 min 0,000 mm 0,0 UV-I 21 W/m 1,0 C 1,9 C 3,2 km/h (1 Bft) 95,65 %
01.03.2024 07:22 1,9 C 3,9 C 5,0 C 6,1 C 6,1 C 94 % 113 cb 108 cb 121 cb 1007,2 hPa 0,0 l/m 3,2 km/h (1 Bft) SW 225 0 min 0,000 mm 0,0 UV-I 19 W/m 1,0 C 1,9 C 4,8 km/h (1 Bft) 95,65 %
01.03.2024 07:21 1,9 C 3,9 C 5,0 C 6,1 C 6,1 C 94 % 113 cb 107 cb 118 cb 1007,2 hPa 0,0 l/m 3,2 km/h (1 Bft) SW 225 0 min 0,000 mm 0,0 UV-I 18 W/m 1,0 C 1,9 C 4,8 km/h (1 Bft) 100,00 %
01.03.2024 07:20 1,9 C 3,9 C 5,0 C 6,1 C 6,1 C 94 % 113 cb 107 cb 119 cb 1007,2 hPa 0,0 l/m 3,2 km/h (1 Bft) SW 225 0 min 0,000 mm 0,0 UV-I 18 W/m 1,0 C 1,9 C 4,8 km/h (1 Bft) 95,65 %
01.03.2024 07:19 1,9 C 3,9 C 5,0 C 6,1 C 6,1 C 94 % 111 cb 106 cb 119 cb 1007,2 hPa 0,0 l/m 3,2 km/h (1 Bft) SW 225 0 min 0,000 mm 0,0 UV-I 18 W/m 1,0 C 1,9 C 4,8 km/h (1 Bft) 95,65 %
01.03.2024 07:18 1,9 C 3,9 C 5,0 C 6,1 C 6,1 C 94 % 113 cb 108 cb 121 cb 1007,2 hPa 0,0 l/m 3,2 km/h (1 Bft) SW 225 0 min 0,000 mm 0,0 UV-I 16 W/m 1,0 C 1,9 C 4,8 km/h (1 Bft) 100,00 %
01.03.2024 07:17 1,9 C 3,9 C 5,0 C 6,1 C 6,1 C 94 % 114 cb 110 cb 123 cb 1007,2 hPa 0,0 l/m 1,6 km/h (1 Bft) SW 225 0 min 0,000 mm 0,0 UV-I 16 W/m 1,0 C 1,9 C 3,2 km/h (1 Bft) 95,65 %
01.03.2024 07:16 1,9 C 3,9 C 5,0 C 6,1 C 6,1 C 94 % 114 cb 107 cb 121 cb 1007,2 hPa 0,0 l/m 1,6 km/h (1 Bft) SW 225 0 min 0,000 mm 0,0 UV-I 16 W/m 1,0 C 1,9 C 3,2 km/h (1 Bft) 95,65 %
01.03.2024 07:15 1,9 C 3,9 C 5,0 C 6,1 C 6,1 C 94 % 110 cb 105 cb 119 cb 1007,2 hPa 0,0 l/m 1,6 km/h (1 Bft) SW 225 0 min 0,000 mm 0,0 UV-I 14 W/m 1,0 C 1,9 C 1,6 km/h (1 Bft) 100,00 %
01.03.2024 07:14 1,9 C 3,9 C 5,0 C 6,1 C 6,1 C 94 % 119 cb 113 cb 121 cb 1007,2 hPa 0,0 l/m 1,6 km/h (1 Bft) SW 225 0 min 0,000 mm 0,0 UV-I 14 W/m 1,0 C 1,9 C 1,6 km/h (1 Bft) 95,65 %
01.03.2024 07:13 1,9 C 3,9 C 5,0 C 6,1 C 6,1 C 94 % 115 cb 108 cb 122 cb 1007,2 hPa 0,0 l/m 0,0 km/h (0 Bft) SW 225 0 min 0,000 mm 0,0 UV-I 14 W/m 1,0 C 1,9 C 1,6 km/h (1 Bft) 91,30 %
01.03.2024 07:12 1,9 C 3,9 C 5,0 C 6,1 C 6,1 C 94 % 109 cb 104 cb 117 cb 1007,2 hPa 0,0 l/m 1,6 km/h (1 Bft) SW 225 0 min 0,000 mm 0,0 UV-I 12 W/m 1,0 C 1,9 C 3,2 km/h (1 Bft) 95,65 %
01.03.2024 07:11 1,9 C 3,9 C 5,0 C 6,1 C 6,1 C 94 % 108 cb 103 cb 115 cb 1007,1 hPa 0,0 l/m 1,6 km/h (1 Bft) SW 225 0 min 0,000 mm 0,0 UV-I 12 W/m 1,0 C 1,9 C 3,2 km/h (1 Bft) 95,65 %
01.03.2024 07:10 1,9 C 3,9 C 5,0 C 6,1 C 6,1 C 94 % 107 cb 103 cb 115 cb 1007,1 hPa 0,0 l/m 3,2 km/h (1 Bft) SW 225 0 min 0,000 mm 0,0 UV-I 11 W/m 1,0 C 1,9 C 3,2 km/h (1 Bft) 95,65 %
01.03.2024 07:09 1,9 C 3,9 C 5,0 C 6,1 C 6,1 C 94 % 111 cb 104 cb 117 cb 1007,3 hPa 0,0 l/m 1,6 km/h (1 Bft) SW 225 0 min 0,000 mm 0,0 UV-I 11 W/m 1,0 C 1,9 C 3,2 km/h (1 Bft) 100,00 %
01.03.2024 07:08 1,9 C 3,9 C 5,0 C 6,1 C 6,1 C 94 % 108 cb 104 cb 115 cb 1007,2 hPa 0,0 l/m 1,6 km/h (1 Bft) SW 225 0 min 0,000 mm 0,0 UV-I 11 W/m 1,0 C 1,9 C 3,2 km/h (1 Bft) 95,65 %
01.03.2024 07:07 1,9 C 3,9 C 5,0 C 6,1 C 6,1 C 94 % 106 cb 100 cb 111 cb 1007,2 hPa 0,0 l/m 1,6 km/h (1 Bft) SW 225 0 min 0,000 mm 0,0 UV-I 11 W/m 1,0 C 1,9 C 3,2 km/h (1 Bft) 95,65 %
01.03.2024 07:06 1,9 C 3,9 C 5,0 C 6,1 C 6,1 C 94 % 110 cb 107 cb 119 cb 1007,2 hPa 0,0 l/m 3,2 km/h (1 Bft) SW 225 0 min 0,000 mm 0,0 UV-I 9 W/m 1,0 C 1,9 C 4,8 km/h (1 Bft) 100,00 %
01.03.2024 07:05 1,9 C 3,9 C 5,0 C 6,1 C 6,1 C 94 % 109 cb 104 cb 114 cb 1007,2 hPa 0,0 l/m 1,6 km/h (1 Bft) SW 225 0 min 0,000 mm 0,0 UV-I 9 W/m 1,0 C 1,9 C 3,2 km/h (1 Bft) 95,65 %
01.03.2024 07:04 1,9 C 3,9 C 5,0 C 6,1 C 6,1 C 94 % 104 cb 99 cb 108 cb 1007,3 hPa 0,0 l/m 3,2 km/h (1 Bft) SW 225 0 min 0,000 mm 0,0 UV-I 9 W/m 1,0 C 1,9 C 4,8 km/h (1 Bft) 91,30 %
01.03.2024 07:03 1,9 C 3,9 C 5,0 C 6,1 C 6,1 C 94 % 118 cb 113 cb 126 cb 1007,1 hPa 0,0 l/m 3,2 km/h (1 Bft) SW 225 0 min 0,000 mm 0,0 UV-I 7 W/m 1,0 C 1,9 C 3,2 km/h (1 Bft) 100,00 %
01.03.2024 07:02 1,9 C 3,9 C 5,0 C 6,1 C 6,1 C 94 % 124 cb 117 cb 132 cb 1007,2 hPa 0,0 l/m 1,6 km/h (1 Bft) SW 225 0 min 0,000 mm 0,0 UV-I 7 W/m 1,0 C 1,9 C 4,8 km/h (1 Bft) 91,30 %
01.03.2024 07:01 1,9 C 3,9 C 5,0 C 6,1 C 6,1 C 94 % 115 cb 111 cb 146 cb 1007,3 hPa 0,0 l/m 3,2 km/h (1 Bft) SW 225 0 min 0,000 mm 0,0 UV-I 7 W/m 1,0 C 1,9 C 3,2 km/h (1 Bft) 95,65 %
01.03.2024 07:00 1,9 C 3,9 C 5,0 C 6,1 C 6,1 C 94 % 115 cb 108 cb 119 cb 1007,2 hPa 0,0 l/m 3,2 km/h (1 Bft) SW 225 0 min 0,000 mm 0,0 UV-I 7 W/m 1,0 C 1,9 C 4,8 km/h (1 Bft) 95,65 %
01.03.2024 06:59 1,9 C 3,9 C 5,0 C 6,1 C 6,1 C 94 % 111 cb 108 cb 119 cb 1007,2 hPa 0,0 l/m 1,6 km/h (1 Bft) SW 225 0 min 0,000 mm 0,0 UV-I 5 W/m 1,0 C 1,9 C 3,2 km/h (1 Bft) 95,65 %
01.03.2024 06:58 1,9 C 3,9 C 5,0 C 6,1 C 6,1 C 94 % 111 cb 105 cb 119 cb 1007,2 hPa 0,0 l/m 1,6 km/h (1 Bft) SW 225 0 min 0,000 mm 0,0 UV-I 5 W/m 1,0 C 1,9 C 3,2 km/h (1 Bft) 95,65 %
01.03.2024 06:57 1,9 C 3,9 C 5,0 C 6,1 C 6,1 C 94 % 109 cb 105 cb 117 cb 1007,3 hPa 0,0 l/m 0,0 km/h (0 Bft) SW 225 0 min 0,000 mm 0,0 UV-I 5 W/m 1,0 C 1,9 C 1,6 km/h (1 Bft) 95,65 %
01.03.2024 06:56 1,8 C 3,9 C 5,0 C 6,1 C 6,1 C 94 % 109 cb 105 cb 117 cb 1007,3 hPa 0,0 l/m 1,6 km/h (1 Bft) SW 225 0 min 0,000 mm 0,0 UV-I 5 W/m 0,9 C 1,8 C 1,6 km/h (1 Bft) 100,00 %
01.03.2024 06:55 1,8 C 3,9 C 5,0 C 6,1 C 6,1 C 94 % 109 cb 104 cb 117 cb 1007,2 hPa 0,0 l/m 1,6 km/h (1 Bft) SW 225 0 min 0,000 mm 0,0 UV-I 0 W/m 0,9 C 1,8 C 3,2 km/h (1 Bft) 95,65 %
01.03.2024 06:54 1,8 C 3,9 C 5,0 C 6,1 C 6,1 C 94 % 110 cb 105 cb 120 cb 1007,3 hPa 0,0 l/m 3,2 km/h (1 Bft) SW 225 0 min 0,000 mm 0,0 UV-I 0 W/m 0,9 C 1,8 C 4,8 km/h (1 Bft) 95,65 %
01.03.2024 06:53 1,8 C 3,9 C 5,0 C 6,1 C 6,1 C 94 % 109 cb 104 cb 115 cb 1007,3 hPa 0,0 l/m 4,8 km/h (1 Bft) SW 225 0 min 0,000 mm 0,0 UV-I 0 W/m 0,9 C 0,5 C 6,4 km/h (2 Bft) 100,00 %
01.03.2024 06:52 1,8 C 3,9 C 5,0 C 6,1 C 6,1 C 94 % 112 cb 107 cb 119 cb 1007,3 hPa 0,0 l/m 4,8 km/h (1 Bft) SW 225 0 min 0,000 mm 0,0 UV-I 0 W/m 0,9 C 0,5 C 6,4 km/h (2 Bft) 95,65 %
01.03.2024 06:51 1,8 C 3,9 C 5,0 C 6,1 C 6,1 C 94 % 112 cb 107 cb 119 cb 1007,3 hPa 0,0 l/m 3,2 km/h (1 Bft) SW 225 0 min 0,000 mm 0,0 UV-I 0 W/m 0,9 C 1,8 C 4,8 km/h (1 Bft) 95,65 %
01.03.2024 06:50 1,8 C 3,9 C 5,0 C 6,1 C 6,1 C 94 % 110 cb 105 cb 118 cb 1007,3 hPa 0,0 l/m 3,2 km/h (1 Bft) SW 225 0 min 0,000 mm 0,0 UV-I 0 W/m 0,9 C 1,8 C 6,4 km/h (2 Bft) 100,00 %
01.03.2024 06:49 1,8 C 3,9 C 5,0 C 6,1 C 6,1 C 94 % 109 cb 104 cb 117 cb 1007,3 hPa 0,0 l/m 3,2 km/h (1 Bft) SW 225 0 min 0,000 mm 0,0 UV-I 0 W/m 0,9 C 1,8 C 4,8 km/h (1 Bft) 95,65 %
01.03.2024 06:48 1,8 C 3,9 C 5,0 C 6,1 C 6,1 C 94 % 111 cb 106 cb 119 cb 1007,2 hPa 0,0 l/m 4,8 km/h (1 Bft) SW 225 0 min 0,000 mm 0,0 UV-I 0 W/m 0,9 C 0,5 C 6,4 km/h (2 Bft) 91,30 %
01.03.2024 06:47 1,8 C 3,9 C 5,0 C 6,1 C 6,1 C 94 % 113 cb 107 cb 121 cb 1007,2 hPa 0,0 l/m 3,2 km/h (1 Bft) SW 225 0 min 0,000 mm 0,0 UV-I 0 W/m 0,9 C 1,8 C 4,8 km/h (1 Bft) 100,00 %
01.03.2024 06:46 1,9 C 3,9 C 5,0 C 6,1 C 6,1 C 94 % 111 cb 107 cb 119 cb 1007,1 hPa 0,0 l/m 3,2 km/h (1 Bft) SW 225 0 min 0,000 mm 0,0 UV-I 0 W/m 1,0 C 1,9 C 3,2 km/h (1 Bft) 95,65 %
01.03.2024 06:45 1,9 C 3,9 C 5,0 C 6,1 C 6,1 C 94 % 113 cb 108 cb 121 cb 1007,2 hPa 0,0 l/m 1,6 km/h (1 Bft) SW 225 0 min 0,000 mm 0,0 UV-I 0 W/m 1,0 C 1,9 C 3,2 km/h (1 Bft) 95,65 %
01.03.2024 06:44 1,9 C 3,9 C 5,0 C 6,1 C 6,1 C 94 % 114 cb 108 cb 123 cb 1007,1 hPa 0,0 l/m 1,6 km/h (1 Bft) SW 225 0 min 0,000 mm 0,0 UV-I 0 W/m 1,0 C 1,9 C 3,2 km/h (1 Bft) 95,65 %
01.03.2024 06:43 1,9 C 3,9 C 5,0 C 6,1 C 6,1 C 94 % 115 cb 111 cb 123 cb 1007,1 hPa 0,0 l/m 1,6 km/h (1 Bft) SW 225 0 min 0,000 mm 0,0 UV-I 0 W/m 1,0 C 1,9 C 3,2 km/h (1 Bft) 95,65 %
01.03.2024 06:42 1,9 C 3,9 C 5,0 C 6,1 C 6,1 C 94 % 114 cb 110 cb 121 cb 1007,0 hPa 0,0 l/m 1,6 km/h (1 Bft) SW 225 0 min 0,000 mm 0,0 UV-I 0 W/m 1,0 C 1,9 C 3,2 km/h (1 Bft) 95,65 %
01.03.2024 06:41 1,9 C 3,9 C 5,0 C 6,1 C 6,1 C 94 % 114 cb 108 cb 121 cb 1007,1 hPa 0,0 l/m 3,2 km/h (1 Bft) SW 225 0 min 0,000 mm 0,0 UV-I 0 W/m 1,0 C 1,9 C 4,8 km/h (1 Bft) 100,00 %
01.03.2024 06:40 1,9 C 3,9 C 5,0 C 6,1 C 6,1 C 94 % 115 cb 108 cb 121 cb 1007,1 hPa 0,0 l/m 1,6 km/h (1 Bft) SW 225 0 min 0,000 mm 0,0 UV-I 0 W/m 1,0 C 1,9 C 3,2 km/h (1 Bft) 95,65 %
01.03.2024 06:39 1,9 C 3,9 C 5,0 C 6,1 C 6,1 C 94 % 115 cb 109 cb 123 cb 1007,1 hPa 0,0 l/m 1,6 km/h (1 Bft) SW 225 0 min 0,000 mm 0,0 UV-I 0 W/m 1,0 C 1,9 C 1,6 km/h (1 Bft) 91,30 %
01.03.2024 06:38 1,9 C 3,9 C 5,0 C 6,1 C 6,1 C 94 % 115 cb 109 cb 120 cb 1007,0 hPa 0,0 l/m 1,6 km/h (1 Bft) SW 225 0 min 0,000 mm 0,0 UV-I 0 W/m 1,0 C 1,9 C 1,6 km/h (1 Bft) 95,65 %
01.03.2024 06:37 1,9 C 3,9 C 5,0 C 6,1 C 6,1 C 94 % 112 cb 108 cb 120 cb 1007,1 hPa 0,0 l/m 1,6 km/h (1 Bft) SW 225 0 min 0,000 mm 0,0 UV-I 0 W/m 1,0 C 1,9 C 1,6 km/h (1 Bft) 95,65 %
01.03.2024 06:36 1,9 C 3,9 C 5,0 C 6,1 C 6,1 C 94 % 116 cb 111 cb 123 cb 1007,1 hPa 0,0 l/m 1,6 km/h (1 Bft) SW 225 0 min 0,000 mm 0,0 UV-I 0 W/m 1,0 C 1,9 C 3,2 km/h (1 Bft) 95,65 %
01.03.2024 06:35 1,9 C 3,9 C 5,0 C 6,1 C 6,1 C 94 % 115 cb 110 cb 122 cb 1007,1 hPa 0,0 l/m 1,6 km/h (1 Bft) SW 225 0 min 0,000 mm 0,0 UV-I 0 W/m 1,0 C 1,9 C 3,2 km/h (1 Bft) 95,65 %
01.03.2024 06:34 1,9 C 3,9 C 5,0 C 6,1 C 6,1 C 94 % 115 cb 109 cb 122 cb 1007,1 hPa 0,0 l/m 1,6 km/h (1 Bft) SW 225 0 min 0,000 mm 0,0 UV-I 0 W/m 1,0 C 1,9 C 3,2 km/h (1 Bft) 95,65 %
01.03.2024 06:33 1,9 C 3,9 C 5,0 C 6,1 C 6,1 C 94 % 114 cb 110 cb 122 cb 1007,1 hPa 0,0 l/m 3,2 km/h (1 Bft) SW 225 0 min 0,000 mm 0,0 UV-I 0 W/m 1,0 C 1,9 C 3,2 km/h (1 Bft) 95,65 %
01.03.2024 06:32 1,9 C 3,9 C 5,0 C 6,1 C 6,1 C 94 % 115 cb 109 cb 122 cb 1007,1 hPa 0,0 l/m 3,2 km/h (1 Bft) SW 225 0 min 0,000 mm 0,0 UV-I 0 W/m 1,0 C 1,9 C 4,8 km/h (1 Bft) 95,65 %
01.03.2024 06:31 1,9 C 3,9 C 5,0 C 6,1 C 6,1 C 94 % 114 cb 109 cb 123 cb 1007,0 hPa 0,0 l/m 3,2 km/h (1 Bft) SW 225 0 min 0,000 mm 0,0 UV-I 0 W/m 1,0 C 1,9 C 3,2 km/h (1 Bft) 95,65 %
01.03.2024 06:30 1,9 C 3,9 C 5,0 C 6,1 C 6,1 C 94 % 116 cb 111 cb 125 cb 1007,1 hPa 0,0 l/m 1,6 km/h (1 Bft) SW 225 0 min 0,000 mm 0,0 UV-I 0 W/m 1,0 C 1,9 C 3,2 km/h (1 Bft) 95,65 %
01.03.2024 06:29 1,9 C 3,9 C 5,0 C 6,1 C 6,1 C 94 % 113 cb 108 cb 121 cb 1007,0 hPa 0,0 l/m 1,6 km/h (1 Bft) SW 225 0 min 0,000 mm 0,0 UV-I 0 W/m 1,0 C 1,9 C 3,2 km/h (1 Bft) 95,65 %
01.03.2024 06:28 1,9 C 3,9 C 5,0 C 6,1 C 6,1 C 94 % 113 cb 109 cb 123 cb 1007,0 hPa 0,0 l/m 1,6 km/h (1 Bft) SW 225 0 min 0,000 mm 0,0 UV-I 0 W/m 1,0 C 1,9 C 1,6 km/h (1 Bft) 95,65 %
01.03.2024 06:27 1,9 C 3,9 C 5,0 C 6,1 C 6,1 C 94 % 111 cb 107 cb 120 cb 1007,0 hPa 0,0 l/m 1,6 km/h (1 Bft) SW 225 0 min 0,000 mm 0,0 UV-I 0 W/m 1,0 C 1,9 C 1,6 km/h (1 Bft) 91,30 %
01.03.2024 06:26 1,9 C 3,9 C 5,0 C 6,1 C 6,1 C 94 % 112 cb 107 cb 121 cb 1006,9 hPa 0,0 l/m 1,6 km/h (1 Bft) SW 225 0 min 0,000 mm 0,0 UV-I 0 W/m 1,0 C 1,9 C 3,2 km/h (1 Bft) 100,00 %
01.03.2024 06:25 1,9 C 3,9 C 5,0 C 6,1 C 6,1 C 94 % 114 cb 107 cb 121 cb 1007,0 hPa 0,0 l/m 3,2 km/h (1 Bft) SW 225 0 min 0,000 mm 0,0 UV-I 0 W/m 1,0 C 1,9 C 4,8 km/h (1 Bft) 95,65 %
01.03.2024 06:24 1,9 C 3,9 C 5,0 C 6,1 C 6,1 C 94 % 136 cb 106 cb 120 cb 1007,0 hPa 0,0 l/m 1,6 km/h (1 Bft) SW 225 0 min 0,000 mm 0,0 UV-I 0 W/m 1,0 C 1,9 C 3,2 km/h (1 Bft) 95,65 %
01.03.2024 06:23 1,9 C 3,9 C 5,0 C 6,1 C 6,1 C 94 % 114 cb 110 cb 119 cb 1007,0 hPa 0,0 l/m 1,6 km/h (1 Bft) SW 225 0 min 0,000 mm 0,0 UV-I 0 W/m 1,0 C 1,9 C 1,6 km/h (1 Bft) 95,65 %
01.03.2024 06:22 1,9 C 3,9 C 5,0 C 6,1 C 6,1 C 94 % 114 cb 110 cb 121 cb 1007,1 hPa 0,0 l/m 1,6 km/h (1 Bft) SW 225 0 min 0,000 mm 0,0 UV-I 0 W/m 1,0 C 1,9 C 1,6 km/h (1 Bft) 91,30 %
01.03.2024 06:21 1,9 C 3,9 C 5,0 C 6,1 C 6,1 C 94 % 113 cb 107 cb 119 cb 1007,0 hPa 0,0 l/m 0,0 km/h (0 Bft) SW 225 0 min 0,000 mm 0,0 UV-I 0 W/m 1,0 C 1,9 C 1,6 km/h (1 Bft) 91,30 %
01.03.2024 06:20 1,9 C 3,9 C 5,0 C 6,1 C 6,1 C 94 % 115 cb 108 cb 124 cb 1007,1 hPa 0,0 l/m 0,0 km/h (0 Bft) SW 225 0 min 0,000 mm 0,0 UV-I 0 W/m 1,0 C 1,9 C 1,6 km/h (1 Bft) 100,00 %
01.03.2024 06:19 1,9 C 3,9 C 5,0 C 6,1 C 6,1 C 94 % 113 cb 107 cb 119 cb 1007,1 hPa 0,0 l/m 1,6 km/h (1 Bft) SW 225 0 min 0,000 mm 0,0 UV-I 0 W/m 1,0 C 1,9 C 1,6 km/h (1 Bft) 95,65 %
01.03.2024 06:18 1,9 C 3,9 C 5,0 C 6,1 C 6,1 C 94 % 113 cb 105 cb 118 cb 1007,0 hPa 0,0 l/m 1,6 km/h (1 Bft) SW 225 0 min 0,000 mm 0,0 UV-I 0 W/m 1,0 C 1,9 C 1,6 km/h (1 Bft) 95,65 %
01.03.2024 06:17 1,9 C 3,9 C 5,0 C 6,1 C 6,1 C 94 % 111 cb 105 cb 117 cb 1007,0 hPa 0,0 l/m 1,6 km/h (1 Bft) SW 225 0 min 0,000 mm 0,0 UV-I 0 W/m 1,0 C 1,9 C 1,6 km/h (1 Bft) 100,00 %
01.03.2024 06:16 1,9 C 3,9 C 5,0 C 6,1 C 6,1 C 94 % 119 cb 108 cb 117 cb 1007,0 hPa 0,0 l/m 1,6 km/h (1 Bft) SW 225 0 min 0,000 mm 0,0 UV-I 0 W/m 1,0 C 1,9 C 1,6 km/h (1 Bft) 95,65 %
01.03.2024 06:15 1,9 C 3,9 C 5,0 C 6,1 C 6,1 C 94 % 119 cb 110 cb 122 cb 1007,0 hPa 0,0 l/m 0,0 km/h (0 Bft) SW 225 0 min 0,000 mm 0,0 UV-I 0 W/m 1,0 C 1,9 C 1,6 km/h (1 Bft) 91,30 %
01.03.2024 06:14 1,9 C 3,9 C 5,0 C 6,1 C 6,1 C 94 % 109 cb 103 cb 115 cb 1007,0 hPa 0,0 l/m 0,0 km/h (0 Bft) SW 225 0 min 0,000 mm 0,0 UV-I 0 W/m 1,0 C 1,9 C 1,6 km/h (1 Bft) 95,65 %
01.03.2024 06:13 1,9 C 3,9 C 5,0 C 6,1 C 6,1 C 94 % 111 cb 104 cb 116 cb 1006,9 hPa 0,0 l/m 0,0 km/h (0 Bft) N 0 0 min 0,000 mm 0,0 UV-I 0 W/m 1,0 C 1,9 C 0,0 km/h (0 Bft) 95,65 %
01.03.2024 06:12 1,9 C 3,9 C 5,0 C 6,1 C 6,1 C 94 % 112 cb 108 cb 120 cb 1006,9 hPa 0,0 l/m 0,0 km/h (0 Bft) N 0 0 min 0,000 mm 0,0 UV-I 0 W/m 1,0 C 1,9 C 0,0 km/h (0 Bft) 95,65 %
01.03.2024 06:11 1,9 C 3,9 C 5,0 C 6,1 C 6,1 C 94 % 115 cb 107 cb 119 cb 1006,9 hPa 0,0 l/m 0,0 km/h (0 Bft) N 0 0 min 0,000 mm 0,0 UV-I 0 W/m 1,0 C 1,9 C 0,0 km/h (0 Bft) 95,65 %
01.03.2024 06:10 1,9 C 3,9 C 5,0 C 6,1 C 6,1 C 94 % 112 cb 107 cb 120 cb 1006,9 hPa 0,0 l/m 0,0 km/h (0 Bft) N 0 0 min 0,000 mm 0,0 UV-I 0 W/m 1,0 C 1,9 C 0,0 km/h (0 Bft) 100,00 %
01.03.2024 06:09 1,9 C 3,9 C 5,0 C 6,1 C 6,1 C 94 % 112 cb 110 cb 123 cb 1007,0 hPa 0,0 l/m 0,0 km/h (0 Bft) N 0 0 min 0,000 mm 0,0 UV-I 0 W/m 1,0 C 1,9 C 0,0 km/h (0 Bft) 91,30 %
01.03.2024 06:08 1,9 C 3,9 C 5,0 C 6,1 C 6,1 C 94 % 117 cb 109 cb 122 cb 1007,0 hPa 0,0 l/m 0,0 km/h (0 Bft) N 0 0 min 0,000 mm 0,0 UV-I 0 W/m 1,0 C 1,9 C 0,0 km/h (0 Bft) 95,65 %
01.03.2024 06:07 1,9 C 3,9 C 5,0 C 6,1 C 6,1 C 94 % 114 cb 109 cb 121 cb 1007,0 hPa 0,0 l/m 0,0 km/h (0 Bft) N 0 0 min 0,000 mm 0,0 UV-I 0 W/m 1,0 C 1,9 C 0,0 km/h (0 Bft) 100,00 %
01.03.2024 06:06 1,9 C 3,9 C 5,0 C 6,1 C 6,1 C 94 % 115 cb 108 cb 121 cb 1007,0 hPa 0,0 l/m 0,0 km/h (0 Bft) N 0 0 min 0,000 mm 0,0 UV-I 0 W/m 1,0 C 1,9 C 0,0 km/h (0 Bft) 95,65 %
01.03.2024 06:05 1,9 C 3,9 C 5,0 C 6,1 C 6,1 C 94 % 114 cb 110 cb 121 cb 1006,9 hPa 0,0 l/m 0,0 km/h (0 Bft) N 0 0 min 0,000 mm 0,0 UV-I 0 W/m 1,0 C 1,9 C 0,0 km/h (0 Bft) 95,65 %
01.03.2024 06:04 1,9 C 3,9 C 5,0 C 6,1 C 6,1 C 94 % 116 cb 111 cb 125 cb 1007,0 hPa 0,0 l/m 0,0 km/h (0 Bft) N 0 0 min 0,000 mm 0,0 UV-I 0 W/m 1,0 C 1,9 C 0,0 km/h (0 Bft) 100,00 %
01.03.2024 06:03 1,9 C 3,9 C 5,6 C 6,1 C 6,1 C 94 % 121 cb 112 cb 123 cb 1007,0 hPa 0,0 l/m 0,0 km/h (0 Bft) N 0 0 min 0,000 mm 0,0 UV-I 0 W/m 1,0 C 1,9 C 0,0 km/h (0 Bft) 91,30 %
01.03.2024 06:02 1,9 C 3,9 C 5,6 C 6,1 C 6,1 C 94 % 113 cb 107 cb 119 cb 1007,0 hPa 0,0 l/m 0,0 km/h (0 Bft) N 0 0 min 0,000 mm 0,0 UV-I 0 W/m 1,0 C 1,9 C 0,0 km/h (0 Bft) 95,65 %
01.03.2024 06:01 1,9 C 3,9 C 5,6 C 6,1 C 6,1 C 94 % 111 cb 104 cb 119 cb 1007,1 hPa 0,0 l/m 0,0 km/h (0 Bft) N 0 0 min 0,000 mm 0,0 UV-I 0 W/m 1,0 C 1,9 C 0,0 km/h (0 Bft) 100,00 %
01.03.2024 06:00 1,9 C 3,9 C 5,6 C 6,1 C 6,1 C 94 % 107 cb 103 cb 113 cb 1007,0 hPa 0,0 l/m 0,0 km/h (0 Bft) N 0 0 min 0,000 mm 0,0 UV-I 0 W/m 1,0 C 1,9 C 0,0 km/h (0 Bft) 95,65 %
01.03.2024 05:59 1,9 C 3,9 C 5,6 C 6,1 C 6,1 C 94 % 111 cb 105 cb 115 cb 1007,1 hPa 0,0 l/m 0,0 km/h (0 Bft) N 0 0 min 0,000 mm 0,0 UV-I 0 W/m 1,0 C 1,9 C 0,0 km/h (0 Bft) 91,30 %
01.03.2024 05:58 1,9 C 3,9 C 5,6 C 6,1 C 6,1 C 94 % 111 cb 105 cb 117 cb 1007,0 hPa 0,0 l/m 0,0 km/h (0 Bft) SW 225 0 min 0,000 mm 0,0 UV-I 0 W/m 1,0 C 1,9 C 1,6 km/h (1 Bft) 91,30 %
01.03.2024 05:57 1,9 C 3,9 C 5,6 C 6,1 C 6,1 C 94 % 111 cb 107 cb 119 cb 1007,1 hPa 0,0 l/m 1,6 km/h (1 Bft) SW 225 0 min 0,000 mm 0,0 UV-I 0 W/m 1,0 C 1,9 C 3,2 km/h (1 Bft) 95,65 %
01.03.2024 05:56 1,9 C 3,9 C 5,6 C 6,1 C 6,1 C 94 % 113 cb 107 cb 118 cb 1007,1 hPa 0,0 l/m 1,6 km/h (1 Bft) SW 225 0 min 0,000 mm 0,0 UV-I 0 W/m 1,0 C 1,9 C 1,6 km/h (1 Bft) 91,30 %
01.03.2024 05:55 1,9 C 3,9 C 5,6 C 6,1 C 6,1 C 94 % 111 cb 104 cb 118 cb 1007,1 hPa 0,0 l/m 0,0 km/h (0 Bft) SW 225 0 min 0,000 mm 0,0 UV-I 0 W/m 1,0 C 1,9 C 1,6 km/h (1 Bft) 100,00 %
01.03.2024 05:54 1,9 C 3,9 C 5,6 C 6,1 C 6,1 C 94 % 110 cb 104 cb 115 cb 1007,1 hPa 0,0 l/m 1,6 km/h (1 Bft) SW 225 0 min 0,000 mm 0,0 UV-I 0 W/m 1,0 C 1,9 C 3,2 km/h (1 Bft) 86,96 %
01.03.2024 05:53 1,9 C 3,9 C 5,6 C 6,1 C 6,1 C 94 % 112 cb 104 cb 115 cb 1007,1 hPa 0,0 l/m 0,0 km/h (0 Bft) SW 225 0 min 0,000 mm 0,0 UV-I 0 W/m 1,0 C 1,9 C 1,6 km/h (1 Bft) 91,30 %
01.03.2024 05:52 1,9 C 3,9 C 5,6 C 6,1 C 6,1 C 94 % 111 cb 103 cb 115 cb 1007,2 hPa 0,0 l/m 3,2 km/h (1 Bft) SW 225 0 min 0,000 mm 0,0 UV-I 0 W/m 1,0 C 1,9 C 3,2 km/h (1 Bft) 95,65 %
01.03.2024 05:51 1,9 C 3,9 C 5,6 C 6,1 C 6,1 C 94 % 114 cb 107 cb 122 cb 1007,2 hPa 0,0 l/m 1,6 km/h (1 Bft) SW 225 0 min 0,000 mm 0,0 UV-I 0 W/m 1,0 C 1,9 C 3,2 km/h (1 Bft) 91,30 %
01.03.2024 05:50 1,9 C 3,9 C 5,6 C 6,1 C 6,1 C 94 % 113 cb 105 cb 116 cb 1007,2 hPa 0,0 l/m 3,2 km/h (1 Bft) SW 225 0 min 0,000 mm 0,0 UV-I 0 W/m 1,0 C 1,9 C 4,8 km/h (1 Bft) 95,65 %
01.03.2024 05:49 1,9 C 3,9 C 5,6 C 6,1 C 6,1 C 94 % 103 cb 96 cb 107 cb 1007,3 hPa 0,0 l/m 3,2 km/h (1 Bft) SW 225 0 min 0,000 mm 0,0 UV-I 0 W/m 1,0 C 1,9 C 6,4 km/h (2 Bft) 95,65 %
01.03.2024 05:48 1,9 C 4,4 C 5,6 C 6,1 C 6,1 C 94 % 116 cb 109 cb 121 cb 1007,2 hPa 0,0 l/m 4,8 km/h (1 Bft) SW 225 0 min 0,000 mm 0,0 UV-I 0 W/m 1,0 C 0,7 C 6,4 km/h (2 Bft) 95,65 %
01.03.2024 05:47 1,9 C 4,4 C 5,6 C 6,1 C 6,1 C 94 % 115 cb 108 cb 117 cb 1007,2 hPa 0,0 l/m 4,8 km/h (1 Bft) SW 225 0 min 0,000 mm 0,0 UV-I 0 W/m 1,0 C 0,7 C 6,4 km/h (2 Bft) 91,30 %
01.03.2024 05:46 1,9 C 4,4 C 5,6 C 6,1 C 6,1 C 94 % 117 cb 108 cb 121 cb 1007,1 hPa 0,0 l/m 4,8 km/h (1 Bft) SW 225 0 min 0,000 mm 0,0 UV-I 0 W/m 1,0 C 0,7 C 6,4 km/h (2 Bft) 100,00 %
01.03.2024 05:45 1,9 C 4,4 C 5,6 C 6,1 C 6,1 C 94 % 116 cb 109 cb 123 cb 1007,1 hPa 0,0 l/m 3,2 km/h (1 Bft) SW 225 0 min 0,000 mm 0,0 UV-I 0 W/m 1,0 C 1,9 C 3,2 km/h (1 Bft) 95,65 %
01.03.2024 05:44 1,9 C 4,4 C 5,6 C 6,1 C 6,1 C 94 % 119 cb 110 cb 125 cb 1007,2 hPa 0,0 l/m 3,2 km/h (1 Bft) SW 225 0 min 0,000 mm 0,0 UV-I 0 W/m 1,0 C 1,9 C 4,8 km/h (1 Bft) 91,30 %
01.03.2024 05:43 1,9 C 4,4 C 5,6 C 6,1 C 6,1 C 94 % 115 cb 108 cb 122 cb 1007,2 hPa 0,0 l/m 1,6 km/h (1 Bft) SW 225 0 min 0,000 mm 0,0 UV-I 0 W/m 1,0 C 1,9 C 3,2 km/h (1 Bft) 100,00 %
01.03.2024 05:42 2,0 C 4,4 C 5,6 C 6,1 C 6,1 C 94 % 116 cb 108 cb 122 cb 1007,2 hPa 0,0 l/m 1,6 km/h (1 Bft) SW 225 0 min 0,000 mm 0,0 UV-I 0 W/m 1,1 C 2,0 C 3,2 km/h (1 Bft) 95,65 %
01.03.2024 05:41 1,9 C 4,4 C 5,6 C 6,1 C 6,1 C 94 % 117 cb 107 cb 119 cb 1007,3 hPa 0,0 l/m 4,8 km/h (1 Bft) SW 225 0 min 0,000 mm 0,0 UV-I 0 W/m 1,0 C 0,7 C 6,4 km/h (2 Bft) 95,65 %
01.03.2024 05:40 2,0 C 4,4 C 5,6 C 6,1 C 6,1 C 94 % 115 cb 108 cb 121 cb 1007,2 hPa 0,0 l/m 4,8 km/h (1 Bft) SW 225 0 min 0,000 mm 0,0 UV-I 0 W/m 1,1 C 0,8 C 4,8 km/h (1 Bft) 100,00 %
01.03.2024 05:39 2,0 C 4,4 C 5,6 C 6,1 C 6,1 C 94 % 117 cb 110 cb 123 cb 1007,3 hPa 0,0 l/m 4,8 km/h (1 Bft) SW 225 0 min 0,000 mm 0,0 UV-I 0 W/m 1,1 C 0,8 C 8,0 km/h (2 Bft) 95,65 %
01.03.2024 05:38 2,0 C 4,4 C 5,6 C 6,1 C 6,1 C 94 % 110 cb 105 cb 115 cb 1007,2 hPa 0,0 l/m 1,6 km/h (1 Bft) W-SW 247 0 min 0,000 mm 0,0 UV-I 0 W/m 1,1 C 2,0 C 3,2 km/h (1 Bft) 95,65 %
01.03.2024 05:37 2,0 C 4,4 C 5,6 C 6,1 C 6,1 C 94 % 113 cb 105 cb 118 cb 1007,2 hPa 0,0 l/m 3,2 km/h (1 Bft) W-SW 247 0 min 0,000 mm 0,0 UV-I 0 W/m 1,1 C 2,0 C 4,8 km/h (1 Bft) 100,00 %
01.03.2024 05:36 2,1 C 4,4 C 5,6 C 6,1 C 6,1 C 94 % 113 cb 104 cb 115 cb 1007,1 hPa 0,0 l/m 3,2 km/h (1 Bft) W-SW 247 0 min 0,000 mm 0,0 UV-I 0 W/m 1,2 C 2,1 C 4,8 km/h (1 Bft) 91,30 %
01.03.2024 05:35 2,0 C 4,4 C 5,6 C 6,1 C 6,1 C 94 % 111 cb 104 cb 117 cb 1007,2 hPa 0,0 l/m 3,2 km/h (1 Bft) W-SW 247 0 min 0,000 mm 0,0 UV-I 0 W/m 1,1 C 2,0 C 4,8 km/h (1 Bft) 91,30 %
01.03.2024 05:34 2,0 C 4,4 C 5,6 C 6,1 C 6,1 C 94 % 111 cb 105 cb 117 cb 1007,1 hPa 0,0 l/m 3,2 km/h (1 Bft) W-SW 247 0 min 0,000 mm 0,0 UV-I 0 W/m 1,1 C 2,0 C 4,8 km/h (1 Bft) 95,65 %
01.03.2024 05:33 2,1 C 4,4 C 5,6 C 6,1 C 6,1 C 94 % 113 cb 105 cb 114 cb 1007,1 hPa 0,0 l/m 3,2 km/h (1 Bft) W-SW 247 0 min 0,000 mm 0,0 UV-I 0 W/m 1,2 C 2,1 C 3,2 km/h (1 Bft) 95,65 %
01.03.2024 05:32 2,1 C 4,4 C 5,6 C 6,1 C 6,1 C 94 % 111 cb 104 cb 115 cb 1007,0 hPa 0,0 l/m 3,2 km/h (1 Bft) W-SW 247 0 min 0,000 mm 0,0 UV-I 0 W/m 1,2 C 2,1 C 3,2 km/h (1 Bft) 91,30 %
01.03.2024 05:31 2,1 C 4,4 C 5,6 C 6,1 C 6,1 C 94 % 112 cb 105 cb 115 cb 1007,1 hPa 0,0 l/m 3,2 km/h (1 Bft) W-SW 247 0 min 0,000 mm 0,0 UV-I 0 W/m 1,2 C 2,1 C 4,8 km/h (1 Bft) 95,65 %
01.03.2024 05:30 2,1 C 4,4 C 5,6 C 6,1 C 6,1 C 94 % 109 cb 103 cb 114 cb 1007,1 hPa 0,0 l/m 1,6 km/h (1 Bft) W-SW 247 0 min 0,000 mm 0,0 UV-I 0 W/m 1,2 C 2,1 C 3,2 km/h (1 Bft) 100,00 %
01.03.2024 05:29 2,1 C 4,4 C 5,6 C 6,1 C 6,1 C 94 % 111 cb 104 cb 115 cb 1007,1 hPa 0,0 l/m 1,6 km/h (1 Bft) W-SW 247 0 min 0,000 mm 0,0 UV-I 0 W/m 1,2 C 2,1 C 3,2 km/h (1 Bft) 95,65 %
01.03.2024 05:28 2,1 C 4,4 C 5,6 C 6,1 C 6,1 C 94 % 113 cb 105 cb 117 cb 1007,1 hPa 0,0 l/m 3,2 km/h (1 Bft) W-SW 247 0 min 0,000 mm 0,0 UV-I 0 W/m 1,2 C 2,1 C 3,2 km/h (1 Bft) 91,30 %
01.03.2024 05:27 2,1 C 4,4 C 5,6 C 6,1 C 6,1 C 94 % 112 cb 104 cb 117 cb 1007,0 hPa 0,0 l/m 1,6 km/h (1 Bft) W-SW 247 0 min 0,000 mm 0,0 UV-I 0 W/m 1,2 C 2,1 C 3,2 km/h (1 Bft) 95,65 %
01.03.2024 05:26 2,1 C 4,4 C 5,6 C 6,1 C 6,1 C 94 % 113 cb 106 cb 118 cb 1007,2 hPa 0,0 l/m 1,6 km/h (1 Bft) W-SW 247 0 min 0,000 mm 0,0 UV-I 0 W/m 1,2 C 2,1 C 3,2 km/h (1 Bft) 91,30 %
01.03.2024 05:25 2,1 C 4,4 C 5,6 C 6,1 C 6,1 C 94 % 111 cb 106 cb 116 cb 1007,1 hPa 0,0 l/m 1,6 km/h (1 Bft) W-SW 247 0 min 0,000 mm 0,0 UV-I 0 W/m 1,2 C 2,1 C 1,6 km/h (1 Bft) 95,65 %
01.03.2024 05:24 2,1 C 4,4 C 5,6 C 6,1 C 6,1 C 94 % 111 cb 105 cb 115 cb 1007,1 hPa 0,0 l/m 1,6 km/h (1 Bft) W-SW 247 0 min 0,000 mm 0,0 UV-I 0 W/m 1,2 C 2,1 C 3,2 km/h (1 Bft) 95,65 %
01.03.2024 05:23 2,1 C 4,4 C 5,6 C 6,1 C 6,1 C 94 % 113 cb 107 cb 118 cb 1007,1 hPa 0,0 l/m 3,2 km/h (1 Bft) W-SW 247 0 min 0,000 mm 0,0 UV-I 0 W/m 1,2 C 2,1 C 3,2 km/h (1 Bft) 91,30 %
01.03.2024 05:22 2,1 C 4,4 C 5,6 C 6,1 C 6,1 C 94 % 111 cb 105 cb 117 cb 1007,0 hPa 0,0 l/m 1,6 km/h (1 Bft) W-SW 247 0 min 0,000 mm 0,0 UV-I 0 W/m 1,2 C 2,1 C 3,2 km/h (1 Bft) 91,30 %
01.03.2024 05:21 2,1 C 4,4 C 5,6 C 6,1 C 6,1 C 94 % 113 cb 105 cb 115 cb 1007,0 hPa 0,0 l/m 3,2 km/h (1 Bft) W-SW 247 0 min 0,000 mm 0,0 UV-I 0 W/m 1,2 C 2,1 C 3,2 km/h (1 Bft) 100,00 %
01.03.2024 05:20 2,1 C 4,4 C 5,6 C 6,1 C 6,1 C 94 % 111 cb 105 cb 114 cb 1007,1 hPa 0,0 l/m 1,6 km/h (1 Bft) W-SW 247 0 min 0,000 mm 0,0 UV-I 0 W/m 1,2 C 2,1 C 3,2 km/h (1 Bft) 91,30 %
01.03.2024 05:19 2,1 C 4,4 C 5,6 C 6,1 C 6,1 C 94 % 109 cb 103 cb 113 cb 1007,1 hPa 0,0 l/m 1,6 km/h (1 Bft) W-SW 247 0 min 0,000 mm 0,0 UV-I 0 W/m 1,2 C 2,1 C 3,2 km/h (1 Bft) 95,65 %
01.03.2024 05:18 2,1 C 4,4 C 5,6 C 6,1 C 6,1 C 94 % 108 cb 103 cb 116 cb 1007,1 hPa 0,0 l/m 3,2 km/h (1 Bft) W-SW 247 0 min 0,000 mm 0,0 UV-I 0 W/m 1,2 C 2,1 C 4,8 km/h (1 Bft) 95,65 %
01.03.2024 05:17 2,1 C 4,4 C 5,6 C 6,1 C 6,1 C 94 % 112 cb 103 cb 114 cb 1007,1 hPa 0,0 l/m 3,2 km/h (1 Bft) W-SW 247 0 min 0,000 mm 0,0 UV-I 0 W/m 1,2 C 2,1 C 4,8 km/h (1 Bft) 95,65 %
01.03.2024 05:16 2,1 C 4,4 C 5,6 C 6,1 C 6,1 C 94 % 116 cb 108 cb 121 cb 1007,0 hPa 0,0 l/m 3,2 km/h (1 Bft) W-SW 247 0 min 0,000 mm 0,0 UV-I 0 W/m 1,2 C 2,1 C 4,8 km/h (1 Bft) 86,96 %
01.03.2024 05:15 2,1 C 4,4 C 5,6 C 6,1 C 6,1 C 94 % 116 cb 106 cb 119 cb 1007,1 hPa 0,0 l/m 3,2 km/h (1 Bft) W-SW 247 0 min 0,000 mm 0,0 UV-I 0 W/m 1,2 C 2,1 C 4,8 km/h (1 Bft) 100,00 %
01.03.2024 05:14 2,1 C 4,4 C 5,6 C 6,1 C 6,1 C 94 % 113 cb 106 cb 116 cb 1007,1 hPa 0,0 l/m 4,8 km/h (1 Bft) W-SW 247 0 min 0,000 mm 0,0 UV-I 0 W/m 1,2 C 0,9 C 6,4 km/h (2 Bft) 91,30 %
01.03.2024 05:13 2,1 C 4,4 C 5,6 C 6,1 C 6,1 C 94 % 113 cb 105 cb 116 cb 1007,1 hPa 0,0 l/m 6,4 km/h (2 Bft) W 270 0 min 0,000 mm 0,0 UV-I 0 W/m 1,2 C 0,2 C 8,0 km/h (2 Bft) 95,65 %
01.03.2024 05:12 2,1 C 4,4 C 5,6 C 6,1 C 6,1 C 94 % 109 cb 102 cb 115 cb 1007,0 hPa 0,0 l/m 4,8 km/h (1 Bft) W 270 0 min 0,000 mm 0,0 UV-I 0 W/m 1,2 C 0,9 C 6,4 km/h (2 Bft) 86,96 %
01.03.2024 05:11 2,1 C 4,4 C 5,6 C 6,1 C 6,1 C 94 % 109 cb 103 cb 116 cb 1007,1 hPa 0,0 l/m 4,8 km/h (1 Bft) W 270 0 min 0,000 mm 0,0 UV-I 0 W/m 1,2 C 0,9 C 6,4 km/h (2 Bft) 91,30 %
01.03.2024 05:10 2,1 C 4,4 C 5,6 C 6,1 C 6,1 C 94 % 111 cb 104 cb 115 cb 1007,1 hPa 0,0 l/m 4,8 km/h (1 Bft) W 270 0 min 0,000 mm 0,0 UV-I 0 W/m 1,2 C 0,9 C 4,8 km/h (1 Bft) 95,65 %
01.03.2024 05:09 2,1 C 4,4 C 5,6 C 6,1 C 6,1 C 94 % 109 cb 103 cb 113 cb 1007,2 hPa 0,0 l/m 3,2 km/h (1 Bft) W 270 0 min 0,000 mm 0,0 UV-I 0 W/m 1,2 C 2,1 C 6,4 km/h (2 Bft) 95,65 %
01.03.2024 05:08 2,1 C 4,4 C 5,6 C 6,1 C 6,1 C 94 % 109 cb 101 cb 112 cb 1007,2 hPa 0,0 l/m 4,8 km/h (1 Bft) W 270 0 min 0,000 mm 0,0 UV-I 0 W/m 1,2 C 0,9 C 6,4 km/h (2 Bft) 95,65 %
01.03.2024 05:07 2,1 C 4,4 C 5,6 C 6,1 C 6,1 C 94 % 111 cb 105 cb 117 cb 1007,1 hPa 0,0 l/m 4,8 km/h (1 Bft) W 270 0 min 0,000 mm 0,0 UV-I 0 W/m 1,2 C 0,9 C 4,8 km/h (1 Bft) 91,30 %
01.03.2024 05:06 2,1 C 4,4 C 5,6 C 6,1 C 6,1 C 94 % 111 cb 104 cb 116 cb 1007,1 hPa 0,0 l/m 4,8 km/h (1 Bft) W 270 0 min 0,000 mm 0,0 UV-I 0 W/m 1,2 C 0,9 C 6,4 km/h (2 Bft) 100,00 %
01.03.2024 05:05 2,1 C 4,4 C 5,6 C 6,1 C 6,1 C 94 % 112 cb 105 cb 123 cb 1007,1 hPa 0,0 l/m 4,8 km/h (1 Bft) W 270 0 min 0,000 mm 0,0 UV-I 0 W/m 1,2 C 0,9 C 6,4 km/h (2 Bft) 91,30 %
01.03.2024 05:04 2,1 C 4,4 C 5,6 C 6,1 C 6,1 C 94 % 110 cb 105 cb 119 cb 1007,2 hPa 0,0 l/m 3,2 km/h (1 Bft) W 270 0 min 0,000 mm 0,0 UV-I 0 W/m 1,2 C 2,1 C 4,8 km/h (1 Bft) 95,65 %
01.03.2024 05:03 2,1 C 4,4 C 5,6 C 6,1 C 6,1 C 94 % 113 cb 105 cb 117 cb 1007,1 hPa 0,0 l/m 3,2 km/h (1 Bft) W 270 0 min 0,000 mm 0,0 UV-I 0 W/m 1,2 C 2,1 C 3,2 km/h (1 Bft) 91,30 %
01.03.2024 05:02 2,1 C 4,4 C 5,6 C 6,1 C 6,1 C 94 % 113 cb 104 cb 115 cb 1007,1 hPa 0,0 l/m 3,2 km/h (1 Bft) W 270 0 min 0,000 mm 0,0 UV-I 0 W/m 1,2 C 2,1 C 4,8 km/h (1 Bft) 95,65 %
01.03.2024 05:01 2,0 C 4,4 C 5,6 C 6,1 C 6,1 C 94 % 109 cb 102 cb 115 cb 1007,1 hPa 0,0 l/m 4,8 km/h (1 Bft) W 270 0 min 0,000 mm 0,0 UV-I 0 W/m 1,1 C 0,8 C 4,8 km/h (1 Bft) 86,96 %
01.03.2024 05:00 2,1 C 4,4 C 5,6 C 6,1 C 6,1 C 94 % 106 cb 100 cb 111 cb 1007,1 hPa 0,0 l/m 3,2 km/h (1 Bft) W 270 0 min 0,000 mm 0,0 UV-I 0 W/m 1,2 C 2,1 C 4,8 km/h (1 Bft) 100,00 %
01.03.2024 04:59 2,0 C 4,4 C 5,6 C 6,1 C 6,1 C 94 % 108 cb 104 cb 117 cb 1007,1 hPa 0,0 l/m 1,6 km/h (1 Bft) W 270 0 min 0,000 mm 0,0 UV-I 0 W/m 1,1 C 2,0 C 3,2 km/h (1 Bft) 91,30 %
01.03.2024 04:58 2,0 C 4,4 C 5,6 C 6,1 C 6,1 C 94 % 109 cb 104 cb 115 cb 1007,0 hPa 0,0 l/m 3,2 km/h (1 Bft) W 270 0 min 0,000 mm 0,0 UV-I 0 W/m 1,1 C 2,0 C 3,2 km/h (1 Bft) 95,65 %
01.03.2024 04:57 2,0 C 4,4 C 5,6 C 6,1 C 6,1 C 94 % 102 cb 97 cb 110 cb 1007,0 hPa 0,0 l/m 3,2 km/h (1 Bft) W 270 0 min 0,000 mm 0,0 UV-I 0 W/m 1,1 C 2,0 C 4,8 km/h (1 Bft) 95,65 %
01.03.2024 04:56 2,0 C 4,4 C 5,6 C 6,1 C 6,1 C 94 % 106 cb 98 cb 108 cb 1007,0 hPa 0,0 l/m 1,6 km/h (1 Bft) W 270 0 min 0,000 mm 0,0 UV-I 0 W/m 1,1 C 2,0 C 3,2 km/h (1 Bft) 91,30 %
01.03.2024 04:55 2,0 C 4,4 C 5,6 C 6,1 C 6,1 C 94 % 111 cb 105 cb 117 cb 1007,0 hPa 0,0 l/m 3,2 km/h (1 Bft) W 270 0 min 0,000 mm 0,0 UV-I 0 W/m 1,1 C 2,0 C 4,8 km/h (1 Bft) 91,30 %
01.03.2024 04:54 1,9 C 4,4 C 5,6 C 6,1 C 6,1 C 94 % 111 cb 104 cb 117 cb 1007,0 hPa 0,0 l/m 3,2 km/h (1 Bft) W 270 0 min 0,000 mm 0,0 UV-I 0 W/m 1,0 C 1,9 C 3,2 km/h (1 Bft) 95,65 %
01.03.2024 04:53 2,0 C 4,4 C 5,6 C 6,1 C 6,1 C 94 % 111 cb 104 cb 118 cb 1007,0 hPa 0,0 l/m 3,2 km/h (1 Bft) W 270 0 min 0,000 mm 0,0 UV-I 0 W/m 1,1 C 2,0 C 3,2 km/h (1 Bft) 95,65 %
01.03.2024 04:52 1,9 C 4,4 C 5,6 C 6,1 C 6,1 C 94 % 111 cb 104 cb 118 cb 1007,0 hPa 0,0 l/m 1,6 km/h (1 Bft) W 270 0 min 0,000 mm 0,0 UV-I 0 W/m 1,0 C 1,9 C 3,2 km/h (1 Bft) 91,30 %
01.03.2024 04:51 1,9 C 4,4 C 5,6 C 6,1 C 6,1 C 94 % 111 cb 103 cb 117 cb 1007,1 hPa 0,0 l/m 1,6 km/h (1 Bft) W 270 0 min 0,000 mm 0,0 UV-I 0 W/m 1,0 C 1,9 C 3,2 km/h (1 Bft) 100,00 %
01.03.2024 04:50 1,9 C 4,4 C 5,6 C 6,1 C 6,1 C 94 % 109 cb 104 cb 115 cb 1007,1 hPa 0,0 l/m 1,6 km/h (1 Bft) W 270 0 min 0,000 mm 0,0 UV-I 0 W/m 1,0 C 1,9 C 3,2 km/h (1 Bft) 91,30 %
01.03.2024 04:49 1,9 C 4,4 C 5,6 C 6,1 C 6,1 C 94 % 111 cb 105 cb 117 cb 1007,1 hPa 0,0 l/m 1,6 km/h (1 Bft) W 270 0 min 0,000 mm 0,0 UV-I 0 W/m 1,0 C 1,9 C 3,2 km/h (1 Bft) 86,96 %
01.03.2024 04:48 1,9 C 4,4 C 5,6 C 6,1 C 6,1 C 94 % 112 cb 105 cb 117 cb 1007,0 hPa 0,0 l/m 3,2 km/h (1 Bft) W 270 0 min 0,000 mm 0,0 UV-I 0 W/m 1,0 C 1,9 C 4,8 km/h (1 Bft) 86,96 %
01.03.2024 04:47 1,9 C 4,4 C 5,6 C 6,1 C 6,1 C 94 % 114 cb 104 cb 116 cb 1007,0 hPa 0,0 l/m 4,8 km/h (1 Bft) W 270 0 min 0,000 mm 0,0 UV-I 0 W/m 1,0 C 0,7 C 4,8 km/h (1 Bft) 100,00 %
01.03.2024 04:46 1,9 C 4,4 C 5,6 C 6,1 C 6,1 C 94 % 109 cb 104 cb 117 cb 1007,1 hPa 0,0 l/m 3,2 km/h (1 Bft) W 270 0 min 0,000 mm 0,0 UV-I 0 W/m 1,0 C 1,9 C 4,8 km/h (1 Bft) 91,30 %
01.03.2024 04:45 1,9 C 4,4 C 5,6 C 6,1 C 6,1 C 94 % 105 cb 98 cb 110 cb 1007,1 hPa 0,0 l/m 1,6 km/h (1 Bft) W 270 0 min 0,000 mm 0,0 UV-I 0 W/m 1,0 C 1,9 C 3,2 km/h (1 Bft) 86,96 %
01.03.2024 04:44 1,9 C 4,4 C 5,6 C 6,1 C 6,1 C 94 % 106 cb 101 cb 111 cb 1007,0 hPa 0,0 l/m 3,2 km/h (1 Bft) W 270 0 min 0,000 mm 0,0 UV-I 0 W/m 1,0 C 1,9 C 4,8 km/h (1 Bft) 95,65 %
01.03.2024 04:43 1,9 C 4,4 C 5,6 C 6,1 C 6,1 C 94 % 106 cb 100 cb 112 cb 1007,0 hPa 0,0 l/m 3,2 km/h (1 Bft) W 270 0 min 0,000 mm 0,0 UV-I 0 W/m 1,0 C 1,9 C 4,8 km/h (1 Bft) 95,65 %
01.03.2024 04:42 1,9 C 4,4 C 5,6 C 6,1 C 6,1 C 94 % 107 cb 100 cb 112 cb 1007,1 hPa 0,0 l/m 1,6 km/h (1 Bft) W 270 0 min 0,000 mm 0,0 UV-I 0 W/m 1,0 C 1,9 C 3,2 km/h (1 Bft) 91,30 %
01.03.2024 04:41 1,9 C 4,4 C 5,6 C 6,1 C 6,1 C 94 % 106 cb 100 cb 110 cb 1007,1 hPa 0,0 l/m 3,2 km/h (1 Bft) W 270 0 min 0,000 mm 0,0 UV-I 0 W/m 1,0 C 1,9 C 4,8 km/h (1 Bft) 100,00 %
01.03.2024 04:40 1,9 C 4,4 C 5,6 C 6,1 C 6,1 C 94 % 108 cb 100 cb 113 cb 1007,1 hPa 0,0 l/m 3,2 km/h (1 Bft) W 270 0 min 0,000 mm 0,0 UV-I 0 W/m 1,0 C 1,9 C 3,2 km/h (1 Bft) 86,96 %
01.03.2024 04:39 1,9 C 4,4 C 5,6 C 6,1 C 6,1 C 93 % 105 cb 92 cb 105 cb 1007,1 hPa 0,0 l/m 1,6 km/h (1 Bft) W 270 0 min 0,000 mm 0,0 UV-I 0 W/m 0,9 C 1,9 C 3,2 km/h (1 Bft) 86,96 %
01.03.2024 04:38 1,9 C 4,4 C 5,6 C 6,1 C 6,1 C 93 % 109 cb 99 cb 109 cb 1007,2 hPa 0,0 l/m 1,6 km/h (1 Bft) W 270 0 min 0,000 mm 0,0 UV-I 0 W/m 0,9 C 1,9 C 4,8 km/h (1 Bft) 95,65 %
01.03.2024 04:37 1,9 C 4,4 C 5,6 C 6,1 C 6,1 C 93 % 110 cb 103 cb 115 cb 1007,1 hPa 0,0 l/m 3,2 km/h (1 Bft) W 270 0 min 0,000 mm 0,0 UV-I 0 W/m 0,9 C 1,9 C 3,2 km/h (1 Bft) 91,30 %
01.03.2024 04:36 1,9 C 4,4 C 5,6 C 6,1 C 6,1 C 93 % 104 cb 99 cb 111 cb 1007,1 hPa 0,0 l/m 3,2 km/h (1 Bft) W 270 0 min 0,000 mm 0,0 UV-I 0 W/m 0,9 C 1,9 C 4,8 km/h (1 Bft) 95,65 %
01.03.2024 04:35 1,9 C 4,4 C 5,6 C 6,1 C 6,1 C 93 % 103 cb 98 cb 111 cb 1007,2 hPa 0,0 l/m 3,2 km/h (1 Bft) W 270 0 min 0,000 mm 0,0 UV-I 0 W/m 0,9 C 1,9 C 4,8 km/h (1 Bft) 86,96 %
01.03.2024 04:34 1,9 C 4,4 C 5,6 C 6,1 C 6,1 C 93 % 104 cb 97 cb 109 cb 1007,2 hPa 0,0 l/m 4,8 km/h (1 Bft) W 270 0 min 0,000 mm 0,0 UV-I 0 W/m 0,9 C 0,7 C 4,8 km/h (1 Bft) 91,30 %
01.03.2024 04:33 1,9 C 4,4 C 5,6 C 6,1 C 6,1 C 93 % 104 cb 102 cb 115 cb 1007,2 hPa 0,0 l/m 4,8 km/h (1 Bft) W 270 0 min 0,000 mm 0,0 UV-I 0 W/m 0,9 C 0,7 C 6,4 km/h (2 Bft) 91,30 %
01.03.2024 04:32 2,0 C 4,4 C 5,6 C 6,1 C 6,1 C 93 % 107 cb 102 cb 117 cb 1007,1 hPa 0,0 l/m 3,2 km/h (1 Bft) W 270 0 min 0,000 mm 0,0 UV-I 0 W/m 1,0 C 2,0 C 4,8 km/h (1 Bft) 95,65 %
01.03.2024 04:31 2,0 C 4,4 C 5,6 C 6,1 C 6,1 C 93 % 109 cb 103 cb 117 cb 1007,2 hPa 0,0 l/m 3,2 km/h (1 Bft) W 270 0 min 0,000 mm 0,0 UV-I 0 W/m 1,0 C 2,0 C 4,8 km/h (1 Bft) 91,30 %
01.03.2024 04:30 2,0 C 4,4 C 5,6 C 6,1 C 6,1 C 93 % 106 cb 100 cb 112 cb 1007,1 hPa 0,0 l/m 3,2 km/h (1 Bft) W 270 0 min 0,000 mm 0,0 UV-I 0 W/m 1,0 C 2,0 C 3,2 km/h (1 Bft) 86,96 %
01.03.2024 04:29 2,0 C 4,4 C 5,6 C 6,1 C 6,1 C 93 % 108 cb 99 cb 112 cb 1007,2 hPa 0,0 l/m 1,6 km/h (1 Bft) W 270 0 min 0,000 mm 0,0 UV-I 0 W/m 1,0 C 2,0 C 3,2 km/h (1 Bft) 91,30 %
01.03.2024 04:28 2,0 C 4,4 C 5,6 C 6,1 C 6,1 C 93 % 109 cb 103 cb 115 cb 1007,2 hPa 0,0 l/m 3,2 km/h (1 Bft) W 270 0 min 0,000 mm 0,0 UV-I 0 W/m 1,0 C 2,0 C 4,8 km/h (1 Bft) 95,65 %
01.03.2024 04:27 2,1 C 4,4 C 5,6 C 6,1 C 6,1 C 93 % 108 cb 102 cb 115 cb 1007,3 hPa 0,0 l/m 4,8 km/h (1 Bft) W 270 0 min 0,000 mm 0,0 UV-I 0 W/m 1,1 C 0,9 C 4,8 km/h (1 Bft) 82,61 %
01.03.2024 04:26 2,1 C 4,4 C 5,6 C 6,1 C 6,1 C 93 % 108 cb 100 cb 112 cb 1007,3 hPa 0,0 l/m 3,2 km/h (1 Bft) W 270 0 min 0,000 mm 0,0 UV-I 0 W/m 1,1 C 2,1 C 3,2 km/h (1 Bft) 100,00 %
01.03.2024 04:25 2,1 C 4,4 C 5,6 C 6,1 C 6,1 C 93 % 102 cb 96 cb 110 cb 1007,2 hPa 0,0 l/m 3,2 km/h (1 Bft) W 270 0 min 0,000 mm 0,0 UV-I 0 W/m 1,1 C 2,1 C 4,8 km/h (1 Bft) 86,96 %
01.03.2024 04:24 2,1 C 4,4 C 5,6 C 6,1 C 6,1 C 93 % 108 cb 103 cb 115 cb 1007,2 hPa 0,0 l/m 3,2 km/h (1 Bft) W 270 0 min 0,000 mm 0,0 UV-I 0 W/m 1,1 C 2,1 C 4,8 km/h (1 Bft) 95,65 %
01.03.2024 04:23 2,1 C 4,4 C 5,6 C 6,1 C 6,1 C 93 % 107 cb 101 cb 111 cb 1007,2 hPa 0,0 l/m 1,6 km/h (1 Bft) W 270 0 min 0,000 mm 0,0 UV-I 0 W/m 1,1 C 2,1 C 3,2 km/h (1 Bft) 86,96 %
01.03.2024 04:22 2,1 C 4,4 C 5,6 C 6,1 C 6,1 C 93 % 108 cb 101 cb 110 cb 1007,2 hPa 0,0 l/m 3,2 km/h (1 Bft) W 270 0 min 0,000 mm 0,0 UV-I 0 W/m 1,1 C 2,1 C 3,2 km/h (1 Bft) 91,30 %
01.03.2024 04:21 2,1 C 4,4 C 5,6 C 6,1 C 6,1 C 93 % 102 cb 99 cb 111 cb 1007,2 hPa 0,0 l/m 3,2 km/h (1 Bft) W 270 0 min 0,000 mm 0,0 UV-I 0 W/m 1,1 C 2,1 C 4,8 km/h (1 Bft) 91,30 %
01.03.2024 04:20 2,1 C 4,4 C 5,6 C 6,1 C 6,1 C 93 % 107 cb 101 cb 110 cb 1007,2 hPa 0,0 l/m 3,2 km/h (1 Bft) W 270 0 min 0,000 mm 0,0 UV-I 0 W/m 1,1 C 2,1 C 6,4 km/h (2 Bft) 95,65 %
01.03.2024 04:19 2,2 C 4,4 C 5,6 C 6,1 C 6,1 C 93 % 106 cb 100 cb 112 cb 1007,2 hPa 0,0 l/m 3,2 km/h (1 Bft) W 270 0 min 0,000 mm 0,0 UV-I 0 W/m 1,2 C 2,2 C 3,2 km/h (1 Bft) 91,30 %
01.03.2024 04:18 2,2 C 4,4 C 5,6 C 6,1 C 6,1 C 93 % 109 cb 98 cb 104 cb 1007,2 hPa 0,0 l/m 1,6 km/h (1 Bft) W 270 0 min 0,000 mm 0,0 UV-I 0 W/m 1,2 C 2,2 C 3,2 km/h (1 Bft) 86,96 %
01.03.2024 04:17 2,2 C 4,4 C 5,6 C 6,1 C 6,1 C 93 % 106 cb 101 cb 113 cb 1007,2 hPa 0,0 l/m 3,2 km/h (1 Bft) W 270 0 min 0,000 mm 0,0 UV-I 0 W/m 1,2 C 2,2 C 4,8 km/h (1 Bft) 95,65 %
01.03.2024 04:16 2,2 C 4,4 C 5,6 C 6,1 C 6,1 C 93 % 111 cb 104 cb 115 cb 1007,3 hPa 0,0 l/m 3,2 km/h (1 Bft) W 270 0 min 0,000 mm 0,0 UV-I 0 W/m 1,2 C 2,2 C 4,8 km/h (1 Bft) 78,26 %
01.03.2024 04:15 2,2 C 4,4 C 5,6 C 6,1 C 6,1 C 93 % 107 cb 101 cb 113 cb 1007,3 hPa 0,0 l/m 1,6 km/h (1 Bft) W 270 0 min 0,000 mm 0,0 UV-I 0 W/m 1,2 C 2,2 C 3,2 km/h (1 Bft) 95,65 %
01.03.2024 04:14 2,2 C 4,4 C 5,6 C 6,1 C 6,1 C 93 % 108 cb 102 cb 114 cb 1007,2 hPa 0,0 l/m 1,6 km/h (1 Bft) W 270 0 min 0,000 mm 0,0 UV-I 0 W/m 1,2 C 2,2 C 3,2 km/h (1 Bft) 91,30 %
01.03.2024 04:13 2,2 C 4,4 C 5,6 C 6,1 C 6,1 C 93 % 106 cb 102 cb 115 cb 1007,2 hPa 0,0 l/m 3,2 km/h (1 Bft) W 270 0 min 0,000 mm 0,0 UV-I 0 W/m 1,2 C 2,2 C 4,8 km/h (1 Bft) 95,65 %
01.03.2024 04:12 2,2 C 4,4 C 5,6 C 6,1 C 6,1 C 93 % 106 cb 103 cb 115 cb 1007,3 hPa 0,0 l/m 3,2 km/h (1 Bft) W 270 0 min 0,000 mm 0,0 UV-I 0 W/m 1,2 C 2,2 C 3,2 km/h (1 Bft) 86,96 %
01.03.2024 04:11 2,2 C 4,4 C 5,6 C 6,1 C 6,1 C 93 % 111 cb 103 cb 113 cb 1007,3 hPa 0,0 l/m 3,2 km/h (1 Bft) W 270 0 min 0,000 mm 0,0 UV-I 0 W/m 1,2 C 2,2 C 4,8 km/h (1 Bft) 100,00 %
01.03.2024 04:10 2,2 C 4,4 C 5,6 C 6,1 C 6,1 C 93 % 106 cb 100 cb 113 cb 1007,3 hPa 0,0 l/m 3,2 km/h (1 Bft) W 270 0 min 0,000 mm 0,0 UV-I 0 W/m 1,2 C 2,2 C 4,8 km/h (1 Bft) 86,96 %
01.03.2024 04:09 2,2 C 4,4 C 5,6 C 6,1 C 6,1 C 93 % 107 cb 101 cb 113 cb 1007,3 hPa 0,0 l/m 3,2 km/h (1 Bft) W 270 0 min 0,000 mm 0,0 UV-I 0 W/m 1,2 C 2,2 C 4,8 km/h (1 Bft) 95,65 %
01.03.2024 04:08 2,2 C 4,4 C 5,6 C 6,1 C 6,1 C 93 % 109 cb 103 cb 115 cb 1007,3 hPa 0,0 l/m 3,2 km/h (1 Bft) W 270 0 min 0,000 mm 0,0 UV-I 0 W/m 1,2 C 2,2 C 4,8 km/h (1 Bft) 91,30 %
01.03.2024 04:07 2,2 C 4,4 C 5,6 C 6,1 C 6,1 C 93 % 109 cb 103 cb 115 cb 1007,3 hPa 0,0 l/m 3,2 km/h (1 Bft) W 270 0 min 0,000 mm 0,0 UV-I 0 W/m 1,2 C 2,2 C 3,2 km/h (1 Bft) 91,30 %
01.03.2024 04:06 2,2 C 4,4 C 5,6 C 6,1 C 6,1 C 93 % 111 cb 104 cb 117 cb 1007,4 hPa 0,0 l/m 3,2 km/h (1 Bft) W 270 0 min 0,000 mm 0,0 UV-I 0 W/m 1,2 C 2,2 C 4,8 km/h (1 Bft) 91,30 %
01.03.2024 04:05 2,2 C 4,4 C 5,6 C 6,1 C 6,1 C 93 % 110 cb 104 cb 115 cb 1007,3 hPa 0,0 l/m 1,6 km/h (1 Bft) W 270 0 min 0,000 mm 0,0 UV-I 0 W/m 1,2 C 2,2 C 4,8 km/h (1 Bft) 86,96 %
01.03.2024 04:04 2,2 C 4,4 C 5,6 C 6,1 C 6,1 C 93 % 111 cb 104 cb 119 cb 1007,3 hPa 0,0 l/m 1,6 km/h (1 Bft) W 270 0 min 0,000 mm 0,0 UV-I 0 W/m 1,2 C 2,2 C 3,2 km/h (1 Bft) 100,00 %
01.03.2024 04:03 2,2 C 4,4 C 5,6 C 6,1 C 6,1 C 93 % 106 cb 100 cb 112 cb 1007,3 hPa 0,0 l/m 3,2 km/h (1 Bft) W 270 0 min 0,000 mm 0,0 UV-I 0 W/m 1,2 C 2,2 C 3,2 km/h (1 Bft) 91,30 %
01.03.2024 04:02 2,2 C 4,4 C 5,6 C 6,1 C 6,1 C 93 % 107 cb 101 cb 112 cb 1007,3 hPa 0,0 l/m 3,2 km/h (1 Bft) W 270 0 min 0,000 mm 0,0 UV-I 0 W/m 1,2 C 2,2 C 4,8 km/h (1 Bft) 91,30 %
01.03.2024 04:01 2,2 C 4,4 C 5,6 C 6,1 C 6,1 C 93 % 107 cb 99 cb 110 cb 1007,3 hPa 0,0 l/m 3,2 km/h (1 Bft) W 270 0 min 0,000 mm 0,0 UV-I 0 W/m 1,2 C 2,2 C 4,8 km/h (1 Bft) 91,30 %
01.03.2024 04:00 2,2 C 4,4 C 5,6 C 6,1 C 6,1 C 93 % 105 cb 99 cb 109 cb 1007,2 hPa 0,0 l/m 3,2 km/h (1 Bft) W 270 0 min 0,000 mm 0,0 UV-I 0 W/m 1,2 C 2,2 C 3,2 km/h (1 Bft) 95,65 %
01.03.2024 03:59 2,2 C 4,4 C 5,6 C 6,1 C 6,1 C 93 % 105 cb 99 cb 110 cb 1007,3 hPa 0,0 l/m 3,2 km/h (1 Bft) W 270 0 min 0,000 mm 0,0 UV-I 0 W/m 1,2 C 2,2 C 4,8 km/h (1 Bft) 86,96 %
01.03.2024 03:58 2,2 C 4,4 C 5,6 C 6,1 C 6,1 C 93 % 105 cb 99 cb 109 cb 1007,3 hPa 0,0 l/m 1,6 km/h (1 Bft) W 270 0 min 0,000 mm 0,0 UV-I 0 W/m 1,2 C 2,2 C 3,2 km/h (1 Bft) 100,00 %
01.03.2024 03:57 2,2 C 4,4 C 5,6 C 6,7 C 6,1 C 93 % 106 cb 100 cb 111 cb 1007,3 hPa 0,0 l/m 1,6 km/h (1 Bft) W 270 0 min 0,000 mm 0,0 UV-I 0 W/m 1,2 C 2,2 C 1,6 km/h (1 Bft) 86,96 %
01.03.2024 03:56 2,2 C 4,4 C 5,6 C 6,7 C 6,1 C 93 % 105 cb 101 cb 108 cb 1007,3 hPa 0,0 l/m 3,2 km/h (1 Bft) W 270 0 min 0,000 mm 0,0 UV-I 0 W/m 1,2 C 2,2 C 4,8 km/h (1 Bft) 95,65 %
01.03.2024 03:55 2,2 C 4,4 C 5,6 C 6,7 C 6,1 C 93 % 104 cb 99 cb 110 cb 1007,3 hPa 0,0 l/m 3,2 km/h (1 Bft) W 270 0 min 0,000 mm 0,0 UV-I 0 W/m 1,2 C 2,2 C 4,8 km/h (1 Bft) 86,96 %
01.03.2024 03:54 2,2 C 4,4 C 5,6 C 6,7 C 6,1 C 93 % 109 cb 104 cb 114 cb 1007,3 hPa 0,0 l/m 3,2 km/h (1 Bft) W 270 0 min 0,000 mm 0,0 UV-I 0 W/m 1,2 C 2,2 C 4,8 km/h (1 Bft) 91,30 %
01.03.2024 03:53 2,2 C 4,4 C 5,6 C 6,7 C 6,1 C 93 % 104 cb 100 cb 109 cb 1007,3 hPa 0,0 l/m 3,2 km/h (1 Bft) W 270 0 min 0,000 mm 0,0 UV-I 0 W/m 1,2 C 2,2 C 3,2 km/h (1 Bft) 91,30 %
01.03.2024 03:52 2,2 C 4,4 C 5,6 C 6,7 C 6,1 C 93 % 106 cb 101 cb 115 cb 1007,3 hPa 0,0 l/m 3,2 km/h (1 Bft) W 270 0 min 0,000 mm 0,0 UV-I 0 W/m 1,2 C 2,2 C 4,8 km/h (1 Bft) 82,61 %
01.03.2024 03:51 2,2 C 4,4 C 5,6 C 6,7 C 6,1 C 93 % 106 cb 101 cb 111 cb 1007,4 hPa 0,0 l/m 4,8 km/h (1 Bft) W 270 0 min 0,000 mm 0,0 UV-I 0 W/m 1,2 C 1,0 C 4,8 km/h (1 Bft) 95,65 %
01.03.2024 03:50 2,2 C 4,4 C 5,6 C 6,7 C 6,1 C 93 % 107 cb 101 cb 112 cb 1007,3 hPa 0,0 l/m 3,2 km/h (1 Bft) W 270 0 min 0,000 mm 0,0 UV-I 0 W/m 1,2 C 2,2 C 4,8 km/h (1 Bft) 86,96 %
01.03.2024 03:49 2,2 C 4,4 C 5,6 C 6,7 C 6,1 C 93 % 108 cb 103 cb 112 cb 1007,4 hPa 0,0 l/m 1,6 km/h (1 Bft) W 270 0 min 0,000 mm 0,0 UV-I 0 W/m 1,2 C 2,2 C 3,2 km/h (1 Bft) 100,00 %
01.03.2024 03:48 2,2 C 4,4 C 5,6 C 6,7 C 6,1 C 93 % 109 cb 103 cb 113 cb 1007,3 hPa 0,0 l/m 1,6 km/h (1 Bft) W 270 0 min 0,000 mm 0,0 UV-I 0 W/m 1,2 C 2,2 C 3,2 km/h (1 Bft) 86,96 %
01.03.2024 03:47 2,2 C 4,4 C 5,6 C 6,7 C 6,1 C 93 % 105 cb 102 cb 114 cb 1007,4 hPa 0,0 l/m 1,6 km/h (1 Bft) W 270 0 min 0,000 mm 0,0 UV-I 0 W/m 1,2 C 2,2 C 3,2 km/h (1 Bft) 95,65 %
01.03.2024 03:46 2,2 C 4,4 C 5,6 C 6,7 C 6,1 C 93 % 105 cb 101 cb 111 cb 1007,4 hPa 0,0 l/m 1,6 km/h (1 Bft) W 270 0 min 0,000 mm 0,0 UV-I 0 W/m 1,2 C 2,2 C 1,6 km/h (1 Bft) 91,30 %
01.03.2024 03:45 2,2 C 4,4 C 5,6 C 6,7 C 6,1 C 93 % 106 cb 102 cb 111 cb 1007,5 hPa 0,0 l/m 1,6 km/h (1 Bft) W 270 0 min 0,000 mm 0,0 UV-I 0 W/m 1,2 C 2,2 C 3,2 km/h (1 Bft) 95,65 %
01.03.2024 03:44 2,2 C 4,4 C 5,6 C 6,7 C 6,1 C 93 % 105 cb 103 cb 112 cb 1007,5 hPa 0,0 l/m 3,2 km/h (1 Bft) W 270 0 min 0,000 mm 0,0 UV-I 0 W/m 1,2 C 2,2 C 3,2 km/h (1 Bft) 82,61 %
01.03.2024 03:43 2,2 C 4,4 C 5,6 C 6,7 C 6,1 C 93 % 107 cb 102 cb 111 cb 1007,5 hPa 0,0 l/m 3,2 km/h (1 Bft) W 270 0 min 0,000 mm 0,0 UV-I 0 W/m 1,2 C 2,2 C 4,8 km/h (1 Bft) 95,65 %
01.03.2024 03:42 2,2 C 4,4 C 5,6 C 6,7 C 6,1 C 93 % 106 cb 101 cb 112 cb 1007,5 hPa 0,0 l/m 1,6 km/h (1 Bft) W 270 0 min 0,000 mm 0,0 UV-I 0 W/m 1,2 C 2,2 C 4,8 km/h (1 Bft) 86,96 %
01.03.2024 03:41 2,2 C 4,4 C 5,6 C 6,7 C 6,1 C 93 % 107 cb 103 cb 112 cb 1007,5 hPa 0,0 l/m 0,0 km/h (0 Bft) N 0 0 min 0,000 mm 0,0 UV-I 0 W/m 1,2 C 2,2 C 0,0 km/h (0 Bft) 91,30 %
01.03.2024 03:40 2,3 C 4,4 C 5,6 C 6,7 C 6,1 C 93 % 106 cb 102 cb 113 cb 1007,5 hPa 0,0 l/m 0,0 km/h (0 Bft) N 0 0 min 0,000 mm 0,0 UV-I 0 W/m 1,3 C 2,3 C 0,0 km/h (0 Bft) 91,30 %
01.03.2024 03:39 2,3 C 4,4 C 5,6 C 6,7 C 6,1 C 93 % 106 cb 102 cb 113 cb 1007,5 hPa 0,0 l/m 0,0 km/h (0 Bft) N 0 0 min 0,000 mm 0,0 UV-I 0 W/m 1,3 C 2,3 C 0,0 km/h (0 Bft) 91,30 %
01.03.2024 03:38 2,3 C 4,4 C 5,6 C 6,7 C 6,1 C 93 % 114 cb 110 cb 120 cb 1007,5 hPa 0,0 l/m 0,0 km/h (0 Bft) N 0 0 min 0,000 mm 0,0 UV-I 0 W/m 1,3 C 2,3 C 0,0 km/h (0 Bft) 91,30 %
01.03.2024 03:37 2,3 C 4,4 C 5,6 C 6,7 C 6,1 C 93 % 111 cb 101 cb 114 cb 1007,5 hPa 0,0 l/m 0,0 km/h (0 Bft) N 0 0 min 0,000 mm 0,0 UV-I 0 W/m 1,3 C 2,3 C 0,0 km/h (0 Bft) 91,30 %
01.03.2024 03:36 2,3 C 4,4 C 5,6 C 6,7 C 6,1 C 93 % 111 cb 107 cb 116 cb 1007,5 hPa 0,0 l/m 0,0 km/h (0 Bft) N 0 0 min 0,000 mm 0,0 UV-I 0 W/m 1,3 C 2,3 C 0,0 km/h (0 Bft) 91,30 %
01.03.2024 03:35 2,3 C 4,4 C 5,6 C 6,7 C 6,1 C 93 % 117 cb 111 cb 116 cb 1007,5 hPa 0,0 l/m 0,0 km/h (0 Bft) N 0 0 min 0,000 mm 0,0 UV-I 0 W/m 1,3 C 2,3 C 0,0 km/h (0 Bft) 82,61 %
01.03.2024 03:34 2,3 C 4,4 C 5,6 C 6,7 C 6,1 C 93 % 115 cb 110 cb 118 cb 1007,5 hPa 0,0 l/m 0,0 km/h (0 Bft) W 270 0 min 0,000 mm 0,0 UV-I 0 W/m 1,3 C 2,3 C 1,6 km/h (1 Bft) 100,00 %
01.03.2024 03:33 2,3 C 4,4 C 5,6 C 6,7 C 6,1 C 93 % 116 cb 98 cb 107 cb 1007,6 hPa 0,0 l/m 1,6 km/h (1 Bft) W 270 0 min 0,000 mm 0,0 UV-I 0 W/m 1,3 C 2,3 C 3,2 km/h (1 Bft) 82,61 %
01.03.2024 03:32 2,3 C 4,4 C 5,6 C 6,7 C 6,1 C 93 % 110 cb 107 cb 119 cb 1007,6 hPa 0,0 l/m 1,6 km/h (1 Bft) W 270 0 min 0,000 mm 0,0 UV-I 0 W/m 1,3 C 2,3 C 3,2 km/h (1 Bft) 91,30 %
01.03.2024 03:31 2,4 C 4,4 C 5,6 C 6,7 C 6,1 C 93 % 119 cb 114 cb 122 cb 1007,5 hPa 0,0 l/m 1,6 km/h (1 Bft) W 270 0 min 0,000 mm 0,0 UV-I 0 W/m 1,4 C 2,4 C 3,2 km/h (1 Bft) 95,65 %
01.03.2024 03:30 2,4 C 4,4 C 5,6 C 6,7 C 6,1 C 93 % 119 cb 112 cb 126 cb 1007,5 hPa 0,0 l/m 3,2 km/h (1 Bft) W 270 0 min 0,000 mm 0,0 UV-I 0 W/m 1,4 C 2,4 C 4,8 km/h (1 Bft) 91,30 %
01.03.2024 03:29 2,4 C 4,4 C 5,6 C 6,7 C 6,1 C 93 % 119 cb 112 cb 123 cb 1007,5 hPa 0,0 l/m 3,2 km/h (1 Bft) W 270 0 min 0,000 mm 0,0 UV-I 0 W/m 1,4 C 2,4 C 4,8 km/h (1 Bft) 86,96 %
01.03.2024 03:28 2,4 C 4,4 C 5,6 C 6,7 C 6,1 C 93 % 120 cb 112 cb 123 cb 1007,5 hPa 0,0 l/m 3,2 km/h (1 Bft) W 270 0 min 0,000 mm 0,0 UV-I 0 W/m 1,4 C 2,4 C 4,8 km/h (1 Bft) 95,65 %
01.03.2024 03:27 2,4 C 4,4 C 5,6 C 6,7 C 6,1 C 93 % 110 cb 115 cb 126 cb 1007,6 hPa 0,0 l/m 3,2 km/h (1 Bft) W 270 0 min 0,000 mm 0,0 UV-I 0 W/m 1,4 C 2,4 C 4,8 km/h (1 Bft) 86,96 %
01.03.2024 03:26 2,4 C 4,4 C 5,6 C 6,7 C 6,1 C 93 % 110 cb 107 cb 119 cb 1007,6 hPa 0,0 l/m 3,2 km/h (1 Bft) W 270 0 min 0,000 mm 0,0 UV-I 0 W/m 1,4 C 2,4 C 4,8 km/h (1 Bft) 86,96 %
01.03.2024 03:25 2,4 C 5,0 C 5,6 C 6,7 C 6,1 C 93 % 111 cb 105 cb 117 cb 1007,6 hPa 0,0 l/m 3,2 km/h (1 Bft) W 270 0 min 0,000 mm 0,0 UV-I 0 W/m 1,4 C 2,4 C 4,8 km/h (1 Bft) 95,65 %
01.03.2024 03:24 2,4 C 5,0 C 5,6 C 6,7 C 6,1 C 93 % 115 cb 113 cb 104 cb 1007,6 hPa 0,0 l/m 1,6 km/h (1 Bft) W 270 0 min 0,000 mm 0,0 UV-I 0 W/m 1,4 C 2,4 C 3,2 km/h (1 Bft) 91,30 %
01.03.2024 03:23 2,3 C 5,0 C 5,6 C 6,7 C 6,1 C 93 % 105 cb 95 cb 104 cb 1007,6 hPa 0,0 l/m 3,2 km/h (1 Bft) W 270 0 min 0,000 mm 0,0 UV-I 0 W/m 1,3 C 2,3 C 3,2 km/h (1 Bft) 91,30 %
01.03.2024 03:22 2,3 C 5,0 C 6,1 C 6,7 C 6,1 C 93 % 104 cb 99 cb 106 cb 1007,6 hPa 0,0 l/m 3,2 km/h (1 Bft) W 270 0 min 0,000 mm 0,0 UV-I 0 W/m 1,3 C 2,3 C 4,8 km/h (1 Bft) 91,30 %
01.03.2024 03:21 2,3 C 5,0 C 6,1 C 6,7 C 6,1 C 93 % 107 cb 101 cb 111 cb 1007,7 hPa 0,0 l/m 1,6 km/h (1 Bft) W 270 0 min 0,000 mm 0,0 UV-I 0 W/m 1,3 C 2,3 C 3,2 km/h (1 Bft) 91,30 %
01.03.2024 03:20 2,3 C 5,0 C 6,1 C 6,7 C 6,1 C 93 % 101 cb 99 cb 103 cb 1007,7 hPa 0,0 l/m 3,2 km/h (1 Bft) W 270 0 min 0,000 mm 0,0 UV-I 0 W/m 1,3 C 2,3 C 4,8 km/h (1 Bft) 91,30 %
01.03.2024 03:19 2,3 C 5,0 C 6,1 C 6,7 C 6,1 C 93 % 101 cb 95 cb 99 cb 1007,8 hPa 0,0 l/m 3,2 km/h (1 Bft) W 270 0 min 0,000 mm 0,0 UV-I 0 W/m 1,3 C 2,3 C 4,8 km/h (1 Bft) 86,96 %
01.03.2024 03:18 2,3 C 5,0 C 6,1 C 6,7 C 6,1 C 93 % 99 cb 96 cb 107 cb 1007,7 hPa 0,0 l/m 3,2 km/h (1 Bft) W 270 0 min 0,000 mm 0,0 UV-I 0 W/m 1,3 C 2,3 C 3,2 km/h (1 Bft) 95,65 %
01.03.2024 03:17 2,3 C 5,0 C 6,1 C 6,7 C 6,1 C 93 % 112 cb 105 cb 114 cb 1007,7 hPa 0,0 l/m 1,6 km/h (1 Bft) W 270 0 min 0,000 mm 0,0 UV-I 0 W/m 1,3 C 2,3 C 3,2 km/h (1 Bft) 91,30 %
01.03.2024 03:16 2,3 C 5,0 C 6,1 C 6,7 C 6,1 C 93 % 106 cb 100 cb 109 cb 1007,7 hPa 0,0 l/m 3,2 km/h (1 Bft) W 270 0 min 0,000 mm 0,0 UV-I 0 W/m 1,3 C 2,3 C 4,8 km/h (1 Bft) 86,96 %
01.03.2024 03:15 2,4 C 5,0 C 6,1 C 6,7 C 6,1 C 93 % 111 cb 105 cb 117 cb 1007,7 hPa 0,0 l/m 3,2 km/h (1 Bft) W 270 0 min 0,000 mm 0,0 UV-I 0 W/m 1,4 C 2,4 C 4,8 km/h (1 Bft) 95,65 %
01.03.2024 03:14 2,4 C 5,0 C 6,1 C 6,7 C 6,1 C 93 % 123 cb 114 cb 123 cb 1007,7 hPa 0,0 l/m 3,2 km/h (1 Bft) W 270 0 min 0,000 mm 0,0 UV-I 0 W/m 1,4 C 2,4 C 4,8 km/h (1 Bft) 91,30 %
01.03.2024 03:13 2,4 C 5,0 C 6,1 C 6,7 C 6,1 C 93 % 123 cb 115 cb 129 cb 1007,7 hPa 0,0 l/m 4,8 km/h (1 Bft) W 270 0 min 0,000 mm 0,0 UV-I 0 W/m 1,4 C 1,2 C 6,4 km/h (2 Bft) 91,30 %
01.03.2024 03:12 2,4 C 5,0 C 6,1 C 6,7 C 6,1 C 93 % 126 cb 115 cb 126 cb 1007,7 hPa 0,0 l/m 3,2 km/h (1 Bft) W 270 0 min 0,000 mm 0,0 UV-I 0 W/m 1,4 C 2,4 C 6,4 km/h (2 Bft) 91,30 %
01.03.2024 03:11 2,4 C 5,0 C 6,1 C 6,7 C 6,1 C 93 % 122 cb 114 cb 125 cb 1007,6 hPa 0,0 l/m 3,2 km/h (1 Bft) W 270 0 min 0,000 mm 0,0 UV-I 0 W/m 1,4 C 2,4 C 4,8 km/h (1 Bft) 86,96 %
01.03.2024 03:10 2,4 C 5,0 C 6,1 C 6,7 C 6,1 C 93 % 123 cb 115 cb 128 cb 1007,7 hPa 0,0 l/m 3,2 km/h (1 Bft) W 270 0 min 0,000 mm 0,0 UV-I 0 W/m 1,4 C 2,4 C 4,8 km/h (1 Bft) 86,96 %
01.03.2024 03:09 2,4 C 5,0 C 6,1 C 6,7 C 6,1 C 93 % 123 cb 117 cb 127 cb 1007,6 hPa 0,0 l/m 1,6 km/h (1 Bft) W 270 0 min 0,000 mm 0,0 UV-I 0 W/m 1,4 C 2,4 C 3,2 km/h (1 Bft) 100,00 %
01.03.2024 03:08 2,4 C 5,0 C 6,1 C 6,7 C 6,1 C 93 % 123 cb 117 cb 126 cb 1007,7 hPa 0,0 l/m 1,6 km/h (1 Bft) W 270 0 min 0,000 mm 0,0 UV-I 0 W/m 1,4 C 2,4 C 3,2 km/h (1 Bft) 86,96 %
01.03.2024 03:07 2,4 C 5,0 C 6,1 C 6,7 C 6,1 C 93 % 123 cb 115 cb 126 cb 1007,7 hPa 0,0 l/m 1,6 km/h (1 Bft) W 270 0 min 0,000 mm 0,0 UV-I 0 W/m 1,4 C 2,4 C 3,2 km/h (1 Bft) 91,30 %
01.03.2024 03:06 2,4 C 5,0 C 6,1 C 6,7 C 6,1 C 93 % 126 cb 119 cb 131 cb 1007,7 hPa 0,0 l/m 1,6 km/h (1 Bft) W 270 0 min 0,000 mm 0,0 UV-I 0 W/m 1,4 C 2,4 C 3,2 km/h (1 Bft) 91,30 %
01.03.2024 03:05 2,4 C 5,0 C 6,1 C 6,7 C 6,1 C 93 % 120 cb 111 cb 123 cb 1007,7 hPa 0,0 l/m 1,6 km/h (1 Bft) W 270 0 min 0,000 mm 0,0 UV-I 0 W/m 1,4 C 2,4 C 4,8 km/h (1 Bft) 91,30 %
01.03.2024 03:04 2,4 C 5,0 C 6,1 C 6,7 C 6,1 C 93 % 124 cb 117 cb 128 cb 1007,7 hPa 0,0 l/m 3,2 km/h (1 Bft) W 270 0 min 0,000 mm 0,0 UV-I 0 W/m 1,4 C 2,4 C 4,8 km/h (1 Bft) 86,96 %
01.03.2024 03:03 2,4 C 5,0 C 6,1 C 6,7 C 6,1 C 93 % 123 cb 115 cb 128 cb 1007,7 hPa 0,0 l/m 4,8 km/h (1 Bft) W 270 0 min 0,000 mm 0,0 UV-I 0 W/m 1,4 C 1,2 C 6,4 km/h (2 Bft) 95,65 %
01.03.2024 03:02 2,4 C 5,0 C 6,1 C 6,7 C 6,1 C 93 % 125 cb 117 cb 127 cb 1007,7 hPa 0,0 l/m 4,8 km/h (1 Bft) W 270 0 min 0,000 mm 0,0 UV-I 0 W/m 1,4 C 1,2 C 6,4 km/h (2 Bft) 86,96 %
01.03.2024 03:01 2,4 C 5,0 C 6,1 C 6,7 C 6,1 C 93 % 126 cb 118 cb 129 cb 1007,7 hPa 0,0 l/m 4,8 km/h (1 Bft) W 270 0 min 0,000 mm 0,0 UV-I 0 W/m 1,4 C 1,2 C 4,8 km/h (1 Bft) 91,30 %
01.03.2024 03:00 2,4 C 5,0 C 6,1 C 6,7 C 6,1 C 93 % 124 cb 115 cb 125 cb 1007,7 hPa 0,0 l/m 1,6 km/h (1 Bft) W 270 0 min 0,000 mm 0,0 UV-I 0 W/m 1,4 C 2,4 C 3,2 km/h (1 Bft) 95,65 %
01.03.2024 02:59 2,5 C 5,0 C 6,1 C 6,7 C 6,1 C 93 % 123 cb 116 cb 126 cb 1007,7 hPa 0,0 l/m 0,0 km/h (0 Bft) N 0 0 min 0,000 mm 0,0 UV-I 0 W/m 1,5 C 2,5 C 0,0 km/h (0 Bft) 86,96 %
01.03.2024 02:58 2,5 C 5,0 C 6,1 C 6,7 C 6,1 C 93 % 123 cb 117 cb 126 cb 1007,7 hPa 0,0 l/m 0,0 km/h (0 Bft) W 270 0 min 0,000 mm 0,0 UV-I 0 W/m 1,5 C 2,5 C 3,2 km/h (1 Bft) 95,65 %
01.03.2024 02:57 2,4 C 5,0 C 6,1 C 6,7 C 6,1 C 93 % 123 cb 117 cb 134 cb 1007,8 hPa 0,0 l/m 1,6 km/h (1 Bft) W 270 0 min 0,000 mm 0,0 UV-I 0 W/m 1,4 C 2,4 C 3,2 km/h (1 Bft) 91,30 %
01.03.2024 02:56 2,4 C 5,0 C 6,1 C 6,7 C 6,1 C 93 % 126 cb 117 cb 129 cb 1007,8 hPa 0,0 l/m 1,6 km/h (1 Bft) W 270 0 min 0,000 mm 0,0 UV-I 0 W/m 1,4 C 2,4 C 3,2 km/h (1 Bft) 91,30 %
01.03.2024 02:55 2,5 C 5,0 C 6,1 C 6,7 C 6,1 C 93 % 128 cb 119 cb 131 cb 1007,8 hPa 0,0 l/m 1,6 km/h (1 Bft) W 270 0 min 0,000 mm 0,0 UV-I 0 W/m 1,5 C 2,5 C 3,2 km/h (1 Bft) 86,96 %
01.03.2024 02:54 2,5 C 5,0 C 6,1 C 6,7 C 6,1 C 93 % 132 cb 123 cb 133 cb 1007,7 hPa 0,0 l/m 3,2 km/h (1 Bft) W 270 0 min 0,000 mm 0,0 UV-I 0 W/m 1,5 C 2,5 C 4,8 km/h (1 Bft) 95,65 %
01.03.2024 02:53 2,5 C 5,0 C 6,1 C 6,7 C 6,1 C 93 % 133 cb 125 cb 137 cb 1007,8 hPa 0,0 l/m 3,2 km/h (1 Bft) W 270 0 min 0,000 mm 0,0 UV-I 0 W/m 1,5 C 2,5 C 3,2 km/h (1 Bft) 86,96 %
01.03.2024 02:52 2,6 C 5,0 C 6,1 C 6,7 C 6,1 C 93 % 129 cb 121 cb 134 cb 1007,8 hPa 0,0 l/m 1,6 km/h (1 Bft) W 270 0 min 0,000 mm 0,0 UV-I 0 W/m 1,6 C 2,6 C 3,2 km/h (1 Bft) 95,65 %
01.03.2024 02:51 2,6 C 5,0 C 6,1 C 6,7 C 6,1 C 93 % 132 cb 123 cb 136 cb 1007,9 hPa 0,0 l/m 3,2 km/h (1 Bft) W 270 0 min 0,000 mm 0,0 UV-I 0 W/m 1,6 C 2,6 C 4,8 km/h (1 Bft) 91,30 %
01.03.2024 02:50 2,6 C 5,0 C 6,1 C 6,7 C 6,1 C 93 % 131 cb 122 cb 135 cb 1007,8 hPa 0,0 l/m 3,2 km/h (1 Bft) W 270 0 min 0,000 mm 0,0 UV-I 0 W/m 1,6 C 2,6 C 4,8 km/h (1 Bft) 86,96 %
01.03.2024 02:49 2,6 C 5,0 C 6,1 C 6,7 C 6,1 C 93 % 128 cb 121 cb 133 cb 1007,9 hPa 0,0 l/m 3,2 km/h (1 Bft) W 270 0 min 0,000 mm 0,0 UV-I 0 W/m 1,6 C 2,6 C 4,8 km/h (1 Bft) 86,96 %
01.03.2024 02:48 2,6 C 5,0 C 6,1 C 6,7 C 6,1 C 93 % 128 cb 118 cb 130 cb 1007,9 hPa 0,0 l/m 1,6 km/h (1 Bft) W 270 0 min 0,000 mm 0,0 UV-I 0 W/m 1,6 C 2,6 C 3,2 km/h (1 Bft) 86,96 %
01.03.2024 02:47 2,6 C 5,0 C 6,1 C 6,7 C 6,1 C 93 % 126 cb 118 cb 132 cb 1007,9 hPa 0,0 l/m 0,0 km/h (0 Bft) W 270 0 min 0,000 mm 0,0 UV-I 0 W/m 1,6 C 2,6 C 1,6 km/h (1 Bft) 95,65 %
01.03.2024 02:46 2,6 C 5,0 C 6,1 C 6,7 C 6,1 C 93 % 126 cb 119 cb 132 cb 1007,9 hPa 0,0 l/m 1,6 km/h (1 Bft) W 270 0 min 0,000 mm 0,0 UV-I 0 W/m 1,6 C 2,6 C 3,2 km/h (1 Bft) 95,65 %
01.03.2024 02:45 2,6 C 5,0 C 6,1 C 6,7 C 6,1 C 93 % 128 cb 119 cb 132 cb 1007,9 hPa 0,0 l/m 1,6 km/h (1 Bft) W 270 0 min 0,000 mm 0,0 UV-I 0 W/m 1,6 C 2,6 C 3,2 km/h (1 Bft) 91,30 %
01.03.2024 02:44 2,6 C 5,0 C 6,1 C 6,7 C 6,1 C 93 % 127 cb 121 cb 135 cb 1007,9 hPa 0,0 l/m 1,6 km/h (1 Bft) W 270 0 min 0,000 mm 0,0 UV-I 0 W/m 1,6 C 2,6 C 1,6 km/h (1 Bft) 91,30 %
01.03.2024 02:43 2,6 C 5,0 C 6,1 C 6,7 C 6,1 C 93 % 128 cb 120 cb 134 cb 1007,9 hPa 0,0 l/m 1,6 km/h (1 Bft) W 270 0 min 0,000 mm 0,0 UV-I 0 W/m 1,6 C 2,6 C 3,2 km/h (1 Bft) 95,65 %
01.03.2024 02:42 2,6 C 5,0 C 6,1 C 6,7 C 6,1 C 93 % 129 cb 121 cb 132 cb 1007,9 hPa 0,0 l/m 1,6 km/h (1 Bft) W 270 0 min 0,000 mm 0,0 UV-I 0 W/m 1,6 C 2,6 C 3,2 km/h (1 Bft) 91,30 %
01.03.2024 02:41 2,6 C 5,0 C 6,1 C 6,7 C 6,1 C 93 % 126 cb 117 cb 130 cb 1007,9 hPa 0,0 l/m 1,6 km/h (1 Bft) W 270 0 min 0,000 mm 0,0 UV-I 0 W/m 1,6 C 2,6 C 3,2 km/h (1 Bft) 95,65 %
01.03.2024 02:40 2,6 C 5,0 C 6,1 C 6,7 C 6,1 C 93 % 126 cb 117 cb 131 cb 1008,0 hPa 0,0 l/m 3,2 km/h (1 Bft) W 270 0 min 0,000 mm 0,0 UV-I 0 W/m 1,6 C 2,6 C 4,8 km/h (1 Bft) 91,30 %
01.03.2024 02:39 2,6 C 5,0 C 6,1 C 6,7 C 6,1 C 93 % 124 cb 117 cb 129 cb 1008,0 hPa 0,0 l/m 3,2 km/h (1 Bft) W 270 0 min 0,000 mm 0,0 UV-I 0 W/m 1,6 C 2,6 C 4,8 km/h (1 Bft) 95,65 %
01.03.2024 02:38 2,6 C 5,0 C 6,1 C 6,7 C 6,1 C 93 % 126 cb 121 cb 133 cb 1008,0 hPa 0,0 l/m 4,8 km/h (1 Bft) W 270 0 min 0,000 mm 0,0 UV-I 0 W/m 1,6 C 1,4 C 4,8 km/h (1 Bft) 95,65 %
01.03.2024 02:37 2,6 C 5,0 C 6,1 C 6,7 C 6,1 C 93 % 127 cb 119 cb 132 cb 1008,0 hPa 0,0 l/m 3,2 km/h (1 Bft) W 270 0 min 0,000 mm 0,0 UV-I 0 W/m 1,6 C 2,6 C 4,8 km/h (1 Bft) 95,65 %
01.03.2024 02:36 2,7 C 5,0 C 6,1 C 6,7 C 6,1 C 93 % 132 cb 123 cb 135 cb 1008,0 hPa 0,0 l/m 3,2 km/h (1 Bft) W 270 0 min 0,000 mm 0,0 UV-I 0 W/m 1,7 C 2,7 C 4,8 km/h (1 Bft) 91,30 %
01.03.2024 02:35 2,6 C 5,0 C 6,1 C 6,7 C 6,1 C 93 % 126 cb 118 cb 132 cb 1007,9 hPa 0,0 l/m 3,2 km/h (1 Bft) W 270 0 min 0,000 mm 0,0 UV-I 0 W/m 1,6 C 2,6 C 3,2 km/h (1 Bft) 95,65 %
01.03.2024 02:34 2,6 C 5,0 C 6,1 C 6,7 C 6,1 C 93 % 127 cb 120 cb 133 cb 1008,0 hPa 0,0 l/m 1,6 km/h (1 Bft) W 270 0 min 0,000 mm 0,0 UV-I 0 W/m 1,6 C 2,6 C 3,2 km/h (1 Bft) 95,65 %
01.03.2024 02:33 2,7 C 5,0 C 6,1 C 6,7 C 6,1 C 93 % 129 cb 120 cb 134 cb 1008,1 hPa 0,0 l/m 1,6 km/h (1 Bft) W 270 0 min 0,000 mm 0,0 UV-I 0 W/m 1,7 C 2,7 C 3,2 km/h (1 Bft) 86,96 %
01.03.2024 02:32 2,7 C 5,0 C 6,1 C 6,7 C 6,1 C 93 % 132 cb 121 cb 133 cb 1008,0 hPa 0,0 l/m 1,6 km/h (1 Bft) W 270 0 min 0,000 mm 0,0 UV-I 0 W/m 1,7 C 2,7 C 3,2 km/h (1 Bft) 100,00 %
01.03.2024 02:31 2,7 C 5,0 C 6,1 C 6,7 C 6,1 C 93 % 129 cb 121 cb 136 cb 1008,1 hPa 0,0 l/m 1,6 km/h (1 Bft) W 270 0 min 0,000 mm 0,0 UV-I 0 W/m 1,7 C 2,7 C 1,6 km/h (1 Bft) 86,96 %
01.03.2024 02:30 2,6 C 5,0 C 6,1 C 6,7 C 6,1 C 93 % 126 cb 119 cb 131 cb 1008,0 hPa 0,0 l/m 1,6 km/h (1 Bft) W 270 0 min 0,000 mm 0,0 UV-I 0 W/m 1,6 C 2,6 C 3,2 km/h (1 Bft) 95,65 %
01.03.2024 02:29 2,7 C 5,0 C 6,1 C 6,7 C 6,1 C 93 % 127 cb 118 cb 132 cb 1008,1 hPa 0,0 l/m 1,6 km/h (1 Bft) W 270 0 min 0,000 mm 0,0 UV-I 0 W/m 1,7 C 2,7 C 3,2 km/h (1 Bft) 95,65 %
01.03.2024 02:28 2,7 C 5,0 C 6,1 C 6,7 C 6,1 C 93 % 127 cb 119 cb 132 cb 1008,0 hPa 0,0 l/m 1,6 km/h (1 Bft) W 270 0 min 0,000 mm 0,0 UV-I 0 W/m 1,7 C 2,7 C 3,2 km/h (1 Bft) 95,65 %
01.03.2024 02:27 2,7 C 5,0 C 6,1 C 6,7 C 6,1 C 93 % 127 cb 119 cb 131 cb 1008,1 hPa 0,0 l/m 3,2 km/h (1 Bft) W 270 0 min 0,000 mm 0,0 UV-I 0 W/m 1,7 C 2,7 C 3,2 km/h (1 Bft) 91,30 %
01.03.2024 02:26 2,7 C 5,0 C 6,1 C 6,7 C 6,1 C 93 % 126 cb 119 cb 131 cb 1008,0 hPa 0,0 l/m 3,2 km/h (1 Bft) W 270 0 min 0,000 mm 0,0 UV-I 0 W/m 1,7 C 2,7 C 4,8 km/h (1 Bft) 100,00 %
01.03.2024 02:25 2,7 C 5,0 C 6,1 C 6,7 C 6,1 C 93 % 124 cb 119 cb 131 cb 1008,1 hPa 0,0 l/m 1,6 km/h (1 Bft) W 270 0 min 0,000 mm 0,0 UV-I 0 W/m 1,7 C 2,7 C 3,2 km/h (1 Bft) 91,30 %
01.03.2024 02:24 2,7 C 5,0 C 6,1 C 6,7 C 6,1 C 93 % 126 cb 119 cb 131 cb 1008,1 hPa 0,0 l/m 1,6 km/h (1 Bft) W 270 0 min 0,000 mm 0,0 UV-I 0 W/m 1,7 C 2,7 C 3,2 km/h (1 Bft) 91,30 %
01.03.2024 02:23 2,7 C 5,0 C 6,1 C 6,7 C 6,1 C 93 % 127 cb 119 cb 131 cb 1008,1 hPa 0,0 l/m 1,6 km/h (1 Bft) W 270 0 min 0,000 mm 0,0 UV-I 0 W/m 1,7 C 2,7 C 1,6 km/h (1 Bft) 95,65 %
01.03.2024 02:22 2,7 C 5,0 C 6,1 C 6,7 C 6,1 C 93 % 123 cb 116 cb 127 cb 1008,1 hPa 0,0 l/m 1,6 km/h (1 Bft) W 270 0 min 0,000 mm 0,0 UV-I 0 W/m 1,7 C 2,7 C 3,2 km/h (1 Bft) 95,65 %
01.03.2024 02:21 2,8 C 5,0 C 6,1 C 6,7 C 6,1 C 93 % 126 cb 117 cb 130 cb 1008,1 hPa 0,0 l/m 1,6 km/h (1 Bft) W 270 0 min 0,000 mm 0,0 UV-I 0 W/m 1,8 C 2,8 C 1,6 km/h (1 Bft) 95,65 %
01.03.2024 02:20 2,8 C 5,0 C 6,1 C 6,7 C 6,1 C 92 % 128 cb 119 cb 132 cb 1008,1 hPa 0,0 l/m 1,6 km/h (1 Bft) W 270 0 min 0,000 mm 0,0 UV-I 0 W/m 1,6 C 2,8 C 3,2 km/h (1 Bft) 95,65 %
01.03.2024 02:19 2,8 C 5,0 C 6,1 C 6,7 C 6,1 C 93 % 129 cb 123 cb 134 cb 1008,1 hPa 0,0 l/m 1,6 km/h (1 Bft) W 270 0 min 0,000 mm 0,0 UV-I 0 W/m 1,8 C 2,8 C 3,2 km/h (1 Bft) 95,65 %
01.03.2024 02:18 2,8 C 5,0 C 6,1 C 6,7 C 6,1 C 92 % 129 cb 120 cb 131 cb 1008,2 hPa 0,0 l/m 1,6 km/h (1 Bft) W 270 0 min 0,000 mm 0,0 UV-I 0 W/m 1,6 C 2,8 C 3,2 km/h (1 Bft) 95,65 %
01.03.2024 02:17 2,8 C 5,0 C 6,1 C 6,7 C 6,1 C 92 % 123 cb 117 cb 128 cb 1008,2 hPa 0,0 l/m 1,6 km/h (1 Bft) W 270 0 min 0,000 mm 0,0 UV-I 0 W/m 1,6 C 2,8 C 3,2 km/h (1 Bft) 95,65 %
01.03.2024 02:16 2,8 C 5,0 C 6,1 C 6,7 C 6,1 C 92 % 124 cb 117 cb 128 cb 1008,2 hPa 0,0 l/m 3,2 km/h (1 Bft) W 270 0 min 0,000 mm 0,0 UV-I 0 W/m 1,6 C 2,8 C 4,8 km/h (1 Bft) 95,65 %
01.03.2024 02:15 2,8 C 5,0 C 6,1 C 6,7 C 6,1 C 92 % 123 cb 117 cb 128 cb 1008,1 hPa 0,0 l/m 3,2 km/h (1 Bft) W 270 0 min 0,000 mm 0,0 UV-I 0 W/m 1,6 C 2,8 C 4,8 km/h (1 Bft) 95,65 %
01.03.2024 02:14 2,8 C 5,0 C 6,1 C 6,7 C 6,1 C 92 % 123 cb 116 cb 129 cb 1008,1 hPa 0,0 l/m 3,2 km/h (1 Bft) W 270 0 min 0,000 mm 0,0 UV-I 0 W/m 1,6 C 2,8 C 4,8 km/h (1 Bft) 91,30 %
01.03.2024 02:13 2,8 C 5,0 C 6,1 C 6,7 C 6,1 C 92 % 123 cb 117 cb 128 cb 1008,1 hPa 0,0 l/m 3,2 km/h (1 Bft) W 270 0 min 0,000 mm 0,0 UV-I 0 W/m 1,6 C 2,8 C 4,8 km/h (1 Bft) 95,65 %
01.03.2024 02:12 2,8 C 5,0 C 6,1 C 6,7 C 6,1 C 92 % 124 cb 117 cb 129 cb 1008,1 hPa 0,0 l/m 4,8 km/h (1 Bft) W 270 0 min 0,000 mm 0,0 UV-I 0 W/m 1,6 C 1,7 C 6,4 km/h (2 Bft) 91,30 %
01.03.2024 02:11 2,8 C 5,0 C 6,1 C 6,7 C 6,1 C 92 % 124 cb 117 cb 129 cb 1008,1 hPa 0,0 l/m 3,2 km/h (1 Bft) W 270 0 min 0,000 mm 0,0 UV-I 0 W/m 1,6 C 2,8 C 4,8 km/h (1 Bft) 100,00 %
01.03.2024 02:10 2,9 C 5,0 C 6,1 C 6,7 C 6,1 C 92 % 126 cb 117 cb 129 cb 1008,2 hPa 0,0 l/m 4,8 km/h (1 Bft) W 270 0 min 0,000 mm 0,0 UV-I 0 W/m 1,7 C 1,8 C 4,8 km/h (1 Bft) 95,65 %
01.03.2024 02:09 2,9 C 5,0 C 6,1 C 6,7 C 6,1 C 92 % 122 cb 115 cb 126 cb 1008,2 hPa 0,0 l/m 1,6 km/h (1 Bft) W 270 0 min 0,000 mm 0,0 UV-I 0 W/m 1,7 C 2,9 C 4,8 km/h (1 Bft) 91,30 %
01.03.2024 02:08 2,9 C 5,0 C 6,1 C 6,7 C 6,1 C 92 % 122 cb 115 cb 126 cb 1008,2 hPa 0,0 l/m 3,2 km/h (1 Bft) W 270 0 min 0,000 mm 0,0 UV-I 0 W/m 1,7 C 2,9 C 4,8 km/h (1 Bft) 100,00 %
01.03.2024 02:07 2,9 C 5,0 C 6,1 C 6,7 C 6,1 C 93 % 123 cb 115 cb 128 cb 1008,2 hPa 0,0 l/m 4,8 km/h (1 Bft) W 270 0 min 0,000 mm 0,0 UV-I 0 W/m 1,9 C 1,8 C 6,4 km/h (2 Bft) 95,65 %
01.03.2024 02:06 2,9 C 5,0 C 6,1 C 6,7 C 6,1 C 93 % 123 cb 115 cb 127 cb 1008,2 hPa 0,0 l/m 4,8 km/h (1 Bft) W 270 0 min 0,000 mm 0,0 UV-I 0 W/m 1,9 C 1,8 C 4,8 km/h (1 Bft) 91,30 %
01.03.2024 02:05 2,9 C 5,0 C 6,1 C 6,7 C 6,1 C 93 % 122 cb 115 cb 127 cb 1008,3 hPa 0,0 l/m 3,2 km/h (1 Bft) W 270 0 min 0,000 mm 0,0 UV-I 0 W/m 1,9 C 2,9 C 4,8 km/h (1 Bft) 86,96 %
01.03.2024 02:04 2,9 C 5,0 C 6,1 C 6,7 C 6,1 C 92 % 123 cb 117 cb 127 cb 1008,3 hPa 0,0 l/m 1,6 km/h (1 Bft) W 270 0 min 0,000 mm 0,0 UV-I 0 W/m 1,7 C 2,9 C 3,2 km/h (1 Bft) 95,65 %
01.03.2024 02:03 2,9 C 5,0 C 6,1 C 6,7 C 6,1 C 93 % 122 cb 115 cb 124 cb 1008,4 hPa 0,0 l/m 3,2 km/h (1 Bft) W 270 0 min 0,000 mm 0,0 UV-I 0 W/m 1,9 C 2,9 C 4,8 km/h (1 Bft) 95,65 %
01.03.2024 02:02 2,9 C 5,0 C 6,1 C 6,7 C 6,1 C 93 % 126 cb 117 cb 128 cb 1008,3 hPa 0,0 l/m 3,2 km/h (1 Bft) W 270 0 min 0,000 mm 0,0 UV-I 0 W/m 1,9 C 2,9 C 4,8 km/h (1 Bft) 95,65 %
01.03.2024 02:01 2,9 C 5,0 C 6,1 C 6,7 C 6,1 C 93 % 123 cb 116 cb 128 cb 1008,3 hPa 0,0 l/m 4,8 km/h (1 Bft) W 270 0 min 0,000 mm 0,0 UV-I 0 W/m 1,9 C 1,8 C 4,8 km/h (1 Bft) 95,65 %
01.03.2024 02:00 2,9 C 5,0 C 6,1 C 6,7 C 6,1 C 93 % 125 cb 119 cb 131 cb 1008,3 hPa 0,0 l/m 3,2 km/h (1 Bft) W 270 0 min 0,000 mm 0,0 UV-I 0 W/m 1,9 C 2,9 C 3,2 km/h (1 Bft) 86,96 %
_ Min-Zeit 06:47 05:49 06:04 09:02 02:00 11:34 00:14 00:14 00:14 06:05 - 02:47 - - - - - - 04:33 08:15 02:59 13:17
Minimum _ 1,8 C 3,9 C 5,0 C 5,6 C 6,1 C 84 % 88 cb 81 cb 80 cb 1006,9 hPa - 0,0 km/h (0 Bft) - - - - - - 0,9 C 0,1 C 0,0 km/h (0 Bft) 4,35 %
_ Max-Zeit 10:55 11:32 11:36 02:00 02:00 10:02 10:16 10:16 10:16 00:06 10:15 11:11 - - 09:40 11:00 11:23 10:59 10:38 11:24 11:42 02:08
Maximum _ 9,3 C 11,7 C 7,2 C 6,7 C 6,1 C 96 % 200 cb 200 cb 200 cb 1009,9 hPa 0,2 l/m 17,7 km/h
W-NW (3 Bft)
- - 1 min 0,203 mm 1,1 UV-I 577 W/m 7,9 C 9,0 C 25,7 km/h
NW (4 Bft)
100,00 %
Durchschnitt _ 5,6 C 6,1 C 6,3 C 6,3 C 6,1 C 91 % 149 cb 135 cb 138 cb 1008,4 hPa #0,4 l/m 3,6 km/h (1 Bft) NW - #0 min. #0,000 mm 0,0 UV-I 0 W/m 4,3 C 5,2 C 5,5 km/h (1 Bft) 93,68 %